<?xml version='1.0' encoding='UTF-8'?><gpx version="1.1" creator="JPX - https://github.com/jenetics/jpx" xmlns="http://www.topografix.com/GPX/1/1"><trk><trkseg><trkpt lat="41.66765663185292" lon="12.747138826970914"><ele>233.00000000000003</ele><time>2026-04-06T08:28:13.999Z</time></trkpt><trkpt lat="41.66772909336835" lon="12.747192051185408"><ele>233.0</ele><time>2026-04-06T08:31:15Z</time></trkpt><trkpt lat="41.667793336535794" lon="12.747222220742103"><ele>233.0</ele><time>2026-04-06T08:31:18Z</time></trkpt><trkpt lat="41.667860396698224" lon="12.747228007591799"><ele>233.0</ele><time>2026-04-06T08:31:21Z</time></trkpt><trkpt lat="41.667932088063615" lon="12.7472281128301"><ele>233.00000000000003</ele><time>2026-04-06T08:31:23Z</time></trkpt><trkpt lat="41.66801396153732" lon="12.74721402592936"><ele>233.0</ele><time>2026-04-06T08:31:25Z</time></trkpt><trkpt lat="41.66809448861111" lon="12.747211753359402"><ele>233.00000000000003</ele><time>2026-04-06T08:31:27Z</time></trkpt><trkpt lat="41.66817472596406" lon="12.747209587445468"><ele>233.0</ele><time>2026-04-06T08:31:29Z</time></trkpt><trkpt lat="41.66824674062348" lon="12.747206206507412"><ele>233.0</ele><time>2026-04-06T08:31:31Z</time></trkpt><trkpt lat="41.66832076075868" lon="12.747200869869127"><ele>233.0</ele><time>2026-04-06T08:31:33Z</time></trkpt><trkpt lat="41.66838492157817" lon="12.7471572155283"><ele>233.00000000000003</ele><time>2026-04-06T08:31:36Z</time></trkpt><trkpt lat="41.66840088116509" lon="12.74702926795523"><ele>233.0</ele><time>2026-04-06T08:31:39Z</time></trkpt><trkpt lat="41.66839777171849" lon="12.746925318746719"><ele>233.8</ele><time>2026-04-06T08:31:41Z</time></trkpt><trkpt lat="41.66840247150634" lon="12.746795393111542"><ele>234.60000000000002</ele><time>2026-04-06T08:31:43Z</time></trkpt><trkpt lat="41.66838033761732" lon="12.74665956116588"><ele>235.39999999999998</ele><time>2026-04-06T08:31:45Z</time></trkpt><trkpt lat="41.66840575204896" lon="12.746509216152214"><ele>236.2</ele><time>2026-04-06T08:31:47Z</time></trkpt><trkpt lat="41.66839663320789" lon="12.746358567881037"><ele>237.0</ele><time>2026-04-06T08:31:49Z</time></trkpt><trkpt lat="41.66838731771791" lon="12.746214570061314"><ele>237.0</ele><time>2026-04-06T08:31:51Z</time></trkpt><trkpt lat="41.66836064484827" lon="12.746057386355178"><ele>237.0</ele><time>2026-04-06T08:31:53Z</time></trkpt><trkpt lat="41.66836155504642" lon="12.745967740581023"><ele>237.0</ele><time>2026-04-06T08:31:54Z</time></trkpt><trkpt lat="41.66835151094951" lon="12.74587865016932"><ele>237.0</ele><time>2026-04-06T08:31:55Z</time></trkpt><trkpt lat="41.6683463191259" lon="12.745786685114108"><ele>237.0</ele><time>2026-04-06T08:31:56Z</time></trkpt><trkpt lat="41.66834169719466" lon="12.745695998401109"><ele>237.0</ele><time>2026-04-06T08:31:57Z</time></trkpt><trkpt lat="41.66833729327503" lon="12.745607492179372"><ele>237.2</ele><time>2026-04-06T08:31:58Z</time></trkpt><trkpt lat="41.6683287900937" lon="12.74545723252117"><ele>237.39999999999998</ele><time>2026-04-06T08:32:00Z</time></trkpt><trkpt lat="41.6683257349034" lon="12.74533734574575"><ele>237.60000000000002</ele><time>2026-04-06T08:32:02Z</time></trkpt><trkpt lat="41.66832451285939" lon="12.74525085910769"><ele>237.8</ele><time>2026-04-06T08:32:04Z</time></trkpt><trkpt lat="41.66819758441521" lon="12.745188694105815"><ele>238.0</ele><time>2026-04-06T08:32:10Z</time></trkpt><trkpt lat="41.66812899466259" lon="12.745204636126251"><ele>237.99999999999997</ele><time>2026-04-06T08:32:11Z</time></trkpt><trkpt lat="41.668055642014465" lon="12.745214533441958"><ele>238.0</ele><time>2026-04-06T08:32:12Z</time></trkpt><trkpt lat="41.66798018237953" lon="12.745214700191703"><ele>238.0</ele><time>2026-04-06T08:32:13Z</time></trkpt><trkpt lat="41.66790241877264" lon="12.745217940510432"><ele>238.0</ele><time>2026-04-06T08:32:14Z</time></trkpt><trkpt lat="41.667823866697546" lon="12.745226690144255"><ele>237.99999999999997</ele><time>2026-04-06T08:32:15Z</time></trkpt><trkpt lat="41.66774021196332" lon="12.74523318172252"><ele>238.0</ele><time>2026-04-06T08:32:16Z</time></trkpt><trkpt lat="41.667658434816474" lon="12.745239457176709"><ele>237.66666666666666</ele><time>2026-04-06T08:32:17Z</time></trkpt><trkpt lat="41.66758610184734" lon="12.74524573153451"><ele>237.33333333333331</ele><time>2026-04-06T08:32:18Z</time></trkpt><trkpt lat="41.66750686871489" lon="12.745247904736331"><ele>237.0</ele><time>2026-04-06T08:32:19Z</time></trkpt><trkpt lat="41.667421773619296" lon="12.745252167463923"><ele>236.66666666666669</ele><time>2026-04-06T08:32:20Z</time></trkpt><trkpt lat="41.66733544675928" lon="12.745257863275938"><ele>236.33333333333334</ele><time>2026-04-06T08:32:21Z</time></trkpt><trkpt lat="41.66724567166806" lon="12.745263656906179"><ele>236.0</ele><time>2026-04-06T08:32:22Z</time></trkpt><trkpt lat="41.667154294773454" lon="12.745271578852398"><ele>236.0</ele><time>2026-04-06T08:32:23Z</time></trkpt><trkpt lat="41.66705964802223" lon="12.745279634786584"><ele>236.00000000000003</ele><time>2026-04-06T08:32:24Z</time></trkpt><trkpt lat="41.66696073869416" lon="12.745291372425115"><ele>236.00000000000003</ele><time>2026-04-06T08:32:25Z</time></trkpt><trkpt lat="41.666859900740135" lon="12.745297951676964"><ele>236.0</ele><time>2026-04-06T08:32:26Z</time></trkpt><trkpt lat="41.66675736019828" lon="12.745302919199785"><ele>236.0</ele><time>2026-04-06T08:32:27Z</time></trkpt><trkpt lat="41.66665247327456" lon="12.745305533887826"><ele>235.20000000000002</ele><time>2026-04-06T08:32:28Z</time></trkpt><trkpt lat="41.666543831382924" lon="12.745309977167677"><ele>234.40000000000003</ele><time>2026-04-06T08:32:29Z</time></trkpt><trkpt lat="41.66643286036498" lon="12.74531590346466"><ele>233.6</ele><time>2026-04-06T08:32:30Z</time></trkpt><trkpt lat="41.666322242924174" lon="12.745322798103503"><ele>232.8</ele><time>2026-04-06T08:32:31Z</time></trkpt><trkpt lat="41.66620727948762" lon="12.745328605872068"><ele>232.0</ele><time>2026-04-06T08:32:32Z</time></trkpt><trkpt lat="41.66609055842655" lon="12.745335198864174"><ele>231.25</ele><time>2026-04-06T08:32:33Z</time></trkpt><trkpt lat="41.66597029616985" lon="12.745341241732019"><ele>230.5</ele><time>2026-04-06T08:32:34Z</time></trkpt><trkpt lat="41.6658516130086" lon="12.745347983644095"><ele>229.75</ele><time>2026-04-06T08:32:35Z</time></trkpt><trkpt lat="41.66573091661746" lon="12.74535632962723"><ele>229.0</ele><time>2026-04-06T08:32:36Z</time></trkpt><trkpt lat="41.66560646811296" lon="12.745365758985022"><ele>229.0</ele><time>2026-04-06T08:32:37Z</time></trkpt><trkpt lat="41.665481005717005" lon="12.745374108215284"><ele>229.0</ele><time>2026-04-06T08:32:38Z</time></trkpt><trkpt lat="41.66535376303767" lon="12.745382713264481"><ele>229.0</ele><time>2026-04-06T08:32:39Z</time></trkpt><trkpt lat="41.66522443720917" lon="12.745390033135088"><ele>229.0</ele><time>2026-04-06T08:32:40Z</time></trkpt><trkpt lat="41.665097000483186" lon="12.745399480772546"><ele>228.25</ele><time>2026-04-06T08:32:41Z</time></trkpt><trkpt lat="41.66496677082415" lon="12.745407824576597"><ele>227.5</ele><time>2026-04-06T08:32:42Z</time></trkpt><trkpt lat="41.664836044389126" lon="12.745416278368275"><ele>226.75</ele><time>2026-04-06T08:32:43Z</time></trkpt><trkpt lat="41.664703971686755" lon="12.74542431315132"><ele>226.0</ele><time>2026-04-06T08:32:44Z</time></trkpt><trkpt lat="41.66456981432205" lon="12.745430708801049"><ele>224.5</ele><time>2026-04-06T08:32:45Z</time></trkpt><trkpt lat="41.66443338789877" lon="12.745438296687327"><ele>223.0</ele><time>2026-04-06T08:32:46Z</time></trkpt><trkpt lat="41.66429959816193" lon="12.745445131132524"><ele>221.5</ele><time>2026-04-06T08:32:47Z</time></trkpt><trkpt lat="41.66416399210212" lon="12.745448963494217"><ele>220.0</ele><time>2026-04-06T08:32:48Z</time></trkpt><trkpt lat="41.664027509897785" lon="12.745456374078852"><ele>220.0</ele><time>2026-04-06T08:32:49Z</time></trkpt><trkpt lat="41.663894178849944" lon="12.745467137284585"><ele>220.0</ele><time>2026-04-06T08:32:50Z</time></trkpt><trkpt lat="41.66376286088661" lon="12.74547741564661"><ele>220.0</ele><time>2026-04-06T08:32:51Z</time></trkpt><trkpt lat="41.66364385854548" lon="12.74548492525292"><ele>220.0</ele><time>2026-04-06T08:32:52Z</time></trkpt><trkpt lat="41.663536926299564" lon="12.745489567005324"><ele>219.8</ele><time>2026-04-06T08:32:53Z</time></trkpt><trkpt lat="41.663426388928485" lon="12.745494426805763"><ele>219.6</ele><time>2026-04-06T08:32:54Z</time></trkpt><trkpt lat="41.66333059377048" lon="12.745499979178911"><ele>219.39999999999998</ele><time>2026-04-06T08:32:55Z</time></trkpt><trkpt lat="41.66325292156455" lon="12.74551163545095"><ele>219.2</ele><time>2026-04-06T08:32:56Z</time></trkpt><trkpt lat="41.663161136799985" lon="12.745620990951283"><ele>219.0</ele><time>2026-04-06T08:32:58Z</time></trkpt><trkpt lat="41.66313991043902" lon="12.745743565320168"><ele>219.0</ele><time>2026-04-06T08:32:59Z</time></trkpt><trkpt lat="41.663135031193704" lon="12.745889663865666"><ele>218.99999999999997</ele><time>2026-04-06T08:33:00Z</time></trkpt><trkpt lat="41.66314497497825" lon="12.74603095073135"><ele>218.99999999999997</ele><time>2026-04-06T08:33:01Z</time></trkpt><trkpt lat="41.66314979292334" lon="12.746154151318992"><ele>219.0</ele><time>2026-04-06T08:33:02Z</time></trkpt><trkpt lat="41.66314665213743" lon="12.746251547941013"><ele>219.0</ele><time>2026-04-06T08:33:03Z</time></trkpt><trkpt lat="41.66312191102516" lon="12.7463413521561"><ele>218.39999999999998</ele><time>2026-04-06T08:33:04Z</time></trkpt><trkpt lat="41.66306251999035" lon="12.746418639098044"><ele>217.79999999999998</ele><time>2026-04-06T08:33:05Z</time></trkpt><trkpt lat="41.66297962750624" lon="12.746460201445792"><ele>217.20000000000002</ele><time>2026-04-06T08:33:06Z</time></trkpt><trkpt lat="41.662880940002914" lon="12.746458278275995"><ele>216.60000000000002</ele><time>2026-04-06T08:33:07Z</time></trkpt><trkpt lat="41.662776834030474" lon="12.746449417763"><ele>216.0</ele><time>2026-04-06T08:33:08Z</time></trkpt><trkpt lat="41.66267416856237" lon="12.746453026458271"><ele>215.75</ele><time>2026-04-06T08:33:09Z</time></trkpt><trkpt lat="41.66256633626145" lon="12.746462662714505"><ele>215.5</ele><time>2026-04-06T08:33:10Z</time></trkpt><trkpt lat="41.662452454866376" lon="12.746472161567098"><ele>215.25</ele><time>2026-04-06T08:33:11Z</time></trkpt><trkpt lat="41.662338870328334" lon="12.746475513832918"><ele>215.0</ele><time>2026-04-06T08:33:12Z</time></trkpt><trkpt lat="41.66222298806002" lon="12.746476962442197"><ele>215.0</ele><time>2026-04-06T08:33:13Z</time></trkpt><trkpt lat="41.66211004241072" lon="12.746478448764307"><ele>215.0</ele><time>2026-04-06T08:33:14Z</time></trkpt><trkpt lat="41.66199898964193" lon="12.746482330803886"><ele>215.0</ele><time>2026-04-06T08:33:15Z</time></trkpt><trkpt lat="41.66188448822629" lon="12.746477474118993"><ele>215.0</ele><time>2026-04-06T08:33:16Z</time></trkpt><trkpt lat="41.661766612641884" lon="12.746466278118344"><ele>214.25</ele><time>2026-04-06T08:33:17Z</time></trkpt><trkpt lat="41.66164640462589" lon="12.746439901347879"><ele>213.5</ele><time>2026-04-06T08:33:18Z</time></trkpt><trkpt lat="41.661524165486675" lon="12.74641136312987"><ele>212.75</ele><time>2026-04-06T08:33:19Z</time></trkpt><trkpt lat="41.66140236204002" lon="12.746377654997344"><ele>212.0</ele><time>2026-04-06T08:33:20Z</time></trkpt><trkpt lat="41.66128658049326" lon="12.74633166837084"><ele>212.00000000000003</ele><time>2026-04-06T08:33:21Z</time></trkpt><trkpt lat="41.66118903229806" lon="12.746284830130476"><ele>212.0</ele><time>2026-04-06T08:33:22Z</time></trkpt><trkpt lat="41.66110558950999" lon="12.746240572399556"><ele>212.0</ele><time>2026-04-06T08:33:23Z</time></trkpt><trkpt lat="41.661030327214725" lon="12.746196653252493"><ele>212.0</ele><time>2026-04-06T08:33:24Z</time></trkpt><trkpt lat="41.66096040353866" lon="12.746156330980652"><ele>212.00000000000003</ele><time>2026-04-06T08:33:25Z</time></trkpt><trkpt lat="41.66089727198571" lon="12.746124714135808"><ele>212.0</ele><time>2026-04-06T08:33:26Z</time></trkpt><trkpt lat="41.660834751388585" lon="12.746096283762522"><ele>211.39999999999998</ele><time>2026-04-06T08:33:27Z</time></trkpt><trkpt lat="41.66073681146064" lon="12.746060871290497"><ele>210.79999999999998</ele><time>2026-04-06T08:33:29Z</time></trkpt><trkpt lat="41.66066989257161" lon="12.746067364817709"><ele>210.2</ele><time>2026-04-06T08:33:31Z</time></trkpt><trkpt lat="41.660611503156915" lon="12.746158042460921"><ele>209.6</ele><time>2026-04-06T08:33:33Z</time></trkpt><trkpt lat="41.66054820872569" lon="12.746267656628207"><ele>209.0</ele><time>2026-04-06T08:33:35Z</time></trkpt><trkpt lat="41.66047960157053" lon="12.746370997204773"><ele>209.00000000000003</ele><time>2026-04-06T08:33:37Z</time></trkpt><trkpt lat="41.660409667837285" lon="12.746470091389984"><ele>209.0</ele><time>2026-04-06T08:33:39Z</time></trkpt><trkpt lat="41.66033250001624" lon="12.746598356236431"><ele>209.0</ele><time>2026-04-06T08:33:41Z</time></trkpt><trkpt lat="41.660277036207404" lon="12.746645212428437"><ele>209.0</ele><time>2026-04-06T08:33:42Z</time></trkpt><trkpt lat="41.66023123258746" lon="12.746705870071116"><ele>209.00000000000003</ele><time>2026-04-06T08:33:43Z</time></trkpt><trkpt lat="41.66019795517843" lon="12.746778838841298"><ele>209.0</ele><time>2026-04-06T08:33:44Z</time></trkpt><trkpt lat="41.66010834317121" lon="12.746887303952146"><ele>208.16666666666669</ele><time>2026-04-06T08:33:46Z</time></trkpt><trkpt lat="41.660016593788015" lon="12.747001248331383"><ele>207.33333333333334</ele><time>2026-04-06T08:33:48Z</time></trkpt><trkpt lat="41.65997014543849" lon="12.74706286416443"><ele>206.5</ele><time>2026-04-06T08:33:49Z</time></trkpt><trkpt lat="41.65992100649469" lon="12.747116120149379"><ele>205.66666666666669</ele><time>2026-04-06T08:33:50Z</time></trkpt><trkpt lat="41.659866084371885" lon="12.747168000673511"><ele>204.83333333333334</ele><time>2026-04-06T08:33:51Z</time></trkpt><trkpt lat="41.65982672099419" lon="12.747245166643534"><ele>204.0</ele><time>2026-04-06T08:33:52Z</time></trkpt><trkpt lat="41.659766372826056" lon="12.747316792736118"><ele>204.0</ele><time>2026-04-06T08:33:53Z</time></trkpt><trkpt lat="41.659701474598194" lon="12.747389905214607"><ele>204.0</ele><time>2026-04-06T08:33:54Z</time></trkpt><trkpt lat="41.65963836746082" lon="12.747474322892625"><ele>204.0</ele><time>2026-04-06T08:33:55Z</time></trkpt><trkpt lat="41.65956603759941" lon="12.747562657629302"><ele>204.0</ele><time>2026-04-06T08:33:56Z</time></trkpt><trkpt lat="41.65950004622542" lon="12.747647263385378"><ele>204.0</ele><time>2026-04-06T08:33:57Z</time></trkpt><trkpt lat="41.65942940356209" lon="12.747739812443994"><ele>202.6</ele><time>2026-04-06T08:33:58Z</time></trkpt><trkpt lat="41.659362453122746" lon="12.74782760921824"><ele>201.2</ele><time>2026-04-06T08:33:59Z</time></trkpt><trkpt lat="41.65929840093627" lon="12.74790828460168"><ele>199.79999999999998</ele><time>2026-04-06T08:34:00Z</time></trkpt><trkpt lat="41.659239344266226" lon="12.747985598721638"><ele>198.39999999999998</ele><time>2026-04-06T08:34:01Z</time></trkpt><trkpt lat="41.65917623107693" lon="12.748068717598501"><ele>197.0</ele><time>2026-04-06T08:34:02Z</time></trkpt><trkpt lat="41.659104625281905" lon="12.748161931413573"><ele>197.0</ele><time>2026-04-06T08:34:03Z</time></trkpt><trkpt lat="41.65903137101124" lon="12.748264363580555"><ele>197.0</ele><time>2026-04-06T08:34:04Z</time></trkpt><trkpt lat="41.658960018242674" lon="12.748367936820179"><ele>197.0</ele><time>2026-04-06T08:34:05Z</time></trkpt><trkpt lat="41.6588849960069" lon="12.748470786821441"><ele>197.0</ele><time>2026-04-06T08:34:06Z</time></trkpt><trkpt lat="41.65881200376491" lon="12.748563195294702"><ele>197.0</ele><time>2026-04-06T08:34:07Z</time></trkpt><trkpt lat="41.658744495634274" lon="12.74865710235553"><ele>196.2</ele><time>2026-04-06T08:34:08Z</time></trkpt><trkpt lat="41.65866742201325" lon="12.748769587772387"><ele>195.39999999999998</ele><time>2026-04-06T08:34:09Z</time></trkpt><trkpt lat="41.65859309615299" lon="12.748874228680897"><ele>194.60000000000002</ele><time>2026-04-06T08:34:10Z</time></trkpt><trkpt lat="41.65851809027341" lon="12.748966399349456"><ele>193.8</ele><time>2026-04-06T08:34:11Z</time></trkpt><trkpt lat="41.6584492040551" lon="12.749049244003396"><ele>193.0</ele><time>2026-04-06T08:34:12Z</time></trkpt><trkpt lat="41.658389130196745" lon="12.749118176167807"><ele>192.66666666666666</ele><time>2026-04-06T08:34:13Z</time></trkpt><trkpt lat="41.658338411999935" lon="12.749176121127952"><ele>192.33333333333331</ele><time>2026-04-06T08:34:14Z</time></trkpt><trkpt lat="41.65828740084495" lon="12.749238615152152"><ele>192.0</ele><time>2026-04-06T08:34:15Z</time></trkpt><trkpt lat="41.658199873744" lon="12.749334929553148"><ele>191.66666666666666</ele><time>2026-04-06T08:34:17Z</time></trkpt><trkpt lat="41.65814434778897" lon="12.749397553958458"><ele>191.33333333333331</ele><time>2026-04-06T08:34:19Z</time></trkpt><trkpt lat="41.65813619747766" lon="12.749486443645276"><ele>191.0</ele><time>2026-04-06T08:34:20Z</time></trkpt><trkpt lat="41.65810495710583" lon="12.749587953665586"><ele>191.0</ele><time>2026-04-06T08:34:22Z</time></trkpt><trkpt lat="41.658086099887356" lon="12.749669137151852"><ele>191.0</ele><time>2026-04-06T08:34:25Z</time></trkpt><trkpt lat="41.65802227064173" lon="12.749669706805648"><ele>191.0</ele><time>2026-04-06T08:34:26Z</time></trkpt><trkpt lat="41.65796104878522" lon="12.74969743099743"><ele>191.0</ele><time>2026-04-06T08:34:27Z</time></trkpt><trkpt lat="41.657860071791234" lon="12.749798067542317"><ele>191.0</ele><time>2026-04-06T08:34:29Z</time></trkpt><trkpt lat="41.65777445083969" lon="12.749890057555353"><ele>191.0</ele><time>2026-04-06T08:34:31Z</time></trkpt><trkpt lat="41.65783341325675" lon="12.749845629495631"><ele>191.0</ele><time>2026-04-06T08:34:36Z</time></trkpt><trkpt lat="41.65792430865921" lon="12.749765964995447"><ele>191.0</ele><time>2026-04-06T08:34:37Z</time></trkpt><trkpt lat="41.658007922915" lon="12.749628216084336"><ele>191.0</ele><time>2026-04-06T08:34:38Z</time></trkpt><trkpt lat="41.65809163670507" lon="12.749554585319402"><ele>191.0</ele><time>2026-04-06T08:34:41Z</time></trkpt><trkpt lat="41.658156219050255" lon="12.749462611179323"><ele>191.0</ele><time>2026-04-06T08:34:43Z</time></trkpt><trkpt lat="41.65817762066574" lon="12.749342018796787"><ele>190.85714285714286</ele><time>2026-04-06T08:34:45Z</time></trkpt><trkpt lat="41.658149404800746" lon="12.749265985298758"><ele>190.7142857142857</ele><time>2026-04-06T08:34:46Z</time></trkpt><trkpt lat="41.65810565158009" lon="12.749193740631895"><ele>190.57142857142856</ele><time>2026-04-06T08:34:47Z</time></trkpt><trkpt lat="41.65806022405704" lon="12.749112161008226"><ele>190.42857142857144</ele><time>2026-04-06T08:34:48Z</time></trkpt><trkpt lat="41.65801787141875" lon="12.749024502792357"><ele>190.28571428571428</ele><time>2026-04-06T08:34:49Z</time></trkpt><trkpt lat="41.65797519170481" lon="12.748933516731935"><ele>190.14285714285714</ele><time>2026-04-06T08:34:50Z</time></trkpt><trkpt lat="41.657937228003455" lon="12.74883647003685"><ele>190.0</ele><time>2026-04-06T08:34:51Z</time></trkpt><trkpt lat="41.657906138331235" lon="12.7487198125862"><ele>190.0</ele><time>2026-04-06T08:34:52Z</time></trkpt><trkpt lat="41.65788888060413" lon="12.74859116793839"><ele>190.0</ele><time>2026-04-06T08:34:53Z</time></trkpt><trkpt lat="41.65788199159295" lon="12.748466653430722"><ele>190.0</ele><time>2026-04-06T08:34:54Z</time></trkpt><trkpt lat="41.6578740035134" lon="12.748376838415911"><ele>190.0</ele><time>2026-04-06T08:34:55Z</time></trkpt><trkpt lat="41.65784131631946" lon="12.748256094027894"><ele>190.0</ele><time>2026-04-06T08:34:57Z</time></trkpt><trkpt lat="41.6577954125254" lon="12.74818706796626"><ele>190.0</ele><time>2026-04-06T08:35:27Z</time></trkpt><trkpt lat="41.65772686487253" lon="12.748082943430266"><ele>190.5</ele><time>2026-04-06T08:35:29Z</time></trkpt><trkpt lat="41.65768372648257" lon="12.748020052139891"><ele>191.0</ele><time>2026-04-06T08:35:30Z</time></trkpt><trkpt lat="41.65763788922391" lon="12.747952510528348"><ele>191.5</ele><time>2026-04-06T08:35:31Z</time></trkpt><trkpt lat="41.65758958792134" lon="12.747884545176875"><ele>192.0</ele><time>2026-04-06T08:35:32Z</time></trkpt><trkpt lat="41.657537214153685" lon="12.747814150574046"><ele>192.49999999999997</ele><time>2026-04-06T08:35:33Z</time></trkpt><trkpt lat="41.65747371140314" lon="12.747738157449525"><ele>193.0</ele><time>2026-04-06T08:35:34Z</time></trkpt><trkpt lat="41.657400101390756" lon="12.747657128147647"><ele>193.0</ele><time>2026-04-06T08:35:35Z</time></trkpt><trkpt lat="41.65732681121798" lon="12.74757717742307"><ele>193.0</ele><time>2026-04-06T08:35:36Z</time></trkpt><trkpt lat="41.657243747460285" lon="12.747502340388348"><ele>193.0</ele><time>2026-04-06T08:35:37Z</time></trkpt><trkpt lat="41.65715202779862" lon="12.74743682286325"><ele>193.0</ele><time>2026-04-06T08:35:38Z</time></trkpt><trkpt lat="41.65705457737924" lon="12.74738328860452"><ele>193.0</ele><time>2026-04-06T08:35:39Z</time></trkpt><trkpt lat="41.65695302539456" lon="12.747334470628664"><ele>192.0</ele><time>2026-04-06T08:35:40Z</time></trkpt><trkpt lat="41.656843264527346" lon="12.747280492329205"><ele>191.0</ele><time>2026-04-06T08:35:41Z</time></trkpt><trkpt lat="41.65672518967673" lon="12.747217781481114"><ele>190.0</ele><time>2026-04-06T08:35:42Z</time></trkpt><trkpt lat="41.656606319007615" lon="12.747146839017915"><ele>189.0</ele><time>2026-04-06T08:35:43Z</time></trkpt><trkpt lat="41.65648174298164" lon="12.74707514680483"><ele>189.0</ele><time>2026-04-06T08:35:44Z</time></trkpt><trkpt lat="41.656356416845064" lon="12.74700278971365"><ele>189.0</ele><time>2026-04-06T08:35:45Z</time></trkpt><trkpt lat="41.656230312264526" lon="12.746930273568424"><ele>189.0</ele><time>2026-04-06T08:35:46Z</time></trkpt><trkpt lat="41.65610252585927" lon="12.746847351731686"><ele>189.0</ele><time>2026-04-06T08:35:47Z</time></trkpt><trkpt lat="41.65597226249871" lon="12.746749590299382"><ele>189.0</ele><time>2026-04-06T08:35:48Z</time></trkpt><trkpt lat="41.655841268226546" lon="12.746650796128565"><ele>189.0</ele><time>2026-04-06T08:35:49Z</time></trkpt><trkpt lat="41.655709743509654" lon="12.74655724812222"><ele>189.0</ele><time>2026-04-06T08:35:50Z</time></trkpt><trkpt lat="41.655583481743584" lon="12.746469583608327"><ele>189.0</ele><time>2026-04-06T08:35:51Z</time></trkpt><trkpt lat="41.65545562252174" lon="12.746385723722799"><ele>189.0</ele><time>2026-04-06T08:35:52Z</time></trkpt><trkpt lat="41.655328317589024" lon="12.746310798140726"><ele>189.0</ele><time>2026-04-06T08:35:53Z</time></trkpt><trkpt lat="41.65519851898686" lon="12.746246496430306"><ele>189.0</ele><time>2026-04-06T08:35:54Z</time></trkpt><trkpt lat="41.65506002077507" lon="12.746198037191597"><ele>189.0</ele><time>2026-04-06T08:35:55Z</time></trkpt><trkpt lat="41.65491544727742" lon="12.746159870783263"><ele>189.25</ele><time>2026-04-06T08:35:56Z</time></trkpt><trkpt lat="41.6547689415121" lon="12.746122552749346"><ele>189.5</ele><time>2026-04-06T08:35:57Z</time></trkpt><trkpt lat="41.654622893754265" lon="12.746082903696717"><ele>189.75</ele><time>2026-04-06T08:35:58Z</time></trkpt><trkpt lat="41.65447734662923" lon="12.746041676938074"><ele>190.0</ele><time>2026-04-06T08:35:59Z</time></trkpt><trkpt lat="41.654333913715654" lon="12.74599867493361"><ele>190.0</ele><time>2026-04-06T08:36:00Z</time></trkpt><trkpt lat="41.65419152312867" lon="12.745950298888186"><ele>190.0</ele><time>2026-04-06T08:36:01Z</time></trkpt><trkpt lat="41.654053260041984" lon="12.745891646600802"><ele>190.0</ele><time>2026-04-06T08:36:02Z</time></trkpt><trkpt lat="41.65391502632979" lon="12.745827610772151"><ele>190.0</ele><time>2026-04-06T08:36:03Z</time></trkpt><trkpt lat="41.65377673208738" lon="12.745758240182552"><ele>190.0</ele><time>2026-04-06T08:36:04Z</time></trkpt><trkpt lat="41.65364291973513" lon="12.745688842939886"><ele>190.0</ele><time>2026-04-06T08:36:05Z</time></trkpt><trkpt lat="41.65351779327355" lon="12.745622326298394"><ele>190.0</ele><time>2026-04-06T08:36:06Z</time></trkpt><trkpt lat="41.653395806960376" lon="12.745557980737715"><ele>190.0</ele><time>2026-04-06T08:36:07Z</time></trkpt><trkpt lat="41.65326957630242" lon="12.745484850368763"><ele>189.5</ele><time>2026-04-06T08:36:08Z</time></trkpt><trkpt lat="41.65314750728093" lon="12.745398524829199"><ele>189.0</ele><time>2026-04-06T08:36:09Z</time></trkpt><trkpt lat="41.65302743823876" lon="12.745298360849093"><ele>188.5</ele><time>2026-04-06T08:36:10Z</time></trkpt><trkpt lat="41.65291248716412" lon="12.745192592735608"><ele>188.0</ele><time>2026-04-06T08:36:11Z</time></trkpt><trkpt lat="41.65280662344773" lon="12.74508655754251"><ele>187.60000000000002</ele><time>2026-04-06T08:36:12Z</time></trkpt><trkpt lat="41.65271469745994" lon="12.744986361458167"><ele>187.20000000000002</ele><time>2026-04-06T08:36:13Z</time></trkpt><trkpt lat="41.652636113229555" lon="12.744891075571589"><ele>186.8</ele><time>2026-04-06T08:36:14Z</time></trkpt><trkpt lat="41.65256323630294" lon="12.74479782301854"><ele>186.4</ele><time>2026-04-06T08:36:15Z</time></trkpt><trkpt lat="41.65249128020273" lon="12.744711338326093"><ele>186.0</ele><time>2026-04-06T08:36:16Z</time></trkpt><trkpt lat="41.652416311608896" lon="12.744619512156259"><ele>186.0</ele><time>2026-04-06T08:36:17Z</time></trkpt><trkpt lat="41.65232588291059" lon="12.744527664423865"><ele>186.0</ele><time>2026-04-06T08:36:18Z</time></trkpt><trkpt lat="41.65222230894751" lon="12.744447360407658"><ele>186.0</ele><time>2026-04-06T08:36:19Z</time></trkpt><trkpt lat="41.65210558009164" lon="12.744384445601554"><ele>186.0</ele><time>2026-04-06T08:36:20Z</time></trkpt><trkpt lat="41.651978682481214" lon="12.744348430977757"><ele>183.25</ele><time>2026-04-06T08:36:21Z</time></trkpt><trkpt lat="41.651848170432565" lon="12.744322560305994"><ele>180.5</ele><time>2026-04-06T08:36:22Z</time></trkpt><trkpt lat="41.651714177932895" lon="12.744291736013668"><ele>177.75</ele><time>2026-04-06T08:36:23Z</time></trkpt><trkpt lat="41.65158631023022" lon="12.744257077178077"><ele>175.0</ele><time>2026-04-06T08:36:24Z</time></trkpt><trkpt lat="41.65146662350806" lon="12.744221900873375"><ele>175.0</ele><time>2026-04-06T08:36:25Z</time></trkpt><trkpt lat="41.65134619444556" lon="12.744186567705947"><ele>175.0</ele><time>2026-04-06T08:36:26Z</time></trkpt><trkpt lat="41.651219917520756" lon="12.7441478000364"><ele>175.0</ele><time>2026-04-06T08:36:27Z</time></trkpt><trkpt lat="41.65109103883781" lon="12.744113359606578"><ele>175.0</ele><time>2026-04-06T08:36:28Z</time></trkpt><trkpt lat="41.65095969327249" lon="12.744079727906517"><ele>173.5</ele><time>2026-04-06T08:36:29Z</time></trkpt><trkpt lat="41.65083041189882" lon="12.744044384930477"><ele>172.0</ele><time>2026-04-06T08:36:30Z</time></trkpt><trkpt lat="41.65070101225793" lon="12.744011345950138"><ele>170.5</ele><time>2026-04-06T08:36:31Z</time></trkpt><trkpt lat="41.65057180179949" lon="12.743983011307433"><ele>169.0</ele><time>2026-04-06T08:36:32Z</time></trkpt><trkpt lat="41.65044123915358" lon="12.743967973888328"><ele>169.0</ele><time>2026-04-06T08:36:33Z</time></trkpt><trkpt lat="41.650311061695604" lon="12.743964459870448"><ele>169.0</ele><time>2026-04-06T08:36:34Z</time></trkpt><trkpt lat="41.65018187030312" lon="12.743969002977057"><ele>169.0</ele><time>2026-04-06T08:36:35Z</time></trkpt><trkpt lat="41.65006067951461" lon="12.743973046023227"><ele>169.0</ele><time>2026-04-06T08:36:36Z</time></trkpt><trkpt lat="41.64994664216778" lon="12.743973068433027"><ele>168.0</ele><time>2026-04-06T08:36:37Z</time></trkpt><trkpt lat="41.649837010717036" lon="12.743972723818445"><ele>167.0</ele><time>2026-04-06T08:36:38Z</time></trkpt><trkpt lat="41.64973064823798" lon="12.743967126573924"><ele>166.0</ele><time>2026-04-06T08:36:39Z</time></trkpt><trkpt lat="41.64962703527995" lon="12.743958574560349"><ele>165.0</ele><time>2026-04-06T08:36:40Z</time></trkpt><trkpt lat="41.649527559916265" lon="12.743941221035223"><ele>164.0</ele><time>2026-04-06T08:36:41Z</time></trkpt><trkpt lat="41.649438149051804" lon="12.743897606636116"><ele>163.2</ele><time>2026-04-06T08:36:42Z</time></trkpt><trkpt lat="41.64934602468018" lon="12.74382411200302"><ele>162.39999999999998</ele><time>2026-04-06T08:36:43Z</time></trkpt><trkpt lat="41.64927714959468" lon="12.743718019603325"><ele>161.6</ele><time>2026-04-06T08:36:44Z</time></trkpt><trkpt lat="41.64918948962297" lon="12.743647047587533"><ele>160.8</ele><time>2026-04-06T08:36:45Z</time></trkpt><trkpt lat="41.649110791505215" lon="12.74355983738105"><ele>160.0</ele><time>2026-04-06T08:36:46Z</time></trkpt><trkpt lat="41.6490399484009" lon="12.743487654959894"><ele>159.0</ele><time>2026-04-06T08:36:47Z</time></trkpt><trkpt lat="41.648972975602526" lon="12.743412270744594"><ele>158.0</ele><time>2026-04-06T08:36:48Z</time></trkpt><trkpt lat="41.648885357451064" lon="12.743351640096195"><ele>157.0</ele><time>2026-04-06T08:36:49Z</time></trkpt><trkpt lat="41.64877504235603" lon="12.74333958440805"><ele>156.0</ele><time>2026-04-06T08:36:50Z</time></trkpt><trkpt lat="41.64864762098373" lon="12.743376197541233"><ele>155.0</ele><time>2026-04-06T08:36:51Z</time></trkpt><trkpt lat="41.64852272246776" lon="12.743432664529415"><ele>154.75</ele><time>2026-04-06T08:36:52Z</time></trkpt><trkpt lat="41.648400262838535" lon="12.743470018697058"><ele>154.5</ele><time>2026-04-06T08:36:53Z</time></trkpt><trkpt lat="41.64827262073856" lon="12.743497895736564"><ele>154.25</ele><time>2026-04-06T08:36:54Z</time></trkpt><trkpt lat="41.648143769785925" lon="12.743514740694092"><ele>154.0</ele><time>2026-04-06T08:36:55Z</time></trkpt><trkpt lat="41.6480128014017" lon="12.743514887822695"><ele>154.0</ele><time>2026-04-06T08:36:56Z</time></trkpt><trkpt lat="41.647883968747514" lon="12.743496598344075"><ele>154.0</ele><time>2026-04-06T08:36:57Z</time></trkpt><trkpt lat="41.64776522239182" lon="12.74346485839477"><ele>154.0</ele><time>2026-04-06T08:36:58Z</time></trkpt><trkpt lat="41.64765896145557" lon="12.743422056732026"><ele>154.0</ele><time>2026-04-06T08:36:59Z</time></trkpt><trkpt lat="41.64755069163057" lon="12.743362358886722"><ele>153.25</ele><time>2026-04-06T08:37:00Z</time></trkpt><trkpt lat="41.64743721287921" lon="12.743288398398303"><ele>152.5</ele><time>2026-04-06T08:37:01Z</time></trkpt><trkpt lat="41.64732620095363" lon="12.743206455151638"><ele>151.75</ele><time>2026-04-06T08:37:02Z</time></trkpt><trkpt lat="41.647215770567804" lon="12.743123119261556"><ele>151.0</ele><time>2026-04-06T08:37:03Z</time></trkpt><trkpt lat="41.64710027266227" lon="12.743035809621125"><ele>151.0</ele><time>2026-04-06T08:37:04Z</time></trkpt><trkpt lat="41.646984726993686" lon="12.742943057943053"><ele>151.0</ele><time>2026-04-06T08:37:05Z</time></trkpt><trkpt lat="41.64686403553185" lon="12.742856416972526"><ele>151.0</ele><time>2026-04-06T08:37:06Z</time></trkpt><trkpt lat="41.64674527341174" lon="12.742771668914493"><ele>151.0</ele><time>2026-04-06T08:37:07Z</time></trkpt><trkpt lat="41.6466277019659" lon="12.742685028884765"><ele>151.5</ele><time>2026-04-06T08:37:08Z</time></trkpt><trkpt lat="41.646513222549004" lon="12.742601170045377"><ele>152.0</ele><time>2026-04-06T08:37:09Z</time></trkpt><trkpt lat="41.64640120459433" lon="12.74252178684866"><ele>152.5</ele><time>2026-04-06T08:37:10Z</time></trkpt><trkpt lat="41.64629017251235" lon="12.742441085949052"><ele>153.0</ele><time>2026-04-06T08:37:11Z</time></trkpt><trkpt lat="41.64617673308373" lon="12.742357458843797"><ele>154.25</ele><time>2026-04-06T08:37:12Z</time></trkpt><trkpt lat="41.646064073328354" lon="12.742278214656821"><ele>155.5</ele><time>2026-04-06T08:37:13Z</time></trkpt><trkpt lat="41.645952353124116" lon="12.742198828169897"><ele>156.75</ele><time>2026-04-06T08:37:14Z</time></trkpt><trkpt lat="41.64583741534867" lon="12.74212428683749"><ele>158.0</ele><time>2026-04-06T08:37:15Z</time></trkpt><trkpt lat="41.6457195890135" lon="12.742058902210294"><ele>158.0</ele><time>2026-04-06T08:37:16Z</time></trkpt><trkpt lat="41.645597745844164" lon="12.741993584818852"><ele>158.0</ele><time>2026-04-06T08:37:17Z</time></trkpt><trkpt lat="41.645476377105666" lon="12.741923667232347"><ele>158.0</ele><time>2026-04-06T08:37:18Z</time></trkpt><trkpt lat="41.6453557090873" lon="12.741845510687916"><ele>158.0</ele><time>2026-04-06T08:37:19Z</time></trkpt><trkpt lat="41.645232320224274" lon="12.741764244900551"><ele>158.75</ele><time>2026-04-06T08:37:20Z</time></trkpt><trkpt lat="41.6451096728264" lon="12.741677602735752"><ele>159.5</ele><time>2026-04-06T08:37:21Z</time></trkpt><trkpt lat="41.64499271828179" lon="12.741594669238058"><ele>160.25</ele><time>2026-04-06T08:37:22Z</time></trkpt><trkpt lat="41.64487739889821" lon="12.741512074165993"><ele>161.0</ele><time>2026-04-06T08:37:23Z</time></trkpt><trkpt lat="41.64476233571223" lon="12.741425016022362"><ele>161.0</ele><time>2026-04-06T08:37:24Z</time></trkpt><trkpt lat="41.64464662093512" lon="12.741328390108883"><ele>161.0</ele><time>2026-04-06T08:37:25Z</time></trkpt><trkpt lat="41.644537923728514" lon="12.741229446342183"><ele>161.0</ele><time>2026-04-06T08:37:26Z</time></trkpt><trkpt lat="41.644433953985484" lon="12.741123656371244"><ele>161.0</ele><time>2026-04-06T08:37:27Z</time></trkpt><trkpt lat="41.64433976942895" lon="12.74101909673691"><ele>161.20000000000002</ele><time>2026-04-06T08:37:28Z</time></trkpt><trkpt lat="41.644262677643596" lon="12.740921634030478"><ele>161.4</ele><time>2026-04-06T08:37:29Z</time></trkpt><trkpt lat="41.6441963021172" lon="12.7408381224948"><ele>161.6</ele><time>2026-04-06T08:37:30Z</time></trkpt><trkpt lat="41.644137808471164" lon="12.740763835048831"><ele>161.8</ele><time>2026-04-06T08:37:31Z</time></trkpt><trkpt lat="41.64408482793083" lon="12.740698689269687"><ele>162.0</ele><time>2026-04-06T08:37:32Z</time></trkpt><trkpt lat="41.64401210876058" lon="12.740583541166549"><ele>162.0</ele><time>2026-04-06T08:37:34Z</time></trkpt><trkpt lat="41.643871912688084" lon="12.740616856140356"><ele>162.0</ele><time>2026-04-06T08:37:36Z</time></trkpt><trkpt lat="41.64379450803278" lon="12.740649044734667"><ele>162.0</ele><time>2026-04-06T08:37:37Z</time></trkpt><trkpt lat="41.643711208833345" lon="12.74067050426484"><ele>162.0</ele><time>2026-04-06T08:37:38Z</time></trkpt><trkpt lat="41.643628350762846" lon="12.740692686800143"><ele>162.0</ele><time>2026-04-06T08:37:39Z</time></trkpt><trkpt lat="41.64354104150058" lon="12.740714816826463"><ele>161.8</ele><time>2026-04-06T08:37:40Z</time></trkpt><trkpt lat="41.64345197237774" lon="12.740728779760653"><ele>161.6</ele><time>2026-04-06T08:37:41Z</time></trkpt><trkpt lat="41.64335229414049" lon="12.7407430190624"><ele>161.4</ele><time>2026-04-06T08:37:42Z</time></trkpt><trkpt lat="41.643248870018375" lon="12.740746985601707"><ele>161.20000000000002</ele><time>2026-04-06T08:37:43Z</time></trkpt><trkpt lat="41.64314610508457" lon="12.740752454571156"><ele>161.0</ele><time>2026-04-06T08:37:44Z</time></trkpt><trkpt lat="41.64304345317111" lon="12.74074675869694"><ele>161.0</ele><time>2026-04-06T08:37:45Z</time></trkpt><trkpt lat="41.642945582839" lon="12.740727908521185"><ele>161.0</ele><time>2026-04-06T08:37:46Z</time></trkpt><trkpt lat="41.642845335374055" lon="12.740710327071998"><ele>161.0</ele><time>2026-04-06T08:37:47Z</time></trkpt><trkpt lat="41.64274136960096" lon="12.74070025601631"><ele>161.0</ele><time>2026-04-06T08:37:48Z</time></trkpt><trkpt lat="41.64263936011908" lon="12.74069491766407"><ele>161.0</ele><time>2026-04-06T08:37:49Z</time></trkpt><trkpt lat="41.642532931281735" lon="12.74069011544804"><ele>161.0</ele><time>2026-04-06T08:37:50Z</time></trkpt><trkpt lat="41.64242604498915" lon="12.740686162346124"><ele>161.0</ele><time>2026-04-06T08:37:51Z</time></trkpt><trkpt lat="41.64231634604873" lon="12.740686460683486"><ele>161.0</ele><time>2026-04-06T08:37:52Z</time></trkpt><trkpt lat="41.642213086835696" lon="12.740692146709813"><ele>161.0</ele><time>2026-04-06T08:37:53Z</time></trkpt><trkpt lat="41.64210487931419" lon="12.740706318503577"><ele>161.0</ele><time>2026-04-06T08:37:54Z</time></trkpt><trkpt lat="41.641994053351155" lon="12.740720113927987"><ele>160.5</ele><time>2026-04-06T08:37:55Z</time></trkpt><trkpt lat="41.64187844942913" lon="12.74073383902797"><ele>160.0</ele><time>2026-04-06T08:37:56Z</time></trkpt><trkpt lat="41.64176577837475" lon="12.740750907598942"><ele>159.5</ele><time>2026-04-06T08:37:57Z</time></trkpt><trkpt lat="41.64165208619032" lon="12.740772545682109"><ele>159.0</ele><time>2026-04-06T08:37:58Z</time></trkpt><trkpt lat="41.64153935555766" lon="12.74079156182026"><ele>159.0</ele><time>2026-04-06T08:37:59Z</time></trkpt><trkpt lat="41.64142680520742" lon="12.740807480902266"><ele>159.0</ele><time>2026-04-06T08:38:00Z</time></trkpt><trkpt lat="41.64131469017311" lon="12.740825518572288"><ele>159.0</ele><time>2026-04-06T08:38:01Z</time></trkpt><trkpt lat="41.64119998509069" lon="12.740847385056743"><ele>159.0</ele><time>2026-04-06T08:38:02Z</time></trkpt><trkpt lat="41.64108531828643" lon="12.74086712789317"><ele>158.4</ele><time>2026-04-06T08:38:03Z</time></trkpt><trkpt lat="41.64097128220922" lon="12.74088913162314"><ele>157.8</ele><time>2026-04-06T08:38:04Z</time></trkpt><trkpt lat="41.640857889924504" lon="12.740910860971953"><ele>157.2</ele><time>2026-04-06T08:38:05Z</time></trkpt><trkpt lat="41.64074901190207" lon="12.740931412008191"><ele>156.6</ele><time>2026-04-06T08:38:06Z</time></trkpt><trkpt lat="41.64064239036658" lon="12.740953644216557"><ele>156.0</ele><time>2026-04-06T08:38:07Z</time></trkpt><trkpt lat="41.64053712022264" lon="12.740971835856572"><ele>156.0</ele><time>2026-04-06T08:38:08Z</time></trkpt><trkpt lat="41.64043107061279" lon="12.74098864358821"><ele>156.0</ele><time>2026-04-06T08:38:09Z</time></trkpt><trkpt lat="41.64032056291408" lon="12.741005737710237"><ele>156.0</ele><time>2026-04-06T08:38:10Z</time></trkpt><trkpt lat="41.64020724940452" lon="12.741026858411487"><ele>156.0</ele><time>2026-04-06T08:38:11Z</time></trkpt><trkpt lat="41.64009263984582" lon="12.741051434119873"><ele>156.0</ele><time>2026-04-06T08:38:12Z</time></trkpt><trkpt lat="41.6399767335645" lon="12.741073279465047"><ele>155.4</ele><time>2026-04-06T08:38:13Z</time></trkpt><trkpt lat="41.63986347406423" lon="12.741088769795944"><ele>154.8</ele><time>2026-04-06T08:38:14Z</time></trkpt><trkpt lat="41.63975475787778" lon="12.741102613767797"><ele>154.20000000000002</ele><time>2026-04-06T08:38:15Z</time></trkpt><trkpt lat="41.639654755713394" lon="12.741112127204412"><ele>153.6</ele><time>2026-04-06T08:38:16Z</time></trkpt><trkpt lat="41.63954824588176" lon="12.741121728050238"><ele>153.0</ele><time>2026-04-06T08:38:17Z</time></trkpt><trkpt lat="41.63943807437428" lon="12.741129941819347"><ele>152.0</ele><time>2026-04-06T08:38:18Z</time></trkpt><trkpt lat="41.639324733117455" lon="12.741131857261248"><ele>151.0</ele><time>2026-04-06T08:38:19Z</time></trkpt><trkpt lat="41.63920892690919" lon="12.741134060972085"><ele>150.0</ele><time>2026-04-06T08:38:20Z</time></trkpt><trkpt lat="41.63910009700777" lon="12.741135825580798"><ele>149.0</ele><time>2026-04-06T08:38:21Z</time></trkpt><trkpt lat="41.639005743845765" lon="12.741146746674982"><ele>148.0</ele><time>2026-04-06T08:38:22Z</time></trkpt><trkpt lat="41.63890533006778" lon="12.741185789992853"><ele>148.0</ele><time>2026-04-06T08:38:23Z</time></trkpt><trkpt lat="41.63881169616047" lon="12.741271759957717"><ele>148.0</ele><time>2026-04-06T08:38:24Z</time></trkpt><trkpt lat="41.63872402357405" lon="12.741375696218169"><ele>148.0</ele><time>2026-04-06T08:38:25Z</time></trkpt><trkpt lat="41.638642570568074" lon="12.74148401844063"><ele>148.0</ele><time>2026-04-06T08:38:26Z</time></trkpt><trkpt lat="41.63857183010141" lon="12.741577468239818"><ele>148.0</ele><time>2026-04-06T08:38:27Z</time></trkpt><trkpt lat="41.63850910286847" lon="12.741661917232422"><ele>147.4</ele><time>2026-04-06T08:38:28Z</time></trkpt><trkpt lat="41.63844654230416" lon="12.741743527060391"><ele>146.8</ele><time>2026-04-06T08:38:29Z</time></trkpt><trkpt lat="41.63838333266445" lon="12.741825461281735"><ele>146.2</ele><time>2026-04-06T08:38:30Z</time></trkpt><trkpt lat="41.6383191083183" lon="12.74190484660406"><ele>145.6</ele><time>2026-04-06T08:38:31Z</time></trkpt><trkpt lat="41.638248692005035" lon="12.741979236194139"><ele>145.0</ele><time>2026-04-06T08:38:32Z</time></trkpt><trkpt lat="41.6381586507182" lon="12.742037721586723"><ele>145.0</ele><time>2026-04-06T08:38:33Z</time></trkpt><trkpt lat="41.63805590431031" lon="12.742089050431831"><ele>145.0</ele><time>2026-04-06T08:38:34Z</time></trkpt><trkpt lat="41.6379511482144" lon="12.742132562106033"><ele>145.0</ele><time>2026-04-06T08:38:35Z</time></trkpt><trkpt lat="41.63784668841845" lon="12.742180149037148"><ele>145.0</ele><time>2026-04-06T08:38:36Z</time></trkpt><trkpt lat="41.63774676732429" lon="12.742232445873901"><ele>145.0</ele><time>2026-04-06T08:38:37Z</time></trkpt><trkpt lat="41.63764720042948" lon="12.742283574788317"><ele>145.0</ele><time>2026-04-06T08:38:38Z</time></trkpt><trkpt lat="41.63754751699461" lon="12.742330437439126"><ele>145.0</ele><time>2026-04-06T08:38:39Z</time></trkpt><trkpt lat="41.63744337285863" lon="12.742373075832006"><ele>145.0</ele><time>2026-04-06T08:38:40Z</time></trkpt><trkpt lat="41.63733613942525" lon="12.742407149894273"><ele>145.0</ele><time>2026-04-06T08:38:41Z</time></trkpt><trkpt lat="41.63722744068229" lon="12.74243991623364"><ele>145.0</ele><time>2026-04-06T08:38:42Z</time></trkpt><trkpt lat="41.63711830546917" lon="12.742469456343375"><ele>145.0</ele><time>2026-04-06T08:38:43Z</time></trkpt><trkpt lat="41.63700871277632" lon="12.742503477219746"><ele>145.0</ele><time>2026-04-06T08:38:44Z</time></trkpt><trkpt lat="41.63690298469733" lon="12.742542878614628"><ele>145.0</ele><time>2026-04-06T08:38:45Z</time></trkpt><trkpt lat="41.63679254279333" lon="12.742585284021844"><ele>145.0</ele><time>2026-04-06T08:38:46Z</time></trkpt><trkpt lat="41.636686487768685" lon="12.742626839209208"><ele>145.0</ele><time>2026-04-06T08:38:47Z</time></trkpt><trkpt lat="41.63658009211828" lon="12.74266850573245"><ele>145.0</ele><time>2026-04-06T08:38:48Z</time></trkpt><trkpt lat="41.63647337759807" lon="12.742710229334191"><ele>145.0</ele><time>2026-04-06T08:38:49Z</time></trkpt><trkpt lat="41.63636720990572" lon="12.742751088186774"><ele>145.0</ele><time>2026-04-06T08:38:50Z</time></trkpt><trkpt lat="41.63625864316246" lon="12.742787627583173"><ele>145.0</ele><time>2026-04-06T08:38:51Z</time></trkpt><trkpt lat="41.636151362184556" lon="12.742821060136329"><ele>145.0</ele><time>2026-04-06T08:38:52Z</time></trkpt><trkpt lat="41.63604448057336" lon="12.742852229093323"><ele>144.2</ele><time>2026-04-06T08:38:53Z</time></trkpt><trkpt lat="41.6359343226138" lon="12.742881203670732"><ele>143.4</ele><time>2026-04-06T08:38:54Z</time></trkpt><trkpt lat="41.63582436524539" lon="12.74291359697342"><ele>142.6</ele><time>2026-04-06T08:38:55Z</time></trkpt><trkpt lat="41.63571725355915" lon="12.742947944448304"><ele>141.8</ele><time>2026-04-06T08:38:56Z</time></trkpt><trkpt lat="41.635620482472994" lon="12.742980125867437"><ele>141.0</ele><time>2026-04-06T08:38:57Z</time></trkpt><trkpt lat="41.63551856513929" lon="12.743014970273652"><ele>141.0</ele><time>2026-04-06T08:38:58Z</time></trkpt><trkpt lat="41.63542331479603" lon="12.743044887049251"><ele>141.0</ele><time>2026-04-06T08:38:59Z</time></trkpt><trkpt lat="41.63533127318239" lon="12.743067131864697"><ele>141.0</ele><time>2026-04-06T08:39:00Z</time></trkpt><trkpt lat="41.635239807541" lon="12.743081822979303"><ele>141.0</ele><time>2026-04-06T08:39:01Z</time></trkpt><trkpt lat="41.63514639777118" lon="12.743051184117979"><ele>141.0</ele><time>2026-04-06T08:39:02Z</time></trkpt><trkpt lat="41.63505013331444" lon="12.743017771240657"><ele>141.0</ele><time>2026-04-06T08:39:03Z</time></trkpt><trkpt lat="41.634950131866624" lon="12.742985231161137"><ele>141.0</ele><time>2026-04-06T08:39:04Z</time></trkpt><trkpt lat="41.634860701107016" lon="12.742955801147206"><ele>141.0</ele><time>2026-04-06T08:39:05Z</time></trkpt><trkpt lat="41.634777286073096" lon="12.742945494790769"><ele>141.0</ele><time>2026-04-06T08:39:06Z</time></trkpt><trkpt lat="41.634706937284626" lon="12.742919976256706"><ele>141.0</ele><time>2026-04-06T08:39:07Z</time></trkpt><trkpt lat="41.63464884438746" lon="12.742879872131669"><ele>141.0</ele><time>2026-04-06T08:39:08Z</time></trkpt><trkpt lat="41.63451760143846" lon="12.742866515639149"><ele>140.4</ele><time>2026-04-06T08:39:10Z</time></trkpt><trkpt lat="41.634440578407606" lon="12.742920289267134"><ele>139.8</ele><time>2026-04-06T08:39:11Z</time></trkpt><trkpt lat="41.63435934854068" lon="12.742931430480972"><ele>139.20000000000002</ele><time>2026-04-06T08:39:12Z</time></trkpt><trkpt lat="41.634274236598664" lon="12.742908526093073"><ele>138.6</ele><time>2026-04-06T08:39:13Z</time></trkpt><trkpt lat="41.63415495297165" lon="12.742869445564141"><ele>138.0</ele><time>2026-04-06T08:39:14Z</time></trkpt><trkpt lat="41.63403368470428" lon="12.742830279357355"><ele>138.0</ele><time>2026-04-06T08:39:15Z</time></trkpt><trkpt lat="41.63390275722417" lon="12.742789211263963"><ele>138.0</ele><time>2026-04-06T08:39:16Z</time></trkpt><trkpt lat="41.63377600565221" lon="12.742751356270208"><ele>138.0</ele><time>2026-04-06T08:39:17Z</time></trkpt><trkpt lat="41.63366107522106" lon="12.742709676324747"><ele>138.0</ele><time>2026-04-06T08:39:18Z</time></trkpt><trkpt lat="41.633543213227235" lon="12.742681610940634"><ele>137.25</ele><time>2026-04-06T08:39:19Z</time></trkpt><trkpt lat="41.633425616275744" lon="12.742650587449404"><ele>136.5</ele><time>2026-04-06T08:39:20Z</time></trkpt><trkpt lat="41.63330411803854" lon="12.742615493284742"><ele>135.75</ele><time>2026-04-06T08:39:21Z</time></trkpt><trkpt lat="41.63319350572885" lon="12.742578520932597"><ele>135.0</ele><time>2026-04-06T08:39:22Z</time></trkpt><trkpt lat="41.63308335715817" lon="12.742546143987902"><ele>135.0</ele><time>2026-04-06T08:39:23Z</time></trkpt><trkpt lat="41.63296598700944" lon="12.74251597952569"><ele>135.0</ele><time>2026-04-06T08:39:24Z</time></trkpt><trkpt lat="41.6328479767425" lon="12.742477012378936"><ele>135.0</ele><time>2026-04-06T08:39:25Z</time></trkpt><trkpt lat="41.63273255552323" lon="12.742444579132354"><ele>135.0</ele><time>2026-04-06T08:39:26Z</time></trkpt><trkpt lat="41.6326188715533" lon="12.742417379499127"><ele>135.0</ele><time>2026-04-06T08:39:27Z</time></trkpt><trkpt lat="41.6325078635128" lon="12.742382595143031"><ele>135.0</ele><time>2026-04-06T08:39:28Z</time></trkpt><trkpt lat="41.63239595902094" lon="12.742353827157753"><ele>135.0</ele><time>2026-04-06T08:39:29Z</time></trkpt><trkpt lat="41.63228102669362" lon="12.742327955244924"><ele>135.0</ele><time>2026-04-06T08:39:30Z</time></trkpt><trkpt lat="41.632157757097964" lon="12.742295087927701"><ele>135.0</ele><time>2026-04-06T08:39:31Z</time></trkpt><trkpt lat="41.632041938799766" lon="12.742285018745084"><ele>135.0</ele><time>2026-04-06T08:39:32Z</time></trkpt><trkpt lat="41.63192616093847" lon="12.742274049834135"><ele>135.0</ele><time>2026-04-06T08:39:33Z</time></trkpt><trkpt lat="41.631808633317675" lon="12.742273295697863"><ele>135.0</ele><time>2026-04-06T08:39:34Z</time></trkpt><trkpt lat="41.63169757653477" lon="12.742278966372"><ele>134.5</ele><time>2026-04-06T08:39:35Z</time></trkpt><trkpt lat="41.631586775771865" lon="12.742287694848109"><ele>134.0</ele><time>2026-04-06T08:39:36Z</time></trkpt><trkpt lat="41.63147479651557" lon="12.742290878247445"><ele>133.5</ele><time>2026-04-06T08:39:37Z</time></trkpt><trkpt lat="41.63136115370999" lon="12.74229508425155"><ele>133.0</ele><time>2026-04-06T08:39:38Z</time></trkpt><trkpt lat="41.631247600914115" lon="12.742299012514287"><ele>132.8</ele><time>2026-04-06T08:39:39Z</time></trkpt><trkpt lat="41.63113486088841" lon="12.74230299704779"><ele>132.60000000000002</ele><time>2026-04-06T08:39:40Z</time></trkpt><trkpt lat="41.6310252145074" lon="12.74231069730717"><ele>132.39999999999998</ele><time>2026-04-06T08:39:41Z</time></trkpt><trkpt lat="41.630912541167774" lon="12.74232065777264"><ele>132.2</ele><time>2026-04-06T08:39:42Z</time></trkpt><trkpt lat="41.63080359025636" lon="12.742332458035342"><ele>132.0</ele><time>2026-04-06T08:39:43Z</time></trkpt><trkpt lat="41.63068845099436" lon="12.742345703269725"><ele>132.0</ele><time>2026-04-06T08:39:44Z</time></trkpt><trkpt lat="41.630573529558916" lon="12.742357713845538"><ele>132.0</ele><time>2026-04-06T08:39:45Z</time></trkpt><trkpt lat="41.6304607781093" lon="12.742381399831022"><ele>132.0</ele><time>2026-04-06T08:39:46Z</time></trkpt><trkpt lat="41.63034916104079" lon="12.742399367319793"><ele>132.0</ele><time>2026-04-06T08:39:47Z</time></trkpt><trkpt lat="41.630239212274184" lon="12.742420787433504"><ele>132.0</ele><time>2026-04-06T08:39:48Z</time></trkpt><trkpt lat="41.63012981300689" lon="12.74243553622032"><ele>132.0</ele><time>2026-04-06T08:39:49Z</time></trkpt><trkpt lat="41.63001936150261" lon="12.742449565256951"><ele>132.0</ele><time>2026-04-06T08:39:50Z</time></trkpt><trkpt lat="41.62990918566405" lon="12.742462369944601"><ele>132.0</ele><time>2026-04-06T08:39:51Z</time></trkpt><trkpt lat="41.62979621899937" lon="12.742478214284823"><ele>132.0</ele><time>2026-04-06T08:39:52Z</time></trkpt><trkpt lat="41.62969127106361" lon="12.742491179994865"><ele>132.0</ele><time>2026-04-06T08:39:53Z</time></trkpt><trkpt lat="41.6295930924113" lon="12.742502439704078"><ele>132.0</ele><time>2026-04-06T08:39:54Z</time></trkpt><trkpt lat="41.6294960109084" lon="12.742513896662155"><ele>132.0</ele><time>2026-04-06T08:39:55Z</time></trkpt><trkpt lat="41.62939643259718" lon="12.742526426299404"><ele>132.0</ele><time>2026-04-06T08:39:56Z</time></trkpt><trkpt lat="41.62929699660055" lon="12.742540104479074"><ele>132.0</ele><time>2026-04-06T08:39:57Z</time></trkpt><trkpt lat="41.62920173393925" lon="12.742542843239272"><ele>131.6</ele><time>2026-04-06T08:39:58Z</time></trkpt><trkpt lat="41.6291002548819" lon="12.742551881616585"><ele>131.2</ele><time>2026-04-06T08:39:59Z</time></trkpt><trkpt lat="41.62899524339902" lon="12.74256703232664"><ele>130.8</ele><time>2026-04-06T08:40:00Z</time></trkpt><trkpt lat="41.62888015146192" lon="12.742576910658379"><ele>130.4</ele><time>2026-04-06T08:40:01Z</time></trkpt><trkpt lat="41.62875604885351" lon="12.742587630683222"><ele>130.0</ele><time>2026-04-06T08:40:02Z</time></trkpt><trkpt lat="41.628637553098436" lon="12.742605666505161"><ele>129.2</ele><time>2026-04-06T08:40:03Z</time></trkpt><trkpt lat="41.628533579046646" lon="12.74261699389993"><ele>128.4</ele><time>2026-04-06T08:40:04Z</time></trkpt><trkpt lat="41.6284281484541" lon="12.742627471678619"><ele>127.6</ele><time>2026-04-06T08:40:05Z</time></trkpt><trkpt lat="41.6283212405658" lon="12.742638825742125"><ele>126.8</ele><time>2026-04-06T08:40:06Z</time></trkpt><trkpt lat="41.628203014319546" lon="12.742651642678988"><ele>126.0</ele><time>2026-04-06T08:40:07Z</time></trkpt><trkpt lat="41.62808545143343" lon="12.742667539835578"><ele>126.0</ele><time>2026-04-06T08:40:08Z</time></trkpt><trkpt lat="41.62796790877739" lon="12.742678359990723"><ele>126.0</ele><time>2026-04-06T08:40:09Z</time></trkpt><trkpt lat="41.62786416948328" lon="12.742680296790578"><ele>126.0</ele><time>2026-04-06T08:40:10Z</time></trkpt><trkpt lat="41.62775895942229" lon="12.742685882736037"><ele>126.0</ele><time>2026-04-06T08:40:11Z</time></trkpt><trkpt lat="41.62765122071417" lon="12.742694620797"><ele>126.0</ele><time>2026-04-06T08:40:12Z</time></trkpt><trkpt lat="41.627542345238616" lon="12.742711132255026"><ele>125.0</ele><time>2026-04-06T08:40:13Z</time></trkpt><trkpt lat="41.627431034945324" lon="12.742726502351033"><ele>124.0</ele><time>2026-04-06T08:40:14Z</time></trkpt><trkpt lat="41.62731868589974" lon="12.74273729076343"><ele>123.0</ele><time>2026-04-06T08:40:15Z</time></trkpt><trkpt lat="41.62720106719831" lon="12.742752624533319"><ele>122.0</ele><time>2026-04-06T08:40:16Z</time></trkpt><trkpt lat="41.62708892674782" lon="12.742764637890811"><ele>121.99999999999999</ele><time>2026-04-06T08:40:17Z</time></trkpt><trkpt lat="41.62699197373753" lon="12.742775355896605"><ele>122.0</ele><time>2026-04-06T08:40:18Z</time></trkpt><trkpt lat="41.62690268121265" lon="12.742790223969289"><ele>122.0</ele><time>2026-04-06T08:40:19Z</time></trkpt><trkpt lat="41.626815053571946" lon="12.742804401278475"><ele>122.0</ele><time>2026-04-06T08:40:20Z</time></trkpt><trkpt lat="41.62673101165739" lon="12.742818413679043"><ele>121.99999999999999</ele><time>2026-04-06T08:40:21Z</time></trkpt><trkpt lat="41.62665454748324" lon="12.74283354869411"><ele>122.0</ele><time>2026-04-06T08:40:22Z</time></trkpt><trkpt lat="41.62658593228239" lon="12.74285085000956"><ele>121.99999999999999</ele><time>2026-04-06T08:40:23Z</time></trkpt><trkpt lat="41.62647136018042" lon="12.742868700334313"><ele>122.0</ele><time>2026-04-06T08:40:25Z</time></trkpt><trkpt lat="41.62637917625053" lon="12.742869893484695"><ele>122.0</ele><time>2026-04-06T08:40:27Z</time></trkpt><trkpt lat="41.626316658693305" lon="12.742837766280433"><ele>122.0</ele><time>2026-04-06T08:40:30Z</time></trkpt><trkpt lat="41.6263109564277" lon="12.742727286067437"><ele>121.99999999999999</ele><time>2026-04-06T08:40:33Z</time></trkpt><trkpt lat="41.62631095642796" lon="12.742626370310711"><ele>122.0</ele><time>2026-04-06T08:40:34Z</time></trkpt><trkpt lat="41.62630939023092" lon="12.742520140456996"><ele>122.16666666666666</ele><time>2026-04-06T08:40:35Z</time></trkpt><trkpt lat="41.62630102034904" lon="12.742399354340682"><ele>122.33333333333333</ele><time>2026-04-06T08:40:36Z</time></trkpt><trkpt lat="41.62626959950546" lon="12.74228950536947"><ele>122.5</ele><time>2026-04-06T08:40:37Z</time></trkpt><trkpt lat="41.62627614348679" lon="12.742173542742279"><ele>122.66666666666666</ele><time>2026-04-06T08:40:38Z</time></trkpt><trkpt lat="41.62626683355346" lon="12.74207186945623"><ele>122.83333333333333</ele><time>2026-04-06T08:40:39Z</time></trkpt><trkpt lat="41.626259199080124" lon="12.741985911523"><ele>123.0</ele><time>2026-04-06T08:40:40Z</time></trkpt><trkpt lat="41.626251220477165" lon="12.741900598536969"><ele>122.5</ele><time>2026-04-06T08:40:41Z</time></trkpt><trkpt lat="41.626236726235064" lon="12.741735830897236"><ele>122.0</ele><time>2026-04-06T08:40:43Z</time></trkpt><trkpt lat="41.62622806425814" lon="12.741635041873277"><ele>121.5</ele><time>2026-04-06T08:40:44Z</time></trkpt><trkpt lat="41.62622181252023" lon="12.741547289651605"><ele>121.0</ele><time>2026-04-06T08:40:45Z</time></trkpt><trkpt lat="41.62621563861241" lon="12.741461728849918"><ele>120.5</ele><time>2026-04-06T08:40:46Z</time></trkpt><trkpt lat="41.62621089271008" lon="12.741375476288544"><ele>120.0</ele><time>2026-04-06T08:40:47Z</time></trkpt><trkpt lat="41.62620739842527" lon="12.741287570278233"><ele>120.0</ele><time>2026-04-06T08:40:48Z</time></trkpt><trkpt lat="41.62620397734205" lon="12.741202825115076"><ele>120.0</ele><time>2026-04-06T08:40:49Z</time></trkpt><trkpt lat="41.62620091591693" lon="12.741118187611992"><ele>120.0</ele><time>2026-04-06T08:40:50Z</time></trkpt><trkpt lat="41.62619799539715" lon="12.741030226702277"><ele>120.0</ele><time>2026-04-06T08:40:51Z</time></trkpt><trkpt lat="41.626195154985496" lon="12.740944678714783"><ele>120.0</ele><time>2026-04-06T08:40:52Z</time></trkpt><trkpt lat="41.626191744758195" lon="12.74084196869355"><ele>120.0</ele><time>2026-04-06T08:40:53Z</time></trkpt><trkpt lat="41.62618847224541" lon="12.74073311290065"><ele>120.0</ele><time>2026-04-06T08:40:54Z</time></trkpt><trkpt lat="41.626184966421484" lon="12.740628322339711"><ele>119.5</ele><time>2026-04-06T08:40:55Z</time></trkpt><trkpt lat="41.62618058481437" lon="12.740519290064876"><ele>119.0</ele><time>2026-04-06T08:40:56Z</time></trkpt><trkpt lat="41.62616577209217" lon="12.740408412748526"><ele>118.5</ele><time>2026-04-06T08:40:57Z</time></trkpt><trkpt lat="41.626169620038944" lon="12.740294924268463"><ele>118.0</ele><time>2026-04-06T08:40:58Z</time></trkpt><trkpt lat="41.626165745147034" lon="12.740191784438169"><ele>117.5</ele><time>2026-04-06T08:40:59Z</time></trkpt><trkpt lat="41.62615844957878" lon="12.74007571467868"><ele>117.0</ele><time>2026-04-06T08:41:00Z</time></trkpt><trkpt lat="41.62615302123507" lon="12.739951152887231"><ele>115.83333333333333</ele><time>2026-04-06T08:41:01Z</time></trkpt><trkpt lat="41.6261395461956" lon="12.73984006522682"><ele>114.66666666666666</ele><time>2026-04-06T08:41:02Z</time></trkpt><trkpt lat="41.626123469511626" lon="12.739744314721081"><ele>113.5</ele><time>2026-04-06T08:41:03Z</time></trkpt><trkpt lat="41.62610807729385" lon="12.73964876439337"><ele>112.33333333333333</ele><time>2026-04-06T08:41:04Z</time></trkpt><trkpt lat="41.62608905097904" lon="12.739553284234747"><ele>111.16666666666666</ele><time>2026-04-06T08:41:05Z</time></trkpt><trkpt lat="41.62606590871615" lon="12.73945242119809"><ele>110.0</ele><time>2026-04-06T08:41:06Z</time></trkpt><trkpt lat="41.626040044763045" lon="12.739323650793494"><ele>109.25</ele><time>2026-04-06T08:41:07Z</time></trkpt><trkpt lat="41.6260070512556" lon="12.739180650380847"><ele>108.5</ele><time>2026-04-06T08:41:08Z</time></trkpt><trkpt lat="41.625960655922015" lon="12.739004393994867"><ele>107.75</ele><time>2026-04-06T08:41:09Z</time></trkpt><trkpt lat="41.62590178135616" lon="12.73880502408478"><ele>107.0</ele><time>2026-04-06T08:41:10Z</time></trkpt><trkpt lat="41.62584911429693" lon="12.738630143258066"><ele>106.6</ele><time>2026-04-06T08:41:11Z</time></trkpt><trkpt lat="41.62580530572945" lon="12.738482042320829"><ele>106.19999999999999</ele><time>2026-04-06T08:41:12Z</time></trkpt><trkpt lat="41.62576419151858" lon="12.738349397046553"><ele>105.8</ele><time>2026-04-06T08:41:13Z</time></trkpt><trkpt lat="41.625725677026985" lon="12.738226554395919"><ele>105.4</ele><time>2026-04-06T08:41:14Z</time></trkpt><trkpt lat="41.62568711177439" lon="12.738119880505295"><ele>105.0</ele><time>2026-04-06T08:41:15Z</time></trkpt><trkpt lat="41.625647892347295" lon="12.738024932026745"><ele>105.0</ele><time>2026-04-06T08:41:16Z</time></trkpt><trkpt lat="41.62560670968684" lon="12.737912121362587"><ele>105.0</ele><time>2026-04-06T08:41:17Z</time></trkpt><trkpt lat="41.62549417895218" lon="12.7378699794252"><ele>105.0</ele><time>2026-04-06T08:41:18Z</time></trkpt><trkpt lat="41.62540121675464" lon="12.737838518704955"><ele>105.0</ele><time>2026-04-06T08:41:19Z</time></trkpt><trkpt lat="41.62528874975823" lon="12.737827100441883"><ele>105.0</ele><time>2026-04-06T08:41:20Z</time></trkpt><trkpt lat="41.62517857694834" lon="12.737802833264952"><ele>105.25</ele><time>2026-04-06T08:41:21Z</time></trkpt><trkpt lat="41.62508649549798" lon="12.7377194363931"><ele>105.5</ele><time>2026-04-06T08:41:22Z</time></trkpt><trkpt lat="41.62495820563905" lon="12.737592708380822"><ele>105.75</ele><time>2026-04-06T08:41:23Z</time></trkpt><trkpt lat="41.6248219531053" lon="12.737533145580485"><ele>106.0</ele><time>2026-04-06T08:41:24Z</time></trkpt><trkpt lat="41.62469222979821" lon="12.737522362720252"><ele>106.25</ele><time>2026-04-06T08:41:25Z</time></trkpt><trkpt lat="41.624571928608596" lon="12.73745258656899"><ele>106.5</ele><time>2026-04-06T08:41:26Z</time></trkpt><trkpt lat="41.62444617248054" lon="12.737404378612627"><ele>106.75</ele><time>2026-04-06T08:41:27Z</time></trkpt><trkpt lat="41.624327502985636" lon="12.737358332525876"><ele>107.0</ele><time>2026-04-06T08:41:28Z</time></trkpt><trkpt lat="41.62420162763475" lon="12.737299983132994"><ele>106.5</ele><time>2026-04-06T08:41:29Z</time></trkpt><trkpt lat="41.624085445217986" lon="12.737255125956928"><ele>106.0</ele><time>2026-04-06T08:41:30Z</time></trkpt><trkpt lat="41.623983957953804" lon="12.73718622451063"><ele>105.5</ele><time>2026-04-06T08:41:31Z</time></trkpt><trkpt lat="41.62387643067616" lon="12.737139242204877"><ele>105.0</ele><time>2026-04-06T08:41:32Z</time></trkpt><trkpt lat="41.62376603131048" lon="12.737118378198872"><ele>105.0</ele><time>2026-04-06T08:41:33Z</time></trkpt><trkpt lat="41.623657235373805" lon="12.737072117427292"><ele>105.0</ele><time>2026-04-06T08:41:34Z</time></trkpt><trkpt lat="41.62355067035916" lon="12.737032813242294"><ele>105.0</ele><time>2026-04-06T08:41:35Z</time></trkpt><trkpt lat="41.62345024915656" lon="12.736979108960611"><ele>105.0</ele><time>2026-04-06T08:41:36Z</time></trkpt><trkpt lat="41.623355636209574" lon="12.736916309532266"><ele>105.0</ele><time>2026-04-06T08:41:37Z</time></trkpt><trkpt lat="41.62326726216049" lon="12.736868308541977"><ele>105.33333333333333</ele><time>2026-04-06T08:41:38Z</time></trkpt><trkpt lat="41.62318694844121" lon="12.736817249671702"><ele>105.66666666666666</ele><time>2026-04-06T08:41:39Z</time></trkpt><trkpt lat="41.62310151704997" lon="12.736765165829057"><ele>106.0</ele><time>2026-04-06T08:41:40Z</time></trkpt><trkpt lat="41.623022565324355" lon="12.73671463384546"><ele>106.33333333333333</ele><time>2026-04-06T08:41:41Z</time></trkpt><trkpt lat="41.6229600707534" lon="12.736667426139551"><ele>106.66666666666666</ele><time>2026-04-06T08:41:42Z</time></trkpt><trkpt lat="41.622893651978856" lon="12.736606648451962"><ele>107.0</ele><time>2026-04-06T08:41:43Z</time></trkpt><trkpt lat="41.622824795717015" lon="12.736531987743533"><ele>106.19999999999999</ele><time>2026-04-06T08:41:44Z</time></trkpt><trkpt lat="41.622756315500915" lon="12.736447810779556"><ele>105.39999999999999</ele><time>2026-04-06T08:41:45Z</time></trkpt><trkpt lat="41.62268719889824" lon="12.736348977337496"><ele>104.6</ele><time>2026-04-06T08:41:46Z</time></trkpt><trkpt lat="41.62262670697839" lon="12.736252405324276"><ele>103.80000000000001</ele><time>2026-04-06T08:41:47Z</time></trkpt><trkpt lat="41.62257237621572" lon="12.73615109898211"><ele>103.0</ele><time>2026-04-06T08:41:48Z</time></trkpt><trkpt lat="41.62252817017327" lon="12.736021719196817"><ele>103.0</ele><time>2026-04-06T08:41:49Z</time></trkpt><trkpt lat="41.62247147525361" lon="12.735884749138622"><ele>103.0</ele><time>2026-04-06T08:41:50Z</time></trkpt><trkpt lat="41.62241317105256" lon="12.73574310552644"><ele>103.0</ele><time>2026-04-06T08:41:51Z</time></trkpt><trkpt lat="41.62234498201327" lon="12.735614097276274"><ele>103.0</ele><time>2026-04-06T08:41:52Z</time></trkpt><trkpt lat="41.62227594559923" lon="12.735494564076673"><ele>103.0</ele><time>2026-04-06T08:41:53Z</time></trkpt><trkpt lat="41.62220039052713" lon="12.735377205893364"><ele>103.0</ele><time>2026-04-06T08:41:54Z</time></trkpt><trkpt lat="41.62212932222949" lon="12.73523459450221"><ele>103.0</ele><time>2026-04-06T08:41:55Z</time></trkpt><trkpt lat="41.62205791265401" lon="12.73509738306343"><ele>103.0</ele><time>2026-04-06T08:41:56Z</time></trkpt><trkpt lat="41.62198469847973" lon="12.734954910946747"><ele>102.25</ele><time>2026-04-06T08:41:57Z</time></trkpt><trkpt lat="41.621909471082475" lon="12.734816242892517"><ele>101.5</ele><time>2026-04-06T08:41:58Z</time></trkpt><trkpt lat="41.62184353490835" lon="12.73467431795992"><ele>100.75</ele><time>2026-04-06T08:41:59Z</time></trkpt><trkpt lat="41.62177743132738" lon="12.734537758756767"><ele>100.0</ele><time>2026-04-06T08:42:00Z</time></trkpt><trkpt lat="41.621708950709134" lon="12.734399535071944"><ele>100.75</ele><time>2026-04-06T08:42:01Z</time></trkpt><trkpt lat="41.62163732486241" lon="12.734253455906211"><ele>101.5</ele><time>2026-04-06T08:42:02Z</time></trkpt><trkpt lat="41.621574002099564" lon="12.734099705735222"><ele>102.25</ele><time>2026-04-06T08:42:03Z</time></trkpt><trkpt lat="41.62151392462762" lon="12.733940907119152"><ele>103.0</ele><time>2026-04-06T08:42:04Z</time></trkpt><trkpt lat="41.62143688595813" lon="12.733794509900763"><ele>103.0</ele><time>2026-04-06T08:42:05Z</time></trkpt><trkpt lat="41.621356307033274" lon="12.733648827862194"><ele>103.0</ele><time>2026-04-06T08:42:06Z</time></trkpt><trkpt lat="41.62127509061822" lon="12.733503879900425"><ele>103.0</ele><time>2026-04-06T08:42:07Z</time></trkpt><trkpt lat="41.62119263158501" lon="12.73335715944927"><ele>103.0</ele><time>2026-04-06T08:42:08Z</time></trkpt><trkpt lat="41.62109989967424" lon="12.733225782254362"><ele>102.5</ele><time>2026-04-06T08:42:09Z</time></trkpt><trkpt lat="41.621016638027584" lon="12.733074165741595"><ele>102.0</ele><time>2026-04-06T08:42:10Z</time></trkpt><trkpt lat="41.620938729136924" lon="12.732925031040164"><ele>101.5</ele><time>2026-04-06T08:42:11Z</time></trkpt><trkpt lat="41.620858820882674" lon="12.732801157481635"><ele>101.0</ele><time>2026-04-06T08:42:12Z</time></trkpt><trkpt lat="41.62077909632256" lon="12.732671787248021"><ele>100.5</ele><time>2026-04-06T08:42:13Z</time></trkpt><trkpt lat="41.62069958542344" lon="12.732535358342757"><ele>100.0</ele><time>2026-04-06T08:42:14Z</time></trkpt><trkpt lat="41.62063351211792" lon="12.732375078708388"><ele>99.5</ele><time>2026-04-06T08:42:15Z</time></trkpt><trkpt lat="41.62053369776579" lon="12.73223224747333"><ele>99.0</ele><time>2026-04-06T08:42:16Z</time></trkpt><trkpt lat="41.620459711089524" lon="12.732091560065271"><ele>99.0</ele><time>2026-04-06T08:42:17Z</time></trkpt><trkpt lat="41.62038718788284" lon="12.731965956799622"><ele>99.0</ele><time>2026-04-06T08:42:18Z</time></trkpt><trkpt lat="41.620316000549" lon="12.731849205776063"><ele>99.0</ele><time>2026-04-06T08:42:19Z</time></trkpt><trkpt lat="41.62024484914098" lon="12.731738265691662"><ele>99.0</ele><time>2026-04-06T08:42:20Z</time></trkpt><trkpt lat="41.62018934042111" lon="12.731621964307466"><ele>99.0</ele><time>2026-04-06T08:42:21Z</time></trkpt><trkpt lat="41.62012712666104" lon="12.731539859913994"><ele>98.83333333333333</ele><time>2026-04-06T08:42:22Z</time></trkpt><trkpt lat="41.62006749736152" lon="12.731475877733484"><ele>98.66666666666666</ele><time>2026-04-06T08:42:23Z</time></trkpt><trkpt lat="41.619986941773035" lon="12.731439149309281"><ele>98.5</ele><time>2026-04-06T08:42:24Z</time></trkpt><trkpt lat="41.61991166373878" lon="12.73138847569326"><ele>98.33333333333333</ele><time>2026-04-06T08:42:25Z</time></trkpt><trkpt lat="41.61983160776836" lon="12.731340160764354"><ele>98.16666666666666</ele><time>2026-04-06T08:42:26Z</time></trkpt><trkpt lat="41.61975843152902" lon="12.731310035828837"><ele>98.0</ele><time>2026-04-06T08:42:27Z</time></trkpt><trkpt lat="41.61966032081773" lon="12.731247494934593"><ele>98.0</ele><time>2026-04-06T08:42:29Z</time></trkpt><trkpt lat="41.619587177320916" lon="12.731171711467237"><ele>98.0</ele><time>2026-04-06T08:42:31Z</time></trkpt><trkpt lat="41.61952309707129" lon="12.731094699536827"><ele>98.0</ele><time>2026-04-06T08:42:33Z</time></trkpt><trkpt lat="41.61948302525817" lon="12.730980775335953"><ele>98.0</ele><time>2026-04-06T08:42:35Z</time></trkpt><trkpt lat="41.619463993272156" lon="12.73082740095507"><ele>98.0</ele><time>2026-04-06T08:42:37Z</time></trkpt><trkpt lat="41.619455477152094" lon="12.730733074021025"><ele>97.85714285714286</ele><time>2026-04-06T08:42:38Z</time></trkpt><trkpt lat="41.61944749213958" lon="12.730642805417856"><ele>97.71428571428572</ele><time>2026-04-06T08:42:39Z</time></trkpt><trkpt lat="41.61942170771609" lon="12.730551037059353"><ele>97.57142857142857</ele><time>2026-04-06T08:42:40Z</time></trkpt><trkpt lat="41.61940951391498" lon="12.73045311492749"><ele>97.42857142857143</ele><time>2026-04-06T08:42:41Z</time></trkpt><trkpt lat="41.61939781691469" lon="12.73035756034612"><ele>97.28571428571429</ele><time>2026-04-06T08:42:42Z</time></trkpt><trkpt lat="41.6193839467636" lon="12.730260096682834"><ele>97.14285714285714</ele><time>2026-04-06T08:42:43Z</time></trkpt><trkpt lat="41.61935926257866" lon="12.73016857803631"><ele>97.0</ele><time>2026-04-06T08:42:44Z</time></trkpt><trkpt lat="41.61932715767449" lon="12.730081762539623"><ele>96.33333333333334</ele><time>2026-04-06T08:42:45Z</time></trkpt><trkpt lat="41.619307500515816" lon="12.729975048509107"><ele>95.66666666666667</ele><time>2026-04-06T08:42:46Z</time></trkpt><trkpt lat="41.61926716522728" lon="12.72987052806828"><ele>95.0</ele><time>2026-04-06T08:42:47Z</time></trkpt><trkpt lat="41.61922711265662" lon="12.729765737161118"><ele>94.33333333333334</ele><time>2026-04-06T08:42:48Z</time></trkpt><trkpt lat="41.61918607897954" lon="12.729658083627132"><ele>93.66666666666667</ele><time>2026-04-06T08:42:49Z</time></trkpt><trkpt lat="41.61914522849846" lon="12.729550910852906"><ele>93.0</ele><time>2026-04-06T08:42:50Z</time></trkpt><trkpt lat="41.619106362346656" lon="12.729450359980246"><ele>92.60000000000001</ele><time>2026-04-06T08:42:51Z</time></trkpt><trkpt lat="41.61906347102881" lon="12.729343504457454"><ele>92.2</ele><time>2026-04-06T08:42:52Z</time></trkpt><trkpt lat="41.619007518438224" lon="12.7292041094069"><ele>91.8</ele><time>2026-04-06T08:42:53Z</time></trkpt><trkpt lat="41.618947823885186" lon="12.729061787556072"><ele>91.4</ele><time>2026-04-06T08:42:54Z</time></trkpt><trkpt lat="41.6188862219364" lon="12.728928863171529"><ele>91.0</ele><time>2026-04-06T08:42:55Z</time></trkpt><trkpt lat="41.61883159876528" lon="12.7288138206581"><ele>91.0</ele><time>2026-04-06T08:42:56Z</time></trkpt><trkpt lat="41.61878112985869" lon="12.728691826476462"><ele>91.0</ele><time>2026-04-06T08:42:57Z</time></trkpt><trkpt lat="41.61872936245891" lon="12.72858702304349"><ele>91.0</ele><time>2026-04-06T08:42:58Z</time></trkpt><trkpt lat="41.61868909670051" lon="12.728495668136782"><ele>91.0</ele><time>2026-04-06T08:42:59Z</time></trkpt><trkpt lat="41.618655019231156" lon="12.728412210568962"><ele>91.0</ele><time>2026-04-06T08:43:00Z</time></trkpt><trkpt lat="41.61860380378396" lon="12.728274275930652"><ele>89.8</ele><time>2026-04-06T08:43:02Z</time></trkpt><trkpt lat="41.618532385046024" lon="12.728162115587352"><ele>88.6</ele><time>2026-04-06T08:43:04Z</time></trkpt><trkpt lat="41.61848891651559" lon="12.72807407537428"><ele>87.4</ele><time>2026-04-06T08:43:05Z</time></trkpt><trkpt lat="41.61840099270433" lon="12.727998581452102"><ele>86.2</ele><time>2026-04-06T08:43:06Z</time></trkpt><trkpt lat="41.618314827883985" lon="12.727905619019698"><ele>85.0</ele><time>2026-04-06T08:43:07Z</time></trkpt><trkpt lat="41.6182323396872" lon="12.727794639575704"><ele>85.0</ele><time>2026-04-06T08:43:08Z</time></trkpt><trkpt lat="41.618137918260565" lon="12.727661121422049"><ele>85.0</ele><time>2026-04-06T08:43:09Z</time></trkpt><trkpt lat="41.618039020839646" lon="12.727513526310862"><ele>85.0</ele><time>2026-04-06T08:43:10Z</time></trkpt><trkpt lat="41.61793498735113" lon="12.727353340613535"><ele>85.0</ele><time>2026-04-06T08:43:11Z</time></trkpt><trkpt lat="41.61782508697837" lon="12.727200446253754"><ele>85.0</ele><time>2026-04-06T08:43:12Z</time></trkpt><trkpt lat="41.61771848368617" lon="12.727063736181565"><ele>85.0</ele><time>2026-04-06T08:43:13Z</time></trkpt><trkpt lat="41.61761550431273" lon="12.726920818257028"><ele>85.0</ele><time>2026-04-06T08:43:14Z</time></trkpt><trkpt lat="41.61750686400585" lon="12.726791799499459"><ele>85.0</ele><time>2026-04-06T08:43:15Z</time></trkpt><trkpt lat="41.617403560451294" lon="12.726650395088203"><ele>84.33333333333333</ele><time>2026-04-06T08:43:16Z</time></trkpt><trkpt lat="41.61729359969261" lon="12.72649882814444"><ele>83.66666666666667</ele><time>2026-04-06T08:43:17Z</time></trkpt><trkpt lat="41.617185593787525" lon="12.72635849391665"><ele>83.0</ele><time>2026-04-06T08:43:18Z</time></trkpt><trkpt lat="41.61706852270576" lon="12.726212593472205"><ele>83.0</ele><time>2026-04-06T08:43:19Z</time></trkpt><trkpt lat="41.61695795380475" lon="12.726068446742504"><ele>83.0</ele><time>2026-04-06T08:43:20Z</time></trkpt><trkpt lat="41.61686946295519" lon="12.72595601598912"><ele>83.0</ele><time>2026-04-06T08:43:21Z</time></trkpt><trkpt lat="41.61679604450495" lon="12.72586422299751"><ele>83.0</ele><time>2026-04-06T08:43:22Z</time></trkpt><trkpt lat="41.61672780414769" lon="12.725786636819523"><ele>83.16666666666667</ele><time>2026-04-06T08:43:23Z</time></trkpt><trkpt lat="41.61666715325407" lon="12.725709073306307"><ele>83.33333333333334</ele><time>2026-04-06T08:43:24Z</time></trkpt><trkpt lat="41.616612373470424" lon="12.725641504827935"><ele>83.5</ele><time>2026-04-06T08:43:25Z</time></trkpt><trkpt lat="41.61656433157859" lon="12.725586751132873"><ele>83.66666666666667</ele><time>2026-04-06T08:43:26Z</time></trkpt><trkpt lat="41.616481130738755" lon="12.725499269375147"><ele>83.83333333333333</ele><time>2026-04-06T08:43:28Z</time></trkpt><trkpt lat="41.61641736682885" lon="12.725424546913205"><ele>84.0</ele><time>2026-04-06T08:43:30Z</time></trkpt><trkpt lat="41.61634501714587" lon="12.725342248999416"><ele>84.0</ele><time>2026-04-06T08:43:34Z</time></trkpt><trkpt lat="41.61630054395956" lon="12.725275279016051"><ele>84.0</ele><time>2026-04-06T08:43:35Z</time></trkpt><trkpt lat="41.61624255119478" lon="12.725200225543764"><ele>84.0</ele><time>2026-04-06T08:43:36Z</time></trkpt><trkpt lat="41.61614800052283" lon="12.72507449446408"><ele>84.0</ele><time>2026-04-06T08:43:37Z</time></trkpt><trkpt lat="41.616037032999095" lon="12.724929072745702"><ele>84.0</ele><time>2026-04-06T08:43:38Z</time></trkpt><trkpt lat="41.61592176477202" lon="12.72476845392147"><ele>84.25</ele><time>2026-04-06T08:43:39Z</time></trkpt><trkpt lat="41.615805728793546" lon="12.724615312788027"><ele>84.5</ele><time>2026-04-06T08:43:40Z</time></trkpt><trkpt lat="41.61570843005176" lon="12.724487210763895"><ele>84.75</ele><time>2026-04-06T08:43:41Z</time></trkpt><trkpt lat="41.61562700849231" lon="12.724368995403653"><ele>85.0</ele><time>2026-04-06T08:43:42Z</time></trkpt><trkpt lat="41.61553626721744" lon="12.724251667094107"><ele>84.5</ele><time>2026-04-06T08:43:43Z</time></trkpt><trkpt lat="41.615442950274485" lon="12.72412326769257"><ele>84.0</ele><time>2026-04-06T08:43:44Z</time></trkpt><trkpt lat="41.61534727715656" lon="12.723990998511187"><ele>83.5</ele><time>2026-04-06T08:43:45Z</time></trkpt><trkpt lat="41.61525131766744" lon="12.723858337606831"><ele>83.0</ele><time>2026-04-06T08:43:46Z</time></trkpt><trkpt lat="41.61515462184867" lon="12.723728002995706"><ele>82.75</ele><time>2026-04-06T08:43:47Z</time></trkpt><trkpt lat="41.615059708462844" lon="12.72359780257618"><ele>82.5</ele><time>2026-04-06T08:43:48Z</time></trkpt><trkpt lat="41.61496313321946" lon="12.723469031998382"><ele>82.25</ele><time>2026-04-06T08:43:49Z</time></trkpt><trkpt lat="41.61486445122187" lon="12.72333984882195"><ele>82.0</ele><time>2026-04-06T08:43:50Z</time></trkpt><trkpt lat="41.61476787185466" lon="12.72321004517755"><ele>82.0</ele><time>2026-04-06T08:43:51Z</time></trkpt><trkpt lat="41.61467290981465" lon="12.723079778161123"><ele>82.0</ele><time>2026-04-06T08:43:52Z</time></trkpt><trkpt lat="41.61457810174702" lon="12.72294885465711"><ele>82.0</ele><time>2026-04-06T08:43:53Z</time></trkpt><trkpt lat="41.614484682219896" lon="12.722822171333354"><ele>82.0</ele><time>2026-04-06T08:43:54Z</time></trkpt><trkpt lat="41.61439242203452" lon="12.722696222941803"><ele>81.75</ele><time>2026-04-06T08:43:55Z</time></trkpt><trkpt lat="41.61429744540236" lon="12.722575048266172"><ele>81.5</ele><time>2026-04-06T08:43:56Z</time></trkpt><trkpt lat="41.614203485772826" lon="12.72244542153787"><ele>81.25</ele><time>2026-04-06T08:43:57Z</time></trkpt><trkpt lat="41.6141039920648" lon="12.722316132528706"><ele>81.0</ele><time>2026-04-06T08:43:58Z</time></trkpt><trkpt lat="41.61400062347144" lon="12.722183860722142"><ele>81.0</ele><time>2026-04-06T08:43:59Z</time></trkpt><trkpt lat="41.61389745387614" lon="12.72204935736251"><ele>81.0</ele><time>2026-04-06T08:44:00Z</time></trkpt><trkpt lat="41.613795065753884" lon="12.721917007846685"><ele>81.0</ele><time>2026-04-06T08:44:01Z</time></trkpt><trkpt lat="41.613699553238106" lon="12.721789234011878"><ele>81.0</ele><time>2026-04-06T08:44:02Z</time></trkpt><trkpt lat="41.613617313846355" lon="12.721673750563262"><ele>80.75</ele><time>2026-04-06T08:44:03Z</time></trkpt><trkpt lat="41.61353364610276" lon="12.721559849692863"><ele>80.5</ele><time>2026-04-06T08:44:04Z</time></trkpt><trkpt lat="41.61344872385073" lon="12.721436234675863"><ele>80.25</ele><time>2026-04-06T08:44:05Z</time></trkpt><trkpt lat="41.61336346438639" lon="12.721305554778912"><ele>80.0</ele><time>2026-04-06T08:44:06Z</time></trkpt><trkpt lat="41.613282706587256" lon="12.721167569994629"><ele>80.25</ele><time>2026-04-06T08:44:07Z</time></trkpt><trkpt lat="41.61320502870547" lon="12.721030257945428"><ele>80.5</ele><time>2026-04-06T08:44:08Z</time></trkpt><trkpt lat="41.613127173319135" lon="12.720893882218219"><ele>80.75</ele><time>2026-04-06T08:44:09Z</time></trkpt><trkpt lat="41.61304993753026" lon="12.720759529094629"><ele>81.0</ele><time>2026-04-06T08:44:10Z</time></trkpt><trkpt lat="41.612969078594965" lon="12.720622648270476"><ele>81.0</ele><time>2026-04-06T08:44:11Z</time></trkpt><trkpt lat="41.61288943759659" lon="12.720484027958722"><ele>81.0</ele><time>2026-04-06T08:44:12Z</time></trkpt><trkpt lat="41.61281125874547" lon="12.72034744597372"><ele>81.0</ele><time>2026-04-06T08:44:13Z</time></trkpt><trkpt lat="41.61273331304531" lon="12.720212032999331"><ele>81.0</ele><time>2026-04-06T08:44:14Z</time></trkpt><trkpt lat="41.61265644345712" lon="12.720078502206682"><ele>80.75</ele><time>2026-04-06T08:44:15Z</time></trkpt><trkpt lat="41.61257797365591" lon="12.719946117129995"><ele>80.5</ele><time>2026-04-06T08:44:16Z</time></trkpt><trkpt lat="41.61249585393953" lon="12.719807948237696"><ele>80.25</ele><time>2026-04-06T08:44:17Z</time></trkpt><trkpt lat="41.612410638315694" lon="12.719667846596106"><ele>80.0</ele><time>2026-04-06T08:44:18Z</time></trkpt><trkpt lat="41.61232582685619" lon="12.719527594540237"><ele>80.0</ele><time>2026-04-06T08:44:19Z</time></trkpt><trkpt lat="41.61224186054999" lon="12.719387435996406"><ele>80.0</ele><time>2026-04-06T08:44:20Z</time></trkpt><trkpt lat="41.61217007433058" lon="12.719232970588793"><ele>80.0</ele><time>2026-04-06T08:44:21Z</time></trkpt><trkpt lat="41.61207764491955" lon="12.719101166017369"><ele>80.0</ele><time>2026-04-06T08:44:22Z</time></trkpt><trkpt lat="41.61198709204111" lon="12.718960325647018"><ele>80.0</ele><time>2026-04-06T08:44:23Z</time></trkpt><trkpt lat="41.611898432609024" lon="12.718813711254805"><ele>80.0</ele><time>2026-04-06T08:44:24Z</time></trkpt><trkpt lat="41.61180019842738" lon="12.718679287989525"><ele>80.0</ele><time>2026-04-06T08:44:25Z</time></trkpt><trkpt lat="41.611715420087556" lon="12.718530982350122"><ele>80.0</ele><time>2026-04-06T08:44:26Z</time></trkpt><trkpt lat="41.611618543338516" lon="12.718389142693477"><ele>79.0</ele><time>2026-04-06T08:44:27Z</time></trkpt><trkpt lat="41.611508857706326" lon="12.718259415169797"><ele>78.0</ele><time>2026-04-06T08:44:28Z</time></trkpt><trkpt lat="41.61141444798618" lon="12.718118505996316"><ele>77.0</ele><time>2026-04-06T08:44:29Z</time></trkpt><trkpt lat="41.61132157236945" lon="12.717983383894614"><ele>76.0</ele><time>2026-04-06T08:44:30Z</time></trkpt><trkpt lat="41.61122487482284" lon="12.717842428182468"><ele>75.75</ele><time>2026-04-06T08:44:31Z</time></trkpt><trkpt lat="41.61112491423952" lon="12.7177021508454"><ele>75.5</ele><time>2026-04-06T08:44:32Z</time></trkpt><trkpt lat="41.61102841053597" lon="12.717555751925893"><ele>75.25</ele><time>2026-04-06T08:44:33Z</time></trkpt><trkpt lat="41.61092723645742" lon="12.717407923984345"><ele>75.0</ele><time>2026-04-06T08:44:34Z</time></trkpt><trkpt lat="41.610818688265034" lon="12.71725378469334"><ele>75.0</ele><time>2026-04-06T08:44:35Z</time></trkpt><trkpt lat="41.61071317763529" lon="12.717097283042285"><ele>75.0</ele><time>2026-04-06T08:44:36Z</time></trkpt><trkpt lat="41.610607991972145" lon="12.71694246033043"><ele>75.0</ele><time>2026-04-06T08:44:37Z</time></trkpt><trkpt lat="41.610506746146726" lon="12.716793607587162"><ele>74.75</ele><time>2026-04-06T08:44:38Z</time></trkpt><trkpt lat="41.61040238927588" lon="12.716644862668817"><ele>74.5</ele><time>2026-04-06T08:44:39Z</time></trkpt><trkpt lat="41.61030053555962" lon="12.716499257084449"><ele>74.25</ele><time>2026-04-06T08:44:40Z</time></trkpt><trkpt lat="41.61020037591795" lon="12.71635491813044"><ele>74.0</ele><time>2026-04-06T08:44:41Z</time></trkpt><trkpt lat="41.61009459878311" lon="12.716210358446709"><ele>73.33333333333334</ele><time>2026-04-06T08:44:42Z</time></trkpt><trkpt lat="41.60999013158795" lon="12.71606898075956"><ele>72.66666666666667</ele><time>2026-04-06T08:44:43Z</time></trkpt><trkpt lat="41.60987086877905" lon="12.715936068710151"><ele>72.0</ele><time>2026-04-06T08:44:44Z</time></trkpt><trkpt lat="41.609742468448" lon="12.715816473776966"><ele>72.0</ele><time>2026-04-06T08:44:45Z</time></trkpt><trkpt lat="41.60961360170094" lon="12.715704299328694"><ele>72.0</ele><time>2026-04-06T08:44:46Z</time></trkpt><trkpt lat="41.609486903804495" lon="12.715592186474161"><ele>72.0</ele><time>2026-04-06T08:44:47Z</time></trkpt><trkpt lat="41.609364535773466" lon="12.715490225430754"><ele>72.0</ele><time>2026-04-06T08:44:48Z</time></trkpt><trkpt lat="41.609235348454206" lon="12.715371807177954"><ele>72.0</ele><time>2026-04-06T08:44:49Z</time></trkpt><trkpt lat="41.60909902450481" lon="12.71524723155586"><ele>72.0</ele><time>2026-04-06T08:44:50Z</time></trkpt><trkpt lat="41.608958868679416" lon="12.715119538915289"><ele>71.66666666666667</ele><time>2026-04-06T08:44:51Z</time></trkpt><trkpt lat="41.60882121295594" lon="12.714991926710308"><ele>71.33333333333334</ele><time>2026-04-06T08:44:52Z</time></trkpt><trkpt lat="41.608680399331185" lon="12.714868019664088"><ele>71.0</ele><time>2026-04-06T08:44:53Z</time></trkpt><trkpt lat="41.60853479149973" lon="12.714739170062243"><ele>71.0</ele><time>2026-04-06T08:44:54Z</time></trkpt><trkpt lat="41.60839447780414" lon="12.714611107704103"><ele>71.0</ele><time>2026-04-06T08:44:55Z</time></trkpt><trkpt lat="41.6082432535286" lon="12.714477856484736"><ele>71.0</ele><time>2026-04-06T08:44:56Z</time></trkpt><trkpt lat="41.60809943886139" lon="12.714352358910578"><ele>71.0</ele><time>2026-04-06T08:44:57Z</time></trkpt><trkpt lat="41.607954077802546" lon="12.71422581299844"><ele>71.0</ele><time>2026-04-06T08:44:58Z</time></trkpt><trkpt lat="41.607808843942905" lon="12.71409679570189"><ele>71.0</ele><time>2026-04-06T08:44:59Z</time></trkpt><trkpt lat="41.60766094848992" lon="12.713964127548167"><ele>71.0</ele><time>2026-04-06T08:45:00Z</time></trkpt><trkpt lat="41.60752031826359" lon="12.713835470233326"><ele>71.0</ele><time>2026-04-06T08:45:01Z</time></trkpt><trkpt lat="41.60737558034201" lon="12.71370843900307"><ele>71.0</ele><time>2026-04-06T08:45:02Z</time></trkpt><trkpt lat="41.60723279966682" lon="12.713583877004478"><ele>71.0</ele><time>2026-04-06T08:45:03Z</time></trkpt><trkpt lat="41.60709252001051" lon="12.71345723113626"><ele>71.0</ele><time>2026-04-06T08:45:04Z</time></trkpt><trkpt lat="41.60695259336142" lon="12.713329136483384"><ele>71.0</ele><time>2026-04-06T08:45:05Z</time></trkpt><trkpt lat="41.60680562196058" lon="12.713200694927616"><ele>70.66666666666667</ele><time>2026-04-06T08:45:06Z</time></trkpt><trkpt lat="41.606658265102624" lon="12.71307109655141"><ele>70.33333333333333</ele><time>2026-04-06T08:45:07Z</time></trkpt><trkpt lat="41.606512503076644" lon="12.712941127133428"><ele>70.0</ele><time>2026-04-06T08:45:08Z</time></trkpt><trkpt lat="41.60636861066716" lon="12.712810314293144"><ele>69.33333333333333</ele><time>2026-04-06T08:45:09Z</time></trkpt><trkpt lat="41.606224134912964" lon="12.712678831722355"><ele>68.66666666666667</ele><time>2026-04-06T08:45:10Z</time></trkpt><trkpt lat="41.606064920102995" lon="12.712533584195247"><ele>68.0</ele><time>2026-04-06T08:45:11Z</time></trkpt><trkpt lat="41.6059084385083" lon="12.712396368242079"><ele>68.0</ele><time>2026-04-06T08:45:12Z</time></trkpt><trkpt lat="41.60575661201773" lon="12.712264700453357"><ele>68.0</ele><time>2026-04-06T08:45:13Z</time></trkpt><trkpt lat="41.60561958659184" lon="12.71214143431207"><ele>68.0</ele><time>2026-04-06T08:45:14Z</time></trkpt><trkpt lat="41.605490998654204" lon="12.712029677933119"><ele>68.0</ele><time>2026-04-06T08:45:15Z</time></trkpt><trkpt lat="41.605373461967325" lon="12.711923451785136"><ele>68.0</ele><time>2026-04-06T08:45:16Z</time></trkpt><trkpt lat="41.60524587379639" lon="12.711813438940991"><ele>68.0</ele><time>2026-04-06T08:45:17Z</time></trkpt><trkpt lat="41.605120913665694" lon="12.71170258899153"><ele>68.0</ele><time>2026-04-06T08:45:18Z</time></trkpt><trkpt lat="41.60499684663169" lon="12.711596194763782"><ele>68.33333333333334</ele><time>2026-04-06T08:45:19Z</time></trkpt><trkpt lat="41.60487369528993" lon="12.711488707074961"><ele>68.66666666666667</ele><time>2026-04-06T08:45:20Z</time></trkpt><trkpt lat="41.604748806523844" lon="12.711379461105091"><ele>69.0</ele><time>2026-04-06T08:45:21Z</time></trkpt><trkpt lat="41.6046070089565" lon="12.711257361609208"><ele>69.0</ele><time>2026-04-06T08:45:22Z</time></trkpt><trkpt lat="41.60447580774191" lon="12.711141562340364"><ele>69.0</ele><time>2026-04-06T08:45:23Z</time></trkpt><trkpt lat="41.604347123272795" lon="12.71102711432625"><ele>69.0</ele><time>2026-04-06T08:45:24Z</time></trkpt><trkpt lat="41.6042275869055" lon="12.710924711001281"><ele>69.25</ele><time>2026-04-06T08:45:25Z</time></trkpt><trkpt lat="41.60411519409781" lon="12.710834834625098"><ele>69.5</ele><time>2026-04-06T08:45:26Z</time></trkpt><trkpt lat="41.60400383878692" lon="12.710739846377901"><ele>69.75</ele><time>2026-04-06T08:45:27Z</time></trkpt><trkpt lat="41.60389332532585" lon="12.710643426956958"><ele>70.0</ele><time>2026-04-06T08:45:28Z</time></trkpt><trkpt lat="41.603785931112526" lon="12.710551005573098"><ele>70.0</ele><time>2026-04-06T08:45:29Z</time></trkpt><trkpt lat="41.603673661113966" lon="12.710459885477352"><ele>70.0</ele><time>2026-04-06T08:45:30Z</time></trkpt><trkpt lat="41.603559501924366" lon="12.710360703686383"><ele>70.0</ele><time>2026-04-06T08:45:31Z</time></trkpt><trkpt lat="41.60344715423419" lon="12.71025227094633"><ele>70.0</ele><time>2026-04-06T08:45:32Z</time></trkpt><trkpt lat="41.60332775431976" lon="12.71015767757261"><ele>69.5</ele><time>2026-04-06T08:45:33Z</time></trkpt><trkpt lat="41.6032231791498" lon="12.710070332519098"><ele>69.0</ele><time>2026-04-06T08:45:34Z</time></trkpt><trkpt lat="41.603116598570004" lon="12.709977273834445"><ele>68.5</ele><time>2026-04-06T08:45:35Z</time></trkpt><trkpt lat="41.603007268907504" lon="12.709882573963476"><ele>68.0</ele><time>2026-04-06T08:45:36Z</time></trkpt><trkpt lat="41.60289763641988" lon="12.709786652600352"><ele>67.75</ele><time>2026-04-06T08:45:37Z</time></trkpt><trkpt lat="41.60278673924215" lon="12.709690264148506"><ele>67.5</ele><time>2026-04-06T08:45:38Z</time></trkpt><trkpt lat="41.602674661174234" lon="12.70959486252339"><ele>67.25</ele><time>2026-04-06T08:45:39Z</time></trkpt><trkpt lat="41.602564704612625" lon="12.709495902682535"><ele>67.0</ele><time>2026-04-06T08:45:40Z</time></trkpt><trkpt lat="41.60245566422994" lon="12.709400715521511"><ele>66.75</ele><time>2026-04-06T08:45:41Z</time></trkpt><trkpt lat="41.602349738724556" lon="12.709311344038284"><ele>66.5</ele><time>2026-04-06T08:45:42Z</time></trkpt><trkpt lat="41.602244905001236" lon="12.709218723973208"><ele>66.25</ele><time>2026-04-06T08:45:43Z</time></trkpt><trkpt lat="41.60214058984324" lon="12.709130300191532"><ele>66.0</ele><time>2026-04-06T08:45:44Z</time></trkpt><trkpt lat="41.60203549513741" lon="12.709040668963615"><ele>66.0</ele><time>2026-04-06T08:45:45Z</time></trkpt><trkpt lat="41.60193325542384" lon="12.708951229448232"><ele>66.0</ele><time>2026-04-06T08:45:46Z</time></trkpt><trkpt lat="41.60183264445576" lon="12.708864306887648"><ele>66.0</ele><time>2026-04-06T08:45:47Z</time></trkpt><trkpt lat="41.60173070006965" lon="12.708774479413304"><ele>66.0</ele><time>2026-04-06T08:45:48Z</time></trkpt><trkpt lat="41.60162948660861" lon="12.708685611719563"><ele>66.0</ele><time>2026-04-06T08:45:49Z</time></trkpt><trkpt lat="41.60152980908525" lon="12.70859987479941"><ele>66.0</ele><time>2026-04-06T08:45:50Z</time></trkpt><trkpt lat="41.60143300016853" lon="12.708517812651062"><ele>66.0</ele><time>2026-04-06T08:45:51Z</time></trkpt><trkpt lat="41.601334710850054" lon="12.708436778114178"><ele>66.0</ele><time>2026-04-06T08:45:52Z</time></trkpt><trkpt lat="41.60123802127551" lon="12.708354042263064"><ele>66.0</ele><time>2026-04-06T08:45:53Z</time></trkpt><trkpt lat="41.60114465793177" lon="12.70826771421759"><ele>66.0</ele><time>2026-04-06T08:45:54Z</time></trkpt><trkpt lat="41.6010540960204" lon="12.708188325192372"><ele>66.0</ele><time>2026-04-06T08:45:55Z</time></trkpt><trkpt lat="41.600962765590126" lon="12.708112921171738"><ele>66.0</ele><time>2026-04-06T08:45:56Z</time></trkpt><trkpt lat="41.60086731103355" lon="12.708032949021005"><ele>66.0</ele><time>2026-04-06T08:45:57Z</time></trkpt><trkpt lat="41.600774714168026" lon="12.70794250534455"><ele>66.0</ele><time>2026-04-06T08:45:58Z</time></trkpt><trkpt lat="41.6006751870319" lon="12.707869624355585"><ele>66.0</ele><time>2026-04-06T08:45:59Z</time></trkpt><trkpt lat="41.60057368285712" lon="12.707785761294469"><ele>66.0</ele><time>2026-04-06T08:46:00Z</time></trkpt><trkpt lat="41.60046679185184" lon="12.707691027887382"><ele>66.0</ele><time>2026-04-06T08:46:01Z</time></trkpt><trkpt lat="41.60034654535923" lon="12.707583750824316"><ele>65.33333333333333</ele><time>2026-04-06T08:46:02Z</time></trkpt><trkpt lat="41.60022315258801" lon="12.707480449304027"><ele>64.66666666666666</ele><time>2026-04-06T08:46:03Z</time></trkpt><trkpt lat="41.60009046938559" lon="12.707365798983778"><ele>64.0</ele><time>2026-04-06T08:46:04Z</time></trkpt><trkpt lat="41.599965866986764" lon="12.70725708115346"><ele>64.0</ele><time>2026-04-06T08:46:05Z</time></trkpt><trkpt lat="41.59985218570105" lon="12.707155992312147"><ele>64.0</ele><time>2026-04-06T08:46:06Z</time></trkpt><trkpt lat="41.599733577489474" lon="12.707055287670592"><ele>64.0</ele><time>2026-04-06T08:46:07Z</time></trkpt><trkpt lat="41.59961547305704" lon="12.706954192052116"><ele>64.0</ele><time>2026-04-06T08:46:08Z</time></trkpt><trkpt lat="41.599507716158534" lon="12.706858453701921"><ele>64.0</ele><time>2026-04-06T08:46:09Z</time></trkpt><trkpt lat="41.599406355077164" lon="12.706773418450645"><ele>64.0</ele><time>2026-04-06T08:46:10Z</time></trkpt><trkpt lat="41.59930015206353" lon="12.706681981011553"><ele>64.0</ele><time>2026-04-06T08:46:11Z</time></trkpt><trkpt lat="41.599187967714066" lon="12.706588141164783"><ele>64.0</ele><time>2026-04-06T08:46:12Z</time></trkpt><trkpt lat="41.599086270424465" lon="12.706494738370548"><ele>64.0</ele><time>2026-04-06T08:46:13Z</time></trkpt><trkpt lat="41.59898004762859" lon="12.706408595690439"><ele>64.0</ele><time>2026-04-06T08:46:14Z</time></trkpt><trkpt lat="41.5988820299131" lon="12.706321949137578"><ele>64.0</ele><time>2026-04-06T08:46:15Z</time></trkpt><trkpt lat="41.598797955243015" lon="12.706242138038213"><ele>64.0</ele><time>2026-04-06T08:46:16Z</time></trkpt><trkpt lat="41.59872665454884" lon="12.706172867486538"><ele>64.0</ele><time>2026-04-06T08:46:17Z</time></trkpt><trkpt lat="41.59864982832044" lon="12.70610646415227"><ele>64.0</ele><time>2026-04-06T08:46:18Z</time></trkpt><trkpt lat="41.59857814734543" lon="12.70603531492563"><ele>64.0</ele><time>2026-04-06T08:46:19Z</time></trkpt><trkpt lat="41.59849908146126" lon="12.705963294973623"><ele>64.0</ele><time>2026-04-06T08:46:20Z</time></trkpt><trkpt lat="41.59841643342351" lon="12.705893993134083"><ele>64.0</ele><time>2026-04-06T08:46:21Z</time></trkpt><trkpt lat="41.598345973983804" lon="12.705824286366582"><ele>64.0</ele><time>2026-04-06T08:46:22Z</time></trkpt><trkpt lat="41.59826295433661" lon="12.705745587475201"><ele>64.0</ele><time>2026-04-06T08:46:23Z</time></trkpt><trkpt lat="41.598176121427954" lon="12.705672169748652"><ele>64.0</ele><time>2026-04-06T08:46:24Z</time></trkpt><trkpt lat="41.59808629270422" lon="12.70559811231994"><ele>64.0</ele><time>2026-04-06T08:46:25Z</time></trkpt><trkpt lat="41.59799746794458" lon="12.705526008609501"><ele>64.0</ele><time>2026-04-06T08:46:26Z</time></trkpt><trkpt lat="41.59792013670989" lon="12.705437989821943"><ele>64.0</ele><time>2026-04-06T08:46:27Z</time></trkpt><trkpt lat="41.597830689275405" lon="12.705377041822402"><ele>64.2</ele><time>2026-04-06T08:46:28Z</time></trkpt><trkpt lat="41.59774928078445" lon="12.705304643125345"><ele>64.4</ele><time>2026-04-06T08:46:29Z</time></trkpt><trkpt lat="41.597658791472774" lon="12.705225163168274"><ele>64.6</ele><time>2026-04-06T08:46:30Z</time></trkpt><trkpt lat="41.597569103843014" lon="12.705132908483199"><ele>64.8</ele><time>2026-04-06T08:46:31Z</time></trkpt><trkpt lat="41.59747242394423" lon="12.705056894149985"><ele>65.0</ele><time>2026-04-06T08:46:32Z</time></trkpt><trkpt lat="41.597380063425774" lon="12.704968874997295"><ele>65.0</ele><time>2026-04-06T08:46:33Z</time></trkpt><trkpt lat="41.597290971552795" lon="12.704881917292367"><ele>65.0</ele><time>2026-04-06T08:46:34Z</time></trkpt><trkpt lat="41.59719896557196" lon="12.704792215031587"><ele>65.0</ele><time>2026-04-06T08:46:35Z</time></trkpt><trkpt lat="41.59710621301285" lon="12.704703565308895"><ele>65.0</ele><time>2026-04-06T08:46:36Z</time></trkpt><trkpt lat="41.59701436715671" lon="12.70462003161636"><ele>65.0</ele><time>2026-04-06T08:46:37Z</time></trkpt><trkpt lat="41.59692352048565" lon="12.70454162326157"><ele>65.0</ele><time>2026-04-06T08:46:38Z</time></trkpt><trkpt lat="41.59683118014077" lon="12.704463920298732"><ele>65.0</ele><time>2026-04-06T08:46:39Z</time></trkpt><trkpt lat="41.59673833772179" lon="12.70439049131411"><ele>65.0</ele><time>2026-04-06T08:46:40Z</time></trkpt><trkpt lat="41.59664317296741" lon="12.704307903226313"><ele>65.0</ele><time>2026-04-06T08:46:41Z</time></trkpt><trkpt lat="41.596551593090815" lon="12.704221968169163"><ele>65.0</ele><time>2026-04-06T08:46:42Z</time></trkpt><trkpt lat="41.59645493674282" lon="12.70413419558577"><ele>64.5</ele><time>2026-04-06T08:46:43Z</time></trkpt><trkpt lat="41.596353533419986" lon="12.704041109976725"><ele>64.0</ele><time>2026-04-06T08:46:44Z</time></trkpt><trkpt lat="41.59625183367819" lon="12.703946565736327"><ele>63.5</ele><time>2026-04-06T08:46:45Z</time></trkpt><trkpt lat="41.59615108812499" lon="12.703852455188798"><ele>63.0</ele><time>2026-04-06T08:46:46Z</time></trkpt><trkpt lat="41.59604674313455" lon="12.703756714182497"><ele>63.0</ele><time>2026-04-06T08:46:47Z</time></trkpt><trkpt lat="41.59594271434338" lon="12.703661662404265"><ele>63.0</ele><time>2026-04-06T08:46:48Z</time></trkpt><trkpt lat="41.59583650279524" lon="12.703575190700457"><ele>63.0</ele><time>2026-04-06T08:46:49Z</time></trkpt><trkpt lat="41.595733090685044" lon="12.703484223007798"><ele>63.0</ele><time>2026-04-06T08:46:50Z</time></trkpt><trkpt lat="41.59563087609172" lon="12.703391450968262"><ele>62.75</ele><time>2026-04-06T08:46:51Z</time></trkpt><trkpt lat="41.59552416255989" lon="12.703300854511772"><ele>62.5</ele><time>2026-04-06T08:46:52Z</time></trkpt><trkpt lat="41.59541780923699" lon="12.703206040949263"><ele>62.25</ele><time>2026-04-06T08:46:53Z</time></trkpt><trkpt lat="41.59531183860039" lon="12.703115934733596"><ele>62.0</ele><time>2026-04-06T08:46:54Z</time></trkpt><trkpt lat="41.595211102006985" lon="12.703023271859424"><ele>62.0</ele><time>2026-04-06T08:46:55Z</time></trkpt><trkpt lat="41.59510830093306" lon="12.702931567990607"><ele>62.0</ele><time>2026-04-06T08:46:56Z</time></trkpt><trkpt lat="41.594998843383244" lon="12.702842261295851"><ele>62.0</ele><time>2026-04-06T08:46:57Z</time></trkpt><trkpt lat="41.594889927859946" lon="12.702752818408703"><ele>62.0</ele><time>2026-04-06T08:46:58Z</time></trkpt><trkpt lat="41.5947747456256" lon="12.702665454668065"><ele>61.75</ele><time>2026-04-06T08:46:59Z</time></trkpt><trkpt lat="41.5946599330621" lon="12.702575057647683"><ele>61.5</ele><time>2026-04-06T08:47:00Z</time></trkpt><trkpt lat="41.594548720955636" lon="12.702485975624231"><ele>61.25</ele><time>2026-04-06T08:47:01Z</time></trkpt><trkpt lat="41.594434279608734" lon="12.702403431038677"><ele>61.0</ele><time>2026-04-06T08:47:02Z</time></trkpt><trkpt lat="41.59432088207016" lon="12.7023224765457"><ele>61.5</ele><time>2026-04-06T08:47:03Z</time></trkpt><trkpt lat="41.594214493148" lon="12.702243173840198"><ele>62.0</ele><time>2026-04-06T08:47:04Z</time></trkpt><trkpt lat="41.59410533467955" lon="12.702158061088095"><ele>62.5</ele><time>2026-04-06T08:47:05Z</time></trkpt><trkpt lat="41.59399252967871" lon="12.702075517022713"><ele>63.0</ele><time>2026-04-06T08:47:06Z</time></trkpt><trkpt lat="41.59387942441399" lon="12.701995089822661"><ele>62.75</ele><time>2026-04-06T08:47:07Z</time></trkpt><trkpt lat="41.593765274992506" lon="12.701914051693473"><ele>62.5</ele><time>2026-04-06T08:47:08Z</time></trkpt><trkpt lat="41.59365208064073" lon="12.701829694501296"><ele>62.25</ele><time>2026-04-06T08:47:09Z</time></trkpt><trkpt lat="41.59353754140651" lon="12.701744522132765"><ele>62.0</ele><time>2026-04-06T08:47:10Z</time></trkpt><trkpt lat="41.59342478895201" lon="12.701656211977465"><ele>62.0</ele><time>2026-04-06T08:47:11Z</time></trkpt><trkpt lat="41.59331826208201" lon="12.701567304936372"><ele>62.0</ele><time>2026-04-06T08:47:12Z</time></trkpt><trkpt lat="41.59320750152588" lon="12.701485392340818"><ele>62.0</ele><time>2026-04-06T08:47:13Z</time></trkpt><trkpt lat="41.59309836752635" lon="12.70140542652471"><ele>62.0</ele><time>2026-04-06T08:47:14Z</time></trkpt><trkpt lat="41.59299034893622" lon="12.701319481457675"><ele>62.0</ele><time>2026-04-06T08:47:15Z</time></trkpt><trkpt lat="41.5928786365782" lon="12.701234725273528"><ele>62.0</ele><time>2026-04-06T08:47:16Z</time></trkpt><trkpt lat="41.592761227253426" lon="12.701156391998303"><ele>62.0</ele><time>2026-04-06T08:47:17Z</time></trkpt><trkpt lat="41.59263397915109" lon="12.701086920722263"><ele>62.0</ele><time>2026-04-06T08:47:18Z</time></trkpt><trkpt lat="41.592508264017276" lon="12.701023343538072"><ele>62.0</ele><time>2026-04-06T08:47:19Z</time></trkpt><trkpt lat="41.59237708149333" lon="12.70097638182521"><ele>62.0</ele><time>2026-04-06T08:47:20Z</time></trkpt><trkpt lat="41.592244780802375" lon="12.700945659142215"><ele>62.0</ele><time>2026-04-06T08:47:21Z</time></trkpt><trkpt lat="41.59211170944452" lon="12.700918767917353"><ele>62.0</ele><time>2026-04-06T08:47:22Z</time></trkpt><trkpt lat="41.591978302766755" lon="12.700890606934621"><ele>61.75</ele><time>2026-04-06T08:47:23Z</time></trkpt><trkpt lat="41.591840805818016" lon="12.700863309951236"><ele>61.5</ele><time>2026-04-06T08:47:24Z</time></trkpt><trkpt lat="41.59170680724891" lon="12.700833042670528"><ele>61.25</ele><time>2026-04-06T08:47:25Z</time></trkpt><trkpt lat="41.591574449890494" lon="12.700803431887076"><ele>61.0</ele><time>2026-04-06T08:47:26Z</time></trkpt><trkpt lat="41.59144166114597" lon="12.700775797777583"><ele>61.0</ele><time>2026-04-06T08:47:27Z</time></trkpt><trkpt lat="41.59130845643546" lon="12.700744987504937"><ele>61.0</ele><time>2026-04-06T08:47:28Z</time></trkpt><trkpt lat="41.59117415778974" lon="12.700715028110382"><ele>61.0</ele><time>2026-04-06T08:47:29Z</time></trkpt><trkpt lat="41.59104090140285" lon="12.700689277523638"><ele>61.0</ele><time>2026-04-06T08:47:30Z</time></trkpt><trkpt lat="41.59090497754712" lon="12.700653984306966"><ele>61.0</ele><time>2026-04-06T08:47:31Z</time></trkpt><trkpt lat="41.59076989231257" lon="12.70061860011991"><ele>61.0</ele><time>2026-04-06T08:47:32Z</time></trkpt><trkpt lat="41.59063777898092" lon="12.70058242603467"><ele>61.0</ele><time>2026-04-06T08:47:33Z</time></trkpt><trkpt lat="41.59050710198102" lon="12.70054985588381"><ele>61.0</ele><time>2026-04-06T08:47:34Z</time></trkpt><trkpt lat="41.590369819758614" lon="12.700519646496991"><ele>61.25</ele><time>2026-04-06T08:47:35Z</time></trkpt><trkpt lat="41.59023505931327" lon="12.700495804486598"><ele>61.5</ele><time>2026-04-06T08:47:36Z</time></trkpt><trkpt lat="41.59010000575345" lon="12.700468134517461"><ele>61.75</ele><time>2026-04-06T08:47:37Z</time></trkpt><trkpt lat="41.58997054878201" lon="12.700442724053998"><ele>62.0</ele><time>2026-04-06T08:47:38Z</time></trkpt><trkpt lat="41.58984248038112" lon="12.700419587199304"><ele>62.0</ele><time>2026-04-06T08:47:39Z</time></trkpt><trkpt lat="41.589719170800585" lon="12.700407859405011"><ele>62.0</ele><time>2026-04-06T08:47:40Z</time></trkpt><trkpt lat="41.58961195184134" lon="12.700417286539952"><ele>62.0</ele><time>2026-04-06T08:47:41Z</time></trkpt><trkpt lat="41.58952055962685" lon="12.700438576657902"><ele>62.0</ele><time>2026-04-06T08:47:42Z</time></trkpt><trkpt lat="41.58943336526536" lon="12.700460578029006"><ele>62.0</ele><time>2026-04-06T08:47:43Z</time></trkpt><trkpt lat="41.58934061177692" lon="12.700478026169696"><ele>61.400000000000006</ele><time>2026-04-06T08:47:44Z</time></trkpt><trkpt lat="41.58926252674121" lon="12.700486019406336"><ele>60.800000000000004</ele><time>2026-04-06T08:47:45Z</time></trkpt><trkpt lat="41.58915298522918" lon="12.700491239355113"><ele>60.2</ele><time>2026-04-06T08:47:47Z</time></trkpt><trkpt lat="41.58908452226777" lon="12.700481809731542"><ele>59.6</ele><time>2026-04-06T08:47:50Z</time></trkpt><trkpt lat="41.58898343038967" lon="12.70045371069114"><ele>59.0</ele><time>2026-04-06T08:47:54Z</time></trkpt><trkpt lat="41.588861354742015" lon="12.700498881248613"><ele>59.00000000000001</ele><time>2026-04-06T08:47:56Z</time></trkpt><trkpt lat="41.58879467902838" lon="12.700547489872895"><ele>59.0</ele><time>2026-04-06T08:47:57Z</time></trkpt><trkpt lat="41.58872315756755" lon="12.700581789471215"><ele>59.0</ele><time>2026-04-06T08:47:58Z</time></trkpt><trkpt lat="41.58863771844846" lon="12.70060707440979"><ele>59.0</ele><time>2026-04-06T08:47:59Z</time></trkpt><trkpt lat="41.58854090811496" lon="12.700629663901621"><ele>59.00000000000001</ele><time>2026-04-06T08:48:00Z</time></trkpt><trkpt lat="41.58843959231136" lon="12.700643329432344"><ele>59.0</ele><time>2026-04-06T08:48:01Z</time></trkpt><trkpt lat="41.58833406543963" lon="12.70065655714413"><ele>58.75</ele><time>2026-04-06T08:48:02Z</time></trkpt><trkpt lat="41.588223634630964" lon="12.700674416283706"><ele>58.5</ele><time>2026-04-06T08:48:03Z</time></trkpt><trkpt lat="41.58811047580164" lon="12.700692361541813"><ele>58.25</ele><time>2026-04-06T08:48:04Z</time></trkpt><trkpt lat="41.5879966359243" lon="12.700711161577932"><ele>58.0</ele><time>2026-04-06T08:48:05Z</time></trkpt><trkpt lat="41.58787807398489" lon="12.700733626785762"><ele>58.0</ele><time>2026-04-06T08:48:06Z</time></trkpt><trkpt lat="41.587756251127566" lon="12.70075620447211"><ele>58.0</ele><time>2026-04-06T08:48:07Z</time></trkpt><trkpt lat="41.58763495568429" lon="12.700777968238643"><ele>58.0</ele><time>2026-04-06T08:48:08Z</time></trkpt><trkpt lat="41.58751525704699" lon="12.700800782730173"><ele>58.0</ele><time>2026-04-06T08:48:09Z</time></trkpt><trkpt lat="41.587396231178204" lon="12.700821682068657"><ele>58.0</ele><time>2026-04-06T08:48:10Z</time></trkpt><trkpt lat="41.58727429451154" lon="12.7008422039671"><ele>58.0</ele><time>2026-04-06T08:48:11Z</time></trkpt><trkpt lat="41.5871484756058" lon="12.700866290733156"><ele>58.0</ele><time>2026-04-06T08:48:12Z</time></trkpt><trkpt lat="41.58702013826429" lon="12.700888330526993"><ele>58.0</ele><time>2026-04-06T08:48:13Z</time></trkpt><trkpt lat="41.58689027649362" lon="12.700907353357596"><ele>58.0</ele><time>2026-04-06T08:48:14Z</time></trkpt><trkpt lat="41.58676303608071" lon="12.700928151708883"><ele>58.0</ele><time>2026-04-06T08:48:15Z</time></trkpt><trkpt lat="41.58663181957181" lon="12.700951328925425"><ele>58.0</ele><time>2026-04-06T08:48:16Z</time></trkpt><trkpt lat="41.58650304490969" lon="12.700973508960812"><ele>58.0</ele><time>2026-04-06T08:48:17Z</time></trkpt><trkpt lat="41.58637358479659" lon="12.700999479207805"><ele>58.0</ele><time>2026-04-06T08:48:18Z</time></trkpt><trkpt lat="41.58624126850772" lon="12.701027083995214"><ele>58.0</ele><time>2026-04-06T08:48:19Z</time></trkpt><trkpt lat="41.58610967958486" lon="12.701050362081459"><ele>58.0</ele><time>2026-04-06T08:48:20Z</time></trkpt><trkpt lat="41.58597570752113" lon="12.701067569120546"><ele>58.0</ele><time>2026-04-06T08:48:21Z</time></trkpt><trkpt lat="41.58583890922388" lon="12.701087297856077"><ele>57.5</ele><time>2026-04-06T08:48:22Z</time></trkpt><trkpt lat="41.58570100513375" lon="12.701113718288099"><ele>57.0</ele><time>2026-04-06T08:48:23Z</time></trkpt><trkpt lat="41.58556582645513" lon="12.701138946151925"><ele>56.5</ele><time>2026-04-06T08:48:24Z</time></trkpt><trkpt lat="41.58542966652369" lon="12.701164963159375"><ele>56.0</ele><time>2026-04-06T08:48:25Z</time></trkpt><trkpt lat="41.58529473179218" lon="12.701188125576229"><ele>55.75</ele><time>2026-04-06T08:48:26Z</time></trkpt><trkpt lat="41.585160357325876" lon="12.701209214311685"><ele>55.5</ele><time>2026-04-06T08:48:27Z</time></trkpt><trkpt lat="41.58502706416595" lon="12.70123067202278"><ele>55.25</ele><time>2026-04-06T08:48:28Z</time></trkpt><trkpt lat="41.58489445905175" lon="12.701253325062803"><ele>55.0</ele><time>2026-04-06T08:48:29Z</time></trkpt><trkpt lat="41.58476212605427" lon="12.701283813131333"><ele>55.0</ele><time>2026-04-06T08:48:30Z</time></trkpt><trkpt lat="41.58462966938013" lon="12.701308089424714"><ele>55.0</ele><time>2026-04-06T08:48:31Z</time></trkpt><trkpt lat="41.584492722341444" lon="12.701327360718606"><ele>55.0</ele><time>2026-04-06T08:48:32Z</time></trkpt><trkpt lat="41.584354781787525" lon="12.701350118032625"><ele>55.0</ele><time>2026-04-06T08:48:33Z</time></trkpt><trkpt lat="41.58421747719352" lon="12.701374203976474"><ele>55.0</ele><time>2026-04-06T08:48:34Z</time></trkpt><trkpt lat="41.584083378254114" lon="12.701400817826208"><ele>55.0</ele><time>2026-04-06T08:48:35Z</time></trkpt><trkpt lat="41.5839446734069" lon="12.701420104577014"><ele>55.0</ele><time>2026-04-06T08:48:36Z</time></trkpt><trkpt lat="41.58380416724499" lon="12.701440956811714"><ele>55.0</ele><time>2026-04-06T08:48:37Z</time></trkpt><trkpt lat="41.58366558817086" lon="12.701467332805032"><ele>55.0</ele><time>2026-04-06T08:48:38Z</time></trkpt><trkpt lat="41.58352365979939" lon="12.701492500538844"><ele>55.0</ele><time>2026-04-06T08:48:39Z</time></trkpt><trkpt lat="41.58338941284538" lon="12.70151553475322"><ele>55.0</ele><time>2026-04-06T08:48:40Z</time></trkpt><trkpt lat="41.583259107840334" lon="12.701537355370297"><ele>55.0</ele><time>2026-04-06T08:48:41Z</time></trkpt><trkpt lat="41.58312626304649" lon="12.701564514503387"><ele>55.0</ele><time>2026-04-06T08:48:42Z</time></trkpt><trkpt lat="41.582993443304204" lon="12.701594128944127"><ele>55.0</ele><time>2026-04-06T08:48:43Z</time></trkpt><trkpt lat="41.582859401480896" lon="12.701618138202823"><ele>55.0</ele><time>2026-04-06T08:48:44Z</time></trkpt><trkpt lat="41.58272291777886" lon="12.701640552354426"><ele>55.0</ele><time>2026-04-06T08:48:45Z</time></trkpt><trkpt lat="41.58258795094063" lon="12.701661682048234"><ele>54.75</ele><time>2026-04-06T08:48:46Z</time></trkpt><trkpt lat="41.58245264606005" lon="12.701685431534107"><ele>54.5</ele><time>2026-04-06T08:48:47Z</time></trkpt><trkpt lat="41.58231839817334" lon="12.701706868403335"><ele>54.25</ele><time>2026-04-06T08:48:48Z</time></trkpt><trkpt lat="41.58218333225103" lon="12.701734336252759"><ele>54.0</ele><time>2026-04-06T08:48:49Z</time></trkpt><trkpt lat="41.582049372819725" lon="12.701757138750608"><ele>55.0</ele><time>2026-04-06T08:48:50Z</time></trkpt><trkpt lat="41.581915645903166" lon="12.701780196227439"><ele>56.0</ele><time>2026-04-06T08:48:51Z</time></trkpt><trkpt lat="41.58177530555075" lon="12.701805140337678"><ele>57.0</ele><time>2026-04-06T08:48:52Z</time></trkpt><trkpt lat="41.58163192803197" lon="12.701835392752544"><ele>58.0</ele><time>2026-04-06T08:48:53Z</time></trkpt><trkpt lat="41.581484193716705" lon="12.701867629532126"><ele>58.0</ele><time>2026-04-06T08:48:54Z</time></trkpt><trkpt lat="41.581336000721436" lon="12.70189497967577"><ele>58.0</ele><time>2026-04-06T08:48:55Z</time></trkpt><trkpt lat="41.581189746185544" lon="12.70192110254631"><ele>58.0</ele><time>2026-04-06T08:48:56Z</time></trkpt><trkpt lat="41.58104264042175" lon="12.70194726083014"><ele>58.0</ele><time>2026-04-06T08:48:57Z</time></trkpt><trkpt lat="41.580896092383604" lon="12.701975204320702"><ele>57.33333333333333</ele><time>2026-04-06T08:48:58Z</time></trkpt><trkpt lat="41.58074771899249" lon="12.702005570907266"><ele>56.66666666666667</ele><time>2026-04-06T08:48:59Z</time></trkpt><trkpt lat="41.58059642097989" lon="12.702035282694379"><ele>56.0</ele><time>2026-04-06T08:49:00Z</time></trkpt><trkpt lat="41.58044936923048" lon="12.702062683395358"><ele>55.66666666666667</ele><time>2026-04-06T08:49:01Z</time></trkpt><trkpt lat="41.58029900124672" lon="12.702087600549836"><ele>55.33333333333333</ele><time>2026-04-06T08:49:02Z</time></trkpt><trkpt lat="41.58015033627215" lon="12.70211082962068"><ele>55.0</ele><time>2026-04-06T08:49:03Z</time></trkpt><trkpt lat="41.57999927920455" lon="12.702134442918164"><ele>55.0</ele><time>2026-04-06T08:49:04Z</time></trkpt><trkpt lat="41.579852059389836" lon="12.70216539405368"><ele>55.0</ele><time>2026-04-06T08:49:05Z</time></trkpt><trkpt lat="41.579700718252695" lon="12.702194440957513"><ele>55.0</ele><time>2026-04-06T08:49:06Z</time></trkpt><trkpt lat="41.579547320216385" lon="12.702226396652673"><ele>55.0</ele><time>2026-04-06T08:49:07Z</time></trkpt><trkpt lat="41.57939206702533" lon="12.702259109380416"><ele>55.0</ele><time>2026-04-06T08:49:08Z</time></trkpt><trkpt lat="41.57923970566627" lon="12.702288655255975"><ele>55.0</ele><time>2026-04-06T08:49:09Z</time></trkpt><trkpt lat="41.57909005337213" lon="12.702316950263123"><ele>55.0</ele><time>2026-04-06T08:49:10Z</time></trkpt><trkpt lat="41.57893900159838" lon="12.702345676420377"><ele>55.0</ele><time>2026-04-06T08:49:11Z</time></trkpt><trkpt lat="41.57878489141979" lon="12.702377261343619"><ele>55.0</ele><time>2026-04-06T08:49:12Z</time></trkpt><trkpt lat="41.578628692411236" lon="12.702409915064589"><ele>54.666666666666664</ele><time>2026-04-06T08:49:13Z</time></trkpt><trkpt lat="41.57847176149748" lon="12.702442803387997"><ele>54.33333333333333</ele><time>2026-04-06T08:49:14Z</time></trkpt><trkpt lat="41.57831790091923" lon="12.702475545133657"><ele>54.0</ele><time>2026-04-06T08:49:15Z</time></trkpt><trkpt lat="41.578165499325934" lon="12.7025040976433"><ele>54.0</ele><time>2026-04-06T08:49:16Z</time></trkpt><trkpt lat="41.57801461940209" lon="12.702539130678424"><ele>54.0</ele><time>2026-04-06T08:49:17Z</time></trkpt><trkpt lat="41.577867954778796" lon="12.70257166731516"><ele>54.0</ele><time>2026-04-06T08:49:18Z</time></trkpt><trkpt lat="41.57772373424708" lon="12.702595604477994"><ele>54.0</ele><time>2026-04-06T08:49:19Z</time></trkpt><trkpt lat="41.57757556597862" lon="12.702612364949948"><ele>54.33333333333333</ele><time>2026-04-06T08:49:20Z</time></trkpt><trkpt lat="41.57741970809531" lon="12.702613934483312"><ele>54.666666666666664</ele><time>2026-04-06T08:49:21Z</time></trkpt><trkpt lat="41.57725759261798" lon="12.702600260431552"><ele>55.0</ele><time>2026-04-06T08:49:22Z</time></trkpt><trkpt lat="41.57709640903167" lon="12.702583447154591"><ele>55.0</ele><time>2026-04-06T08:49:23Z</time></trkpt><trkpt lat="41.5769328380079" lon="12.702572201770367"><ele>55.0</ele><time>2026-04-06T08:49:24Z</time></trkpt><trkpt lat="41.576769085139695" lon="12.702565304837838"><ele>55.0</ele><time>2026-04-06T08:49:25Z</time></trkpt><trkpt lat="41.576605862433986" lon="12.702552924405248"><ele>55.0</ele><time>2026-04-06T08:49:26Z</time></trkpt><trkpt lat="41.57644663388998" lon="12.702546498760436"><ele>55.0</ele><time>2026-04-06T08:49:27Z</time></trkpt><trkpt lat="41.57629433850718" lon="12.702543306124783"><ele>55.0</ele><time>2026-04-06T08:49:28Z</time></trkpt><trkpt lat="41.57614294597173" lon="12.70254080498845"><ele>54.666666666666664</ele><time>2026-04-06T08:49:29Z</time></trkpt><trkpt lat="41.57598919206382" lon="12.702540437936676"><ele>54.33333333333333</ele><time>2026-04-06T08:49:30Z</time></trkpt><trkpt lat="41.575840547301475" lon="12.70253662230379"><ele>54.0</ele><time>2026-04-06T08:49:31Z</time></trkpt><trkpt lat="41.57568930381205" lon="12.702534932148861"><ele>54.0</ele><time>2026-04-06T08:49:32Z</time></trkpt><trkpt lat="41.575532459297484" lon="12.702536322701038"><ele>54.0</ele><time>2026-04-06T08:49:33Z</time></trkpt><trkpt lat="41.5753768218155" lon="12.70253896911494"><ele>54.0</ele><time>2026-04-06T08:49:34Z</time></trkpt><trkpt lat="41.57521813847897" lon="12.70253568465206"><ele>53.66666666666667</ele><time>2026-04-06T08:49:35Z</time></trkpt><trkpt lat="41.57506013366472" lon="12.70253329979455"><ele>53.333333333333336</ele><time>2026-04-06T08:49:36Z</time></trkpt><trkpt lat="41.574903721565214" lon="12.70252976015303"><ele>53.0</ele><time>2026-04-06T08:49:37Z</time></trkpt><trkpt lat="41.57474724540076" lon="12.70252681462752"><ele>53.0</ele><time>2026-04-06T08:49:38Z</time></trkpt><trkpt lat="41.57459610056171" lon="12.702527072361308"><ele>53.0</ele><time>2026-04-06T08:49:39Z</time></trkpt><trkpt lat="41.574440900754574" lon="12.702525333566282"><ele>53.0</ele><time>2026-04-06T08:49:40Z</time></trkpt><trkpt lat="41.57429000802265" lon="12.702521587688619"><ele>53.333333333333336</ele><time>2026-04-06T08:49:41Z</time></trkpt><trkpt lat="41.5741323006192" lon="12.702519467791532"><ele>53.66666666666667</ele><time>2026-04-06T08:49:42Z</time></trkpt><trkpt lat="41.57397607794305" lon="12.702512023036633"><ele>54.0</ele><time>2026-04-06T08:49:43Z</time></trkpt><trkpt lat="41.57381803077862" lon="12.702511105436422"><ele>53.66666666666667</ele><time>2026-04-06T08:49:44Z</time></trkpt><trkpt lat="41.57366038712804" lon="12.70251200952128"><ele>53.333333333333336</ele><time>2026-04-06T08:49:45Z</time></trkpt><trkpt lat="41.57350364304756" lon="12.702505488308253"><ele>53.0</ele><time>2026-04-06T08:49:46Z</time></trkpt><trkpt lat="41.57334185218598" lon="12.702505790713948"><ele>53.0</ele><time>2026-04-06T08:49:47Z</time></trkpt><trkpt lat="41.57318405571313" lon="12.702505377285362"><ele>53.0</ele><time>2026-04-06T08:49:48Z</time></trkpt><trkpt lat="41.57302572870369" lon="12.702504545053829"><ele>53.0</ele><time>2026-04-06T08:49:49Z</time></trkpt><trkpt lat="41.57286892544705" lon="12.702504141637009"><ele>52.66666666666667</ele><time>2026-04-06T08:49:50Z</time></trkpt><trkpt lat="41.57271373968284" lon="12.702503067644702"><ele>52.33333333333333</ele><time>2026-04-06T08:49:51Z</time></trkpt><trkpt lat="41.57255558455548" lon="12.70249661514068"><ele>52.0</ele><time>2026-04-06T08:49:52Z</time></trkpt><trkpt lat="41.572400226268286" lon="12.702489398707964"><ele>52.0</ele><time>2026-04-06T08:49:53Z</time></trkpt><trkpt lat="41.572241278339646" lon="12.702484575606482"><ele>52.0</ele><time>2026-04-06T08:49:54Z</time></trkpt><trkpt lat="41.572083958783466" lon="12.702483859662054"><ele>52.0</ele><time>2026-04-06T08:49:55Z</time></trkpt><trkpt lat="41.57192413658593" lon="12.702484771722249"><ele>51.666666666666664</ele><time>2026-04-06T08:49:56Z</time></trkpt><trkpt lat="41.57176283385957" lon="12.702482667429791"><ele>51.33333333333333</ele><time>2026-04-06T08:49:57Z</time></trkpt><trkpt lat="41.57160149654942" lon="12.702478872590065"><ele>51.0</ele><time>2026-04-06T08:49:58Z</time></trkpt><trkpt lat="41.57143380480009" lon="12.702479786745366"><ele>51.0</ele><time>2026-04-06T08:49:59Z</time></trkpt><trkpt lat="41.57127268492026" lon="12.70247865756907"><ele>51.0</ele><time>2026-04-06T08:50:00Z</time></trkpt><trkpt lat="41.57111242140424" lon="12.702475500239775"><ele>51.0</ele><time>2026-04-06T08:50:01Z</time></trkpt><trkpt lat="41.570950744969586" lon="12.702472016808045"><ele>51.0</ele><time>2026-04-06T08:50:02Z</time></trkpt><trkpt lat="41.57079146217336" lon="12.702471276777544"><ele>51.0</ele><time>2026-04-06T08:50:03Z</time></trkpt><trkpt lat="41.57062821518147" lon="12.702472479037345"><ele>51.0</ele><time>2026-04-06T08:50:04Z</time></trkpt><trkpt lat="41.570465159594725" lon="12.702474216918558"><ele>51.0</ele><time>2026-04-06T08:50:05Z</time></trkpt><trkpt lat="41.570298872948996" lon="12.702471433845647"><ele>51.0</ele><time>2026-04-06T08:50:06Z</time></trkpt><trkpt lat="41.57013314698341" lon="12.70246831404105"><ele>51.0</ele><time>2026-04-06T08:50:07Z</time></trkpt><trkpt lat="41.56996785838934" lon="12.702462581349018"><ele>51.0</ele><time>2026-04-06T08:50:08Z</time></trkpt><trkpt lat="41.56981398261828" lon="12.702458039208425"><ele>51.0</ele><time>2026-04-06T08:50:09Z</time></trkpt><trkpt lat="41.56967862748153" lon="12.702456585897684"><ele>51.0</ele><time>2026-04-06T08:50:10Z</time></trkpt><trkpt lat="41.569527928763904" lon="12.702459029923887"><ele>51.0</ele><time>2026-04-06T08:50:11Z</time></trkpt><trkpt lat="41.56937146438503" lon="12.702461410885412"><ele>51.0</ele><time>2026-04-06T08:50:12Z</time></trkpt><trkpt lat="41.56921451551546" lon="12.702458471017497"><ele>51.0</ele><time>2026-04-06T08:50:13Z</time></trkpt><trkpt lat="41.569071754518085" lon="12.702452528546976"><ele>51.0</ele><time>2026-04-06T08:50:14Z</time></trkpt><trkpt lat="41.568935601007034" lon="12.702447642050634"><ele>51.0</ele><time>2026-04-06T08:50:15Z</time></trkpt><trkpt lat="41.568819528232936" lon="12.702445441385454"><ele>51.0</ele><time>2026-04-06T08:50:16Z</time></trkpt><trkpt lat="41.56872255595317" lon="12.702444311695027"><ele>51.0</ele><time>2026-04-06T08:50:17Z</time></trkpt><trkpt lat="41.56863417140463" lon="12.70244687659706"><ele>51.0</ele><time>2026-04-06T08:50:18Z</time></trkpt><trkpt lat="41.568550525824726" lon="12.702447052649227"><ele>51.0</ele><time>2026-04-06T08:50:19Z</time></trkpt><trkpt lat="41.56846567740431" lon="12.702446394149167"><ele>51.0</ele><time>2026-04-06T08:50:20Z</time></trkpt><trkpt lat="41.56837681792903" lon="12.70244746568747"><ele>51.0</ele><time>2026-04-06T08:50:21Z</time></trkpt><trkpt lat="41.56829516455184" lon="12.702452152850084"><ele>51.0</ele><time>2026-04-06T08:50:22Z</time></trkpt><trkpt lat="41.56821457346513" lon="12.702453183685062"><ele>51.0</ele><time>2026-04-06T08:50:23Z</time></trkpt><trkpt lat="41.56811848899007" lon="12.702458228643046"><ele>51.0</ele><time>2026-04-06T08:50:24Z</time></trkpt><trkpt lat="41.567998699226074" lon="12.702462977196774"><ele>51.0</ele><time>2026-04-06T08:50:25Z</time></trkpt><trkpt lat="41.56784753388574" lon="12.702443309006012"><ele>51.0</ele><time>2026-04-06T08:50:26Z</time></trkpt><trkpt lat="41.567665644622906" lon="12.702440711962504"><ele>51.0</ele><time>2026-04-06T08:50:27Z</time></trkpt><trkpt lat="41.56747862123874" lon="12.702436376114864"><ele>51.0</ele><time>2026-04-06T08:50:28Z</time></trkpt><trkpt lat="41.567284755817866" lon="12.702432357569021"><ele>51.0</ele><time>2026-04-06T08:50:29Z</time></trkpt><trkpt lat="41.56708474075228" lon="12.70242855621371"><ele>50.33333333333333</ele><time>2026-04-06T08:50:30Z</time></trkpt><trkpt lat="41.56687301616867" lon="12.702424532323903"><ele>49.666666666666664</ele><time>2026-04-06T08:50:31Z</time></trkpt><trkpt lat="41.56668449237372" lon="12.702431054280511"><ele>49.0</ele><time>2026-04-06T08:50:32Z</time></trkpt><trkpt lat="41.56649989829369" lon="12.702418381818344"><ele>49.0</ele><time>2026-04-06T08:50:33Z</time></trkpt><trkpt lat="41.56631305919576" lon="12.702419348262534"><ele>49.0</ele><time>2026-04-06T08:50:34Z</time></trkpt><trkpt lat="41.566146639582676" lon="12.702430360357859"><ele>49.0</ele><time>2026-04-06T08:50:35Z</time></trkpt><trkpt lat="41.56598788891884" lon="12.70245082464121"><ele>49.33333333333333</ele><time>2026-04-06T08:50:36Z</time></trkpt><trkpt lat="41.56582266332316" lon="12.702490730712853"><ele>49.66666666666667</ele><time>2026-04-06T08:50:37Z</time></trkpt><trkpt lat="41.56565554598074" lon="12.702534277555918"><ele>50.0</ele><time>2026-04-06T08:50:38Z</time></trkpt><trkpt lat="41.56548415864702" lon="12.702576207616241"><ele>50.0</ele><time>2026-04-06T08:50:39Z</time></trkpt><trkpt lat="41.565327176713296" lon="12.70261363069515"><ele>50.0</ele><time>2026-04-06T08:50:40Z</time></trkpt><trkpt lat="41.56517463034283" lon="12.702656022926957"><ele>50.0</ele><time>2026-04-06T08:50:41Z</time></trkpt><trkpt lat="41.56503682322004" lon="12.70269337587726"><ele>50.0</ele><time>2026-04-06T08:50:42Z</time></trkpt><trkpt lat="41.56489818686138" lon="12.702727934969584"><ele>50.0</ele><time>2026-04-06T08:50:43Z</time></trkpt><trkpt lat="41.5647744458862" lon="12.702766229018671"><ele>50.0</ele><time>2026-04-06T08:50:44Z</time></trkpt><trkpt lat="41.56466383311296" lon="12.702795031298079"><ele>50.0</ele><time>2026-04-06T08:50:45Z</time></trkpt><trkpt lat="41.56456161112082" lon="12.702821485792107"><ele>49.66666666666667</ele><time>2026-04-06T08:50:46Z</time></trkpt><trkpt lat="41.564444107914504" lon="12.702855712517705"><ele>49.33333333333333</ele><time>2026-04-06T08:50:47Z</time></trkpt><trkpt lat="41.56428116529232" lon="12.70287965894881"><ele>49.0</ele><time>2026-04-06T08:50:48Z</time></trkpt><trkpt lat="41.564108109325616" lon="12.702921147939577"><ele>49.0</ele><time>2026-04-06T08:50:49Z</time></trkpt><trkpt lat="41.563957177728255" lon="12.70297456050729"><ele>49.0</ele><time>2026-04-06T08:50:50Z</time></trkpt><trkpt lat="41.56382689749403" lon="12.703006519436233"><ele>49.0</ele><time>2026-04-06T08:50:51Z</time></trkpt><trkpt lat="41.56371198937475" lon="12.703025324925344"><ele>49.0</ele><time>2026-04-06T08:50:52Z</time></trkpt><trkpt lat="41.563618162120875" lon="12.703044139858314"><ele>48.99999999999999</ele><time>2026-04-06T08:50:53Z</time></trkpt><trkpt lat="41.563533754245036" lon="12.703066044648713"><ele>49.0</ele><time>2026-04-06T08:50:54Z</time></trkpt><trkpt lat="41.563454622162375" lon="12.703086814765703"><ele>49.0</ele><time>2026-04-06T08:50:55Z</time></trkpt><trkpt lat="41.56337527290229" lon="12.70310756279879"><ele>49.0</ele><time>2026-04-06T08:50:56Z</time></trkpt><trkpt lat="41.56329810738999" lon="12.703128426877655"><ele>48.99999999999999</ele><time>2026-04-06T08:50:57Z</time></trkpt><trkpt lat="41.5632059770363" lon="12.703161533588464"><ele>49.0</ele><time>2026-04-06T08:50:58Z</time></trkpt><trkpt lat="41.563070549822875" lon="12.703189033307359"><ele>49.0</ele><time>2026-04-06T08:50:59Z</time></trkpt><trkpt lat="41.5629025694801" lon="12.703230812149078"><ele>49.0</ele><time>2026-04-06T08:51:00Z</time></trkpt><trkpt lat="41.56272485268379" lon="12.703290108846376"><ele>49.0</ele><time>2026-04-06T08:51:01Z</time></trkpt><trkpt lat="41.56257655025321" lon="12.703311395257442"><ele>49.0</ele><time>2026-04-06T08:51:02Z</time></trkpt><trkpt lat="41.56243295146906" lon="12.70334280382786"><ele>49.0</ele><time>2026-04-06T08:51:03Z</time></trkpt><trkpt lat="41.5622895810719" lon="12.703380757988059"><ele>49.0</ele><time>2026-04-06T08:51:04Z</time></trkpt><trkpt lat="41.56212839238579" lon="12.703423651107004"><ele>49.33333333333333</ele><time>2026-04-06T08:51:05Z</time></trkpt><trkpt lat="41.561956826041545" lon="12.703466536775993"><ele>49.66666666666667</ele><time>2026-04-06T08:51:06Z</time></trkpt><trkpt lat="41.56178999954537" lon="12.703513101964337"><ele>50.0</ele><time>2026-04-06T08:51:07Z</time></trkpt><trkpt lat="41.56163047850417" lon="12.703551706203726"><ele>49.66666666666667</ele><time>2026-04-06T08:51:08Z</time></trkpt><trkpt lat="41.56146797504687" lon="12.703594927281658"><ele>49.33333333333333</ele><time>2026-04-06T08:51:09Z</time></trkpt><trkpt lat="41.561307789256986" lon="12.703637813724093"><ele>49.0</ele><time>2026-04-06T08:51:10Z</time></trkpt><trkpt lat="41.56115207411327" lon="12.703676236725013"><ele>48.666666666666664</ele><time>2026-04-06T08:51:11Z</time></trkpt><trkpt lat="41.560985057816545" lon="12.703724328341416"><ele>48.33333333333333</ele><time>2026-04-06T08:51:12Z</time></trkpt><trkpt lat="41.56081715018493" lon="12.703766236130337"><ele>48.0</ele><time>2026-04-06T08:51:13Z</time></trkpt><trkpt lat="41.560645834784125" lon="12.703808785532217"><ele>48.0</ele><time>2026-04-06T08:51:14Z</time></trkpt><trkpt lat="41.560472241220204" lon="12.703851903617503"><ele>48.0</ele><time>2026-04-06T08:51:15Z</time></trkpt><trkpt lat="41.56029728328438" lon="12.703896919818622"><ele>48.0</ele><time>2026-04-06T08:51:16Z</time></trkpt><trkpt lat="41.560104901269256" lon="12.703943140103776"><ele>47.666666666666664</ele><time>2026-04-06T08:51:17Z</time></trkpt><trkpt lat="41.559914435714695" lon="12.703990532295723"><ele>47.33333333333333</ele><time>2026-04-06T08:51:18Z</time></trkpt><trkpt lat="41.55971386691633" lon="12.704039154203176"><ele>47.0</ele><time>2026-04-06T08:51:19Z</time></trkpt><trkpt lat="41.559507619575946" lon="12.704090098812257"><ele>47.0</ele><time>2026-04-06T08:51:20Z</time></trkpt><trkpt lat="41.5593102837945" lon="12.70413990041624"><ele>47.0</ele><time>2026-04-06T08:51:21Z</time></trkpt><trkpt lat="41.559131689230874" lon="12.704183106566239"><ele>47.0</ele><time>2026-04-06T08:51:22Z</time></trkpt><trkpt lat="41.55895593711009" lon="12.70423091089013"><ele>47.0</ele><time>2026-04-06T08:51:23Z</time></trkpt><trkpt lat="41.55878246209423" lon="12.704279182750469"><ele>47.0</ele><time>2026-04-06T08:51:24Z</time></trkpt><trkpt lat="41.55861345187115" lon="12.704323577051662"><ele>47.0</ele><time>2026-04-06T08:51:25Z</time></trkpt><trkpt lat="41.5584590003765" lon="12.704363068203548"><ele>46.666666666666664</ele><time>2026-04-06T08:51:26Z</time></trkpt><trkpt lat="41.558303554047164" lon="12.704401383608431"><ele>46.333333333333336</ele><time>2026-04-06T08:51:27Z</time></trkpt><trkpt lat="41.55814548942513" lon="12.704443226175849"><ele>46.0</ele><time>2026-04-06T08:51:28Z</time></trkpt><trkpt lat="41.55798990430221" lon="12.704481914771565"><ele>46.0</ele><time>2026-04-06T08:51:29Z</time></trkpt><trkpt lat="41.55782145341859" lon="12.704512727368638"><ele>46.0</ele><time>2026-04-06T08:51:30Z</time></trkpt><trkpt lat="41.55763050524713" lon="12.704539315058012"><ele>46.0</ele><time>2026-04-06T08:51:31Z</time></trkpt><trkpt lat="41.557435495416215" lon="12.704549941770052"><ele>46.0</ele><time>2026-04-06T08:51:32Z</time></trkpt><trkpt lat="41.55723613055141" lon="12.704554867749106"><ele>46.0</ele><time>2026-04-06T08:51:33Z</time></trkpt><trkpt lat="41.557058146873295" lon="12.704560521523684"><ele>46.0</ele><time>2026-04-06T08:51:34Z</time></trkpt><trkpt lat="41.556892002429116" lon="12.704566240409438"><ele>46.0</ele><time>2026-04-06T08:51:35Z</time></trkpt><trkpt lat="41.556741463610614" lon="12.704571271756018"><ele>46.0</ele><time>2026-04-06T08:51:36Z</time></trkpt><trkpt lat="41.55659277209088" lon="12.704575804443547"><ele>46.0</ele><time>2026-04-06T08:51:37Z</time></trkpt><trkpt lat="41.556441891800425" lon="12.704583290653012"><ele>46.0</ele><time>2026-04-06T08:51:38Z</time></trkpt><trkpt lat="41.55628643251195" lon="12.704591059522285"><ele>46.0</ele><time>2026-04-06T08:51:39Z</time></trkpt><trkpt lat="41.55613356132105" lon="12.704597156622528"><ele>46.0</ele><time>2026-04-06T08:51:40Z</time></trkpt><trkpt lat="41.55597937284139" lon="12.70459839028521"><ele>47.0</ele><time>2026-04-06T08:51:41Z</time></trkpt><trkpt lat="41.55582485728916" lon="12.70458935949665"><ele>48.0</ele><time>2026-04-06T08:51:42Z</time></trkpt><trkpt lat="41.55566830286995" lon="12.70457211775025"><ele>49.0</ele><time>2026-04-06T08:51:43Z</time></trkpt><trkpt lat="41.55551900120023" lon="12.704548597718809"><ele>48.5</ele><time>2026-04-06T08:51:44Z</time></trkpt><trkpt lat="41.55536750357174" lon="12.704530252879673"><ele>48.0</ele><time>2026-04-06T08:51:45Z</time></trkpt><trkpt lat="41.55523386184446" lon="12.704510125991558"><ele>47.5</ele><time>2026-04-06T08:51:46Z</time></trkpt><trkpt lat="41.555108418093965" lon="12.704490868799747"><ele>47.0</ele><time>2026-04-06T08:51:47Z</time></trkpt><trkpt lat="41.554986650882675" lon="12.704459820151609"><ele>47.0</ele><time>2026-04-06T08:51:48Z</time></trkpt><trkpt lat="41.55485315520424" lon="12.704414047943908"><ele>47.0</ele><time>2026-04-06T08:51:49Z</time></trkpt><trkpt lat="41.55470573728461" lon="12.70435061799938"><ele>47.0</ele><time>2026-04-06T08:51:50Z</time></trkpt><trkpt lat="41.554548591209254" lon="12.704276697806293"><ele>46.666666666666664</ele><time>2026-04-06T08:51:51Z</time></trkpt><trkpt lat="41.55439483085498" lon="12.704197501015463"><ele>46.333333333333336</ele><time>2026-04-06T08:51:52Z</time></trkpt><trkpt lat="41.554241005482965" lon="12.704117740085536"><ele>46.0</ele><time>2026-04-06T08:51:53Z</time></trkpt><trkpt lat="41.5541001988476" lon="12.704038940773177"><ele>46.0</ele><time>2026-04-06T08:51:54Z</time></trkpt><trkpt lat="41.55397908096679" lon="12.703955434248103"><ele>46.0</ele><time>2026-04-06T08:51:55Z</time></trkpt><trkpt lat="41.55386258893918" lon="12.703849784612174"><ele>46.0</ele><time>2026-04-06T08:51:56Z</time></trkpt><trkpt lat="41.55374745719892" lon="12.703721406227372"><ele>46.0</ele><time>2026-04-06T08:51:57Z</time></trkpt><trkpt lat="41.55363296958164" lon="12.703566364666544"><ele>47.0</ele><time>2026-04-06T08:51:58Z</time></trkpt><trkpt lat="41.553520202102305" lon="12.703395640800464"><ele>48.0</ele><time>2026-04-06T08:51:59Z</time></trkpt><trkpt lat="41.5534200304564" lon="12.703222356608245"><ele>49.0</ele><time>2026-04-06T08:52:00Z</time></trkpt><trkpt lat="41.5533235392671" lon="12.70304484378727"><ele>49.0</ele><time>2026-04-06T08:52:01Z</time></trkpt><trkpt lat="41.553229714453956" lon="12.702875366141088"><ele>49.0</ele><time>2026-04-06T08:52:02Z</time></trkpt><trkpt lat="41.553133064730126" lon="12.702710711140037"><ele>49.0</ele><time>2026-04-06T08:52:03Z</time></trkpt><trkpt lat="41.55303812940048" lon="12.702547369911109"><ele>49.0</ele><time>2026-04-06T08:52:04Z</time></trkpt><trkpt lat="41.55294567716849" lon="12.702384643809996"><ele>49.0</ele><time>2026-04-06T08:52:05Z</time></trkpt><trkpt lat="41.5528531260123" lon="12.70222306453427"><ele>49.0</ele><time>2026-04-06T08:52:06Z</time></trkpt><trkpt lat="41.552760635809854" lon="12.70206564381668"><ele>49.0</ele><time>2026-04-06T08:52:07Z</time></trkpt><trkpt lat="41.5526719965965" lon="12.701914902540864"><ele>49.0</ele><time>2026-04-06T08:52:08Z</time></trkpt><trkpt lat="41.55259554235347" lon="12.701784850225348"><ele>49.0</ele><time>2026-04-06T08:52:09Z</time></trkpt><trkpt lat="41.55253167837309" lon="12.701666001625542"><ele>49.0</ele><time>2026-04-06T08:52:10Z</time></trkpt><trkpt lat="41.55247023140417" lon="12.701559614303427"><ele>49.0</ele><time>2026-04-06T08:52:11Z</time></trkpt><trkpt lat="41.55241257878471" lon="12.701455430080369"><ele>49.0</ele><time>2026-04-06T08:52:12Z</time></trkpt><trkpt lat="41.5523536473466" lon="12.701341543913028"><ele>49.0</ele><time>2026-04-06T08:52:13Z</time></trkpt><trkpt lat="41.552277371668936" lon="12.701187809121883"><ele>49.0</ele><time>2026-04-06T08:52:14Z</time></trkpt><trkpt lat="41.55217616465977" lon="12.70100503892098"><ele>49.666666666666664</ele><time>2026-04-06T08:52:15Z</time></trkpt><trkpt lat="41.5520737093886" lon="12.700826602262458"><ele>50.33333333333333</ele><time>2026-04-06T08:52:16Z</time></trkpt><trkpt lat="41.55196591208843" lon="12.700643689322487"><ele>51.0</ele><time>2026-04-06T08:52:17Z</time></trkpt><trkpt lat="41.551856548604846" lon="12.700466133400221"><ele>51.33333333333333</ele><time>2026-04-06T08:52:18Z</time></trkpt><trkpt lat="41.5517564584812" lon="12.700317798823889"><ele>51.666666666666664</ele><time>2026-04-06T08:52:19Z</time></trkpt><trkpt lat="41.55164310792684" lon="12.700152333723372"><ele>52.0</ele><time>2026-04-06T08:52:20Z</time></trkpt><trkpt lat="41.551526519459244" lon="12.699983513415159"><ele>52.25</ele><time>2026-04-06T08:52:21Z</time></trkpt><trkpt lat="41.551426422197" lon="12.699836708073805"><ele>52.5</ele><time>2026-04-06T08:52:22Z</time></trkpt><trkpt lat="41.55133964508006" lon="12.699710328289587"><ele>52.75</ele><time>2026-04-06T08:52:23Z</time></trkpt><trkpt lat="41.551260918683" lon="12.699595778385056"><ele>53.0</ele><time>2026-04-06T08:52:24Z</time></trkpt><trkpt lat="41.55119106875486" lon="12.699485202110827"><ele>53.2</ele><time>2026-04-06T08:52:25Z</time></trkpt><trkpt lat="41.55112090734098" lon="12.699389988052651"><ele>53.4</ele><time>2026-04-06T08:52:26Z</time></trkpt><trkpt lat="41.551055235613994" lon="12.699298204857481"><ele>53.60000000000001</ele><time>2026-04-06T08:52:27Z</time></trkpt><trkpt lat="41.55099157606429" lon="12.699215696835365"><ele>53.800000000000004</ele><time>2026-04-06T08:52:28Z</time></trkpt><trkpt lat="41.550928272011184" lon="12.699134477588865"><ele>54.0</ele><time>2026-04-06T08:52:29Z</time></trkpt><trkpt lat="41.55086515117347" lon="12.699053576361026"><ele>54.0</ele><time>2026-04-06T08:52:30Z</time></trkpt><trkpt lat="41.55080097345335" lon="12.698975378917579"><ele>54.00000000000001</ele><time>2026-04-06T08:52:31Z</time></trkpt><trkpt lat="41.55073747872659" lon="12.698896854060207"><ele>54.00000000000001</ele><time>2026-04-06T08:52:32Z</time></trkpt><trkpt lat="41.550674232275114" lon="12.69881801833308"><ele>54.0</ele><time>2026-04-06T08:52:33Z</time></trkpt><trkpt lat="41.550607042101056" lon="12.698734868145843"><ele>54.0</ele><time>2026-04-06T08:52:34Z</time></trkpt><trkpt lat="41.55053225241439" lon="12.698641644425088"><ele>54.25</ele><time>2026-04-06T08:52:35Z</time></trkpt><trkpt lat="41.55044965267192" lon="12.698539237096714"><ele>54.5</ele><time>2026-04-06T08:52:36Z</time></trkpt><trkpt lat="41.550361234006225" lon="12.698425767846642"><ele>54.75</ele><time>2026-04-06T08:52:37Z</time></trkpt><trkpt lat="41.550269358081785" lon="12.698307619478019"><ele>55.0</ele><time>2026-04-06T08:52:38Z</time></trkpt><trkpt lat="41.550170671688754" lon="12.69818753354233"><ele>55.0</ele><time>2026-04-06T08:52:39Z</time></trkpt><trkpt lat="41.55007004051672" lon="12.698058942494836"><ele>55.0</ele><time>2026-04-06T08:52:40Z</time></trkpt><trkpt lat="41.549969137581286" lon="12.697929994709762"><ele>55.0</ele><time>2026-04-06T08:52:41Z</time></trkpt><trkpt lat="41.549863533050434" lon="12.697790482254073"><ele>55.0</ele><time>2026-04-06T08:52:42Z</time></trkpt><trkpt lat="41.54973691390152" lon="12.697625955684797"><ele>55.0</ele><time>2026-04-06T08:52:43Z</time></trkpt><trkpt lat="41.54961726132712" lon="12.69746935280675"><ele>55.0</ele><time>2026-04-06T08:52:44Z</time></trkpt><trkpt lat="41.549518421620526" lon="12.69732810021263"><ele>55.0</ele><time>2026-04-06T08:52:45Z</time></trkpt><trkpt lat="41.549433700417936" lon="12.697173645871883"><ele>54.33333333333333</ele><time>2026-04-06T08:52:46Z</time></trkpt><trkpt lat="41.54936417422413" lon="12.696994559863855"><ele>53.66666666666667</ele><time>2026-04-06T08:52:47Z</time></trkpt><trkpt lat="41.549315323540476" lon="12.696797838363619"><ele>53.0</ele><time>2026-04-06T08:52:48Z</time></trkpt><trkpt lat="41.54928809966398" lon="12.696576306176889"><ele>53.0</ele><time>2026-04-06T08:52:49Z</time></trkpt><trkpt lat="41.54930327832453" lon="12.696320327961072"><ele>53.0</ele><time>2026-04-06T08:52:50Z</time></trkpt><trkpt lat="41.54931716100938" lon="12.696063329342287"><ele>53.0</ele><time>2026-04-06T08:52:51Z</time></trkpt><trkpt lat="41.54932397795311" lon="12.695835473475965"><ele>52.75</ele><time>2026-04-06T08:52:52Z</time></trkpt><trkpt lat="41.54934070945425" lon="12.69563696473855"><ele>52.5</ele><time>2026-04-06T08:52:53Z</time></trkpt><trkpt lat="41.54935604084685" lon="12.695455370834674"><ele>52.25</ele><time>2026-04-06T08:52:54Z</time></trkpt><trkpt lat="41.54936702103558" lon="12.695274480018293"><ele>52.0</ele><time>2026-04-06T08:52:55Z</time></trkpt><trkpt lat="41.54937786163438" lon="12.695086659410954"><ele>51.5</ele><time>2026-04-06T08:52:56Z</time></trkpt><trkpt lat="41.54938926038864" lon="12.694903111165276"><ele>51.0</ele><time>2026-04-06T08:52:57Z</time></trkpt><trkpt lat="41.549399754097266" lon="12.694722448157943"><ele>50.5</ele><time>2026-04-06T08:52:58Z</time></trkpt><trkpt lat="41.54940939758354" lon="12.69454355973497"><ele>50.0</ele><time>2026-04-06T08:52:59Z</time></trkpt><trkpt lat="41.54941921227376" lon="12.694365770288412"><ele>50.0</ele><time>2026-04-06T08:53:00Z</time></trkpt><trkpt lat="41.54942872066396" lon="12.694186696010666"><ele>50.0</ele><time>2026-04-06T08:53:01Z</time></trkpt><trkpt lat="41.549438753297025" lon="12.694004395631463"><ele>50.0</ele><time>2026-04-06T08:53:02Z</time></trkpt><trkpt lat="41.54945162021782" lon="12.693820673835239"><ele>50.0</ele><time>2026-04-06T08:53:03Z</time></trkpt><trkpt lat="41.54946166232571" lon="12.69363568557501"><ele>50.25</ele><time>2026-04-06T08:53:04Z</time></trkpt><trkpt lat="41.549475760163304" lon="12.693453075801644"><ele>50.5</ele><time>2026-04-06T08:53:05Z</time></trkpt><trkpt lat="41.5494921525548" lon="12.693268218414437"><ele>50.75</ele><time>2026-04-06T08:53:06Z</time></trkpt><trkpt lat="41.549505810264144" lon="12.693081349139197"><ele>51.0</ele><time>2026-04-06T08:53:07Z</time></trkpt><trkpt lat="41.54951919108105" lon="12.692894911040863"><ele>51.25</ele><time>2026-04-06T08:53:08Z</time></trkpt><trkpt lat="41.54952878652401" lon="12.692707363372245"><ele>51.5</ele><time>2026-04-06T08:53:09Z</time></trkpt><trkpt lat="41.54953978928119" lon="12.692518338499418"><ele>51.75</ele><time>2026-04-06T08:53:10Z</time></trkpt><trkpt lat="41.54955134635459" lon="12.692332339861611"><ele>52.0</ele><time>2026-04-06T08:53:11Z</time></trkpt><trkpt lat="41.5495634644522" lon="12.692143237954836"><ele>52.75</ele><time>2026-04-06T08:53:12Z</time></trkpt><trkpt lat="41.54957530008085" lon="12.691954954659554"><ele>53.5</ele><time>2026-04-06T08:53:13Z</time></trkpt><trkpt lat="41.549587211103315" lon="12.691765030483861"><ele>54.25</ele><time>2026-04-06T08:53:14Z</time></trkpt><trkpt lat="41.54959986599604" lon="12.691577712393421"><ele>55.0</ele><time>2026-04-06T08:53:15Z</time></trkpt><trkpt lat="41.54960889339224" lon="12.691406706027617"><ele>55.0</ele><time>2026-04-06T08:53:16Z</time></trkpt><trkpt lat="41.5496181538576" lon="12.691244662541134"><ele>55.0</ele><time>2026-04-06T08:53:17Z</time></trkpt><trkpt lat="41.54962636445384" lon="12.691073646882753"><ele>55.0</ele><time>2026-04-06T08:53:18Z</time></trkpt><trkpt lat="41.549635139020445" lon="12.690904527270442"><ele>55.0</ele><time>2026-04-06T08:53:19Z</time></trkpt><trkpt lat="41.54964511170817" lon="12.6907353709454"><ele>54.75</ele><time>2026-04-06T08:53:20Z</time></trkpt><trkpt lat="41.54965690343813" lon="12.690556198033951"><ele>54.5</ele><time>2026-04-06T08:53:21Z</time></trkpt><trkpt lat="41.549669464235265" lon="12.69037799521257"><ele>54.25</ele><time>2026-04-06T08:53:22Z</time></trkpt><trkpt lat="41.549683558269834" lon="12.690200242341723"><ele>54.0</ele><time>2026-04-06T08:53:23Z</time></trkpt><trkpt lat="41.549694392505394" lon="12.690025408494336"><ele>53.75</ele><time>2026-04-06T08:53:24Z</time></trkpt><trkpt lat="41.5497031825765" lon="12.689854726387198"><ele>53.5</ele><time>2026-04-06T08:53:25Z</time></trkpt><trkpt lat="41.54971151917465" lon="12.689687585500035"><ele>53.25</ele><time>2026-04-06T08:53:26Z</time></trkpt><trkpt lat="41.54972209801518" lon="12.689525366333168"><ele>53.0</ele><time>2026-04-06T08:53:27Z</time></trkpt><trkpt lat="41.54973267779727" lon="12.689357999877465"><ele>53.0</ele><time>2026-04-06T08:53:28Z</time></trkpt><trkpt lat="41.549743964120296" lon="12.689190123390347"><ele>53.0</ele><time>2026-04-06T08:53:29Z</time></trkpt><trkpt lat="41.5497561876926" lon="12.689017800924232"><ele>53.0</ele><time>2026-04-06T08:53:30Z</time></trkpt><trkpt lat="41.54976562566162" lon="12.688843799188733"><ele>53.0</ele><time>2026-04-06T08:53:31Z</time></trkpt><trkpt lat="41.54977527229411" lon="12.688669380193533"><ele>53.25</ele><time>2026-04-06T08:53:32Z</time></trkpt><trkpt lat="41.549787485427515" lon="12.688493597072549"><ele>53.5</ele><time>2026-04-06T08:53:33Z</time></trkpt><trkpt lat="41.54980105405017" lon="12.688314029375386"><ele>53.75</ele><time>2026-04-06T08:53:34Z</time></trkpt><trkpt lat="41.54981186406999" lon="12.688133190549427"><ele>54.0</ele><time>2026-04-06T08:53:35Z</time></trkpt><trkpt lat="41.54982458771716" lon="12.687952937765854"><ele>54.0</ele><time>2026-04-06T08:53:36Z</time></trkpt><trkpt lat="41.54983680319823" lon="12.687771159791643"><ele>54.0</ele><time>2026-04-06T08:53:37Z</time></trkpt><trkpt lat="41.54984915334868" lon="12.68759074956782"><ele>54.0</ele><time>2026-04-06T08:53:38Z</time></trkpt><trkpt lat="41.54986171936024" lon="12.687410196791419"><ele>54.0</ele><time>2026-04-06T08:53:39Z</time></trkpt><trkpt lat="41.549871831470846" lon="12.687230804882422"><ele>54.5</ele><time>2026-04-06T08:53:40Z</time></trkpt><trkpt lat="41.54988332213942" lon="12.68705157733623"><ele>55.0</ele><time>2026-04-06T08:53:41Z</time></trkpt><trkpt lat="41.54989147726489" lon="12.686871339786752"><ele>55.5</ele><time>2026-04-06T08:53:42Z</time></trkpt><trkpt lat="41.549900742756016" lon="12.686691099105287"><ele>56.0</ele><time>2026-04-06T08:53:43Z</time></trkpt><trkpt lat="41.54991232438745" lon="12.686507418532988"><ele>56.0</ele><time>2026-04-06T08:53:44Z</time></trkpt><trkpt lat="41.54992583331153" lon="12.686324879153"><ele>56.0</ele><time>2026-04-06T08:53:45Z</time></trkpt><trkpt lat="41.54993807187161" lon="12.686140436584383"><ele>56.0</ele><time>2026-04-06T08:53:46Z</time></trkpt><trkpt lat="41.54994971704257" lon="12.685953193264108"><ele>56.0</ele><time>2026-04-06T08:53:47Z</time></trkpt><trkpt lat="41.54996060591757" lon="12.685766368622422"><ele>56.0</ele><time>2026-04-06T08:53:48Z</time></trkpt><trkpt lat="41.54997083096433" lon="12.685579476509483"><ele>56.0</ele><time>2026-04-06T08:53:49Z</time></trkpt><trkpt lat="41.54998080734962" lon="12.685388843387706"><ele>56.0</ele><time>2026-04-06T08:53:50Z</time></trkpt><trkpt lat="41.54999175147098" lon="12.685202291830578"><ele>56.0</ele><time>2026-04-06T08:53:51Z</time></trkpt><trkpt lat="41.55000481343492" lon="12.685011831037409"><ele>56.25</ele><time>2026-04-06T08:53:52Z</time></trkpt><trkpt lat="41.550016908371695" lon="12.684821756515943"><ele>56.5</ele><time>2026-04-06T08:53:53Z</time></trkpt><trkpt lat="41.55002922754003" lon="12.684628812189429"><ele>56.75</ele><time>2026-04-06T08:53:54Z</time></trkpt><trkpt lat="41.550042420563855" lon="12.684436356604943"><ele>57.0</ele><time>2026-04-06T08:53:55Z</time></trkpt><trkpt lat="41.55005521658826" lon="12.68424498833043"><ele>57.0</ele><time>2026-04-06T08:53:56Z</time></trkpt><trkpt lat="41.55007006142257" lon="12.684052070421744"><ele>57.0</ele><time>2026-04-06T08:53:57Z</time></trkpt><trkpt lat="41.550082767992144" lon="12.683859347357467"><ele>57.0</ele><time>2026-04-06T08:53:58Z</time></trkpt><trkpt lat="41.55009389860497" lon="12.683665518105888"><ele>57.0</ele><time>2026-04-06T08:53:59Z</time></trkpt><trkpt lat="41.55010405918707" lon="12.683472646794216"><ele>57.0</ele><time>2026-04-06T08:54:00Z</time></trkpt><trkpt lat="41.55011654722123" lon="12.683282776638517"><ele>57.0</ele><time>2026-04-06T08:54:01Z</time></trkpt><trkpt lat="41.550130139901846" lon="12.683093728623511"><ele>57.0</ele><time>2026-04-06T08:54:02Z</time></trkpt><trkpt lat="41.550141218563915" lon="12.68290151406161"><ele>57.0</ele><time>2026-04-06T08:54:03Z</time></trkpt><trkpt lat="41.55015199607181" lon="12.682710747358522"><ele>57.25</ele><time>2026-04-06T08:54:04Z</time></trkpt><trkpt lat="41.55016634827161" lon="12.682522900916"><ele>57.5</ele><time>2026-04-06T08:54:05Z</time></trkpt><trkpt lat="41.550180046622486" lon="12.682337061066875"><ele>57.75</ele><time>2026-04-06T08:54:06Z</time></trkpt><trkpt lat="41.5501905576541" lon="12.682150139146415"><ele>58.0</ele><time>2026-04-06T08:54:07Z</time></trkpt><trkpt lat="41.55019964992321" lon="12.681966775879884"><ele>58.0</ele><time>2026-04-06T08:54:08Z</time></trkpt><trkpt lat="41.55021098537087" lon="12.681780089818757"><ele>58.0</ele><time>2026-04-06T08:54:09Z</time></trkpt><trkpt lat="41.55022496387403" lon="12.681594818129783"><ele>58.0</ele><time>2026-04-06T08:54:10Z</time></trkpt><trkpt lat="41.55023658078965" lon="12.68140380372089"><ele>58.0</ele><time>2026-04-06T08:54:11Z</time></trkpt><trkpt lat="41.550248444000026" lon="12.681212691345658"><ele>58.75</ele><time>2026-04-06T08:54:12Z</time></trkpt><trkpt lat="41.550259696026444" lon="12.68102362869723"><ele>59.5</ele><time>2026-04-06T08:54:13Z</time></trkpt><trkpt lat="41.55027294262448" lon="12.680837957515434"><ele>60.25</ele><time>2026-04-06T08:54:14Z</time></trkpt><trkpt lat="41.55028760197773" lon="12.680652990336112"><ele>61.0</ele><time>2026-04-06T08:54:15Z</time></trkpt><trkpt lat="41.550299903689265" lon="12.680466089759168"><ele>61.0</ele><time>2026-04-06T08:54:16Z</time></trkpt><trkpt lat="41.55031109687346" lon="12.680281173816063"><ele>61.0</ele><time>2026-04-06T08:54:17Z</time></trkpt><trkpt lat="41.55032436879611" lon="12.68009904989664"><ele>61.0</ele><time>2026-04-06T08:54:18Z</time></trkpt><trkpt lat="41.550334513153786" lon="12.679911558767676"><ele>61.0</ele><time>2026-04-06T08:54:19Z</time></trkpt><trkpt lat="41.55034653054353" lon="12.67972256589991"><ele>61.0</ele><time>2026-04-06T08:54:20Z</time></trkpt><trkpt lat="41.550356959874364" lon="12.679533656006004"><ele>61.0</ele><time>2026-04-06T08:54:21Z</time></trkpt><trkpt lat="41.550368698096904" lon="12.679346113563783"><ele>61.0</ele><time>2026-04-06T08:54:22Z</time></trkpt><trkpt lat="41.55038069085694" lon="12.679156114146089"><ele>61.0</ele><time>2026-04-06T08:54:23Z</time></trkpt><trkpt lat="41.550392367925525" lon="12.67896853709704"><ele>61.33333333333333</ele><time>2026-04-06T08:54:24Z</time></trkpt><trkpt lat="41.55040465585456" lon="12.678777204568236"><ele>61.66666666666667</ele><time>2026-04-06T08:54:25Z</time></trkpt><trkpt lat="41.55041865306011" lon="12.678573932891082"><ele>62.0</ele><time>2026-04-06T08:54:26Z</time></trkpt><trkpt lat="41.55043138506726" lon="12.678367338112892"><ele>62.0</ele><time>2026-04-06T08:54:27Z</time></trkpt><trkpt lat="41.55044154098818" lon="12.678161279578648"><ele>62.0</ele><time>2026-04-06T08:54:28Z</time></trkpt><trkpt lat="41.55045393531287" lon="12.677952171162687"><ele>62.0</ele><time>2026-04-06T08:54:29Z</time></trkpt><trkpt lat="41.55046580290339" lon="12.67774619520113"><ele>62.0</ele><time>2026-04-06T08:54:30Z</time></trkpt><trkpt lat="41.550478539083564" lon="12.677542915004159"><ele>62.0</ele><time>2026-04-06T08:54:31Z</time></trkpt><trkpt lat="41.55049471503313" lon="12.677336109384585"><ele>62.0</ele><time>2026-04-06T08:54:32Z</time></trkpt><trkpt lat="41.550513175625554" lon="12.67712829886332"><ele>62.66666666666667</ele><time>2026-04-06T08:54:33Z</time></trkpt><trkpt lat="41.55052634621319" lon="12.676921569150227"><ele>63.33333333333333</ele><time>2026-04-06T08:54:34Z</time></trkpt><trkpt lat="41.550537163459744" lon="12.67671719075743"><ele>64.0</ele><time>2026-04-06T08:54:35Z</time></trkpt><trkpt lat="41.550549205958944" lon="12.676512128789707"><ele>64.0</ele><time>2026-04-06T08:54:36Z</time></trkpt><trkpt lat="41.55056037478766" lon="12.676309344283682"><ele>64.0</ele><time>2026-04-06T08:54:37Z</time></trkpt><trkpt lat="41.55057203237394" lon="12.67609773447981"><ele>64.0</ele><time>2026-04-06T08:54:38Z</time></trkpt><trkpt lat="41.55058591538061" lon="12.67588290549533"><ele>64.0</ele><time>2026-04-06T08:54:39Z</time></trkpt><trkpt lat="41.550598927966234" lon="12.67567012341736"><ele>64.0</ele><time>2026-04-06T08:54:40Z</time></trkpt><trkpt lat="41.55061355359674" lon="12.675452362346011"><ele>64.0</ele><time>2026-04-06T08:54:41Z</time></trkpt><trkpt lat="41.55062747053385" lon="12.675240675887045"><ele>64.0</ele><time>2026-04-06T08:54:42Z</time></trkpt><trkpt lat="41.550639356823204" lon="12.675029758012176"><ele>64.0</ele><time>2026-04-06T08:54:43Z</time></trkpt><trkpt lat="41.55064977229224" lon="12.674820972495613"><ele>64.0</ele><time>2026-04-06T08:54:44Z</time></trkpt><trkpt lat="41.55066012612073" lon="12.67461380511221"><ele>64.0</ele><time>2026-04-06T08:54:45Z</time></trkpt><trkpt lat="41.55067493920951" lon="12.674409422731603"><ele>64.0</ele><time>2026-04-06T08:54:46Z</time></trkpt><trkpt lat="41.55069266696274" lon="12.674203166384896"><ele>64.0</ele><time>2026-04-06T08:54:47Z</time></trkpt><trkpt lat="41.55070557774452" lon="12.674002002940068"><ele>64.0</ele><time>2026-04-06T08:54:48Z</time></trkpt><trkpt lat="41.55071671004946" lon="12.673802307437338"><ele>64.0</ele><time>2026-04-06T08:54:49Z</time></trkpt><trkpt lat="41.550729386290136" lon="12.67359728283721"><ele>64.0</ele><time>2026-04-06T08:54:50Z</time></trkpt><trkpt lat="41.55074086613438" lon="12.673389985584011"><ele>64.0</ele><time>2026-04-06T08:54:51Z</time></trkpt><trkpt lat="41.55075419194866" lon="12.673175285156033"><ele>64.0</ele><time>2026-04-06T08:54:52Z</time></trkpt><trkpt lat="41.55076749674683" lon="12.672962844368547"><ele>64.0</ele><time>2026-04-06T08:54:53Z</time></trkpt><trkpt lat="41.55078049757346" lon="12.672752594551225"><ele>64.0</ele><time>2026-04-06T08:54:54Z</time></trkpt><trkpt lat="41.55079331869577" lon="12.672538422422058"><ele>64.0</ele><time>2026-04-06T08:54:55Z</time></trkpt><trkpt lat="41.55080820983993" lon="12.672326185895315"><ele>64.0</ele><time>2026-04-06T08:54:56Z</time></trkpt><trkpt lat="41.5508217274717" lon="12.672118081549348"><ele>64.33333333333333</ele><time>2026-04-06T08:54:57Z</time></trkpt><trkpt lat="41.550834439034325" lon="12.671904539095033"><ele>64.66666666666667</ele><time>2026-04-06T08:54:58Z</time></trkpt><trkpt lat="41.55084737593256" lon="12.671696521693606"><ele>65.0</ele><time>2026-04-06T08:54:59Z</time></trkpt><trkpt lat="41.55085885096263" lon="12.671487867448473"><ele>65.0</ele><time>2026-04-06T08:55:00Z</time></trkpt><trkpt lat="41.550871383624006" lon="12.671283129143701"><ele>65.0</ele><time>2026-04-06T08:55:01Z</time></trkpt><trkpt lat="41.55088416860759" lon="12.671079832762103"><ele>65.0</ele><time>2026-04-06T08:55:02Z</time></trkpt><trkpt lat="41.55089546091076" lon="12.670878683417984"><ele>65.0</ele><time>2026-04-06T08:55:03Z</time></trkpt><trkpt lat="41.55090724490264" lon="12.670677287040267"><ele>65.0</ele><time>2026-04-06T08:55:04Z</time></trkpt><trkpt lat="41.55092142919278" lon="12.670476487797542"><ele>65.0</ele><time>2026-04-06T08:55:05Z</time></trkpt><trkpt lat="41.550935696873985" lon="12.670271493998383"><ele>65.0</ele><time>2026-04-06T08:55:06Z</time></trkpt><trkpt lat="41.550948578747914" lon="12.67006200674344"><ele>65.0</ele><time>2026-04-06T08:55:07Z</time></trkpt><trkpt lat="41.55096143103692" lon="12.66985167285581"><ele>65.0</ele><time>2026-04-06T08:55:08Z</time></trkpt><trkpt lat="41.550975779363476" lon="12.669641626452403"><ele>65.66666666666667</ele><time>2026-04-06T08:55:09Z</time></trkpt><trkpt lat="41.55099171908432" lon="12.669430609746154"><ele>66.33333333333333</ele><time>2026-04-06T08:55:10Z</time></trkpt><trkpt lat="41.55100470179407" lon="12.669218895032524"><ele>67.0</ele><time>2026-04-06T08:55:11Z</time></trkpt><trkpt lat="41.551015042597534" lon="12.669003067699249"><ele>67.0</ele><time>2026-04-06T08:55:12Z</time></trkpt><trkpt lat="41.5510276470821" lon="12.668794582377766"><ele>67.0</ele><time>2026-04-06T08:55:13Z</time></trkpt><trkpt lat="41.55104056479596" lon="12.668586650743256"><ele>67.0</ele><time>2026-04-06T08:55:14Z</time></trkpt><trkpt lat="41.551053808924365" lon="12.668376658342623"><ele>67.0</ele><time>2026-04-06T08:55:15Z</time></trkpt><trkpt lat="41.551069334094265" lon="12.668170035514407"><ele>67.0</ele><time>2026-04-06T08:55:16Z</time></trkpt><trkpt lat="41.55108314067029" lon="12.66796602011358"><ele>67.0</ele><time>2026-04-06T08:55:17Z</time></trkpt><trkpt lat="41.551094203509905" lon="12.66776251728373"><ele>67.0</ele><time>2026-04-06T08:55:18Z</time></trkpt><trkpt lat="41.551109171254865" lon="12.667560525394371"><ele>67.0</ele><time>2026-04-06T08:55:19Z</time></trkpt><trkpt lat="41.55112524387384" lon="12.667358411685365"><ele>67.0</ele><time>2026-04-06T08:55:20Z</time></trkpt><trkpt lat="41.55113832851955" lon="12.66715011255118"><ele>67.0</ele><time>2026-04-06T08:55:21Z</time></trkpt><trkpt lat="41.55114688704756" lon="12.666934166532327"><ele>67.0</ele><time>2026-04-06T08:55:22Z</time></trkpt><trkpt lat="41.55116056511785" lon="12.666722378080165"><ele>67.0</ele><time>2026-04-06T08:55:23Z</time></trkpt><trkpt lat="41.55117391525096" lon="12.666510245371637"><ele>67.0</ele><time>2026-04-06T08:55:24Z</time></trkpt><trkpt lat="41.551185924876435" lon="12.66630201248018"><ele>67.0</ele><time>2026-04-06T08:55:25Z</time></trkpt><trkpt lat="41.55119936547986" lon="12.666095898963325"><ele>67.0</ele><time>2026-04-06T08:55:26Z</time></trkpt><trkpt lat="41.55121508860024" lon="12.665891329713405"><ele>67.0</ele><time>2026-04-06T08:55:27Z</time></trkpt><trkpt lat="41.551231297844886" lon="12.665686623732695"><ele>67.0</ele><time>2026-04-06T08:55:28Z</time></trkpt><trkpt lat="41.551244057610866" lon="12.665481598908643"><ele>67.0</ele><time>2026-04-06T08:55:29Z</time></trkpt><trkpt lat="41.55125576233686" lon="12.665276038339572"><ele>66.66666666666666</ele><time>2026-04-06T08:55:30Z</time></trkpt><trkpt lat="41.55126617604702" lon="12.665067655422328"><ele>66.33333333333333</ele><time>2026-04-06T08:55:31Z</time></trkpt><trkpt lat="41.55127683485024" lon="12.66485957468178"><ele>66.0</ele><time>2026-04-06T08:55:32Z</time></trkpt><trkpt lat="41.55129457415051" lon="12.66464850260651"><ele>66.33333333333333</ele><time>2026-04-06T08:55:33Z</time></trkpt><trkpt lat="41.55130979753648" lon="12.664440399518892"><ele>66.66666666666666</ele><time>2026-04-06T08:55:34Z</time></trkpt><trkpt lat="41.55132200079115" lon="12.664227989219471"><ele>67.0</ele><time>2026-04-06T08:55:35Z</time></trkpt><trkpt lat="41.551334278807786" lon="12.664018794371657"><ele>67.0</ele><time>2026-04-06T08:55:36Z</time></trkpt><trkpt lat="41.551346447372424" lon="12.663810000863885"><ele>67.0</ele><time>2026-04-06T08:55:37Z</time></trkpt><trkpt lat="41.55135956492173" lon="12.663599697320622"><ele>67.0</ele><time>2026-04-06T08:55:38Z</time></trkpt><trkpt lat="41.551372470607596" lon="12.663386565245991"><ele>67.33333333333333</ele><time>2026-04-06T08:55:39Z</time></trkpt><trkpt lat="41.551382650262006" lon="12.663179018631922"><ele>67.66666666666667</ele><time>2026-04-06T08:55:40Z</time></trkpt><trkpt lat="41.55139474911417" lon="12.662966118667766"><ele>68.0</ele><time>2026-04-06T08:55:41Z</time></trkpt><trkpt lat="41.551407786599334" lon="12.66275807852388"><ele>68.33333333333334</ele><time>2026-04-06T08:55:42Z</time></trkpt><trkpt lat="41.55142320858262" lon="12.66254987034631"><ele>68.66666666666667</ele><time>2026-04-06T08:55:43Z</time></trkpt><trkpt lat="41.551437593385245" lon="12.66234074434712"><ele>69.0</ele><time>2026-04-06T08:55:44Z</time></trkpt><trkpt lat="41.55145155104797" lon="12.662129142159579"><ele>69.66666666666667</ele><time>2026-04-06T08:55:45Z</time></trkpt><trkpt lat="41.55146634868769" lon="12.661912349046906"><ele>70.33333333333334</ele><time>2026-04-06T08:55:46Z</time></trkpt><trkpt lat="41.551480042021275" lon="12.661703371071088"><ele>71.0</ele><time>2026-04-06T08:55:47Z</time></trkpt><trkpt lat="41.5514933987765" lon="12.661493143810098"><ele>71.0</ele><time>2026-04-06T08:55:48Z</time></trkpt><trkpt lat="41.551508155507584" lon="12.661276633715522"><ele>71.0</ele><time>2026-04-06T08:55:49Z</time></trkpt><trkpt lat="41.551522514346516" lon="12.661066626328054"><ele>71.0</ele><time>2026-04-06T08:55:50Z</time></trkpt><trkpt lat="41.55153752369077" lon="12.660852184971787"><ele>71.0</ele><time>2026-04-06T08:55:51Z</time></trkpt><trkpt lat="41.551551668071596" lon="12.660638759847073"><ele>71.0</ele><time>2026-04-06T08:55:52Z</time></trkpt><trkpt lat="41.55156504294689" lon="12.660429567178207"><ele>71.0</ele><time>2026-04-06T08:55:53Z</time></trkpt><trkpt lat="41.5515802046007" lon="12.660215991781707"><ele>71.0</ele><time>2026-04-06T08:55:54Z</time></trkpt><trkpt lat="41.551594985604495" lon="12.660006530428031"><ele>71.0</ele><time>2026-04-06T08:55:55Z</time></trkpt><trkpt lat="41.55160724894675" lon="12.659797150183323"><ele>71.0</ele><time>2026-04-06T08:55:56Z</time></trkpt><trkpt lat="41.55162151275158" lon="12.65957993145443"><ele>71.0</ele><time>2026-04-06T08:55:57Z</time></trkpt><trkpt lat="41.55163530435102" lon="12.659370735131358"><ele>71.0</ele><time>2026-04-06T08:55:58Z</time></trkpt><trkpt lat="41.551647878856734" lon="12.659162360928747"><ele>71.0</ele><time>2026-04-06T08:55:59Z</time></trkpt><trkpt lat="41.551659072748215" lon="12.658953366263631"><ele>71.0</ele><time>2026-04-06T08:56:00Z</time></trkpt><trkpt lat="41.55167297289262" lon="12.658744003550613"><ele>71.0</ele><time>2026-04-06T08:56:01Z</time></trkpt><trkpt lat="41.55168668764358" lon="12.658537389268076"><ele>71.0</ele><time>2026-04-06T08:56:02Z</time></trkpt><trkpt lat="41.55170151478136" lon="12.658333149067609"><ele>71.0</ele><time>2026-04-06T08:56:03Z</time></trkpt><trkpt lat="41.551714799649105" lon="12.658129919844463"><ele>71.0</ele><time>2026-04-06T08:56:04Z</time></trkpt><trkpt lat="41.55172600008434" lon="12.657944748896579"><ele>71.0</ele><time>2026-04-06T08:56:05Z</time></trkpt><trkpt lat="41.55173808841686" lon="12.65776118263913"><ele>71.0</ele><time>2026-04-06T08:56:06Z</time></trkpt><trkpt lat="41.551750869189725" lon="12.65757322270219"><ele>71.25</ele><time>2026-04-06T08:56:07Z</time></trkpt><trkpt lat="41.55176175382148" lon="12.657385774388015"><ele>71.5</ele><time>2026-04-06T08:56:08Z</time></trkpt><trkpt lat="41.551771959115" lon="12.657199095686426"><ele>71.75</ele><time>2026-04-06T08:56:09Z</time></trkpt><trkpt lat="41.55178023216092" lon="12.657007158994055"><ele>72.0</ele><time>2026-04-06T08:56:10Z</time></trkpt><trkpt lat="41.55179559534053" lon="12.656805613105396"><ele>72.0</ele><time>2026-04-06T08:56:11Z</time></trkpt><trkpt lat="41.551815134650404" lon="12.65657981844459"><ele>72.0</ele><time>2026-04-06T08:56:12Z</time></trkpt><trkpt lat="41.551826023494655" lon="12.656338414119821"><ele>72.0</ele><time>2026-04-06T08:56:13Z</time></trkpt><trkpt lat="41.55185748583639" lon="12.656065539801792"><ele>72.66666666666667</ele><time>2026-04-06T08:56:14Z</time></trkpt><trkpt lat="41.55187772381138" lon="12.655770658806889"><ele>73.33333333333334</ele><time>2026-04-06T08:56:15Z</time></trkpt><trkpt lat="41.551892647239974" lon="12.655482557241564"><ele>74.0</ele><time>2026-04-06T08:56:16Z</time></trkpt><trkpt lat="41.551915320864076" lon="12.655236905855528"><ele>74.0</ele><time>2026-04-06T08:56:17Z</time></trkpt><trkpt lat="41.551925669128536" lon="12.655012171892283"><ele>74.0</ele><time>2026-04-06T08:56:18Z</time></trkpt><trkpt lat="41.55193184890461" lon="12.654799221946833"><ele>74.0</ele><time>2026-04-06T08:56:19Z</time></trkpt><trkpt lat="41.551942957372056" lon="12.654586820551307"><ele>74.0</ele><time>2026-04-06T08:56:20Z</time></trkpt><trkpt lat="41.55195581842926" lon="12.654380297173386"><ele>74.0</ele><time>2026-04-06T08:56:21Z</time></trkpt><trkpt lat="41.551970145992534" lon="12.654171619751608"><ele>74.0</ele><time>2026-04-06T08:56:22Z</time></trkpt><trkpt lat="41.55198420855429" lon="12.653971961511482"><ele>74.0</ele><time>2026-04-06T08:56:23Z</time></trkpt><trkpt lat="41.55199713387631" lon="12.653773896355665"><ele>74.0</ele><time>2026-04-06T08:56:24Z</time></trkpt><trkpt lat="41.55200899552983" lon="12.65357585587279"><ele>74.0</ele><time>2026-04-06T08:56:25Z</time></trkpt><trkpt lat="41.552021942675076" lon="12.653382579396238"><ele>74.0</ele><time>2026-04-06T08:56:26Z</time></trkpt><trkpt lat="41.55203298453047" lon="12.653190616858476"><ele>75.0</ele><time>2026-04-06T08:56:27Z</time></trkpt><trkpt lat="41.552048333634545" lon="12.653000469414309"><ele>76.0</ele><time>2026-04-06T08:56:28Z</time></trkpt><trkpt lat="41.55205663490341" lon="12.652801381624837"><ele>77.0</ele><time>2026-04-06T08:56:29Z</time></trkpt><trkpt lat="41.55208933048611" lon="12.652563522308474"><ele>77.0</ele><time>2026-04-06T08:56:30Z</time></trkpt><trkpt lat="41.552106388340135" lon="12.652291391548612"><ele>77.0</ele><time>2026-04-06T08:56:31Z</time></trkpt><trkpt lat="41.552108584917065" lon="12.651998422323553"><ele>77.0</ele><time>2026-04-06T08:56:32Z</time></trkpt><trkpt lat="41.552148001711586" lon="12.651696011630547"><ele>77.0</ele><time>2026-04-06T08:56:33Z</time></trkpt><trkpt lat="41.55217155950541" lon="12.651385516094283"><ele>77.0</ele><time>2026-04-06T08:56:34Z</time></trkpt><trkpt lat="41.5521844249324" lon="12.65106534095452"><ele>78.0</ele><time>2026-04-06T08:56:35Z</time></trkpt><trkpt lat="41.55220042466842" lon="12.650757382246077"><ele>79.0</ele><time>2026-04-06T08:56:36Z</time></trkpt><trkpt lat="41.552217282479866" lon="12.65047369045199"><ele>80.0</ele><time>2026-04-06T08:56:37Z</time></trkpt><trkpt lat="41.552236346742745" lon="12.650186470118394"><ele>80.0</ele><time>2026-04-06T08:56:38Z</time></trkpt><trkpt lat="41.552256874139466" lon="12.649905018813945"><ele>80.0</ele><time>2026-04-06T08:56:39Z</time></trkpt><trkpt lat="41.55227564796682" lon="12.649630072689536"><ele>80.0</ele><time>2026-04-06T08:56:40Z</time></trkpt><trkpt lat="41.55229251620798" lon="12.649361883168604"><ele>80.33333333333334</ele><time>2026-04-06T08:56:41Z</time></trkpt><trkpt lat="41.55231153071514" lon="12.649094202980137"><ele>80.66666666666667</ele><time>2026-04-06T08:56:42Z</time></trkpt><trkpt lat="41.55232970086493" lon="12.648826674245704"><ele>81.0</ele><time>2026-04-06T08:56:43Z</time></trkpt><trkpt lat="41.552345062402004" lon="12.648566415032834"><ele>81.33333333333333</ele><time>2026-04-06T08:56:44Z</time></trkpt><trkpt lat="41.5523598881108" lon="12.648310595610104"><ele>81.66666666666666</ele><time>2026-04-06T08:56:45Z</time></trkpt><trkpt lat="41.55237649200161" lon="12.648052141761632"><ele>82.0</ele><time>2026-04-06T08:56:46Z</time></trkpt><trkpt lat="41.55239362033213" lon="12.647793200148765"><ele>81.33333333333333</ele><time>2026-04-06T08:56:47Z</time></trkpt><trkpt lat="41.55241226586292" lon="12.647532381736848"><ele>80.66666666666667</ele><time>2026-04-06T08:56:48Z</time></trkpt><trkpt lat="41.552429651714085" lon="12.647274068407665"><ele>80.0</ele><time>2026-04-06T08:56:49Z</time></trkpt><trkpt lat="41.55244730582933" lon="12.647018004716006"><ele>80.33333333333334</ele><time>2026-04-06T08:56:50Z</time></trkpt><trkpt lat="41.55246511061193" lon="12.646764909865594"><ele>80.66666666666667</ele><time>2026-04-06T08:56:51Z</time></trkpt><trkpt lat="41.55247952664017" lon="12.646513959944285"><ele>81.0</ele><time>2026-04-06T08:56:52Z</time></trkpt><trkpt lat="41.55249654839163" lon="12.64625881504856"><ele>81.33333333333333</ele><time>2026-04-06T08:56:53Z</time></trkpt><trkpt lat="41.55251568599434" lon="12.646006789426751"><ele>81.66666666666666</ele><time>2026-04-06T08:56:54Z</time></trkpt><trkpt lat="41.552533808265615" lon="12.645755377910506"><ele>82.0</ele><time>2026-04-06T08:56:55Z</time></trkpt><trkpt lat="41.5525493988608" lon="12.645505308664966"><ele>81.66666666666666</ele><time>2026-04-06T08:56:56Z</time></trkpt><trkpt lat="41.5525626183474" lon="12.645257135516973"><ele>81.33333333333333</ele><time>2026-04-06T08:56:57Z</time></trkpt><trkpt lat="41.55257928308229" lon="12.64501576700357"><ele>81.0</ele><time>2026-04-06T08:56:58Z</time></trkpt><trkpt lat="41.552597170061645" lon="12.644769382887391"><ele>81.0</ele><time>2026-04-06T08:56:59Z</time></trkpt><trkpt lat="41.55261529663068" lon="12.644525755161297"><ele>81.0</ele><time>2026-04-06T08:57:00Z</time></trkpt><trkpt lat="41.552635874386624" lon="12.644301144498085"><ele>81.0</ele><time>2026-04-06T08:57:01Z</time></trkpt><trkpt lat="41.552655937195475" lon="12.644077105110625"><ele>81.0</ele><time>2026-04-06T08:57:02Z</time></trkpt><trkpt lat="41.552675849705615" lon="12.643851160931684"><ele>81.0</ele><time>2026-04-06T08:57:03Z</time></trkpt><trkpt lat="41.55269603961408" lon="12.643628712047152"><ele>81.0</ele><time>2026-04-06T08:57:04Z</time></trkpt><trkpt lat="41.552718294212134" lon="12.643408930408286"><ele>81.0</ele><time>2026-04-06T08:57:05Z</time></trkpt><trkpt lat="41.55273882950001" lon="12.643186760101806"><ele>81.0</ele><time>2026-04-06T08:57:06Z</time></trkpt><trkpt lat="41.55275916536633" lon="12.642964884700191"><ele>81.0</ele><time>2026-04-06T08:57:07Z</time></trkpt><trkpt lat="41.55277997918406" lon="12.642746633378533"><ele>81.66666666666667</ele><time>2026-04-06T08:57:08Z</time></trkpt><trkpt lat="41.55280221291714" lon="12.642528939070965"><ele>82.33333333333334</ele><time>2026-04-06T08:57:09Z</time></trkpt><trkpt lat="41.55282671850119" lon="12.64230656387587"><ele>83.0</ele><time>2026-04-06T08:57:10Z</time></trkpt><trkpt lat="41.55285028153137" lon="12.642089394924062"><ele>83.0</ele><time>2026-04-06T08:57:11Z</time></trkpt><trkpt lat="41.55287490542376" lon="12.641870322396338"><ele>83.0</ele><time>2026-04-06T08:57:12Z</time></trkpt><trkpt lat="41.55290097461163" lon="12.641650550471264"><ele>83.0</ele><time>2026-04-06T08:57:13Z</time></trkpt><trkpt lat="41.55292072880355" lon="12.641473619124232"><ele>83.0</ele><time>2026-04-06T08:57:14Z</time></trkpt><trkpt lat="41.552934210830024" lon="12.641345990634722"><ele>83.0</ele><time>2026-04-06T08:57:15Z</time></trkpt><trkpt lat="41.55294702977725" lon="12.641238664860364"><ele>83.0</ele><time>2026-04-06T08:57:16Z</time></trkpt><trkpt lat="41.5529576470376" lon="12.641139353992742"><ele>83.0</ele><time>2026-04-06T08:57:17Z</time></trkpt><trkpt lat="41.55296909483441" lon="12.641051781669226"><ele>83.0</ele><time>2026-04-06T08:57:18Z</time></trkpt><trkpt lat="41.55297901515315" lon="12.640963463225932"><ele>83.0</ele><time>2026-04-06T08:57:19Z</time></trkpt><trkpt lat="41.55298978213552" lon="12.640863338649785"><ele>83.0</ele><time>2026-04-06T08:57:20Z</time></trkpt><trkpt lat="41.55300046546597" lon="12.6407682165296"><ele>83.0</ele><time>2026-04-06T08:57:21Z</time></trkpt><trkpt lat="41.55301280697659" lon="12.640668148513141"><ele>83.0</ele><time>2026-04-06T08:57:22Z</time></trkpt><trkpt lat="41.55302474789767" lon="12.640566965207203"><ele>83.0</ele><time>2026-04-06T08:57:23Z</time></trkpt><trkpt lat="41.55303597839805" lon="12.640464440480821"><ele>83.0</ele><time>2026-04-06T08:57:24Z</time></trkpt><trkpt lat="41.55304679452844" lon="12.640357979874663"><ele>83.0</ele><time>2026-04-06T08:57:25Z</time></trkpt><trkpt lat="41.553054384588854" lon="12.640248614415372"><ele>83.16666666666667</ele><time>2026-04-06T08:57:26Z</time></trkpt><trkpt lat="41.553060552209686" lon="12.640137932845871"><ele>83.33333333333334</ele><time>2026-04-06T08:57:27Z</time></trkpt><trkpt lat="41.55307065536612" lon="12.64002424165838"><ele>83.5</ele><time>2026-04-06T08:57:28Z</time></trkpt><trkpt lat="41.5530794584345" lon="12.63991180544071"><ele>83.66666666666667</ele><time>2026-04-06T08:57:29Z</time></trkpt><trkpt lat="41.55308987685132" lon="12.639793976519421"><ele>83.83333333333333</ele><time>2026-04-06T08:57:30Z</time></trkpt><trkpt lat="41.553099077976164" lon="12.639675244001088"><ele>84.0</ele><time>2026-04-06T08:57:31Z</time></trkpt><trkpt lat="41.55311187439277" lon="12.63955194085403"><ele>84.0</ele><time>2026-04-06T08:57:32Z</time></trkpt><trkpt lat="41.55312725412267" lon="12.639433706975653"><ele>84.0</ele><time>2026-04-06T08:57:33Z</time></trkpt><trkpt lat="41.55313943677879" lon="12.639326487698293"><ele>84.0</ele><time>2026-04-06T08:57:34Z</time></trkpt><trkpt lat="41.55315179028339" lon="12.639213764783628"><ele>84.0</ele><time>2026-04-06T08:57:35Z</time></trkpt><trkpt lat="41.55316849008933" lon="12.639091033133894"><ele>84.0</ele><time>2026-04-06T08:57:36Z</time></trkpt><trkpt lat="41.55318770419344" lon="12.638962610156389"><ele>84.0</ele><time>2026-04-06T08:57:37Z</time></trkpt><trkpt lat="41.55320160534339" lon="12.638834240389325"><ele>84.0</ele><time>2026-04-06T08:57:38Z</time></trkpt><trkpt lat="41.55320834082759" lon="12.638721835320847"><ele>84.0</ele><time>2026-04-06T08:57:39Z</time></trkpt><trkpt lat="41.55321431927236" lon="12.638613118134392"><ele>84.0</ele><time>2026-04-06T08:57:40Z</time></trkpt><trkpt lat="41.55321123428457" lon="12.638495706866584"><ele>84.0</ele><time>2026-04-06T08:57:41Z</time></trkpt><trkpt lat="41.553208770616926" lon="12.638383077279746"><ele>84.0</ele><time>2026-04-06T08:57:42Z</time></trkpt><trkpt lat="41.55320140910213" lon="12.638278966200673"><ele>84.0</ele><time>2026-04-06T08:57:43Z</time></trkpt><trkpt lat="41.553196658814514" lon="12.63817381210816"><ele>84.0</ele><time>2026-04-06T08:57:44Z</time></trkpt><trkpt lat="41.553202121295584" lon="12.638083220424829"><ele>84.0</ele><time>2026-04-06T08:57:45Z</time></trkpt><trkpt lat="41.553216408659594" lon="12.63793533485148"><ele>84.0</ele><time>2026-04-06T08:57:47Z</time></trkpt><trkpt lat="41.553214872192086" lon="12.637814533227214"><ele>84.0</ele><time>2026-04-06T08:57:49Z</time></trkpt><trkpt lat="41.55323839478941" lon="12.637666391039454"><ele>84.0</ele><time>2026-04-06T08:57:51Z</time></trkpt><trkpt lat="41.55325009288309" lon="12.637582044019958"><ele>84.0</ele><time>2026-04-06T08:57:52Z</time></trkpt><trkpt lat="41.553259007317465" lon="12.637497372870225"><ele>84.0</ele><time>2026-04-06T08:57:53Z</time></trkpt><trkpt lat="41.553263583312656" lon="12.637404694368811"><ele>84.0</ele><time>2026-04-06T08:57:54Z</time></trkpt><trkpt lat="41.553268013934925" lon="12.637295980075992"><ele>84.0</ele><time>2026-04-06T08:57:55Z</time></trkpt><trkpt lat="41.553273010101215" lon="12.637171756215656"><ele>84.0</ele><time>2026-04-06T08:57:56Z</time></trkpt><trkpt lat="41.55327730128302" lon="12.637040251936664"><ele>84.0</ele><time>2026-04-06T08:57:57Z</time></trkpt><trkpt lat="41.553290187652145" lon="12.636904322358497"><ele>84.0</ele><time>2026-04-06T08:57:58Z</time></trkpt><trkpt lat="41.55329508607209" lon="12.636768149307192"><ele>84.0</ele><time>2026-04-06T08:57:59Z</time></trkpt><trkpt lat="41.553300915668046" lon="12.636630207449352"><ele>84.0</ele><time>2026-04-06T08:58:00Z</time></trkpt><trkpt lat="41.553305174994" lon="12.63649315336849"><ele>84.0</ele><time>2026-04-06T08:58:01Z</time></trkpt><trkpt lat="41.55330881012958" lon="12.636360967848075"><ele>84.0</ele><time>2026-04-06T08:58:02Z</time></trkpt><trkpt lat="41.55330877439968" lon="12.636232404598706"><ele>84.0</ele><time>2026-04-06T08:58:03Z</time></trkpt><trkpt lat="41.553311176741026" lon="12.636105677052006"><ele>84.2</ele><time>2026-04-06T08:58:04Z</time></trkpt><trkpt lat="41.55331858518497" lon="12.635984785833754"><ele>84.4</ele><time>2026-04-06T08:58:05Z</time></trkpt><trkpt lat="41.55331924609887" lon="12.635867622571142"><ele>84.6</ele><time>2026-04-06T08:58:06Z</time></trkpt><trkpt lat="41.55332524441332" lon="12.635745990385082"><ele>84.8</ele><time>2026-04-06T08:58:07Z</time></trkpt><trkpt lat="41.553329684598886" lon="12.635623754519772"><ele>85.0</ele><time>2026-04-06T08:58:08Z</time></trkpt><trkpt lat="41.5533324900347" lon="12.635496802593856"><ele>85.0</ele><time>2026-04-06T08:58:09Z</time></trkpt><trkpt lat="41.5533383625089" lon="12.63538066489167"><ele>85.0</ele><time>2026-04-06T08:58:10Z</time></trkpt><trkpt lat="41.553342547767144" lon="12.635265884172632"><ele>85.0</ele><time>2026-04-06T08:58:11Z</time></trkpt><trkpt lat="41.55334560242252" lon="12.635147952200425"><ele>85.0</ele><time>2026-04-06T08:58:12Z</time></trkpt><trkpt lat="41.55335178918502" lon="12.63503032390137"><ele>85.0</ele><time>2026-04-06T08:58:13Z</time></trkpt><trkpt lat="41.55336016583298" lon="12.634907357578312"><ele>85.0</ele><time>2026-04-06T08:58:14Z</time></trkpt><trkpt lat="41.55336045535973" lon="12.634777950805773"><ele>85.2</ele><time>2026-04-06T08:58:15Z</time></trkpt><trkpt lat="41.55336706931046" lon="12.634645118472724"><ele>85.4</ele><time>2026-04-06T08:58:16Z</time></trkpt><trkpt lat="41.55337440806385" lon="12.634517160557632"><ele>85.6</ele><time>2026-04-06T08:58:17Z</time></trkpt><trkpt lat="41.55338194420155" lon="12.634375258126012"><ele>85.8</ele><time>2026-04-06T08:58:18Z</time></trkpt><trkpt lat="41.55339137865268" lon="12.634239632902496"><ele>86.0</ele><time>2026-04-06T08:58:19Z</time></trkpt><trkpt lat="41.55339738792062" lon="12.634112511260348"><ele>86.0</ele><time>2026-04-06T08:58:20Z</time></trkpt><trkpt lat="41.553403082058374" lon="12.633975642573361"><ele>86.0</ele><time>2026-04-06T08:58:21Z</time></trkpt><trkpt lat="41.55341151191715" lon="12.633840105353213"><ele>86.0</ele><time>2026-04-06T08:58:22Z</time></trkpt><trkpt lat="41.55341631199524" lon="12.633701783683117"><ele>86.0</ele><time>2026-04-06T08:58:23Z</time></trkpt><trkpt lat="41.55341895359276" lon="12.633565401634007"><ele>86.0</ele><time>2026-04-06T08:58:24Z</time></trkpt><trkpt lat="41.55342224592689" lon="12.633433473587754"><ele>85.83333333333334</ele><time>2026-04-06T08:58:25Z</time></trkpt><trkpt lat="41.55342719461265" lon="12.633317202460299"><ele>85.66666666666667</ele><time>2026-04-06T08:58:26Z</time></trkpt><trkpt lat="41.55343241894887" lon="12.63320217578022"><ele>85.5</ele><time>2026-04-06T08:58:27Z</time></trkpt><trkpt lat="41.55343338781827" lon="12.633097555240868"><ele>85.33333333333333</ele><time>2026-04-06T08:58:28Z</time></trkpt><trkpt lat="41.55343458141059" lon="12.63299518365921"><ele>85.16666666666666</ele><time>2026-04-06T08:58:29Z</time></trkpt><trkpt lat="41.5534352199141" lon="12.632907887340508"><ele>85.0</ele><time>2026-04-06T08:58:30Z</time></trkpt><trkpt lat="41.55344404378778" lon="12.632772875890023"><ele>85.0</ele><time>2026-04-06T08:58:32Z</time></trkpt><trkpt lat="41.553447338638826" lon="12.632686360746371"><ele>85.0</ele><time>2026-04-06T08:58:35Z</time></trkpt><trkpt lat="41.553437770656664" lon="12.632833895069837"><ele>85.0</ele><time>2026-04-06T08:58:42Z</time></trkpt><trkpt lat="41.55334404482311" lon="12.632910970796978"><ele>85.0</ele><time>2026-04-06T08:58:43Z</time></trkpt><trkpt lat="41.55333777695777" lon="12.633001022069452"><ele>85.0</ele><time>2026-04-06T08:58:44Z</time></trkpt><trkpt lat="41.553330922035165" lon="12.633110200792009"><ele>85.0</ele><time>2026-04-06T08:58:45Z</time></trkpt><trkpt lat="41.553317907544816" lon="12.633229437483854"><ele>85.0</ele><time>2026-04-06T08:58:46Z</time></trkpt><trkpt lat="41.55330502831725" lon="12.633360596773368"><ele>85.0</ele><time>2026-04-06T08:58:47Z</time></trkpt><trkpt lat="41.553294250408086" lon="12.633492444261718"><ele>85.0</ele><time>2026-04-06T08:58:48Z</time></trkpt><trkpt lat="41.55328553701981" lon="12.6336224489762"><ele>85.0</ele><time>2026-04-06T08:58:49Z</time></trkpt><trkpt lat="41.55327774784169" lon="12.633729536951705"><ele>85.0</ele><time>2026-04-06T08:58:50Z</time></trkpt><trkpt lat="41.55327789473782" lon="12.633841174206971"><ele>85.16666666666666</ele><time>2026-04-06T08:58:51Z</time></trkpt><trkpt lat="41.55325560888191" lon="12.633950150763958"><ele>85.33333333333333</ele><time>2026-04-06T08:58:52Z</time></trkpt><trkpt lat="41.55322938048719" lon="12.634052265210865"><ele>85.5</ele><time>2026-04-06T08:58:53Z</time></trkpt><trkpt lat="41.553187691967715" lon="12.634137648499891"><ele>85.66666666666667</ele><time>2026-04-06T08:58:54Z</time></trkpt><trkpt lat="41.55313342633474" lon="12.634203437491173"><ele>85.83333333333334</ele><time>2026-04-06T08:58:55Z</time></trkpt><trkpt lat="41.55307008556961" lon="12.634260057983594"><ele>86.0</ele><time>2026-04-06T08:58:56Z</time></trkpt><trkpt lat="41.552998376214425" lon="12.6343032903312"><ele>86.0</ele><time>2026-04-06T08:58:57Z</time></trkpt><trkpt lat="41.55291619481464" lon="12.634335532761137"><ele>86.0</ele><time>2026-04-06T08:58:58Z</time></trkpt><trkpt lat="41.552830082271626" lon="12.634355137021766"><ele>86.0</ele><time>2026-04-06T08:58:59Z</time></trkpt><trkpt lat="41.55273965788194" lon="12.634359968883569"><ele>86.0</ele><time>2026-04-06T08:59:00Z</time></trkpt><trkpt lat="41.55264745749051" lon="12.634357073985052"><ele>86.0</ele><time>2026-04-06T08:59:01Z</time></trkpt><trkpt lat="41.552552016064176" lon="12.634348308126755"><ele>86.4</ele><time>2026-04-06T08:59:02Z</time></trkpt><trkpt lat="41.55245319559352" lon="12.634342438169263"><ele>86.8</ele><time>2026-04-06T08:59:03Z</time></trkpt><trkpt lat="41.55234779344602" lon="12.63433968162755"><ele>87.2</ele><time>2026-04-06T08:59:04Z</time></trkpt><trkpt lat="41.55224071857299" lon="12.634338399716105"><ele>87.60000000000001</ele><time>2026-04-06T08:59:05Z</time></trkpt><trkpt lat="41.55213159717583" lon="12.634338537469976"><ele>88.0</ele><time>2026-04-06T08:59:06Z</time></trkpt><trkpt lat="41.55202155961921" lon="12.634342871222685"><ele>86.75</ele><time>2026-04-06T08:59:07Z</time></trkpt><trkpt lat="41.55190964100809" lon="12.63435570289508"><ele>85.5</ele><time>2026-04-06T08:59:08Z</time></trkpt><trkpt lat="41.55178646910308" lon="12.634367486167523"><ele>84.25</ele><time>2026-04-06T08:59:09Z</time></trkpt><trkpt lat="41.55166646735433" lon="12.634389971303637"><ele>83.0</ele><time>2026-04-06T08:59:10Z</time></trkpt><trkpt lat="41.551547315978" lon="12.634424130030787"><ele>83.0</ele><time>2026-04-06T08:59:11Z</time></trkpt><trkpt lat="41.55142841940994" lon="12.634455538488199"><ele>83.0</ele><time>2026-04-06T08:59:12Z</time></trkpt><trkpt lat="41.55131054729342" lon="12.634486493549833"><ele>83.0</ele><time>2026-04-06T08:59:13Z</time></trkpt><trkpt lat="41.55118979683565" lon="12.634517830732628"><ele>83.0</ele><time>2026-04-06T08:59:14Z</time></trkpt><trkpt lat="41.55106752731312" lon="12.634550272499277"><ele>83.25</ele><time>2026-04-06T08:59:15Z</time></trkpt><trkpt lat="41.550944170240555" lon="12.634585418018103"><ele>83.5</ele><time>2026-04-06T08:59:16Z</time></trkpt><trkpt lat="41.550821855120006" lon="12.63461806499595"><ele>83.75</ele><time>2026-04-06T08:59:17Z</time></trkpt><trkpt lat="41.550704673057496" lon="12.634645254169408"><ele>84.0</ele><time>2026-04-06T08:59:18Z</time></trkpt><trkpt lat="41.55058755536768" lon="12.634668069727741"><ele>84.0</ele><time>2026-04-06T08:59:19Z</time></trkpt><trkpt lat="41.55046443218378" lon="12.634676741050141"><ele>84.0</ele><time>2026-04-06T08:59:20Z</time></trkpt><trkpt lat="41.55033765916023" lon="12.63467145741415"><ele>84.0</ele><time>2026-04-06T08:59:21Z</time></trkpt><trkpt lat="41.55020991265299" lon="12.634663238815387"><ele>84.0</ele><time>2026-04-06T08:59:22Z</time></trkpt><trkpt lat="41.550084764900014" lon="12.63465082687708"><ele>84.0</ele><time>2026-04-06T08:59:23Z</time></trkpt><trkpt lat="41.5499588054217" lon="12.634638061720828"><ele>84.0</ele><time>2026-04-06T08:59:24Z</time></trkpt><trkpt lat="41.54983130311833" lon="12.634628970273738"><ele>84.0</ele><time>2026-04-06T08:59:25Z</time></trkpt><trkpt lat="41.549701573442675" lon="12.634621237483254"><ele>84.0</ele><time>2026-04-06T08:59:26Z</time></trkpt><trkpt lat="41.549572238942034" lon="12.634613396502276"><ele>84.25</ele><time>2026-04-06T08:59:27Z</time></trkpt><trkpt lat="41.54944315902858" lon="12.634608782807435"><ele>84.5</ele><time>2026-04-06T08:59:28Z</time></trkpt><trkpt lat="41.54931473067998" lon="12.6346073992571"><ele>84.75</ele><time>2026-04-06T08:59:29Z</time></trkpt><trkpt lat="41.549186091068" lon="12.634603926838007"><ele>85.0</ele><time>2026-04-06T08:59:30Z</time></trkpt><trkpt lat="41.54905638249789" lon="12.634601129803352"><ele>85.0</ele><time>2026-04-06T08:59:31Z</time></trkpt><trkpt lat="41.54892702207752" lon="12.634604294517464"><ele>85.0</ele><time>2026-04-06T08:59:32Z</time></trkpt><trkpt lat="41.54879554874107" lon="12.634609092598497"><ele>85.0</ele><time>2026-04-06T08:59:33Z</time></trkpt><trkpt lat="41.5486650303039" lon="12.634611125790975"><ele>85.0</ele><time>2026-04-06T08:59:34Z</time></trkpt><trkpt lat="41.548533598181386" lon="12.63461682914021"><ele>85.0</ele><time>2026-04-06T08:59:35Z</time></trkpt><trkpt lat="41.54840317971935" lon="12.634622602704772"><ele>85.0</ele><time>2026-04-06T08:59:36Z</time></trkpt><trkpt lat="41.54826995754805" lon="12.634623177006723"><ele>85.0</ele><time>2026-04-06T08:59:37Z</time></trkpt><trkpt lat="41.548136176253024" lon="12.634622808165535"><ele>85.0</ele><time>2026-04-06T08:59:38Z</time></trkpt><trkpt lat="41.54800202943278" lon="12.634621519494043"><ele>84.5</ele><time>2026-04-06T08:59:39Z</time></trkpt><trkpt lat="41.54786536077707" lon="12.634616738125967"><ele>84.0</ele><time>2026-04-06T08:59:40Z</time></trkpt><trkpt lat="41.54773144180171" lon="12.634608311541955"><ele>83.5</ele><time>2026-04-06T08:59:41Z</time></trkpt><trkpt lat="41.54760018253314" lon="12.634598242931501"><ele>83.0</ele><time>2026-04-06T08:59:42Z</time></trkpt><trkpt lat="41.54746608860079" lon="12.634585204187301"><ele>83.0</ele><time>2026-04-06T08:59:43Z</time></trkpt><trkpt lat="41.547329154625025" lon="12.634575799460043"><ele>83.0</ele><time>2026-04-06T08:59:44Z</time></trkpt><trkpt lat="41.547191269417894" lon="12.634567531773504"><ele>83.0</ele><time>2026-04-06T08:59:45Z</time></trkpt><trkpt lat="41.547054891056504" lon="12.634558747514221"><ele>83.0</ele><time>2026-04-06T08:59:46Z</time></trkpt><trkpt lat="41.54692215190658" lon="12.634550769106363"><ele>83.5</ele><time>2026-04-06T08:59:47Z</time></trkpt><trkpt lat="41.5468021358108" lon="12.634547477836644"><ele>84.0</ele><time>2026-04-06T08:59:48Z</time></trkpt><trkpt lat="41.54668300592079" lon="12.634547695033824"><ele>84.5</ele><time>2026-04-06T08:59:49Z</time></trkpt><trkpt lat="41.54656123443375" lon="12.63455390038908"><ele>85.0</ele><time>2026-04-06T08:59:50Z</time></trkpt><trkpt lat="41.54643512815035" lon="12.634561445658683"><ele>85.0</ele><time>2026-04-06T08:59:51Z</time></trkpt><trkpt lat="41.54630794889638" lon="12.634565641518016"><ele>85.0</ele><time>2026-04-06T08:59:52Z</time></trkpt><trkpt lat="41.54617520152007" lon="12.634548022246145"><ele>85.0</ele><time>2026-04-06T08:59:53Z</time></trkpt><trkpt lat="41.54603756883087" lon="12.634569415144329"><ele>85.0</ele><time>2026-04-06T08:59:54Z</time></trkpt><trkpt lat="41.54589672427831" lon="12.634560800647506"><ele>85.0</ele><time>2026-04-06T08:59:55Z</time></trkpt><trkpt lat="41.54575766841849" lon="12.634559151577959"><ele>85.0</ele><time>2026-04-06T08:59:56Z</time></trkpt><trkpt lat="41.54561584799896" lon="12.634545778928839"><ele>85.0</ele><time>2026-04-06T08:59:57Z</time></trkpt><trkpt lat="41.545472639233736" lon="12.634531016940407"><ele>85.0</ele><time>2026-04-06T08:59:58Z</time></trkpt><trkpt lat="41.5453333079383" lon="12.63451969459782"><ele>84.75</ele><time>2026-04-06T08:59:59Z</time></trkpt><trkpt lat="41.54520688716128" lon="12.634515366727111"><ele>84.5</ele><time>2026-04-06T09:00:00Z</time></trkpt><trkpt lat="41.545093589827665" lon="12.63450654476644"><ele>84.25</ele><time>2026-04-06T09:00:01Z</time></trkpt><trkpt lat="41.544972220727665" lon="12.634497250067964"><ele>84.0</ele><time>2026-04-06T09:00:02Z</time></trkpt><trkpt lat="41.54484522765942" lon="12.634489946544054"><ele>84.0</ele><time>2026-04-06T09:00:03Z</time></trkpt><trkpt lat="41.54471579348198" lon="12.63448557837309"><ele>84.0</ele><time>2026-04-06T09:00:04Z</time></trkpt><trkpt lat="41.54458516240083" lon="12.63447904292394"><ele>84.0</ele><time>2026-04-06T09:00:05Z</time></trkpt><trkpt lat="41.54445508557094" lon="12.634471553314127"><ele>84.0</ele><time>2026-04-06T09:00:06Z</time></trkpt><trkpt lat="41.54432769891197" lon="12.63446991440101"><ele>84.2</ele><time>2026-04-06T09:00:07Z</time></trkpt><trkpt lat="41.544212544791996" lon="12.634469182775437"><ele>84.4</ele><time>2026-04-06T09:00:08Z</time></trkpt><trkpt lat="41.544111865958115" lon="12.634469951420627"><ele>84.6</ele><time>2026-04-06T09:00:09Z</time></trkpt><trkpt lat="41.54401194948232" lon="12.634447764041028"><ele>84.8</ele><time>2026-04-06T09:00:10Z</time></trkpt><trkpt lat="41.543897988050055" lon="12.63444343443493"><ele>85.0</ele><time>2026-04-06T09:00:11Z</time></trkpt><trkpt lat="41.54377460878692" lon="12.63443874702753"><ele>84.5</ele><time>2026-04-06T09:00:12Z</time></trkpt><trkpt lat="41.543644375785235" lon="12.63445314826207"><ele>84.0</ele><time>2026-04-06T09:00:13Z</time></trkpt><trkpt lat="41.543510417287905" lon="12.634436528049866"><ele>83.5</ele><time>2026-04-06T09:00:14Z</time></trkpt><trkpt lat="41.54337535585447" lon="12.634418851859298"><ele>83.0</ele><time>2026-04-06T09:00:15Z</time></trkpt><trkpt lat="41.54323857462596" lon="12.63440620122612"><ele>83.0</ele><time>2026-04-06T09:00:16Z</time></trkpt><trkpt lat="41.543101417043744" lon="12.634403844160683"><ele>83.0</ele><time>2026-04-06T09:00:17Z</time></trkpt><trkpt lat="41.54296205275486" lon="12.634397676698976"><ele>83.0</ele><time>2026-04-06T09:00:18Z</time></trkpt><trkpt lat="41.54282288399751" lon="12.634393194587386"><ele>83.0</ele><time>2026-04-06T09:00:19Z</time></trkpt><trkpt lat="41.54268253851765" lon="12.634387340283505"><ele>83.25</ele><time>2026-04-06T09:00:20Z</time></trkpt><trkpt lat="41.54254429505013" lon="12.63437928649704"><ele>83.5</ele><time>2026-04-06T09:00:21Z</time></trkpt><trkpt lat="41.54240115844679" lon="12.634373283914604"><ele>83.75</ele><time>2026-04-06T09:00:22Z</time></trkpt><trkpt lat="41.54225551583116" lon="12.634364058537967"><ele>84.0</ele><time>2026-04-06T09:00:23Z</time></trkpt><trkpt lat="41.54210396742742" lon="12.634360281948798"><ele>84.33333333333333</ele><time>2026-04-06T09:00:24Z</time></trkpt><trkpt lat="41.54195009452288" lon="12.634353672756628"><ele>84.66666666666666</ele><time>2026-04-06T09:00:25Z</time></trkpt><trkpt lat="41.5417995247561" lon="12.634343571190863"><ele>85.0</ele><time>2026-04-06T09:00:26Z</time></trkpt><trkpt lat="41.54164812757739" lon="12.634335720471867"><ele>85.0</ele><time>2026-04-06T09:00:27Z</time></trkpt><trkpt lat="41.54149603690965" lon="12.634327485804205"><ele>85.0</ele><time>2026-04-06T09:00:28Z</time></trkpt><trkpt lat="41.54134093489685" lon="12.63432258313334"><ele>85.0</ele><time>2026-04-06T09:00:29Z</time></trkpt><trkpt lat="41.54118595059491" lon="12.634316619604355"><ele>84.66666666666666</ele><time>2026-04-06T09:00:30Z</time></trkpt><trkpt lat="41.54103238908757" lon="12.634310322530053"><ele>84.33333333333333</ele><time>2026-04-06T09:00:31Z</time></trkpt><trkpt lat="41.54088013202726" lon="12.634305679335979"><ele>84.0</ele><time>2026-04-06T09:00:32Z</time></trkpt><trkpt lat="41.54072850267705" lon="12.634297252685693"><ele>84.0</ele><time>2026-04-06T09:00:33Z</time></trkpt><trkpt lat="41.54057949897403" lon="12.634287455499381"><ele>84.0</ele><time>2026-04-06T09:00:34Z</time></trkpt><trkpt lat="41.54042848343337" lon="12.634275384312604"><ele>84.0</ele><time>2026-04-06T09:00:35Z</time></trkpt><trkpt lat="41.54027622124926" lon="12.63426915576713"><ele>84.0</ele><time>2026-04-06T09:00:36Z</time></trkpt><trkpt lat="41.540124330881916" lon="12.634262934698715"><ele>84.0</ele><time>2026-04-06T09:00:37Z</time></trkpt><trkpt lat="41.539969046195374" lon="12.634257541905228"><ele>84.0</ele><time>2026-04-06T09:00:38Z</time></trkpt><trkpt lat="41.5398155300376" lon="12.63425312291921"><ele>84.0</ele><time>2026-04-06T09:00:39Z</time></trkpt><trkpt lat="41.53966221510995" lon="12.634241503704743"><ele>84.0</ele><time>2026-04-06T09:00:40Z</time></trkpt><trkpt lat="41.539508388866075" lon="12.634221474694963"><ele>84.0</ele><time>2026-04-06T09:00:41Z</time></trkpt><trkpt lat="41.53935822215692" lon="12.634208681391161"><ele>83.66666666666667</ele><time>2026-04-06T09:00:42Z</time></trkpt><trkpt lat="41.539204262054845" lon="12.634200883906592"><ele>83.33333333333334</ele><time>2026-04-06T09:00:43Z</time></trkpt><trkpt lat="41.53905164429718" lon="12.634195424919065"><ele>83.0</ele><time>2026-04-06T09:00:44Z</time></trkpt><trkpt lat="41.538899603769394" lon="12.634192700626615"><ele>83.0</ele><time>2026-04-06T09:00:45Z</time></trkpt><trkpt lat="41.5387452275082" lon="12.634170709792297"><ele>83.0</ele><time>2026-04-06T09:00:46Z</time></trkpt><trkpt lat="41.53858848506397" lon="12.634159131107717"><ele>83.0</ele><time>2026-04-06T09:00:47Z</time></trkpt><trkpt lat="41.53843992240787" lon="12.634159816828209"><ele>82.33333333333334</ele><time>2026-04-06T09:00:48Z</time></trkpt><trkpt lat="41.5382829548578" lon="12.634157934420184"><ele>81.66666666666667</ele><time>2026-04-06T09:00:49Z</time></trkpt><trkpt lat="41.538123507593035" lon="12.634141105318614"><ele>81.0</ele><time>2026-04-06T09:00:50Z</time></trkpt><trkpt lat="41.53796658210067" lon="12.634125482032328"><ele>81.0</ele><time>2026-04-06T09:00:51Z</time></trkpt><trkpt lat="41.53781646559749" lon="12.63411536823221"><ele>81.0</ele><time>2026-04-06T09:00:52Z</time></trkpt><trkpt lat="41.53768107483412" lon="12.634080490013087"><ele>81.0</ele><time>2026-04-06T09:00:53Z</time></trkpt><trkpt lat="41.53755909642354" lon="12.634067966649845"><ele>81.0</ele><time>2026-04-06T09:00:54Z</time></trkpt><trkpt lat="41.53745577433241" lon="12.634071476902788"><ele>81.0</ele><time>2026-04-06T09:00:55Z</time></trkpt><trkpt lat="41.537373971988835" lon="12.634068944222285"><ele>81.0</ele><time>2026-04-06T09:00:56Z</time></trkpt><trkpt lat="41.53730259111222" lon="12.634059494771085"><ele>81.0</ele><time>2026-04-06T09:00:57Z</time></trkpt><trkpt lat="41.53723834991885" lon="12.634053799862228"><ele>81.0</ele><time>2026-04-06T09:00:58Z</time></trkpt><trkpt lat="41.53717212490442" lon="12.634050020251852"><ele>81.0</ele><time>2026-04-06T09:00:59Z</time></trkpt><trkpt lat="41.53711138559743" lon="12.634019112321091"><ele>81.0</ele><time>2026-04-06T09:01:00Z</time></trkpt><trkpt lat="41.53701724313632" lon="12.634004109092217"><ele>81.0</ele><time>2026-04-06T09:01:02Z</time></trkpt><trkpt lat="41.53706636092136" lon="12.634113130738118"><ele>81.0</ele><time>2026-04-06T09:01:08Z</time></trkpt><trkpt lat="41.53723398822973" lon="12.634091565866184"><ele>81.0</ele><time>2026-04-06T09:01:11Z</time></trkpt><trkpt lat="41.53734812926905" lon="12.63409494049804"><ele>81.0</ele><time>2026-04-06T09:01:13Z</time></trkpt><trkpt lat="41.53747014626763" lon="12.634109966488069"><ele>81.0</ele><time>2026-04-06T09:01:15Z</time></trkpt><trkpt lat="41.537536024762744" lon="12.634117392463011"><ele>81.0</ele><time>2026-04-06T09:01:16Z</time></trkpt><trkpt lat="41.53760500905" lon="12.634122801007768"><ele>81.0</ele><time>2026-04-06T09:01:17Z</time></trkpt><trkpt lat="41.53767468576304" lon="12.63412433152561"><ele>81.0</ele><time>2026-04-06T09:01:18Z</time></trkpt><trkpt lat="41.537747896755924" lon="12.634126306312274"><ele>81.0</ele><time>2026-04-06T09:01:19Z</time></trkpt><trkpt lat="41.53782654156545" lon="12.63413618409873"><ele>81.0</ele><time>2026-04-06T09:01:20Z</time></trkpt><trkpt lat="41.53790722150713" lon="12.634146594167845"><ele>81.0</ele><time>2026-04-06T09:01:21Z</time></trkpt><trkpt lat="41.53799320654955" lon="12.634147513106557"><ele>81.0</ele><time>2026-04-06T09:01:22Z</time></trkpt><trkpt lat="41.53807930682868" lon="12.634149969604223"><ele>81.0</ele><time>2026-04-06T09:01:23Z</time></trkpt><trkpt lat="41.5381600829913" lon="12.634162441476569"><ele>81.0</ele><time>2026-04-06T09:01:24Z</time></trkpt><trkpt lat="41.53823763482049" lon="12.634170296686502"><ele>81.0</ele><time>2026-04-06T09:01:25Z</time></trkpt><trkpt lat="41.538303567958735" lon="12.634173729300928"><ele>81.0</ele><time>2026-04-06T09:01:26Z</time></trkpt><trkpt lat="41.538411653253554" lon="12.634183460258146"><ele>81.0</ele><time>2026-04-06T09:01:28Z</time></trkpt><trkpt lat="41.53849729486389" lon="12.63400308706525"><ele>81.0</ele><time>2026-04-06T09:01:32Z</time></trkpt><trkpt lat="41.53851961968821" lon="12.633843938640535"><ele>81.0</ele><time>2026-04-06T09:01:34Z</time></trkpt><trkpt lat="41.53853180359046" lon="12.63375708237199"><ele>81.0</ele><time>2026-04-06T09:01:35Z</time></trkpt><trkpt lat="41.538543610534695" lon="12.63367291347371"><ele>81.0</ele><time>2026-04-06T09:01:36Z</time></trkpt><trkpt lat="41.53855320672602" lon="12.633509375086302"><ele>81.0</ele><time>2026-04-06T09:01:38Z</time></trkpt><trkpt lat="41.53856970659077" lon="12.633418492224136"><ele>81.0</ele><time>2026-04-06T09:01:39Z</time></trkpt><trkpt lat="41.53857626249312" lon="12.63332535921401"><ele>81.42857142857143</ele><time>2026-04-06T09:01:40Z</time></trkpt><trkpt lat="41.53859312358868" lon="12.633229718868243"><ele>81.85714285714286</ele><time>2026-04-06T09:01:41Z</time></trkpt><trkpt lat="41.53860757955006" lon="12.633143289239689"><ele>82.28571428571428</ele><time>2026-04-06T09:01:42Z</time></trkpt><trkpt lat="41.538622782662245" lon="12.633042213861154"><ele>82.71428571428572</ele><time>2026-04-06T09:01:43Z</time></trkpt><trkpt lat="41.53863441510944" lon="12.632940846095357"><ele>83.14285714285714</ele><time>2026-04-06T09:01:44Z</time></trkpt><trkpt lat="41.53865355332464" lon="12.632838205566081"><ele>83.57142857142857</ele><time>2026-04-06T09:01:45Z</time></trkpt><trkpt lat="41.538667888727204" lon="12.632745073076498"><ele>84.0</ele><time>2026-04-06T09:01:46Z</time></trkpt><trkpt lat="41.53868075614458" lon="12.632654562087216"><ele>84.0</ele><time>2026-04-06T09:01:47Z</time></trkpt><trkpt lat="41.53869571379997" lon="12.632555473700814"><ele>84.0</ele><time>2026-04-06T09:01:48Z</time></trkpt><trkpt lat="41.538708729956305" lon="12.632451764548392"><ele>84.0</ele><time>2026-04-06T09:01:49Z</time></trkpt><trkpt lat="41.53872287170882" lon="12.632343369894038"><ele>84.0</ele><time>2026-04-06T09:01:50Z</time></trkpt><trkpt lat="41.5387363324991" lon="12.632232025042343"><ele>84.0</ele><time>2026-04-06T09:01:51Z</time></trkpt><trkpt lat="41.538752812831994" lon="12.632131334782533"><ele>84.0</ele><time>2026-04-06T09:01:52Z</time></trkpt><trkpt lat="41.53877180309532" lon="12.632039363135723"><ele>84.0</ele><time>2026-04-06T09:01:53Z</time></trkpt><trkpt lat="41.538777673983894" lon="12.631936864126496"><ele>84.0</ele><time>2026-04-06T09:01:54Z</time></trkpt><trkpt lat="41.53879675801077" lon="12.63183339473225"><ele>84.0</ele><time>2026-04-06T09:01:55Z</time></trkpt><trkpt lat="41.5388059377312" lon="12.631730572296828"><ele>84.0</ele><time>2026-04-06T09:01:56Z</time></trkpt><trkpt lat="41.538827895359425" lon="12.631623027996707"><ele>84.0</ele><time>2026-04-06T09:01:57Z</time></trkpt><trkpt lat="41.53884351916957" lon="12.631507123431364"><ele>84.0</ele><time>2026-04-06T09:01:58Z</time></trkpt><trkpt lat="41.53885471915093" lon="12.631390398051638"><ele>84.0</ele><time>2026-04-06T09:01:59Z</time></trkpt><trkpt lat="41.53888498195488" lon="12.631287867251515"><ele>84.0</ele><time>2026-04-06T09:02:00Z</time></trkpt><trkpt lat="41.53890150272353" lon="12.63117521774919"><ele>84.0</ele><time>2026-04-06T09:02:01Z</time></trkpt><trkpt lat="41.53891816200655" lon="12.631061623823294"><ele>84.0</ele><time>2026-04-06T09:02:02Z</time></trkpt><trkpt lat="41.53893477812785" lon="12.630948324161533"><ele>84.0</ele><time>2026-04-06T09:02:03Z</time></trkpt><trkpt lat="41.53894095618666" lon="12.630830223069673"><ele>84.0</ele><time>2026-04-06T09:02:04Z</time></trkpt><trkpt lat="41.53896464880318" lon="12.630711320008981"><ele>84.0</ele><time>2026-04-06T09:02:05Z</time></trkpt><trkpt lat="41.538976094601274" lon="12.63059654561027"><ele>84.0</ele><time>2026-04-06T09:02:06Z</time></trkpt><trkpt lat="41.53899135192026" lon="12.630480945497625"><ele>84.0</ele><time>2026-04-06T09:02:07Z</time></trkpt><trkpt lat="41.539007262404304" lon="12.63036643970308"><ele>84.0</ele><time>2026-04-06T09:02:08Z</time></trkpt><trkpt lat="41.53902129645715" lon="12.630257614838701"><ele>84.0</ele><time>2026-04-06T09:02:09Z</time></trkpt><trkpt lat="41.539039810752406" lon="12.63014114337416"><ele>84.0</ele><time>2026-04-06T09:02:10Z</time></trkpt><trkpt lat="41.539066515580096" lon="12.630020177860551"><ele>84.0</ele><time>2026-04-06T09:02:11Z</time></trkpt><trkpt lat="41.539069161372446" lon="12.629888642007225"><ele>84.0</ele><time>2026-04-06T09:02:12Z</time></trkpt><trkpt lat="41.53909577651162" lon="12.629759712038217"><ele>84.0</ele><time>2026-04-06T09:02:13Z</time></trkpt><trkpt lat="41.53911381885526" lon="12.62963092765894"><ele>84.0</ele><time>2026-04-06T09:02:14Z</time></trkpt><trkpt lat="41.53913201748985" lon="12.629491163067074"><ele>84.0</ele><time>2026-04-06T09:02:15Z</time></trkpt><trkpt lat="41.53914834826268" lon="12.629361399757379"><ele>84.2</ele><time>2026-04-06T09:02:16Z</time></trkpt><trkpt lat="41.53916986764748" lon="12.62922658389109"><ele>84.4</ele><time>2026-04-06T09:02:17Z</time></trkpt><trkpt lat="41.53919270671113" lon="12.629088049665677"><ele>84.6</ele><time>2026-04-06T09:02:18Z</time></trkpt><trkpt lat="41.53921472037596" lon="12.628940174022604"><ele>84.8</ele><time>2026-04-06T09:02:19Z</time></trkpt><trkpt lat="41.53923396978464" lon="12.628793599140032"><ele>85.0</ele><time>2026-04-06T09:02:20Z</time></trkpt><trkpt lat="41.53925422414935" lon="12.628653664284007"><ele>85.2</ele><time>2026-04-06T09:02:21Z</time></trkpt><trkpt lat="41.53927223923868" lon="12.628513987265812"><ele>85.4</ele><time>2026-04-06T09:02:22Z</time></trkpt><trkpt lat="41.539292825319826" lon="12.628376182896135"><ele>85.6</ele><time>2026-04-06T09:02:23Z</time></trkpt><trkpt lat="41.53932425798966" lon="12.628240242586356"><ele>85.8</ele><time>2026-04-06T09:02:24Z</time></trkpt><trkpt lat="41.53934333727702" lon="12.628104852190106"><ele>86.0</ele><time>2026-04-06T09:02:25Z</time></trkpt><trkpt lat="41.53936355469609" lon="12.627961385059395"><ele>86.0</ele><time>2026-04-06T09:02:26Z</time></trkpt><trkpt lat="41.53938431531541" lon="12.627814063879777"><ele>86.0</ele><time>2026-04-06T09:02:27Z</time></trkpt><trkpt lat="41.539399646392425" lon="12.62766918437409"><ele>86.0</ele><time>2026-04-06T09:02:28Z</time></trkpt><trkpt lat="41.539416809897766" lon="12.627528828118638"><ele>86.0</ele><time>2026-04-06T09:02:29Z</time></trkpt><trkpt lat="41.539439118961525" lon="12.627382465772907"><ele>86.0</ele><time>2026-04-06T09:02:30Z</time></trkpt><trkpt lat="41.539460937003156" lon="12.627231434608452"><ele>85.25</ele><time>2026-04-06T09:02:31Z</time></trkpt><trkpt lat="41.539482221431314" lon="12.62707675630526"><ele>84.5</ele><time>2026-04-06T09:02:32Z</time></trkpt><trkpt lat="41.539500514222254" lon="12.626920138103767"><ele>83.75</ele><time>2026-04-06T09:02:33Z</time></trkpt><trkpt lat="41.539519438480944" lon="12.626771947236898"><ele>83.0</ele><time>2026-04-06T09:02:34Z</time></trkpt><trkpt lat="41.53954797900622" lon="12.626625547674367"><ele>83.4</ele><time>2026-04-06T09:02:35Z</time></trkpt><trkpt lat="41.53956469266442" lon="12.626478026446577"><ele>83.80000000000001</ele><time>2026-04-06T09:02:36Z</time></trkpt><trkpt lat="41.53958784487572" lon="12.626335097052978"><ele>84.2</ele><time>2026-04-06T09:02:37Z</time></trkpt><trkpt lat="41.53961032532311" lon="12.626192650264368"><ele>84.6</ele><time>2026-04-06T09:02:38Z</time></trkpt><trkpt lat="41.539622770906064" lon="12.626052662616079"><ele>85.0</ele><time>2026-04-06T09:02:39Z</time></trkpt><trkpt lat="41.53965115926978" lon="12.625906236273634"><ele>85.0</ele><time>2026-04-06T09:02:40Z</time></trkpt><trkpt lat="41.53967021988117" lon="12.625770778595411"><ele>85.0</ele><time>2026-04-06T09:02:41Z</time></trkpt><trkpt lat="41.53968769320263" lon="12.625637654147486"><ele>85.0</ele><time>2026-04-06T09:02:42Z</time></trkpt><trkpt lat="41.539704546862986" lon="12.62550921132752"><ele>85.0</ele><time>2026-04-06T09:02:43Z</time></trkpt><trkpt lat="41.53972160444491" lon="12.625403924219158"><ele>85.0</ele><time>2026-04-06T09:02:44Z</time></trkpt><trkpt lat="41.53973572885301" lon="12.625304816238861"><ele>85.0</ele><time>2026-04-06T09:02:45Z</time></trkpt><trkpt lat="41.53974790817569" lon="12.625208991993532"><ele>85.0</ele><time>2026-04-06T09:02:46Z</time></trkpt><trkpt lat="41.539775533763226" lon="12.625052361273623"><ele>85.0</ele><time>2026-04-06T09:02:48Z</time></trkpt><trkpt lat="41.53979385041101" lon="12.624971614762288"><ele>85.0</ele><time>2026-04-06T09:02:49Z</time></trkpt><trkpt lat="41.539806945490035" lon="12.624876091130686"><ele>85.0</ele><time>2026-04-06T09:02:50Z</time></trkpt><trkpt lat="41.53982757276684" lon="12.62477025573392"><ele>85.0</ele><time>2026-04-06T09:02:51Z</time></trkpt><trkpt lat="41.53983055063" lon="12.624657875369993"><ele>85.0</ele><time>2026-04-06T09:02:52Z</time></trkpt><trkpt lat="41.539851767842414" lon="12.624557464752828"><ele>85.0</ele><time>2026-04-06T09:02:53Z</time></trkpt><trkpt lat="41.539871117226774" lon="12.62444764786195"><ele>85.0</ele><time>2026-04-06T09:02:54Z</time></trkpt><trkpt lat="41.539885254510644" lon="12.624334700887188"><ele>85.0</ele><time>2026-04-06T09:02:55Z</time></trkpt><trkpt lat="41.53989561794412" lon="12.624218635340938"><ele>85.0</ele><time>2026-04-06T09:02:56Z</time></trkpt><trkpt lat="41.53991872756185" lon="12.624094015500987"><ele>85.0</ele><time>2026-04-06T09:02:57Z</time></trkpt><trkpt lat="41.5399363421994" lon="12.623969538230469"><ele>84.8</ele><time>2026-04-06T09:02:58Z</time></trkpt><trkpt lat="41.53995335646483" lon="12.623845685356907"><ele>84.6</ele><time>2026-04-06T09:02:59Z</time></trkpt><trkpt lat="41.53997776106348" lon="12.623725786147773"><ele>84.4</ele><time>2026-04-06T09:03:00Z</time></trkpt><trkpt lat="41.53998888502501" lon="12.623610105546963"><ele>84.2</ele><time>2026-04-06T09:03:01Z</time></trkpt><trkpt lat="41.54000632767753" lon="12.623491701919958"><ele>84.0</ele><time>2026-04-06T09:03:02Z</time></trkpt><trkpt lat="41.54002184168622" lon="12.623370554867652"><ele>83.6</ele><time>2026-04-06T09:03:03Z</time></trkpt><trkpt lat="41.540039687177426" lon="12.623245814846667"><ele>83.2</ele><time>2026-04-06T09:03:04Z</time></trkpt><trkpt lat="41.54006127117961" lon="12.623123341201943"><ele>82.8</ele><time>2026-04-06T09:03:05Z</time></trkpt><trkpt lat="41.54008139512617" lon="12.622994074693016"><ele>82.39999999999999</ele><time>2026-04-06T09:03:06Z</time></trkpt><trkpt lat="41.54009914094019" lon="12.622869283406844"><ele>82.0</ele><time>2026-04-06T09:03:07Z</time></trkpt><trkpt lat="41.540117848634836" lon="12.622748191667647"><ele>82.0</ele><time>2026-04-06T09:03:08Z</time></trkpt><trkpt lat="41.54013427236554" lon="12.62261677460869"><ele>82.0</ele><time>2026-04-06T09:03:09Z</time></trkpt><trkpt lat="41.54015463003672" lon="12.6224829272315"><ele>82.0</ele><time>2026-04-06T09:03:10Z</time></trkpt><trkpt lat="41.54017394351962" lon="12.622348577656037"><ele>82.0</ele><time>2026-04-06T09:03:11Z</time></trkpt><trkpt lat="41.54019368534233" lon="12.622216069996162"><ele>82.0</ele><time>2026-04-06T09:03:12Z</time></trkpt><trkpt lat="41.54021144982465" lon="12.622086241227027"><ele>82.0</ele><time>2026-04-06T09:03:13Z</time></trkpt><trkpt lat="41.54023723811562" lon="12.621958986916143"><ele>82.0</ele><time>2026-04-06T09:03:14Z</time></trkpt><trkpt lat="41.54025264562594" lon="12.621825679033604"><ele>82.0</ele><time>2026-04-06T09:03:15Z</time></trkpt><trkpt lat="41.54027048479347" lon="12.621697611561503"><ele>82.0</ele><time>2026-04-06T09:03:16Z</time></trkpt><trkpt lat="41.54030383748747" lon="12.621568551217388"><ele>82.0</ele><time>2026-04-06T09:03:17Z</time></trkpt><trkpt lat="41.54032399739524" lon="12.621434620355231"><ele>82.0</ele><time>2026-04-06T09:03:18Z</time></trkpt><trkpt lat="41.54034398227746" lon="12.62130185230046"><ele>82.0</ele><time>2026-04-06T09:03:19Z</time></trkpt><trkpt lat="41.54036248066393" lon="12.621174227586922"><ele>82.0</ele><time>2026-04-06T09:03:20Z</time></trkpt><trkpt lat="41.54036286791003" lon="12.621054124560487"><ele>82.0</ele><time>2026-04-06T09:03:21Z</time></trkpt><trkpt lat="41.54038697458046" lon="12.620966263978508"><ele>82.0</ele><time>2026-04-06T09:03:22Z</time></trkpt><trkpt lat="41.54040305478187" lon="12.620860795586713"><ele>82.0</ele><time>2026-04-06T09:03:24Z</time></trkpt><trkpt lat="41.54024985274624" lon="12.620787486614232"><ele>81.75</ele><time>2026-04-06T09:03:28Z</time></trkpt><trkpt lat="41.54016450464265" lon="12.620771819486894"><ele>81.5</ele><time>2026-04-06T09:03:29Z</time></trkpt><trkpt lat="41.540031692088654" lon="12.62074268169873"><ele>81.25</ele><time>2026-04-06T09:03:30Z</time></trkpt><trkpt lat="41.53990046369558" lon="12.620711306664004"><ele>81.0</ele><time>2026-04-06T09:03:31Z</time></trkpt><trkpt lat="41.53978105649159" lon="12.620679791681816"><ele>81.0</ele><time>2026-04-06T09:03:32Z</time></trkpt><trkpt lat="41.53966333162486" lon="12.620658841303436"><ele>81.0</ele><time>2026-04-06T09:03:33Z</time></trkpt><trkpt lat="41.53954636872353" lon="12.62063220685264"><ele>81.0</ele><time>2026-04-06T09:03:34Z</time></trkpt><trkpt lat="41.53942807114971" lon="12.620604750428022"><ele>81.0</ele><time>2026-04-06T09:03:35Z</time></trkpt><trkpt lat="41.53930739021158" lon="12.620574141891264"><ele>81.4</ele><time>2026-04-06T09:03:36Z</time></trkpt><trkpt lat="41.53919286160083" lon="12.620548456699302"><ele>81.8</ele><time>2026-04-06T09:03:37Z</time></trkpt><trkpt lat="41.539089052046066" lon="12.620523655458593"><ele>82.2</ele><time>2026-04-06T09:03:38Z</time></trkpt><trkpt lat="41.538986590872035" lon="12.620492141054"><ele>82.60000000000001</ele><time>2026-04-06T09:03:39Z</time></trkpt><trkpt lat="41.53889533000046" lon="12.620475019407273"><ele>83.0</ele><time>2026-04-06T09:03:40Z</time></trkpt><trkpt lat="41.53881348539592" lon="12.620457178633371"><ele>83.0</ele><time>2026-04-06T09:03:41Z</time></trkpt><trkpt lat="41.53874742061851" lon="12.620440906337272"><ele>83.0</ele><time>2026-04-06T09:03:42Z</time></trkpt><trkpt lat="41.538649466310495" lon="12.62041297553486"><ele>83.0</ele><time>2026-04-06T09:03:44Z</time></trkpt><trkpt lat="41.538587084692935" lon="12.62039889938992"><ele>83.0</ele><time>2026-04-06T09:03:47Z</time></trkpt><trkpt lat="41.53858577395349" lon="12.620280803290525"><ele>83.0</ele><time>2026-04-06T09:04:05Z</time></trkpt><trkpt lat="41.53861152760032" lon="12.620201923477643"><ele>83.0</ele><time>2026-04-06T09:04:06Z</time></trkpt><trkpt lat="41.53864157871686" lon="12.620117488393774"><ele>82.80000000000001</ele><time>2026-04-06T09:04:07Z</time></trkpt><trkpt lat="41.53867418494448" lon="12.620015386985223"><ele>82.6</ele><time>2026-04-06T09:04:08Z</time></trkpt><trkpt lat="41.5387067128037" lon="12.619906523637098"><ele>82.4</ele><time>2026-04-06T09:04:09Z</time></trkpt><trkpt lat="41.53874479713378" lon="12.619794034614438"><ele>82.19999999999999</ele><time>2026-04-06T09:04:10Z</time></trkpt><trkpt lat="41.53878353708175" lon="12.619674914042973"><ele>82.0</ele><time>2026-04-06T09:04:11Z</time></trkpt><trkpt lat="41.53882394553743" lon="12.619552601335139"><ele>81.5</ele><time>2026-04-06T09:04:12Z</time></trkpt><trkpt lat="41.53886054234273" lon="12.619422550587236"><ele>81.0</ele><time>2026-04-06T09:04:13Z</time></trkpt><trkpt lat="41.53889245381137" lon="12.61927449890569"><ele>80.5</ele><time>2026-04-06T09:04:14Z</time></trkpt><trkpt lat="41.53891994862448" lon="12.619089761710944"><ele>80.0</ele><time>2026-04-06T09:04:15Z</time></trkpt><trkpt lat="41.53893294231672" lon="12.618912214970988"><ele>80.0</ele><time>2026-04-06T09:04:16Z</time></trkpt><trkpt lat="41.538933244944026" lon="12.61873237723442"><ele>80.0</ele><time>2026-04-06T09:04:17Z</time></trkpt><trkpt lat="41.5389296176018" lon="12.618557247650655"><ele>80.0</ele><time>2026-04-06T09:04:18Z</time></trkpt><trkpt lat="41.53891628621863" lon="12.618382531744027"><ele>80.0</ele><time>2026-04-06T09:04:19Z</time></trkpt><trkpt lat="41.53889712248573" lon="12.618209528800776"><ele>80.0</ele><time>2026-04-06T09:04:20Z</time></trkpt><trkpt lat="41.53887082152937" lon="12.6180351249918"><ele>80.0</ele><time>2026-04-06T09:04:21Z</time></trkpt><trkpt lat="41.53883289417792" lon="12.61786236377681"><ele>80.0</ele><time>2026-04-06T09:04:22Z</time></trkpt><trkpt lat="41.53878344764861" lon="12.617680887805525"><ele>80.0</ele><time>2026-04-06T09:04:23Z</time></trkpt><trkpt lat="41.538712991562" lon="12.617477808180952"><ele>80.5</ele><time>2026-04-06T09:04:24Z</time></trkpt><trkpt lat="41.538633183164386" lon="12.617296476265059"><ele>81.0</ele><time>2026-04-06T09:04:25Z</time></trkpt><trkpt lat="41.538557119752326" lon="12.617146639986654"><ele>81.5</ele><time>2026-04-06T09:04:26Z</time></trkpt><trkpt lat="41.53848395104349" lon="12.61698729505601"><ele>82.0</ele><time>2026-04-06T09:04:27Z</time></trkpt><trkpt lat="41.53840808731006" lon="12.61682834606425"><ele>82.0</ele><time>2026-04-06T09:04:28Z</time></trkpt><trkpt lat="41.538331333844745" lon="12.616672116186969"><ele>82.0</ele><time>2026-04-06T09:04:29Z</time></trkpt><trkpt lat="41.538262231626916" lon="12.61651813069943"><ele>82.0</ele><time>2026-04-06T09:04:30Z</time></trkpt><trkpt lat="41.5381947220556" lon="12.616363309707324"><ele>82.0</ele><time>2026-04-06T09:04:31Z</time></trkpt><trkpt lat="41.53812729030473" lon="12.61620744970049"><ele>82.0</ele><time>2026-04-06T09:04:32Z</time></trkpt><trkpt lat="41.5380585537985" lon="12.616047699363945"><ele>82.0</ele><time>2026-04-06T09:04:33Z</time></trkpt><trkpt lat="41.537990717334395" lon="12.615890119765517"><ele>82.0</ele><time>2026-04-06T09:04:34Z</time></trkpt><trkpt lat="41.53792621305076" lon="12.615744810143642"><ele>82.0</ele><time>2026-04-06T09:04:35Z</time></trkpt><trkpt lat="41.53786469237404" lon="12.615611596503546"><ele>82.0</ele><time>2026-04-06T09:04:36Z</time></trkpt><trkpt lat="41.537800848194806" lon="12.615472873049193"><ele>82.0</ele><time>2026-04-06T09:04:37Z</time></trkpt><trkpt lat="41.53773807251489" lon="12.615326089295126"><ele>82.0</ele><time>2026-04-06T09:04:38Z</time></trkpt><trkpt lat="41.53767765170216" lon="12.615179959945356"><ele>82.0</ele><time>2026-04-06T09:04:39Z</time></trkpt><trkpt lat="41.537614117847234" lon="12.615036097039843"><ele>81.5</ele><time>2026-04-06T09:04:40Z</time></trkpt><trkpt lat="41.53754706652677" lon="12.614895267658834"><ele>81.0</ele><time>2026-04-06T09:04:41Z</time></trkpt><trkpt lat="41.537479416049784" lon="12.614750643447213"><ele>80.5</ele><time>2026-04-06T09:04:42Z</time></trkpt><trkpt lat="41.53741365381992" lon="12.614608161421826"><ele>80.0</ele><time>2026-04-06T09:04:43Z</time></trkpt><trkpt lat="41.53734991225233" lon="12.614464966402094"><ele>80.0</ele><time>2026-04-06T09:04:44Z</time></trkpt><trkpt lat="41.53729039423647" lon="12.614332134979312"><ele>80.0</ele><time>2026-04-06T09:04:45Z</time></trkpt><trkpt lat="41.53723590331941" lon="12.614210784355377"><ele>80.0</ele><time>2026-04-06T09:04:46Z</time></trkpt><trkpt lat="41.53717941448417" lon="12.614081738396804"><ele>80.0</ele><time>2026-04-06T09:04:47Z</time></trkpt><trkpt lat="41.5371201719771" lon="12.613946138788487"><ele>80.0</ele><time>2026-04-06T09:04:48Z</time></trkpt><trkpt lat="41.53706147566135" lon="12.613808477824168"><ele>80.0</ele><time>2026-04-06T09:04:49Z</time></trkpt><trkpt lat="41.53700327881049" lon="12.613679907303919"><ele>80.0</ele><time>2026-04-06T09:04:50Z</time></trkpt><trkpt lat="41.53696857119169" lon="12.61360669733177"><ele>80.0</ele><time>2026-04-06T09:04:51Z</time></trkpt><trkpt lat="41.53692656910967" lon="12.61351201873995"><ele>80.0</ele><time>2026-04-06T09:04:53Z</time></trkpt><trkpt lat="41.53689088338272" lon="12.613432339358624"><ele>80.0</ele><time>2026-04-06T09:04:56Z</time></trkpt><trkpt lat="41.53685950215865" lon="12.613349035884267"><ele>79.8</ele><time>2026-04-06T09:04:57Z</time></trkpt><trkpt lat="41.536804183070956" lon="12.613224967308595"><ele>79.6</ele><time>2026-04-06T09:04:58Z</time></trkpt><trkpt lat="41.536754695040834" lon="12.613112504942546"><ele>79.4</ele><time>2026-04-06T09:04:59Z</time></trkpt><trkpt lat="41.53671764104398" lon="12.613028530493096"><ele>79.2</ele><time>2026-04-06T09:05:00Z</time></trkpt><trkpt lat="41.536657606663596" lon="12.612896189234917"><ele>79.0</ele><time>2026-04-06T09:05:02Z</time></trkpt><trkpt lat="41.53660819361161" lon="12.612755323724498"><ele>79.0</ele><time>2026-04-06T09:05:04Z</time></trkpt><trkpt lat="41.53656672645048" lon="12.61266303038668"><ele>79.0</ele><time>2026-04-06T09:05:06Z</time></trkpt><trkpt lat="41.536535597264155" lon="12.612584776473982"><ele>79.0</ele><time>2026-04-06T09:05:43Z</time></trkpt><trkpt lat="41.536502466543226" lon="12.612495538134194"><ele>79.0</ele><time>2026-04-06T09:05:46Z</time></trkpt><trkpt lat="41.53662735637121" lon="12.612387474574822"><ele>79.0</ele><time>2026-04-06T09:05:48Z</time></trkpt><trkpt lat="41.536688459540706" lon="12.612347234366682"><ele>79.0</ele><time>2026-04-06T09:05:49Z</time></trkpt><trkpt lat="41.536753984637876" lon="12.612302415858798"><ele>79.0</ele><time>2026-04-06T09:05:50Z</time></trkpt><trkpt lat="41.536828585254554" lon="12.612244708915146"><ele>79.0</ele><time>2026-04-06T09:05:51Z</time></trkpt><trkpt lat="41.53692449688809" lon="12.61216671599369"><ele>79.0</ele><time>2026-04-06T09:05:52Z</time></trkpt><trkpt lat="41.537010903662186" lon="12.612092254856519"><ele>79.0</ele><time>2026-04-06T09:05:53Z</time></trkpt><trkpt lat="41.537109448223006" lon="12.612035534719363"><ele>79.0</ele><time>2026-04-06T09:05:54Z</time></trkpt><trkpt lat="41.53719762577375" lon="12.611965090660663"><ele>79.4</ele><time>2026-04-06T09:05:55Z</time></trkpt><trkpt lat="41.53728889327883" lon="12.611892176769853"><ele>79.80000000000001</ele><time>2026-04-06T09:05:56Z</time></trkpt><trkpt lat="41.537377657482764" lon="12.611821263995182"><ele>80.19999999999999</ele><time>2026-04-06T09:05:57Z</time></trkpt><trkpt lat="41.53746961430251" lon="12.611747800723759"><ele>80.6</ele><time>2026-04-06T09:05:58Z</time></trkpt><trkpt lat="41.53756440448158" lon="12.611672339116293"><ele>81.0</ele><time>2026-04-06T09:05:59Z</time></trkpt><trkpt lat="41.53765656175894" lon="12.611599238393625"><ele>81.0</ele><time>2026-04-06T09:06:00Z</time></trkpt><trkpt lat="41.53774697852335" lon="12.611527518309694"><ele>81.0</ele><time>2026-04-06T09:06:01Z</time></trkpt><trkpt lat="41.53783969498048" lon="12.611453974123558"><ele>81.0</ele><time>2026-04-06T09:06:02Z</time></trkpt><trkpt lat="41.53793481815134" lon="12.611378520852863"><ele>81.0</ele><time>2026-04-06T09:06:03Z</time></trkpt><trkpt lat="41.538030674833614" lon="12.611302485765549"><ele>81.0</ele><time>2026-04-06T09:06:04Z</time></trkpt><trkpt lat="41.538127787298315" lon="12.611225454552041"><ele>80.2</ele><time>2026-04-06T09:06:05Z</time></trkpt><trkpt lat="41.53822515928642" lon="12.611148217482944"><ele>79.39999999999999</ele><time>2026-04-06T09:06:06Z</time></trkpt><trkpt lat="41.53831337214782" lon="12.611078206336895"><ele>78.6</ele><time>2026-04-06T09:06:07Z</time></trkpt><trkpt lat="41.53840363438869" lon="12.611005240882578"><ele>77.8</ele><time>2026-04-06T09:06:08Z</time></trkpt><trkpt lat="41.53848291730082" lon="12.610941150776995"><ele>77.0</ele><time>2026-04-06T09:06:09Z</time></trkpt><trkpt lat="41.53853836347639" lon="12.610896329555652"><ele>77.0</ele><time>2026-04-06T09:06:10Z</time></trkpt><trkpt lat="41.53859801633805" lon="12.61084810834401"><ele>77.0</ele><time>2026-04-06T09:06:12Z</time></trkpt><trkpt lat="41.53849761006581" lon="12.61061986976802"><ele>77.0</ele><time>2026-04-06T09:06:14Z</time></trkpt><trkpt lat="41.538441228805084" lon="12.61051249475615"><ele>77.0</ele><time>2026-04-06T09:06:15Z</time></trkpt><trkpt lat="41.538404638002824" lon="12.610388843248003"><ele>77.2</ele><time>2026-04-06T09:06:16Z</time></trkpt><trkpt lat="41.53835321510083" lon="12.610269898326306"><ele>77.4</ele><time>2026-04-06T09:06:17Z</time></trkpt><trkpt lat="41.53830205497271" lon="12.610152775676774"><ele>77.6</ele><time>2026-04-06T09:06:18Z</time></trkpt><trkpt lat="41.53825066451166" lon="12.61003727373114"><ele>77.8</ele><time>2026-04-06T09:06:19Z</time></trkpt><trkpt lat="41.53819032817698" lon="12.609945855730723"><ele>78.0</ele><time>2026-04-06T09:06:20Z</time></trkpt><trkpt lat="41.53814863853656" lon="12.609852436485355"><ele>78.0</ele><time>2026-04-06T09:06:21Z</time></trkpt><trkpt lat="41.53811203587828" lon="12.6097301576215"><ele>78.0</ele><time>2026-04-06T09:06:22Z</time></trkpt><trkpt lat="41.538056283278124" lon="12.609606296708264"><ele>78.0</ele><time>2026-04-06T09:06:23Z</time></trkpt><trkpt lat="41.53799901866833" lon="12.609475207509636"><ele>78.0</ele><time>2026-04-06T09:06:24Z</time></trkpt><trkpt lat="41.53793455623905" lon="12.60936927281283"><ele>78.0</ele><time>2026-04-06T09:06:25Z</time></trkpt><trkpt lat="41.5378854805313" lon="12.609251335693399"><ele>77.6</ele><time>2026-04-06T09:06:26Z</time></trkpt><trkpt lat="41.53783339437882" lon="12.609129477346606"><ele>77.19999999999999</ele><time>2026-04-06T09:06:27Z</time></trkpt><trkpt lat="41.53777562977448" lon="12.608997125473511"><ele>76.8</ele><time>2026-04-06T09:06:28Z</time></trkpt><trkpt lat="41.53773030371925" lon="12.608878267169038"><ele>76.39999999999999</ele><time>2026-04-06T09:06:29Z</time></trkpt><trkpt lat="41.53767901267121" lon="12.60877709882551"><ele>76.0</ele><time>2026-04-06T09:06:30Z</time></trkpt><trkpt lat="41.53763179928862" lon="12.608657519036873"><ele>76.0</ele><time>2026-04-06T09:06:31Z</time></trkpt><trkpt lat="41.537574355444214" lon="12.608532522969877"><ele>76.0</ele><time>2026-04-06T09:06:32Z</time></trkpt><trkpt lat="41.53751827203689" lon="12.608401162695818"><ele>76.0</ele><time>2026-04-06T09:06:33Z</time></trkpt><trkpt lat="41.53746326022737" lon="12.60826978241921"><ele>76.0</ele><time>2026-04-06T09:06:34Z</time></trkpt><trkpt lat="41.53741324593052" lon="12.608155381842154"><ele>76.0</ele><time>2026-04-06T09:06:35Z</time></trkpt><trkpt lat="41.537359596632605" lon="12.608044548062738"><ele>76.0</ele><time>2026-04-06T09:06:36Z</time></trkpt><trkpt lat="41.53732070195826" lon="12.607929856929195"><ele>76.0</ele><time>2026-04-06T09:06:37Z</time></trkpt><trkpt lat="41.537285021233345" lon="12.60784553466327"><ele>76.0</ele><time>2026-04-06T09:06:38Z</time></trkpt><trkpt lat="41.537231524328575" lon="12.607762024571782"><ele>76.0</ele><time>2026-04-06T09:06:40Z</time></trkpt><trkpt lat="41.53738357020944" lon="12.607684295622436"><ele>76.0</ele><time>2026-04-06T09:06:43Z</time></trkpt><trkpt lat="41.537464160626904" lon="12.607622576054139"><ele>76.0</ele><time>2026-04-06T09:06:44Z</time></trkpt><trkpt lat="41.53755062464153" lon="12.607536741463923"><ele>76.0</ele><time>2026-04-06T09:06:45Z</time></trkpt><trkpt lat="41.53764657688138" lon="12.607471093702756"><ele>76.0</ele><time>2026-04-06T09:06:46Z</time></trkpt><trkpt lat="41.53773579707659" lon="12.607389637002372"><ele>76.0</ele><time>2026-04-06T09:06:47Z</time></trkpt><trkpt lat="41.53784069920991" lon="12.607334206580218"><ele>76.0</ele><time>2026-04-06T09:06:48Z</time></trkpt><trkpt lat="41.53793809810541" lon="12.60725961433516"><ele>76.0</ele><time>2026-04-06T09:06:49Z</time></trkpt><trkpt lat="41.53800259355839" lon="12.607210220900171"><ele>76.0</ele><time>2026-04-06T09:06:50Z</time></trkpt><trkpt lat="41.5380682966971" lon="12.607159885698657"><ele>76.0</ele><time>2026-04-06T09:06:54Z</time></trkpt><trkpt lat="41.538126315365155" lon="12.607115430213527"><ele>76.0</ele><time>2026-04-06T09:06:55Z</time></trkpt><trkpt lat="41.538192250717124" lon="12.607064908659243"><ele>76.0</ele><time>2026-04-06T09:06:56Z</time></trkpt><trkpt lat="41.538265748354924" lon="12.60700859282818"><ele>76.0</ele><time>2026-04-06T09:06:57Z</time></trkpt><trkpt lat="41.53834658468569" lon="12.606946653684517"><ele>75.8</ele><time>2026-04-06T09:06:58Z</time></trkpt><trkpt lat="41.53842862621701" lon="12.606883791201628"><ele>75.6</ele><time>2026-04-06T09:06:59Z</time></trkpt><trkpt lat="41.53850229112548" lon="12.606827347104623"><ele>75.4</ele><time>2026-04-06T09:07:00Z</time></trkpt><trkpt lat="41.538603690486426" lon="12.606749652051322"><ele>75.2</ele><time>2026-04-06T09:07:02Z</time></trkpt><trkpt lat="41.53866059278658" lon="12.606706051943469"><ele>75.0</ele><time>2026-04-06T09:07:04Z</time></trkpt><trkpt lat="41.53864161758924" lon="12.606486814141798"><ele>75.0</ele><time>2026-04-06T09:07:10Z</time></trkpt><trkpt lat="41.538580008703484" lon="12.606371788448945"><ele>75.0</ele><time>2026-04-06T09:07:11Z</time></trkpt><trkpt lat="41.53849951741205" lon="12.60620543628955"><ele>75.0</ele><time>2026-04-06T09:07:12Z</time></trkpt><trkpt lat="41.538410676871756" lon="12.606015225016135"><ele>75.0</ele><time>2026-04-06T09:07:13Z</time></trkpt><trkpt lat="41.53832179786449" lon="12.605815132583647"><ele>74.66666666666667</ele><time>2026-04-06T09:07:14Z</time></trkpt><trkpt lat="41.53823874772017" lon="12.60562700599158"><ele>74.33333333333334</ele><time>2026-04-06T09:07:15Z</time></trkpt><trkpt lat="41.53815831027113" lon="12.605440471691379"><ele>74.0</ele><time>2026-04-06T09:07:16Z</time></trkpt><trkpt lat="41.538082118359156" lon="12.60527062483467"><ele>73.25</ele><time>2026-04-06T09:07:17Z</time></trkpt><trkpt lat="41.538012571053166" lon="12.605116887372192"><ele>72.5</ele><time>2026-04-06T09:07:18Z</time></trkpt><trkpt lat="41.53794935157202" lon="12.604970579382098"><ele>71.75</ele><time>2026-04-06T09:07:19Z</time></trkpt><trkpt lat="41.53787982570674" lon="12.604814687640749"><ele>71.0</ele><time>2026-04-06T09:07:20Z</time></trkpt><trkpt lat="41.5378086745207" lon="12.604657961238336"><ele>70.75</ele><time>2026-04-06T09:07:21Z</time></trkpt><trkpt lat="41.537740139322935" lon="12.604499719189993"><ele>70.5</ele><time>2026-04-06T09:07:22Z</time></trkpt><trkpt lat="41.53767002967667" lon="12.60434536345932"><ele>70.25</ele><time>2026-04-06T09:07:23Z</time></trkpt><trkpt lat="41.53759916196393" lon="12.604189428522739"><ele>70.0</ele><time>2026-04-06T09:07:24Z</time></trkpt><trkpt lat="41.5375278974345" lon="12.604037272205664"><ele>69.5</ele><time>2026-04-06T09:07:25Z</time></trkpt><trkpt lat="41.53746067652521" lon="12.603884623440752"><ele>69.0</ele><time>2026-04-06T09:07:26Z</time></trkpt><trkpt lat="41.53739980606067" lon="12.603728317297541"><ele>68.5</ele><time>2026-04-06T09:07:27Z</time></trkpt><trkpt lat="41.537330149859834" lon="12.603576053826446"><ele>68.0</ele><time>2026-04-06T09:07:28Z</time></trkpt><trkpt lat="41.53726112505718" lon="12.603419526569462"><ele>67.25</ele><time>2026-04-06T09:07:29Z</time></trkpt><trkpt lat="41.53718990936143" lon="12.603258480850785"><ele>66.5</ele><time>2026-04-06T09:07:30Z</time></trkpt><trkpt lat="41.53711781163802" lon="12.603096633550962"><ele>65.75</ele><time>2026-04-06T09:07:31Z</time></trkpt><trkpt lat="41.53704658373601" lon="12.602934785424045"><ele>65.0</ele><time>2026-04-06T09:07:32Z</time></trkpt><trkpt lat="41.536973661561" lon="12.602771830211044"><ele>64.0</ele><time>2026-04-06T09:07:33Z</time></trkpt><trkpt lat="41.536901730027886" lon="12.60260850414203"><ele>63.0</ele><time>2026-04-06T09:07:34Z</time></trkpt><trkpt lat="41.5368307368198" lon="12.602448376555481"><ele>62.0</ele><time>2026-04-06T09:07:35Z</time></trkpt><trkpt lat="41.53676009068988" lon="12.602286519659502"><ele>61.0</ele><time>2026-04-06T09:07:36Z</time></trkpt><trkpt lat="41.536695356449236" lon="12.602128399124764"><ele>61.5</ele><time>2026-04-06T09:07:37Z</time></trkpt><trkpt lat="41.53662504498693" lon="12.601963094750785"><ele>62.0</ele><time>2026-04-06T09:07:38Z</time></trkpt><trkpt lat="41.53656076572589" lon="12.60179019356107"><ele>62.5</ele><time>2026-04-06T09:07:39Z</time></trkpt><trkpt lat="41.53648427936947" lon="12.601618360739387"><ele>63.0</ele><time>2026-04-06T09:07:40Z</time></trkpt><trkpt lat="41.53640585846699" lon="12.6014421818143"><ele>63.0</ele><time>2026-04-06T09:07:41Z</time></trkpt><trkpt lat="41.53632117727224" lon="12.60129100492638"><ele>63.0</ele><time>2026-04-06T09:07:42Z</time></trkpt><trkpt lat="41.53625022015752" lon="12.601128341626234"><ele>63.0</ele><time>2026-04-06T09:07:43Z</time></trkpt><trkpt lat="41.53617819338547" lon="12.600965993736951"><ele>63.0</ele><time>2026-04-06T09:07:44Z</time></trkpt><trkpt lat="41.53611542647748" lon="12.60082158701158"><ele>62.4</ele><time>2026-04-06T09:07:45Z</time></trkpt><trkpt lat="41.53606245919987" lon="12.600690638852477"><ele>61.8</ele><time>2026-04-06T09:07:46Z</time></trkpt><trkpt lat="41.53601848248031" lon="12.60058422039773"><ele>61.2</ele><time>2026-04-06T09:07:47Z</time></trkpt><trkpt lat="41.53597029370702" lon="12.600477439418746"><ele>60.6</ele><time>2026-04-06T09:07:49Z</time></trkpt><trkpt lat="41.536019173623586" lon="12.600595339491207"><ele>60.0</ele><time>2026-04-06T09:07:53Z</time></trkpt><trkpt lat="41.53602793538573" lon="12.600700554004879"><ele>60.0</ele><time>2026-04-06T09:07:54Z</time></trkpt><trkpt lat="41.536080895267304" lon="12.600800416175804"><ele>60.0</ele><time>2026-04-06T09:07:55Z</time></trkpt><trkpt lat="41.53614725923364" lon="12.600944009809764"><ele>60.0</ele><time>2026-04-06T09:07:56Z</time></trkpt><trkpt lat="41.53622249612772" lon="12.60111272777674"><ele>60.0</ele><time>2026-04-06T09:07:57Z</time></trkpt><trkpt lat="41.53631183937148" lon="12.601307553289228"><ele>60.75</ele><time>2026-04-06T09:07:58Z</time></trkpt><trkpt lat="41.53639833622716" lon="12.601500114636389"><ele>61.5</ele><time>2026-04-06T09:07:59Z</time></trkpt><trkpt lat="41.536468912149196" lon="12.601656402383439"><ele>62.25</ele><time>2026-04-06T09:08:00Z</time></trkpt><trkpt lat="41.53653470179557" lon="12.601800796848757"><ele>63.0</ele><time>2026-04-06T09:08:01Z</time></trkpt><trkpt lat="41.53659117829611" lon="12.601926255265376"><ele>62.599999999999994</ele><time>2026-04-06T09:08:02Z</time></trkpt><trkpt lat="41.53663863949386" lon="12.602032121348634"><ele>62.199999999999996</ele><time>2026-04-06T09:08:03Z</time></trkpt><trkpt lat="41.53667740800179" lon="12.602120043170947"><ele>61.8</ele><time>2026-04-06T09:08:04Z</time></trkpt><trkpt lat="41.53673258153872" lon="12.602229252003927"><ele>61.4</ele><time>2026-04-06T09:08:06Z</time></trkpt><trkpt lat="41.53688641312637" lon="12.60219904537998"><ele>61.0</ele><time>2026-04-06T09:08:09Z</time></trkpt><trkpt lat="41.53696491117825" lon="12.602143864140157"><ele>61.0</ele><time>2026-04-06T09:08:10Z</time></trkpt><trkpt lat="41.53704381298816" lon="12.602101304747743"><ele>60.99999999999999</ele><time>2026-04-06T09:08:11Z</time></trkpt><trkpt lat="41.53713213157401" lon="12.602058057505067"><ele>60.99999999999999</ele><time>2026-04-06T09:08:12Z</time></trkpt><trkpt lat="41.53722553150037" lon="12.602006743097235"><ele>61.0</ele><time>2026-04-06T09:08:13Z</time></trkpt><trkpt lat="41.53732316836594" lon="12.601951757377154"><ele>61.0</ele><time>2026-04-06T09:08:14Z</time></trkpt><trkpt lat="41.53742321108042" lon="12.60189383850878"><ele>61.0</ele><time>2026-04-06T09:08:15Z</time></trkpt><trkpt lat="41.53752602576321" lon="12.601836485855525"><ele>61.0</ele><time>2026-04-06T09:08:16Z</time></trkpt><trkpt lat="41.537642305876595" lon="12.601769940727756"><ele>61.0</ele><time>2026-04-06T09:08:17Z</time></trkpt><trkpt lat="41.53776948513783" lon="12.601695827761018"><ele>61.0</ele><time>2026-04-06T09:08:18Z</time></trkpt><trkpt lat="41.53790671090181" lon="12.601615160107619"><ele>61.0</ele><time>2026-04-06T09:08:19Z</time></trkpt><trkpt lat="41.53805665682626" lon="12.601528426580995"><ele>61.0</ele><time>2026-04-06T09:08:20Z</time></trkpt><trkpt lat="41.53820494617237" lon="12.601445507476251"><ele>61.0</ele><time>2026-04-06T09:08:21Z</time></trkpt><trkpt lat="41.538349438374496" lon="12.601365166184785"><ele>61.0</ele><time>2026-04-06T09:08:22Z</time></trkpt><trkpt lat="41.538493831950824" lon="12.60128464042178"><ele>61.0</ele><time>2026-04-06T09:08:23Z</time></trkpt><trkpt lat="41.538638101468166" lon="12.601205610786437"><ele>61.0</ele><time>2026-04-06T09:08:24Z</time></trkpt><trkpt lat="41.538781063503436" lon="12.601125560778915"><ele>60.75</ele><time>2026-04-06T09:08:25Z</time></trkpt><trkpt lat="41.53891409384614" lon="12.601050088342774"><ele>60.5</ele><time>2026-04-06T09:08:26Z</time></trkpt><trkpt lat="41.53903104966808" lon="12.600982940145904"><ele>60.25</ele><time>2026-04-06T09:08:27Z</time></trkpt><trkpt lat="41.539151912562666" lon="12.600911634390487"><ele>60.0</ele><time>2026-04-06T09:08:28Z</time></trkpt><trkpt lat="41.53928251554582" lon="12.6008421516455"><ele>60.0</ele><time>2026-04-06T09:08:29Z</time></trkpt><trkpt lat="41.539413633066246" lon="12.60077073795754"><ele>60.0</ele><time>2026-04-06T09:08:30Z</time></trkpt><trkpt lat="41.53955096116228" lon="12.60069228894341"><ele>60.0</ele><time>2026-04-06T09:08:31Z</time></trkpt><trkpt lat="41.53969870098939" lon="12.60060649000289"><ele>60.0</ele><time>2026-04-06T09:08:32Z</time></trkpt><trkpt lat="41.539854724581886" lon="12.600517704057241"><ele>60.0</ele><time>2026-04-06T09:08:33Z</time></trkpt><trkpt lat="41.54001538527424" lon="12.600426399110574"><ele>60.0</ele><time>2026-04-06T09:08:34Z</time></trkpt><trkpt lat="41.54016807399628" lon="12.60034311994686"><ele>60.25</ele><time>2026-04-06T09:08:35Z</time></trkpt><trkpt lat="41.540300808967615" lon="12.600264526209447"><ele>60.5</ele><time>2026-04-06T09:08:36Z</time></trkpt><trkpt lat="41.54043146933335" lon="12.600189026023507"><ele>60.75</ele><time>2026-04-06T09:08:37Z</time></trkpt><trkpt lat="41.54057975752567" lon="12.600107048304933"><ele>61.0</ele><time>2026-04-06T09:08:38Z</time></trkpt><trkpt lat="41.540715875425484" lon="12.600035540247875"><ele>61.0</ele><time>2026-04-06T09:08:39Z</time></trkpt><trkpt lat="41.54083248677366" lon="12.599973158777683"><ele>61.0</ele><time>2026-04-06T09:08:40Z</time></trkpt><trkpt lat="41.54093391102845" lon="12.599916472011465"><ele>61.0</ele><time>2026-04-06T09:08:41Z</time></trkpt><trkpt lat="41.54103287144294" lon="12.599862159562976"><ele>61.0</ele><time>2026-04-06T09:08:42Z</time></trkpt><trkpt lat="41.54113528666536" lon="12.599805324326747"><ele>61.0</ele><time>2026-04-06T09:08:43Z</time></trkpt><trkpt lat="41.54121612458335" lon="12.599760283809717"><ele>60.99999999999999</ele><time>2026-04-06T09:08:44Z</time></trkpt><trkpt lat="41.54130897520666" lon="12.59967754465821"><ele>60.99999999999999</ele><time>2026-04-06T09:08:46Z</time></trkpt><trkpt lat="41.54133365684858" lon="12.599507354314396"><ele>61.0</ele><time>2026-04-06T09:08:48Z</time></trkpt><trkpt lat="41.541261879944706" lon="12.599411860593227"><ele>61.0</ele><time>2026-04-06T09:08:49Z</time></trkpt><trkpt lat="41.54120932208547" lon="12.599323195156504"><ele>60.99999999999999</ele><time>2026-04-06T09:08:50Z</time></trkpt><trkpt lat="41.54117518363353" lon="12.599216779136118"><ele>61.0</ele><time>2026-04-06T09:08:51Z</time></trkpt><trkpt lat="41.54112830995402" lon="12.59911214136698"><ele>61.0</ele><time>2026-04-06T09:08:52Z</time></trkpt><trkpt lat="41.54107840349756" lon="12.59900184081993"><ele>61.0</ele><time>2026-04-06T09:08:53Z</time></trkpt><trkpt lat="41.54103355869298" lon="12.598901799809093"><ele>60.99999999999999</ele><time>2026-04-06T09:08:54Z</time></trkpt><trkpt lat="41.540978241194914" lon="12.598820734322587"><ele>61.0</ele><time>2026-04-06T09:08:55Z</time></trkpt><trkpt lat="41.540942383485245" lon="12.59871369372549"><ele>60.4</ele><time>2026-04-06T09:08:56Z</time></trkpt><trkpt lat="41.54089626307594" lon="12.598601523927572"><ele>59.8</ele><time>2026-04-06T09:08:57Z</time></trkpt><trkpt lat="41.54083801006981" lon="12.59849335838213"><ele>59.199999999999996</ele><time>2026-04-06T09:08:58Z</time></trkpt><trkpt lat="41.54078180046223" lon="12.598380504743988"><ele>58.599999999999994</ele><time>2026-04-06T09:08:59Z</time></trkpt><trkpt lat="41.54073768451169" lon="12.59824864041604"><ele>58.0</ele><time>2026-04-06T09:09:00Z</time></trkpt><trkpt lat="41.54067938413296" lon="12.59811759599791"><ele>58.0</ele><time>2026-04-06T09:09:01Z</time></trkpt><trkpt lat="41.54061864047268" lon="12.597982104992319"><ele>58.0</ele><time>2026-04-06T09:09:02Z</time></trkpt><trkpt lat="41.54055651545981" lon="12.597843013523004"><ele>58.0</ele><time>2026-04-06T09:09:03Z</time></trkpt><trkpt lat="41.540496210187676" lon="12.597707996280496"><ele>58.0</ele><time>2026-04-06T09:09:04Z</time></trkpt><trkpt lat="41.54043377658794" lon="12.597567275661197"><ele>57.5</ele><time>2026-04-06T09:09:05Z</time></trkpt><trkpt lat="41.54036782572606" lon="12.597418868479282"><ele>57.0</ele><time>2026-04-06T09:09:06Z</time></trkpt><trkpt lat="41.54030319361731" lon="12.597274241362294"><ele>56.5</ele><time>2026-04-06T09:09:07Z</time></trkpt><trkpt lat="41.5402351542576" lon="12.597127258339292"><ele>56.0</ele><time>2026-04-06T09:09:08Z</time></trkpt><trkpt lat="41.54016220836847" lon="12.597003727464289"><ele>55.75</ele><time>2026-04-06T09:09:09Z</time></trkpt><trkpt lat="41.54011047348533" lon="12.596861405720068"><ele>55.5</ele><time>2026-04-06T09:09:10Z</time></trkpt><trkpt lat="41.54004849831336" lon="12.596721172979816"><ele>55.25</ele><time>2026-04-06T09:09:11Z</time></trkpt><trkpt lat="41.53997736542721" lon="12.59656920498232"><ele>55.0</ele><time>2026-04-06T09:09:12Z</time></trkpt><trkpt lat="41.53990766092338" lon="12.596415897728704"><ele>55.0</ele><time>2026-04-06T09:09:13Z</time></trkpt><trkpt lat="41.53984020391026" lon="12.596263193780883"><ele>55.0</ele><time>2026-04-06T09:09:14Z</time></trkpt><trkpt lat="41.53977304011158" lon="12.5961157131938"><ele>55.0</ele><time>2026-04-06T09:09:15Z</time></trkpt><trkpt lat="41.5397048712913" lon="12.595965577725162"><ele>55.0</ele><time>2026-04-06T09:09:16Z</time></trkpt><trkpt lat="41.53963551755436" lon="12.59581454583294"><ele>55.0</ele><time>2026-04-06T09:09:17Z</time></trkpt><trkpt lat="41.539566960136945" lon="12.595663331357507"><ele>55.0</ele><time>2026-04-06T09:09:18Z</time></trkpt><trkpt lat="41.539499410818856" lon="12.595514304850488"><ele>55.0</ele><time>2026-04-06T09:09:19Z</time></trkpt><trkpt lat="41.539431171944265" lon="12.595363350161334"><ele>55.0</ele><time>2026-04-06T09:09:20Z</time></trkpt><trkpt lat="41.53936068249885" lon="12.595214622008854"><ele>55.0</ele><time>2026-04-06T09:09:21Z</time></trkpt><trkpt lat="41.53929080543338" lon="12.595062858115561"><ele>55.0</ele><time>2026-04-06T09:09:22Z</time></trkpt><trkpt lat="41.53922334456145" lon="12.594913870646407"><ele>55.0</ele><time>2026-04-06T09:09:23Z</time></trkpt><trkpt lat="41.53915777922896" lon="12.594765016833973"><ele>55.0</ele><time>2026-04-06T09:09:24Z</time></trkpt><trkpt lat="41.539089547071036" lon="12.594614072935622"><ele>55.5</ele><time>2026-04-06T09:09:25Z</time></trkpt><trkpt lat="41.53901919968187" lon="12.59446146428844"><ele>56.0</ele><time>2026-04-06T09:09:26Z</time></trkpt><trkpt lat="41.53894833298355" lon="12.594305415795095"><ele>56.5</ele><time>2026-04-06T09:09:27Z</time></trkpt><trkpt lat="41.53887854435144" lon="12.594151849274683"><ele>57.0</ele><time>2026-04-06T09:09:28Z</time></trkpt><trkpt lat="41.53880931644511" lon="12.594001838817825"><ele>57.0</ele><time>2026-04-06T09:09:29Z</time></trkpt><trkpt lat="41.53873755490522" lon="12.593854044840285"><ele>57.0</ele><time>2026-04-06T09:09:30Z</time></trkpt><trkpt lat="41.5386676601234" lon="12.593706102598503"><ele>57.0</ele><time>2026-04-06T09:09:31Z</time></trkpt><trkpt lat="41.5386020776167" lon="12.59356297669662"><ele>57.0</ele><time>2026-04-06T09:09:32Z</time></trkpt><trkpt lat="41.538541804331" lon="12.593430212760465"><ele>56.400000000000006</ele><time>2026-04-06T09:09:33Z</time></trkpt><trkpt lat="41.53848410897575" lon="12.593298464557078"><ele>55.800000000000004</ele><time>2026-04-06T09:09:34Z</time></trkpt><trkpt lat="41.53843376038841" lon="12.59317733840816"><ele>55.2</ele><time>2026-04-06T09:09:35Z</time></trkpt><trkpt lat="41.5383929265716" lon="12.593074259025196"><ele>54.6</ele><time>2026-04-06T09:09:36Z</time></trkpt><trkpt lat="41.538360088615605" lon="12.592993444223945"><ele>54.0</ele><time>2026-04-06T09:09:37Z</time></trkpt><trkpt lat="41.538309181221365" lon="12.592880006362474"><ele>54.0</ele><time>2026-04-06T09:09:39Z</time></trkpt><trkpt lat="41.53827672475343" lon="12.592776824923058"><ele>54.00000000000001</ele><time>2026-04-06T09:09:41Z</time></trkpt><trkpt lat="41.5384039524363" lon="12.592690428021472"><ele>54.00000000000001</ele><time>2026-04-06T09:09:44Z</time></trkpt><trkpt lat="41.53846238421507" lon="12.592622115773711"><ele>54.0</ele><time>2026-04-06T09:09:45Z</time></trkpt><trkpt lat="41.538533725110646" lon="12.592572985660096"><ele>54.0</ele><time>2026-04-06T09:09:46Z</time></trkpt><trkpt lat="41.5386025069358" lon="12.59251423688881"><ele>54.0</ele><time>2026-04-06T09:09:47Z</time></trkpt><trkpt lat="41.53867097492793" lon="12.592456450325473"><ele>54.0</ele><time>2026-04-06T09:09:48Z</time></trkpt><trkpt lat="41.53873586858676" lon="12.592430062639576"><ele>54.0</ele><time>2026-04-06T09:09:50Z</time></trkpt><trkpt lat="41.53883967878812" lon="12.592307730515918"><ele>54.0</ele><time>2026-04-06T09:10:17Z</time></trkpt><trkpt lat="41.538914375614844" lon="12.592264506758625"><ele>54.0</ele><time>2026-04-06T09:10:18Z</time></trkpt><trkpt lat="41.53898340016045" lon="12.592209790137368"><ele>54.0</ele><time>2026-04-06T09:10:19Z</time></trkpt><trkpt lat="41.5390602307316" lon="12.592148885423832"><ele>54.2</ele><time>2026-04-06T09:10:20Z</time></trkpt><trkpt lat="41.53914709228155" lon="12.592079610058954"><ele>54.400000000000006</ele><time>2026-04-06T09:10:21Z</time></trkpt><trkpt lat="41.53923489398779" lon="12.591987269428966"><ele>54.6</ele><time>2026-04-06T09:10:22Z</time></trkpt><trkpt lat="41.53933679789298" lon="12.591912852662825"><ele>54.8</ele><time>2026-04-06T09:10:23Z</time></trkpt><trkpt lat="41.53944015546594" lon="12.591830627904166"><ele>55.0</ele><time>2026-04-06T09:10:24Z</time></trkpt><trkpt lat="41.53955130699471" lon="12.591742067834248"><ele>54.5</ele><time>2026-04-06T09:10:25Z</time></trkpt><trkpt lat="41.53965639850887" lon="12.591657479708228"><ele>54.0</ele><time>2026-04-06T09:10:26Z</time></trkpt><trkpt lat="41.53974496621594" lon="12.591585632538703"><ele>53.5</ele><time>2026-04-06T09:10:27Z</time></trkpt><trkpt lat="41.539836022837875" lon="12.591509419665778"><ele>53.0</ele><time>2026-04-06T09:10:28Z</time></trkpt><trkpt lat="41.539937039015896" lon="12.591426789311976"><ele>53.0</ele><time>2026-04-06T09:10:29Z</time></trkpt><trkpt lat="41.54004434599413" lon="12.591341282381437"><ele>53.0</ele><time>2026-04-06T09:10:30Z</time></trkpt><trkpt lat="41.54015338895325" lon="12.591256481433744"><ele>53.0</ele><time>2026-04-06T09:10:31Z</time></trkpt><trkpt lat="41.54025530875364" lon="12.59117842629348"><ele>53.0</ele><time>2026-04-06T09:10:32Z</time></trkpt><trkpt lat="41.540363975287804" lon="12.591102934898725"><ele>52.5</ele><time>2026-04-06T09:10:33Z</time></trkpt><trkpt lat="41.54046725974365" lon="12.591015244993132"><ele>52.0</ele><time>2026-04-06T09:10:34Z</time></trkpt><trkpt lat="41.540560072925274" lon="12.59093617906834"><ele>51.5</ele><time>2026-04-06T09:10:35Z</time></trkpt><trkpt lat="41.54066002145567" lon="12.590854910101793"><ele>51.0</ele><time>2026-04-06T09:10:36Z</time></trkpt><trkpt lat="41.540762821542906" lon="12.59077354025432"><ele>51.0</ele><time>2026-04-06T09:10:37Z</time></trkpt><trkpt lat="41.540870727569875" lon="12.590697394119934"><ele>51.0</ele><time>2026-04-06T09:10:38Z</time></trkpt><trkpt lat="41.54097739146959" lon="12.590601716634765"><ele>51.0</ele><time>2026-04-06T09:10:39Z</time></trkpt><trkpt lat="41.541098535282295" lon="12.590492127641133"><ele>51.0</ele><time>2026-04-06T09:10:40Z</time></trkpt><trkpt lat="41.541204853210026" lon="12.590383382085697"><ele>51.0</ele><time>2026-04-06T09:10:41Z</time></trkpt><trkpt lat="41.54129017949391" lon="12.590265317072676"><ele>51.0</ele><time>2026-04-06T09:10:42Z</time></trkpt><trkpt lat="41.541363196766476" lon="12.590123636428672"><ele>51.0</ele><time>2026-04-06T09:10:43Z</time></trkpt><trkpt lat="41.54141976576702" lon="12.589943274116246"><ele>51.0</ele><time>2026-04-06T09:10:44Z</time></trkpt><trkpt lat="41.54145793072151" lon="12.589703973248122"><ele>51.0</ele><time>2026-04-06T09:10:45Z</time></trkpt><trkpt lat="41.541490720502274" lon="12.589443530385033"><ele>51.0</ele><time>2026-04-06T09:10:46Z</time></trkpt><trkpt lat="41.54152366714394" lon="12.589167130466725"><ele>51.0</ele><time>2026-04-06T09:10:47Z</time></trkpt><trkpt lat="41.54155751690299" lon="12.58890728360778"><ele>51.0</ele><time>2026-04-06T09:10:48Z</time></trkpt><trkpt lat="41.541588158441364" lon="12.588680343297034"><ele>51.0</ele><time>2026-04-06T09:10:49Z</time></trkpt><trkpt lat="41.541633247180734" lon="12.588476353145099"><ele>51.0</ele><time>2026-04-06T09:10:50Z</time></trkpt><trkpt lat="41.541662555295964" lon="12.588267414628847"><ele>51.25</ele><time>2026-04-06T09:10:51Z</time></trkpt><trkpt lat="41.54169060560241" lon="12.588066129080772"><ele>51.5</ele><time>2026-04-06T09:10:52Z</time></trkpt><trkpt lat="41.54171574924728" lon="12.587888413627104"><ele>51.75</ele><time>2026-04-06T09:10:53Z</time></trkpt><trkpt lat="41.541742547621304" lon="12.587704412120136"><ele>52.0</ele><time>2026-04-06T09:10:54Z</time></trkpt><trkpt lat="41.54176923345761" lon="12.587519493688662"><ele>52.0</ele><time>2026-04-06T09:10:55Z</time></trkpt><trkpt lat="41.54179383705778" lon="12.58734830910377"><ele>52.0</ele><time>2026-04-06T09:10:56Z</time></trkpt><trkpt lat="41.541816375708095" lon="12.587191321731128"><ele>52.0</ele><time>2026-04-06T09:10:57Z</time></trkpt><trkpt lat="41.541839661349954" lon="12.587031749459749"><ele>52.0</ele><time>2026-04-06T09:10:58Z</time></trkpt><trkpt lat="41.54184645530418" lon="12.586866934512901"><ele>51.75</ele><time>2026-04-06T09:10:59Z</time></trkpt><trkpt lat="41.54187860948" lon="12.586704623548334"><ele>51.5</ele><time>2026-04-06T09:11:00Z</time></trkpt><trkpt lat="41.541902059728216" lon="12.586547757113122"><ele>51.25</ele><time>2026-04-06T09:11:01Z</time></trkpt><trkpt lat="41.54192738307659" lon="12.586386141486495"><ele>51.0</ele><time>2026-04-06T09:11:02Z</time></trkpt><trkpt lat="41.541950618674456" lon="12.586226125734008"><ele>51.199999999999996</ele><time>2026-04-06T09:11:03Z</time></trkpt><trkpt lat="41.541972343253036" lon="12.586069799933368"><ele>51.4</ele><time>2026-04-06T09:11:04Z</time></trkpt><trkpt lat="41.54199195866106" lon="12.585934168334791"><ele>51.6</ele><time>2026-04-06T09:11:05Z</time></trkpt><trkpt lat="41.541999060499414" lon="12.585817985157643"><ele>51.8</ele><time>2026-04-06T09:11:06Z</time></trkpt><trkpt lat="41.5419800289367" lon="12.58569278920278"><ele>52.0</ele><time>2026-04-06T09:11:07Z</time></trkpt><trkpt lat="41.541915336359075" lon="12.585540428611628"><ele>52.0</ele><time>2026-04-06T09:11:08Z</time></trkpt><trkpt lat="41.54182177751729" lon="12.5853659326056"><ele>52.0</ele><time>2026-04-06T09:11:09Z</time></trkpt><trkpt lat="41.5417346908854" lon="12.585211680790913"><ele>52.0</ele><time>2026-04-06T09:11:10Z</time></trkpt><trkpt lat="41.541669351712855" lon="12.585085139417693"><ele>52.0</ele><time>2026-04-06T09:11:11Z</time></trkpt><trkpt lat="41.54161012401401" lon="12.584951354162133"><ele>52.0</ele><time>2026-04-06T09:11:12Z</time></trkpt><trkpt lat="41.54154478327158" lon="12.584802969246116"><ele>52.0</ele><time>2026-04-06T09:11:13Z</time></trkpt><trkpt lat="41.54149239490378" lon="12.584646597822562"><ele>52.0</ele><time>2026-04-06T09:11:14Z</time></trkpt><trkpt lat="41.541411877818575" lon="12.584508982198583"><ele>52.0</ele><time>2026-04-06T09:11:15Z</time></trkpt><trkpt lat="41.54134674700659" lon="12.584357345300305"><ele>51.5</ele><time>2026-04-06T09:11:16Z</time></trkpt><trkpt lat="41.541281981918445" lon="12.584208184992766"><ele>51.0</ele><time>2026-04-06T09:11:17Z</time></trkpt><trkpt lat="41.54121924133395" lon="12.584054800181491"><ele>50.5</ele><time>2026-04-06T09:11:18Z</time></trkpt><trkpt lat="41.54115501123111" lon="12.58390352125817"><ele>50.0</ele><time>2026-04-06T09:11:19Z</time></trkpt><trkpt lat="41.54109037776055" lon="12.583761473280157"><ele>51.0</ele><time>2026-04-06T09:11:20Z</time></trkpt><trkpt lat="41.54103313655003" lon="12.583617882953327"><ele>52.0</ele><time>2026-04-06T09:11:21Z</time></trkpt><trkpt lat="41.54097203020119" lon="12.583479177608368"><ele>53.0</ele><time>2026-04-06T09:11:22Z</time></trkpt><trkpt lat="41.540909537598935" lon="12.583340495212944"><ele>54.0</ele><time>2026-04-06T09:11:23Z</time></trkpt><trkpt lat="41.540848288993935" lon="12.58320309073151"><ele>54.0</ele><time>2026-04-06T09:11:24Z</time></trkpt><trkpt lat="41.5407862103429" lon="12.58306540934007"><ele>54.0</ele><time>2026-04-06T09:11:25Z</time></trkpt><trkpt lat="41.54072750432572" lon="12.582929019306093"><ele>54.0</ele><time>2026-04-06T09:11:26Z</time></trkpt><trkpt lat="41.54067470156205" lon="12.582798414859543"><ele>54.0</ele><time>2026-04-06T09:11:27Z</time></trkpt><trkpt lat="41.54061533775968" lon="12.582665859125518"><ele>53.6</ele><time>2026-04-06T09:11:28Z</time></trkpt><trkpt lat="41.540557200478396" lon="12.58253807779718"><ele>53.2</ele><time>2026-04-06T09:11:29Z</time></trkpt><trkpt lat="41.540494133057244" lon="12.582409569626797"><ele>52.800000000000004</ele><time>2026-04-06T09:11:30Z</time></trkpt><trkpt lat="41.54043563812936" lon="12.58228103657023"><ele>52.400000000000006</ele><time>2026-04-06T09:11:31Z</time></trkpt><trkpt lat="41.5403832110516" lon="12.582163705914345"><ele>52.0</ele><time>2026-04-06T09:11:32Z</time></trkpt><trkpt lat="41.54033015607302" lon="12.582044638569997"><ele>52.0</ele><time>2026-04-06T09:11:33Z</time></trkpt><trkpt lat="41.54027786929501" lon="12.58192375055971"><ele>52.0</ele><time>2026-04-06T09:11:34Z</time></trkpt><trkpt lat="41.54022634982779" lon="12.581797027281905"><ele>52.0</ele><time>2026-04-06T09:11:35Z</time></trkpt><trkpt lat="41.54017138274709" lon="12.581672699038197"><ele>52.0</ele><time>2026-04-06T09:11:36Z</time></trkpt><trkpt lat="41.54011516716234" lon="12.58154520971943"><ele>52.0</ele><time>2026-04-06T09:11:37Z</time></trkpt><trkpt lat="41.54005674604432" lon="12.581422962818358"><ele>52.0</ele><time>2026-04-06T09:11:38Z</time></trkpt><trkpt lat="41.539996297742746" lon="12.581303608194172"><ele>52.0</ele><time>2026-04-06T09:11:39Z</time></trkpt><trkpt lat="41.539940336747776" lon="12.581180957515656"><ele>52.0</ele><time>2026-04-06T09:11:40Z</time></trkpt><trkpt lat="41.53989009440716" lon="12.58105542139215"><ele>52.0</ele><time>2026-04-06T09:11:41Z</time></trkpt><trkpt lat="41.53983354765679" lon="12.580928947487985"><ele>52.0</ele><time>2026-04-06T09:11:42Z</time></trkpt><trkpt lat="41.53977568566178" lon="12.58081274768189"><ele>52.0</ele><time>2026-04-06T09:11:43Z</time></trkpt><trkpt lat="41.53973101105565" lon="12.580681491169077"><ele>52.0</ele><time>2026-04-06T09:11:44Z</time></trkpt><trkpt lat="41.53967920193243" lon="12.580564174395116"><ele>52.0</ele><time>2026-04-06T09:11:45Z</time></trkpt><trkpt lat="41.5396284348793" lon="12.580449217283046"><ele>52.0</ele><time>2026-04-06T09:11:46Z</time></trkpt><trkpt lat="41.53957899438213" lon="12.58033726405718"><ele>52.0</ele><time>2026-04-06T09:11:47Z</time></trkpt><trkpt lat="41.539517184155585" lon="12.580231705044422"><ele>51.6</ele><time>2026-04-06T09:11:48Z</time></trkpt><trkpt lat="41.53947455410727" lon="12.58011626975062"><ele>51.2</ele><time>2026-04-06T09:11:49Z</time></trkpt><trkpt lat="41.53942098643454" lon="12.580002860768126"><ele>50.8</ele><time>2026-04-06T09:11:50Z</time></trkpt><trkpt lat="41.53936637032483" lon="12.579884586465235"><ele>50.4</ele><time>2026-04-06T09:11:51Z</time></trkpt><trkpt lat="41.53931873190717" lon="12.579781247274138"><ele>50.0</ele><time>2026-04-06T09:11:52Z</time></trkpt><trkpt lat="41.53927660966832" lon="12.579687557918739"><ele>50.00000000000001</ele><time>2026-04-06T09:11:53Z</time></trkpt><trkpt lat="41.539243398700656" lon="12.579595514217337"><ele>50.0</ele><time>2026-04-06T09:11:54Z</time></trkpt><trkpt lat="41.53921085774825" lon="12.579507694633332"><ele>50.0</ele><time>2026-04-06T09:11:55Z</time></trkpt><trkpt lat="41.53917185349579" lon="12.579428914944991"><ele>50.0</ele><time>2026-04-06T09:11:56Z</time></trkpt><trkpt lat="41.53913264136327" lon="12.579346706070213"><ele>50.0</ele><time>2026-04-06T09:11:57Z</time></trkpt><trkpt lat="41.53908974003558" lon="12.579266665789161"><ele>50.00000000000001</ele><time>2026-04-06T09:11:58Z</time></trkpt><trkpt lat="41.53905120925495" lon="12.579181581462489"><ele>50.0</ele><time>2026-04-06T09:11:59Z</time></trkpt><trkpt lat="41.53901629857729" lon="12.579100510917584"><ele>49.8</ele><time>2026-04-06T09:12:00Z</time></trkpt><trkpt lat="41.53896824692597" lon="12.578978399960041"><ele>49.6</ele><time>2026-04-06T09:12:02Z</time></trkpt><trkpt lat="41.53897078304848" lon="12.578891460492484"><ele>49.400000000000006</ele><time>2026-04-06T09:12:07Z</time></trkpt><trkpt lat="41.53905008045128" lon="12.57886854968376"><ele>49.2</ele><time>2026-04-06T09:12:09Z</time></trkpt><trkpt lat="41.53892424987448" lon="12.578848716993136"><ele>49.0</ele><time>2026-04-06T09:13:06Z</time></trkpt><trkpt lat="41.5388647529798" lon="12.578706140286204"><ele>48.83333333333333</ele><time>2026-04-06T09:13:08Z</time></trkpt><trkpt lat="41.53884152135311" lon="12.578614403085098"><ele>48.666666666666664</ele><time>2026-04-06T09:13:09Z</time></trkpt><trkpt lat="41.538813702012646" lon="12.578493717986193"><ele>48.5</ele><time>2026-04-06T09:13:11Z</time></trkpt><trkpt lat="41.53879888726787" lon="12.578409998503698"><ele>48.33333333333333</ele><time>2026-04-06T09:13:13Z</time></trkpt><trkpt lat="41.53875419645012" lon="12.578314463839453"><ele>48.166666666666664</ele><time>2026-04-06T09:13:54Z</time></trkpt><trkpt lat="41.53872411482053" lon="12.57822743249503"><ele>48.0</ele><time>2026-04-06T09:13:56Z</time></trkpt><trkpt lat="41.53869365322178" lon="12.578121708588538"><ele>48.0</ele><time>2026-04-06T09:13:58Z</time></trkpt><trkpt lat="41.53866405529126" lon="12.5780241585681"><ele>48.0</ele><time>2026-04-06T09:14:00Z</time></trkpt><trkpt lat="41.53862857829241" lon="12.577906836235663"><ele>48.0</ele><time>2026-04-06T09:14:02Z</time></trkpt><trkpt lat="41.53857802448329" lon="12.577757979084543"><ele>48.0</ele><time>2026-04-06T09:14:04Z</time></trkpt><trkpt lat="41.538551231228375" lon="12.577674598552806"><ele>48.0</ele><time>2026-04-06T09:14:05Z</time></trkpt><trkpt lat="41.5385239480927" lon="12.577584442805506"><ele>48.0</ele><time>2026-04-06T09:14:06Z</time></trkpt><trkpt lat="41.5384954395666" lon="12.577497263353795"><ele>47.833333333333336</ele><time>2026-04-06T09:14:07Z</time></trkpt><trkpt lat="41.53846728054095" lon="12.57740713587065"><ele>47.666666666666664</ele><time>2026-04-06T09:14:08Z</time></trkpt><trkpt lat="41.538438332388765" lon="12.577317813317928"><ele>47.5</ele><time>2026-04-06T09:14:09Z</time></trkpt><trkpt lat="41.538405802211514" lon="12.577231086976044"><ele>47.33333333333333</ele><time>2026-04-06T09:14:10Z</time></trkpt><trkpt lat="41.53837533888109" lon="12.577140492311793"><ele>47.166666666666664</ele><time>2026-04-06T09:14:11Z</time></trkpt><trkpt lat="41.538356992265705" lon="12.577039470116315"><ele>47.0</ele><time>2026-04-06T09:14:12Z</time></trkpt><trkpt lat="41.5383259248629" lon="12.576941327604608"><ele>47.0</ele><time>2026-04-06T09:14:13Z</time></trkpt><trkpt lat="41.53829498192956" lon="12.576846774715223"><ele>47.0</ele><time>2026-04-06T09:14:14Z</time></trkpt><trkpt lat="41.53826289952124" lon="12.576743741612091"><ele>47.0</ele><time>2026-04-06T09:14:15Z</time></trkpt><trkpt lat="41.53822782579096" lon="12.576634183160536"><ele>47.0</ele><time>2026-04-06T09:14:16Z</time></trkpt><trkpt lat="41.538191491809684" lon="12.576520433386461"><ele>47.0</ele><time>2026-04-06T09:14:17Z</time></trkpt><trkpt lat="41.53815387344565" lon="12.576408345890677"><ele>47.0</ele><time>2026-04-06T09:14:18Z</time></trkpt><trkpt lat="41.53811557149117" lon="12.576296020455137"><ele>46.400000000000006</ele><time>2026-04-06T09:14:19Z</time></trkpt><trkpt lat="41.53808487060984" lon="12.576176037148702"><ele>45.800000000000004</ele><time>2026-04-06T09:14:20Z</time></trkpt><trkpt lat="41.53804473307863" lon="12.576062742569562"><ele>45.2</ele><time>2026-04-06T09:14:21Z</time></trkpt><trkpt lat="41.53800458971678" lon="12.57593869608673"><ele>44.6</ele><time>2026-04-06T09:14:22Z</time></trkpt><trkpt lat="41.537964961188585" lon="12.57580877195175"><ele>44.0</ele><time>2026-04-06T09:14:23Z</time></trkpt><trkpt lat="41.53792592343416" lon="12.575676901471514"><ele>44.0</ele><time>2026-04-06T09:14:24Z</time></trkpt><trkpt lat="41.537884548975136" lon="12.57554321148731"><ele>44.0</ele><time>2026-04-06T09:14:25Z</time></trkpt><trkpt lat="41.53784409093602" lon="12.575409964178556"><ele>44.0</ele><time>2026-04-06T09:14:26Z</time></trkpt><trkpt lat="41.53780543967043" lon="12.575286504690151"><ele>44.0</ele><time>2026-04-06T09:14:27Z</time></trkpt><trkpt lat="41.537769377821526" lon="12.575161711391358"><ele>44.0</ele><time>2026-04-06T09:14:28Z</time></trkpt><trkpt lat="41.537733402160995" lon="12.575046203412876"><ele>44.0</ele><time>2026-04-06T09:14:29Z</time></trkpt><trkpt lat="41.53770063887819" lon="12.574941116681305"><ele>44.0</ele><time>2026-04-06T09:14:30Z</time></trkpt><trkpt lat="41.53766715671122" lon="12.574831625245809"><ele>44.0</ele><time>2026-04-06T09:14:31Z</time></trkpt><trkpt lat="41.53763583248899" lon="12.574724830190288"><ele>44.0</ele><time>2026-04-06T09:14:32Z</time></trkpt><trkpt lat="41.53760657928422" lon="12.574628349132691"><ele>44.0</ele><time>2026-04-06T09:14:33Z</time></trkpt><trkpt lat="41.537578515962295" lon="12.574545382751314"><ele>44.0</ele><time>2026-04-06T09:14:34Z</time></trkpt><trkpt lat="41.537538121610794" lon="12.574406743309924"><ele>44.0</ele><time>2026-04-06T09:14:36Z</time></trkpt><trkpt lat="41.53751576496943" lon="12.574290322838767"><ele>44.0</ele><time>2026-04-06T09:14:38Z</time></trkpt><trkpt lat="41.53748959995685" lon="12.57418253848972"><ele>44.0</ele><time>2026-04-06T09:14:40Z</time></trkpt><trkpt lat="41.53748366150471" lon="12.574046413365613"><ele>44.0</ele><time>2026-04-06T09:14:42Z</time></trkpt><trkpt lat="41.53742193871067" lon="12.57394061325841"><ele>44.0</ele><time>2026-04-06T09:14:44Z</time></trkpt><trkpt lat="41.537343618260415" lon="12.573795863735112"><ele>44.0</ele><time>2026-04-06T09:14:46Z</time></trkpt><trkpt lat="41.53730909307329" lon="12.573700358520416"><ele>44.0</ele><time>2026-04-06T09:14:47Z</time></trkpt><trkpt lat="41.53729247786813" lon="12.573592698858242"><ele>44.0</ele><time>2026-04-06T09:14:48Z</time></trkpt><trkpt lat="41.53724981301898" lon="12.573501126912065"><ele>44.0</ele><time>2026-04-06T09:14:49Z</time></trkpt><trkpt lat="41.537221736566465" lon="12.573400332623232"><ele>44.0</ele><time>2026-04-06T09:14:50Z</time></trkpt><trkpt lat="41.53719377751549" lon="12.573303100494137"><ele>44.0</ele><time>2026-04-06T09:14:51Z</time></trkpt><trkpt lat="41.537165658356685" lon="12.57320921038044"><ele>43.5</ele><time>2026-04-06T09:14:52Z</time></trkpt><trkpt lat="41.537132301026524" lon="12.573108386389135"><ele>43.0</ele><time>2026-04-06T09:14:53Z</time></trkpt><trkpt lat="41.53709904372008" lon="12.573003558406798"><ele>42.5</ele><time>2026-04-06T09:14:54Z</time></trkpt><trkpt lat="41.53706539072433" lon="12.572892268191538"><ele>42.0</ele><time>2026-04-06T09:14:55Z</time></trkpt><trkpt lat="41.537029024396304" lon="12.572780190934013"><ele>41.5</ele><time>2026-04-06T09:14:56Z</time></trkpt><trkpt lat="41.5369931428844" lon="12.572662884272177"><ele>41.0</ele><time>2026-04-06T09:14:57Z</time></trkpt><trkpt lat="41.536959965849505" lon="12.572543775148064"><ele>40.199999999999996</ele><time>2026-04-06T09:14:58Z</time></trkpt><trkpt lat="41.536924509205264" lon="12.57242554327911"><ele>39.4</ele><time>2026-04-06T09:14:59Z</time></trkpt><trkpt lat="41.536887116448725" lon="12.572306371460792"><ele>38.6</ele><time>2026-04-06T09:15:00Z</time></trkpt><trkpt lat="41.53684974099529" lon="12.572188228001535"><ele>37.8</ele><time>2026-04-06T09:15:01Z</time></trkpt><trkpt lat="41.53681348214302" lon="12.572071809653952"><ele>37.0</ele><time>2026-04-06T09:15:02Z</time></trkpt><trkpt lat="41.536775711578095" lon="12.571955547387626"><ele>36.66666666666667</ele><time>2026-04-06T09:15:03Z</time></trkpt><trkpt lat="41.53674211721193" lon="12.57184864671623"><ele>36.333333333333336</ele><time>2026-04-06T09:15:04Z</time></trkpt><trkpt lat="41.53671407033232" lon="12.571749729887596"><ele>36.0</ele><time>2026-04-06T09:15:05Z</time></trkpt><trkpt lat="41.53668651450048" lon="12.571657891840704"><ele>35.666666666666664</ele><time>2026-04-06T09:15:06Z</time></trkpt><trkpt lat="41.536659770686086" lon="12.57157069157004"><ele>35.33333333333333</ele><time>2026-04-06T09:15:07Z</time></trkpt><trkpt lat="41.536633302120606" lon="12.57149281580483"><ele>35.0</ele><time>2026-04-06T09:15:08Z</time></trkpt><trkpt lat="41.53658850076765" lon="12.571345874790568"><ele>35.0</ele><time>2026-04-06T09:15:10Z</time></trkpt><trkpt lat="41.536559902804875" lon="12.571256303715641"><ele>35.0</ele><time>2026-04-06T09:15:11Z</time></trkpt><trkpt lat="41.53652320726275" lon="12.571159833014235"><ele>35.0</ele><time>2026-04-06T09:15:12Z</time></trkpt><trkpt lat="41.536505475096945" lon="12.57104580334772"><ele>35.0</ele><time>2026-04-06T09:15:13Z</time></trkpt><trkpt lat="41.53647222574917" lon="12.57093947939894"><ele>35.0</ele><time>2026-04-06T09:15:14Z</time></trkpt><trkpt lat="41.53642908397737" lon="12.570841865085896"><ele>35.0</ele><time>2026-04-06T09:15:15Z</time></trkpt><trkpt lat="41.536395399311225" lon="12.57072724724959"><ele>34.666666666666664</ele><time>2026-04-06T09:15:16Z</time></trkpt><trkpt lat="41.53636144403813" lon="12.570612851807812"><ele>34.33333333333333</ele><time>2026-04-06T09:15:17Z</time></trkpt><trkpt lat="41.536329594246595" lon="12.570505313208473"><ele>34.0</ele><time>2026-04-06T09:15:18Z</time></trkpt><trkpt lat="41.536299197119305" lon="12.570404212223258"><ele>33.666666666666664</ele><time>2026-04-06T09:15:19Z</time></trkpt><trkpt lat="41.536266469785595" lon="12.570299944501933"><ele>33.333333333333336</ele><time>2026-04-06T09:15:20Z</time></trkpt><trkpt lat="41.53623069393147" lon="12.570182172957564"><ele>33.0</ele><time>2026-04-06T09:15:21Z</time></trkpt><trkpt lat="41.53619488823724" lon="12.570062943632129"><ele>32.4</ele><time>2026-04-06T09:15:22Z</time></trkpt><trkpt lat="41.536158592055315" lon="12.569945570994397"><ele>31.799999999999997</ele><time>2026-04-06T09:15:23Z</time></trkpt><trkpt lat="41.536124251576105" lon="12.569824666387126"><ele>31.2</ele><time>2026-04-06T09:15:24Z</time></trkpt><trkpt lat="41.53608448434158" lon="12.569698590936328"><ele>30.6</ele><time>2026-04-06T09:15:25Z</time></trkpt><trkpt lat="41.53603867713654" lon="12.569573710641452"><ele>30.0</ele><time>2026-04-06T09:15:26Z</time></trkpt><trkpt lat="41.53600129458373" lon="12.569457011766477"><ele>29.333333333333332</ele><time>2026-04-06T09:15:27Z</time></trkpt><trkpt lat="41.53598296819717" lon="12.569346010164214"><ele>28.666666666666664</ele><time>2026-04-06T09:15:28Z</time></trkpt><trkpt lat="41.535942317479225" lon="12.569258825502997"><ele>28.0</ele><time>2026-04-06T09:15:29Z</time></trkpt><trkpt lat="41.53591636474238" lon="12.56917952075022"><ele>27.333333333333332</ele><time>2026-04-06T09:15:30Z</time></trkpt><trkpt lat="41.53589271760705" lon="12.569094851944483"><ele>26.666666666666664</ele><time>2026-04-06T09:15:32Z</time></trkpt><trkpt lat="41.535874722448426" lon="12.568999062798174"><ele>26.0</ele><time>2026-04-06T09:15:35Z</time></trkpt><trkpt lat="41.53597063453242" lon="12.568945474143836"><ele>26.0</ele><time>2026-04-06T09:15:37Z</time></trkpt><trkpt lat="41.53605716227789" lon="12.568880287000349"><ele>26.0</ele><time>2026-04-06T09:15:39Z</time></trkpt><trkpt lat="41.5360824413707" lon="12.56877548787905"><ele>26.0</ele><time>2026-04-06T09:15:41Z</time></trkpt><trkpt lat="41.53603302217199" lon="12.568635968849284"><ele>26.0</ele><time>2026-04-06T09:15:43Z</time></trkpt><trkpt lat="41.53599380978575" lon="12.568484399013975"><ele>26.0</ele><time>2026-04-06T09:15:45Z</time></trkpt><trkpt lat="41.53595692662557" lon="12.568365386159657"><ele>25.6</ele><time>2026-04-06T09:15:47Z</time></trkpt><trkpt lat="41.53592403334912" lon="12.568266683582607"><ele>25.200000000000003</ele><time>2026-04-06T09:15:49Z</time></trkpt><trkpt lat="41.535886593180344" lon="12.568142614867918"><ele>24.799999999999997</ele><time>2026-04-06T09:15:51Z</time></trkpt><trkpt lat="41.53585580433432" lon="12.568039063479178"><ele>24.4</ele><time>2026-04-06T09:15:53Z</time></trkpt><trkpt lat="41.53575282318634" lon="12.568055434655383"><ele>24.0</ele><time>2026-04-06T09:15:54Z</time></trkpt><trkpt lat="41.535653955520196" lon="12.568091477340209"><ele>24.0</ele><time>2026-04-06T09:15:56Z</time></trkpt><trkpt lat="41.535589337078726" lon="12.568129223465235"><ele>24.0</ele><time>2026-04-06T09:15:59Z</time></trkpt><trkpt lat="41.53556389812555" lon="12.567982151771442"><ele>24.0</ele><time>2026-04-06T09:16:00Z</time></trkpt><trkpt lat="41.53552357949264" lon="12.567908546758652"><ele>24.0</ele><time>2026-04-06T09:16:01Z</time></trkpt><trkpt lat="41.53547476151132" lon="12.567758356264065"><ele>24.0</ele><time>2026-04-06T09:16:03Z</time></trkpt><trkpt lat="41.535414741838316" lon="12.567615836037557"><ele>23.999999999999996</ele><time>2026-04-06T09:16:05Z</time></trkpt><trkpt lat="41.53537574454548" lon="12.567544350977178"><ele>24.0</ele><time>2026-04-06T09:16:06Z</time></trkpt><trkpt lat="41.5353412373277" lon="12.567471565586912"><ele>24.0</ele><time>2026-04-06T09:16:07Z</time></trkpt><trkpt lat="41.53530760212617" lon="12.567399219132206"><ele>24.0</ele><time>2026-04-06T09:16:08Z</time></trkpt><trkpt lat="41.53527650759906" lon="12.567320611618374"><ele>24.0</ele><time>2026-04-06T09:16:09Z</time></trkpt><trkpt lat="41.53523472690388" lon="12.567232010102266"><ele>23.999999999999996</ele><time>2026-04-06T09:16:10Z</time></trkpt><trkpt lat="41.535187519429705" lon="12.56714570050004"><ele>24.0</ele><time>2026-04-06T09:16:11Z</time></trkpt><trkpt lat="41.53515307034055" lon="12.567068036800181"><ele>23.833333333333332</ele><time>2026-04-06T09:16:12Z</time></trkpt><trkpt lat="41.53512014580521" lon="12.566992655121881"><ele>23.666666666666668</ele><time>2026-04-06T09:16:13Z</time></trkpt><trkpt lat="41.5350895958712" lon="12.566909296315105"><ele>23.5</ele><time>2026-04-06T09:16:14Z</time></trkpt><trkpt lat="41.53505124913844" lon="12.566818037467257"><ele>23.333333333333336</ele><time>2026-04-06T09:16:15Z</time></trkpt><trkpt lat="41.53500837344767" lon="12.566728189813448"><ele>23.166666666666668</ele><time>2026-04-06T09:16:16Z</time></trkpt><trkpt lat="41.534959605677244" lon="12.566639351244023"><ele>23.0</ele><time>2026-04-06T09:16:17Z</time></trkpt><trkpt lat="41.534910705454045" lon="12.566541886955818"><ele>23.0</ele><time>2026-04-06T09:16:18Z</time></trkpt><trkpt lat="41.5348691713589" lon="12.566440959301165"><ele>23.0</ele><time>2026-04-06T09:16:19Z</time></trkpt><trkpt lat="41.53483199586422" lon="12.566353321563659"><ele>23.0</ele><time>2026-04-06T09:16:20Z</time></trkpt><trkpt lat="41.53479494454863" lon="12.566274105684924"><ele>23.0</ele><time>2026-04-06T09:16:21Z</time></trkpt><trkpt lat="41.534761192910935" lon="12.56620091275533"><ele>23.0</ele><time>2026-04-06T09:16:22Z</time></trkpt><trkpt lat="41.534725179227195" lon="12.566126445874643"><ele>23.0</ele><time>2026-04-06T09:16:23Z</time></trkpt><trkpt lat="41.534690305696024" lon="12.566047804391033"><ele>23.0</ele><time>2026-04-06T09:16:24Z</time></trkpt><trkpt lat="41.53465043733019" lon="12.565966986406577"><ele>22.833333333333336</ele><time>2026-04-06T09:16:25Z</time></trkpt><trkpt lat="41.534621710076834" lon="12.565863337301414"><ele>22.666666666666668</ele><time>2026-04-06T09:16:26Z</time></trkpt><trkpt lat="41.534566841949776" lon="12.565783232205407"><ele>22.5</ele><time>2026-04-06T09:16:27Z</time></trkpt><trkpt lat="41.53452476939342" lon="12.565688729391757"><ele>22.333333333333332</ele><time>2026-04-06T09:16:28Z</time></trkpt><trkpt lat="41.53448667535547" lon="12.56559787473244"><ele>22.166666666666664</ele><time>2026-04-06T09:16:29Z</time></trkpt><trkpt lat="41.534446979473714" lon="12.565512900266357"><ele>22.0</ele><time>2026-04-06T09:16:30Z</time></trkpt><trkpt lat="41.53440382398476" lon="12.565425251284594"><ele>21.666666666666664</ele><time>2026-04-06T09:16:31Z</time></trkpt><trkpt lat="41.53436381694031" lon="12.56533867824453"><ele>21.333333333333332</ele><time>2026-04-06T09:16:32Z</time></trkpt><trkpt lat="41.53433222064555" lon="12.565247585334127"><ele>21.0</ele><time>2026-04-06T09:16:33Z</time></trkpt><trkpt lat="41.53430276583456" lon="12.565159596228247"><ele>20.666666666666668</ele><time>2026-04-06T09:16:34Z</time></trkpt><trkpt lat="41.534270070851825" lon="12.565081959584116"><ele>20.333333333333336</ele><time>2026-04-06T09:16:35Z</time></trkpt><trkpt lat="41.53421890858989" lon="12.564977188418021"><ele>20.0</ele><time>2026-04-06T09:16:37Z</time></trkpt><trkpt lat="41.5341685898612" lon="12.564896680884456"><ele>20.0</ele><time>2026-04-06T09:16:47Z</time></trkpt><trkpt lat="41.53414145491305" lon="12.564810402556716"><ele>20.0</ele><time>2026-04-06T09:16:57Z</time></trkpt><trkpt lat="41.534039206975834" lon="12.564896832010733"><ele>20.0</ele><time>2026-04-06T09:16:58Z</time></trkpt><trkpt lat="41.53395019848265" lon="12.564972453876145"><ele>20.0</ele><time>2026-04-06T09:17:00Z</time></trkpt><trkpt lat="41.53386525839206" lon="12.565049072852442"><ele>20.0</ele><time>2026-04-06T09:17:02Z</time></trkpt><trkpt lat="41.533794110130565" lon="12.56511166117823"><ele>20.4</ele><time>2026-04-06T09:17:04Z</time></trkpt><trkpt lat="41.533700743841514" lon="12.565197633234323"><ele>20.8</ele><time>2026-04-06T09:17:06Z</time></trkpt><trkpt lat="41.533607037433136" lon="12.565291532390223"><ele>21.200000000000003</ele><time>2026-04-06T09:17:07Z</time></trkpt><trkpt lat="41.53351507926517" lon="12.565360944443375"><ele>21.6</ele><time>2026-04-06T09:17:08Z</time></trkpt><trkpt lat="41.53343842656972" lon="12.565412992148083"><ele>22.0</ele><time>2026-04-06T09:17:09Z</time></trkpt><trkpt lat="41.53337676292629" lon="12.565466862432313"><ele>22.0</ele><time>2026-04-06T09:17:10Z</time></trkpt><trkpt lat="41.5333220577648" lon="12.565518806679991"><ele>22.0</ele><time>2026-04-06T09:17:11Z</time></trkpt><trkpt lat="41.5332440300606" lon="12.56558387589797"><ele>22.0</ele><time>2026-04-06T09:17:13Z</time></trkpt><trkpt lat="41.53316582098925" lon="12.565642702492317"><ele>22.0</ele><time>2026-04-06T09:17:16Z</time></trkpt><trkpt lat="41.53310967277451" lon="12.565687573737572"><ele>22.0</ele><time>2026-04-06T09:17:18Z</time></trkpt><trkpt lat="41.53304434662236" lon="12.565752725696939"><ele>22.0</ele><time>2026-04-06T09:17:20Z</time></trkpt><trkpt lat="41.532950329366024" lon="12.565858867026558"><ele>21.833333333333332</ele><time>2026-04-06T09:17:22Z</time></trkpt><trkpt lat="41.53288606661452" lon="12.565921550190874"><ele>21.666666666666664</ele><time>2026-04-06T09:17:23Z</time></trkpt><trkpt lat="41.53282210685629" lon="12.565983900662234"><ele>21.5</ele><time>2026-04-06T09:17:24Z</time></trkpt><trkpt lat="41.5327613551806" lon="12.566037060891201"><ele>21.333333333333332</ele><time>2026-04-06T09:17:26Z</time></trkpt><trkpt lat="41.532690735740225" lon="12.566081751793778"><ele>21.166666666666668</ele><time>2026-04-06T09:17:32Z</time></trkpt><trkpt lat="41.53263184757984" lon="12.566139704364627"><ele>21.0</ele><time>2026-04-06T09:17:34Z</time></trkpt><trkpt lat="41.53254427984754" lon="12.566238692223616"><ele>21.0</ele><time>2026-04-06T09:17:36Z</time></trkpt><trkpt lat="41.53247544099931" lon="12.566309517320486"><ele>21.0</ele><time>2026-04-06T09:17:37Z</time></trkpt><trkpt lat="41.53240290668839" lon="12.566374593122614"><ele>21.0</ele><time>2026-04-06T09:17:38Z</time></trkpt><trkpt lat="41.532326822675444" lon="12.56644498847567"><ele>21.0</ele><time>2026-04-06T09:17:39Z</time></trkpt><trkpt lat="41.532246755358365" lon="12.566521181749122"><ele>21.0</ele><time>2026-04-06T09:17:40Z</time></trkpt><trkpt lat="41.532164470852145" lon="12.566601648803697"><ele>21.0</ele><time>2026-04-06T09:17:41Z</time></trkpt><trkpt lat="41.53207881833885" lon="12.566681528192778"><ele>21.0</ele><time>2026-04-06T09:17:42Z</time></trkpt><trkpt lat="41.53196367369994" lon="12.566788341763553"><ele>21.0</ele><time>2026-04-06T09:17:43Z</time></trkpt><trkpt lat="41.53182563116941" lon="12.566918428866384"><ele>21.0</ele><time>2026-04-06T09:17:44Z</time></trkpt><trkpt lat="41.53168359614225" lon="12.567050921028246"><ele>20.0</ele><time>2026-04-06T09:17:45Z</time></trkpt><trkpt lat="41.53152320989705" lon="12.56719740907728"><ele>19.0</ele><time>2026-04-06T09:17:46Z</time></trkpt><trkpt lat="41.53135285631475" lon="12.567358426155625"><ele>18.0</ele><time>2026-04-06T09:17:47Z</time></trkpt><trkpt lat="41.53117038078926" lon="12.567527056312647"><ele>19.333333333333332</ele><time>2026-04-06T09:17:48Z</time></trkpt><trkpt lat="41.531003251202" lon="12.567680352845203"><ele>20.666666666666664</ele><time>2026-04-06T09:17:49Z</time></trkpt><trkpt lat="41.53084768391742" lon="12.56782506186931"><ele>22.0</ele><time>2026-04-06T09:17:50Z</time></trkpt><trkpt lat="41.53070268980779" lon="12.567956612493717"><ele>22.0</ele><time>2026-04-06T09:17:51Z</time></trkpt><trkpt lat="41.53057025002371" lon="12.56807979510202"><ele>22.0</ele><time>2026-04-06T09:17:52Z</time></trkpt><trkpt lat="41.530440516522084" lon="12.568205360854265"><ele>22.0</ele><time>2026-04-06T09:17:53Z</time></trkpt><trkpt lat="41.530310590833636" lon="12.568323060403161"><ele>23.333333333333332</ele><time>2026-04-06T09:17:54Z</time></trkpt><trkpt lat="41.530183665267415" lon="12.568439136574494"><ele>24.666666666666664</ele><time>2026-04-06T09:17:55Z</time></trkpt><trkpt lat="41.53005759232268" lon="12.56855301071711"><ele>26.0</ele><time>2026-04-06T09:17:56Z</time></trkpt><trkpt lat="41.52992900810847" lon="12.56866998032991"><ele>26.0</ele><time>2026-04-06T09:17:57Z</time></trkpt><trkpt lat="41.52980306732154" lon="12.56878559104473"><ele>26.0</ele><time>2026-04-06T09:17:58Z</time></trkpt><trkpt lat="41.529681383550354" lon="12.568905193069211"><ele>26.0</ele><time>2026-04-06T09:17:59Z</time></trkpt><trkpt lat="41.529558762775245" lon="12.569018967657549"><ele>26.25</ele><time>2026-04-06T09:18:00Z</time></trkpt><trkpt lat="41.52942865959805" lon="12.56913331384517"><ele>26.5</ele><time>2026-04-06T09:18:01Z</time></trkpt><trkpt lat="41.52931095647378" lon="12.569242547755197"><ele>26.75</ele><time>2026-04-06T09:18:02Z</time></trkpt><trkpt lat="41.52920468593355" lon="12.569342364307007"><ele>27.0</ele><time>2026-04-06T09:18:03Z</time></trkpt><trkpt lat="41.529095531814306" lon="12.569444138231315"><ele>27.0</ele><time>2026-04-06T09:18:04Z</time></trkpt><trkpt lat="41.528976338444586" lon="12.56955295642447"><ele>27.0</ele><time>2026-04-06T09:18:05Z</time></trkpt><trkpt lat="41.52885013863178" lon="12.56966717922365"><ele>27.0</ele><time>2026-04-06T09:18:06Z</time></trkpt><trkpt lat="41.52871929533473" lon="12.569789732679597"><ele>27.0</ele><time>2026-04-06T09:18:07Z</time></trkpt><trkpt lat="41.52858671952059" lon="12.569905767130518"><ele>27.0</ele><time>2026-04-06T09:18:08Z</time></trkpt><trkpt lat="41.52845883368648" lon="12.570024312654555"><ele>27.0</ele><time>2026-04-06T09:18:09Z</time></trkpt><trkpt lat="41.52832717858054" lon="12.570139467176476"><ele>27.0</ele><time>2026-04-06T09:18:10Z</time></trkpt><trkpt lat="41.52819700182293" lon="12.570255357260192"><ele>27.0</ele><time>2026-04-06T09:18:11Z</time></trkpt><trkpt lat="41.52806758298888" lon="12.57037430341787"><ele>27.0</ele><time>2026-04-06T09:18:12Z</time></trkpt><trkpt lat="41.527936533688965" lon="12.57049239754574"><ele>26.666666666666664</ele><time>2026-04-06T09:18:13Z</time></trkpt><trkpt lat="41.527807282126474" lon="12.57061255049704"><ele>26.333333333333332</ele><time>2026-04-06T09:18:14Z</time></trkpt><trkpt lat="41.52767725938307" lon="12.570733116859659"><ele>26.0</ele><time>2026-04-06T09:18:15Z</time></trkpt><trkpt lat="41.527548397653845" lon="12.570853973310388"><ele>26.0</ele><time>2026-04-06T09:18:16Z</time></trkpt><trkpt lat="41.527420736514195" lon="12.570967326142885"><ele>26.0</ele><time>2026-04-06T09:18:17Z</time></trkpt><trkpt lat="41.527290743590264" lon="12.57109007961691"><ele>26.0</ele><time>2026-04-06T09:18:18Z</time></trkpt><trkpt lat="41.527145518817846" lon="12.57122492077326"><ele>25.666666666666664</ele><time>2026-04-06T09:18:19Z</time></trkpt><trkpt lat="41.52698498867601" lon="12.571370198707594"><ele>25.333333333333336</ele><time>2026-04-06T09:18:20Z</time></trkpt><trkpt lat="41.52681292827299" lon="12.57152324208775"><ele>25.0</ele><time>2026-04-06T09:18:21Z</time></trkpt><trkpt lat="41.526628553751564" lon="12.571688543684635"><ele>25.0</ele><time>2026-04-06T09:18:22Z</time></trkpt><trkpt lat="41.52644243423116" lon="12.571861806426002"><ele>25.0</ele><time>2026-04-06T09:18:23Z</time></trkpt><trkpt lat="41.52627506448289" lon="12.572018345219448"><ele>25.0</ele><time>2026-04-06T09:18:24Z</time></trkpt><trkpt lat="41.52611936460968" lon="12.572161772421047"><ele>24.666666666666668</ele><time>2026-04-06T09:18:25Z</time></trkpt><trkpt lat="41.525971821140374" lon="12.572297520322445"><ele>24.333333333333336</ele><time>2026-04-06T09:18:26Z</time></trkpt><trkpt lat="41.525842740279764" lon="12.572415193413931"><ele>24.0</ele><time>2026-04-06T09:18:27Z</time></trkpt><trkpt lat="41.525714066700836" lon="12.57253223836326"><ele>24.0</ele><time>2026-04-06T09:18:28Z</time></trkpt><trkpt lat="41.52558163211253" lon="12.57265920696062"><ele>24.0</ele><time>2026-04-06T09:18:29Z</time></trkpt><trkpt lat="41.52544746993186" lon="12.572785013622745"><ele>24.0</ele><time>2026-04-06T09:18:30Z</time></trkpt><trkpt lat="41.52530841069735" lon="12.572909848588129"><ele>24.666666666666664</ele><time>2026-04-06T09:18:31Z</time></trkpt><trkpt lat="41.525183219991504" lon="12.573024880764347"><ele>25.333333333333332</ele><time>2026-04-06T09:18:32Z</time></trkpt><trkpt lat="41.52505606801385" lon="12.573143296566734"><ele>26.0</ele><time>2026-04-06T09:18:33Z</time></trkpt><trkpt lat="41.52492127758517" lon="12.573271096784211"><ele>26.0</ele><time>2026-04-06T09:18:34Z</time></trkpt><trkpt lat="41.52478212520337" lon="12.573401162356461"><ele>26.0</ele><time>2026-04-06T09:18:35Z</time></trkpt><trkpt lat="41.52463983092673" lon="12.573525314921907"><ele>26.0</ele><time>2026-04-06T09:18:36Z</time></trkpt><trkpt lat="41.52449357183962" lon="12.573654081967142"><ele>26.5</ele><time>2026-04-06T09:18:37Z</time></trkpt><trkpt lat="41.52435773771713" lon="12.573779274894857"><ele>27.0</ele><time>2026-04-06T09:18:38Z</time></trkpt><trkpt lat="41.52424271156104" lon="12.573885286430155"><ele>27.5</ele><time>2026-04-06T09:18:39Z</time></trkpt><trkpt lat="41.52413963988977" lon="12.573976696486891"><ele>28.0</ele><time>2026-04-06T09:18:40Z</time></trkpt><trkpt lat="41.524044600993506" lon="12.57406251020545"><ele>28.0</ele><time>2026-04-06T09:18:41Z</time></trkpt><trkpt lat="41.52395477264302" lon="12.574144831151438"><ele>28.0</ele><time>2026-04-06T09:18:42Z</time></trkpt><trkpt lat="41.523873347489356" lon="12.57421851509641"><ele>28.0</ele><time>2026-04-06T09:18:43Z</time></trkpt><trkpt lat="41.523782272667425" lon="12.574302790692355"><ele>28.0</ele><time>2026-04-06T09:18:44Z</time></trkpt><trkpt lat="41.523670177618456" lon="12.574405078838367"><ele>27.5</ele><time>2026-04-06T09:18:45Z</time></trkpt><trkpt lat="41.52355415231537" lon="12.57450955656201"><ele>27.0</ele><time>2026-04-06T09:18:46Z</time></trkpt><trkpt lat="41.523445571708685" lon="12.574609539477125"><ele>26.5</ele><time>2026-04-06T09:18:47Z</time></trkpt><trkpt lat="41.52333767028785" lon="12.574708290158817"><ele>26.0</ele><time>2026-04-06T09:18:48Z</time></trkpt><trkpt lat="41.52323029898128" lon="12.574805445076283"><ele>26.0</ele><time>2026-04-06T09:18:49Z</time></trkpt><trkpt lat="41.523121221982166" lon="12.574904301479506"><ele>26.0</ele><time>2026-04-06T09:18:50Z</time></trkpt><trkpt lat="41.52301357857693" lon="12.575007455723592"><ele>26.0</ele><time>2026-04-06T09:18:51Z</time></trkpt><trkpt lat="41.522903074660086" lon="12.575109259585544"><ele>26.0</ele><time>2026-04-06T09:18:52Z</time></trkpt><trkpt lat="41.52279079377872" lon="12.575210735578498"><ele>26.25</ele><time>2026-04-06T09:18:53Z</time></trkpt><trkpt lat="41.52268057464999" lon="12.575311847037737"><ele>26.5</ele><time>2026-04-06T09:18:54Z</time></trkpt><trkpt lat="41.52257092015557" lon="12.575413115416607"><ele>26.75</ele><time>2026-04-06T09:18:55Z</time></trkpt><trkpt lat="41.5224620758557" lon="12.57551018729767"><ele>27.0</ele><time>2026-04-06T09:18:56Z</time></trkpt><trkpt lat="41.52235984079882" lon="12.575604980252164"><ele>27.25</ele><time>2026-04-06T09:18:57Z</time></trkpt><trkpt lat="41.52225627812626" lon="12.575701756028483"><ele>27.5</ele><time>2026-04-06T09:18:58Z</time></trkpt><trkpt lat="41.5221529743052" lon="12.575793654747448"><ele>27.75</ele><time>2026-04-06T09:18:59Z</time></trkpt><trkpt lat="41.522050378449876" lon="12.575885551120642"><ele>28.0</ele><time>2026-04-06T09:19:00Z</time></trkpt><trkpt lat="41.521946869123084" lon="12.575979670059436"><ele>28.0</ele><time>2026-04-06T09:19:01Z</time></trkpt><trkpt lat="41.52183967593406" lon="12.576076176108982"><ele>28.0</ele><time>2026-04-06T09:19:02Z</time></trkpt><trkpt lat="41.521729694601994" lon="12.576172859642996"><ele>28.0</ele><time>2026-04-06T09:19:03Z</time></trkpt><trkpt lat="41.521622876592346" lon="12.57627452735775"><ele>28.0</ele><time>2026-04-06T09:19:04Z</time></trkpt><trkpt lat="41.52151359860113" lon="12.576375630770693"><ele>27.75</ele><time>2026-04-06T09:19:05Z</time></trkpt><trkpt lat="41.52140241159443" lon="12.576478213463849"><ele>27.5</ele><time>2026-04-06T09:19:06Z</time></trkpt><trkpt lat="41.52129047604177" lon="12.576584490271363"><ele>27.25</ele><time>2026-04-06T09:19:07Z</time></trkpt><trkpt lat="41.52117398269472" lon="12.576693815592815"><ele>27.0</ele><time>2026-04-06T09:19:08Z</time></trkpt><trkpt lat="41.52105788311681" lon="12.576801791677394"><ele>27.0</ele><time>2026-04-06T09:19:09Z</time></trkpt><trkpt lat="41.520943179233065" lon="12.576905724743431"><ele>27.0</ele><time>2026-04-06T09:19:10Z</time></trkpt><trkpt lat="41.520828418526456" lon="12.577010253630965"><ele>27.0</ele><time>2026-04-06T09:19:11Z</time></trkpt><trkpt lat="41.520712252972054" lon="12.57711489688485"><ele>27.0</ele><time>2026-04-06T09:19:12Z</time></trkpt><trkpt lat="41.5206008545953" lon="12.577214866121011"><ele>26.5</ele><time>2026-04-06T09:19:13Z</time></trkpt><trkpt lat="41.52050133534041" lon="12.577305194087078"><ele>26.0</ele><time>2026-04-06T09:19:14Z</time></trkpt><trkpt lat="41.52039697371565" lon="12.577398979488562"><ele>25.5</ele><time>2026-04-06T09:19:15Z</time></trkpt><trkpt lat="41.52029122357995" lon="12.577497622467789"><ele>25.0</ele><time>2026-04-06T09:19:16Z</time></trkpt><trkpt lat="41.5201822126637" lon="12.577597691901286"><ele>24.0</ele><time>2026-04-06T09:19:17Z</time></trkpt><trkpt lat="41.520072497362456" lon="12.57769810666746"><ele>23.0</ele><time>2026-04-06T09:19:18Z</time></trkpt><trkpt lat="41.51995907967398" lon="12.577802542597238"><ele>22.0</ele><time>2026-04-06T09:19:19Z</time></trkpt><trkpt lat="41.51984274354284" lon="12.57791333441773"><ele>21.0</ele><time>2026-04-06T09:19:20Z</time></trkpt><trkpt lat="41.51972738698453" lon="12.578021866812273"><ele>21.0</ele><time>2026-04-06T09:19:21Z</time></trkpt><trkpt lat="41.51960862143792" lon="12.578130970468012"><ele>21.0</ele><time>2026-04-06T09:19:22Z</time></trkpt><trkpt lat="41.51948808679306" lon="12.57823818910623"><ele>21.0</ele><time>2026-04-06T09:19:23Z</time></trkpt><trkpt lat="41.51936624802993" lon="12.57834426835814"><ele>21.0</ele><time>2026-04-06T09:19:24Z</time></trkpt><trkpt lat="41.51924149219367" lon="12.578448039810844"><ele>20.333333333333332</ele><time>2026-04-06T09:19:25Z</time></trkpt><trkpt lat="41.51910736525994" lon="12.57854759039624"><ele>19.666666666666664</ele><time>2026-04-06T09:19:26Z</time></trkpt><trkpt lat="41.518971862953755" lon="12.578640027398015"><ele>19.0</ele><time>2026-04-06T09:19:27Z</time></trkpt><trkpt lat="41.51884064813831" lon="12.578722200234322"><ele>18.0</ele><time>2026-04-06T09:19:28Z</time></trkpt><trkpt lat="41.518700390836244" lon="12.578803894912598"><ele>17.0</ele><time>2026-04-06T09:19:29Z</time></trkpt><trkpt lat="41.51855984903915" lon="12.578886232529875"><ele>16.0</ele><time>2026-04-06T09:19:30Z</time></trkpt><trkpt lat="41.51841840391946" lon="12.578968954227484"><ele>16.0</ele><time>2026-04-06T09:19:31Z</time></trkpt><trkpt lat="41.51827565912766" lon="12.579052217520113"><ele>16.0</ele><time>2026-04-06T09:19:32Z</time></trkpt><trkpt lat="41.51814250056901" lon="12.579132862047208"><ele>16.0</ele><time>2026-04-06T09:19:33Z</time></trkpt><trkpt lat="41.518003897038916" lon="12.579215274167533"><ele>13.666666666666666</ele><time>2026-04-06T09:19:34Z</time></trkpt><trkpt lat="41.51786265167089" lon="12.579297482555477"><ele>11.333333333333332</ele><time>2026-04-06T09:19:35Z</time></trkpt><trkpt lat="41.51771929248481" lon="12.579378952055235"><ele>9.0</ele><time>2026-04-06T09:19:36Z</time></trkpt><trkpt lat="41.51757755609781" lon="12.57946069539259"><ele>8.666666666666666</ele><time>2026-04-06T09:19:37Z</time></trkpt><trkpt lat="41.517429963974564" lon="12.579547537107851"><ele>8.333333333333332</ele><time>2026-04-06T09:19:38Z</time></trkpt><trkpt lat="41.517280558882526" lon="12.579634308263685"><ele>8.0</ele><time>2026-04-06T09:19:39Z</time></trkpt><trkpt lat="41.51712858180827" lon="12.579721476786572"><ele>8.333333333333332</ele><time>2026-04-06T09:19:40Z</time></trkpt><trkpt lat="41.51697684350808" lon="12.57980825779248"><ele>8.666666666666666</ele><time>2026-04-06T09:19:41Z</time></trkpt><trkpt lat="41.516823195228646" lon="12.579896153415572"><ele>9.0</ele><time>2026-04-06T09:19:42Z</time></trkpt><trkpt lat="41.51667182565328" lon="12.579983072401534"><ele>9.0</ele><time>2026-04-06T09:19:43Z</time></trkpt><trkpt lat="41.51651819350086" lon="12.580071323556679"><ele>9.0</ele><time>2026-04-06T09:19:44Z</time></trkpt><trkpt lat="41.51636377934795" lon="12.580158645707986"><ele>9.0</ele><time>2026-04-06T09:19:45Z</time></trkpt><trkpt lat="41.516209890498416" lon="12.580242078359428"><ele>10.0</ele><time>2026-04-06T09:19:46Z</time></trkpt><trkpt lat="41.51605325702717" lon="12.580317977139998"><ele>11.0</ele><time>2026-04-06T09:19:47Z</time></trkpt><trkpt lat="41.51589457088158" lon="12.580382080288695"><ele>12.0</ele><time>2026-04-06T09:19:48Z</time></trkpt><trkpt lat="41.51573488985102" lon="12.580432012625023"><ele>14.333333333333332</ele><time>2026-04-06T09:19:49Z</time></trkpt><trkpt lat="41.51557716059952" lon="12.58047283306855"><ele>16.666666666666664</ele><time>2026-04-06T09:19:50Z</time></trkpt><trkpt lat="41.51542280299206" lon="12.58051057196598"><ele>19.0</ele><time>2026-04-06T09:19:51Z</time></trkpt><trkpt lat="41.51526794051813" lon="12.580539714827577"><ele>19.0</ele><time>2026-04-06T09:19:52Z</time></trkpt><trkpt lat="41.51511855195794" lon="12.58057395526385"><ele>19.0</ele><time>2026-04-06T09:19:53Z</time></trkpt><trkpt lat="41.51497222569199" lon="12.580606615931403"><ele>19.0</ele><time>2026-04-06T09:19:54Z</time></trkpt><trkpt lat="41.514831500339966" lon="12.580638482660481"><ele>19.0</ele><time>2026-04-06T09:19:55Z</time></trkpt><trkpt lat="41.51469946371345" lon="12.580668247483377"><ele>18.75</ele><time>2026-04-06T09:19:56Z</time></trkpt><trkpt lat="41.514569908482926" lon="12.58069577405213"><ele>18.5</ele><time>2026-04-06T09:19:57Z</time></trkpt><trkpt lat="41.514435424710605" lon="12.580724983226002"><ele>18.25</ele><time>2026-04-06T09:19:58Z</time></trkpt><trkpt lat="41.51429796930368" lon="12.580755931995025"><ele>18.0</ele><time>2026-04-06T09:19:59Z</time></trkpt><trkpt lat="41.51415053651842" lon="12.580788283540448"><ele>18.0</ele><time>2026-04-06T09:20:00Z</time></trkpt><trkpt lat="41.51400474527823" lon="12.58081980820257"><ele>18.0</ele><time>2026-04-06T09:20:01Z</time></trkpt><trkpt lat="41.513865698888914" lon="12.580851334670037"><ele>18.0</ele><time>2026-04-06T09:20:02Z</time></trkpt><trkpt lat="41.51374080330309" lon="12.580878204281372"><ele>18.0</ele><time>2026-04-06T09:20:03Z</time></trkpt><trkpt lat="41.51362658929071" lon="12.580904768245837"><ele>18.2</ele><time>2026-04-06T09:20:04Z</time></trkpt><trkpt lat="41.51351959537148" lon="12.580929276045648"><ele>18.4</ele><time>2026-04-06T09:20:05Z</time></trkpt><trkpt lat="41.51343470308936" lon="12.580949974535477"><ele>18.599999999999998</ele><time>2026-04-06T09:20:06Z</time></trkpt><trkpt lat="41.5133225910905" lon="12.58097538868893"><ele>18.8</ele><time>2026-04-06T09:20:08Z</time></trkpt><trkpt lat="41.513235965118454" lon="12.580992635410288"><ele>19.0</ele><time>2026-04-06T09:20:10Z</time></trkpt><trkpt lat="41.51310986275466" lon="12.581014105718296"><ele>19.0</ele><time>2026-04-06T09:20:12Z</time></trkpt><trkpt lat="41.51303421323204" lon="12.581028418487607"><ele>19.0</ele><time>2026-04-06T09:20:13Z</time></trkpt><trkpt lat="41.51295307674162" lon="12.581046175493329"><ele>19.0</ele><time>2026-04-06T09:20:14Z</time></trkpt><trkpt lat="41.51286800490804" lon="12.581066304502537"><ele>19.0</ele><time>2026-04-06T09:20:15Z</time></trkpt><trkpt lat="41.512779076275194" lon="12.581088091879648"><ele>19.0</ele><time>2026-04-06T09:20:16Z</time></trkpt><trkpt lat="41.512683753266714" lon="12.581112162035627"><ele>19.0</ele><time>2026-04-06T09:20:17Z</time></trkpt><trkpt lat="41.51258089501197" lon="12.581133932343956"><ele>19.0</ele><time>2026-04-06T09:20:18Z</time></trkpt><trkpt lat="41.51248088447566" lon="12.5811567808694"><ele>19.0</ele><time>2026-04-06T09:20:19Z</time></trkpt><trkpt lat="41.512376595220324" lon="12.581179240165728"><ele>19.0</ele><time>2026-04-06T09:20:20Z</time></trkpt><trkpt lat="41.51226874464068" lon="12.58119941239164"><ele>19.0</ele><time>2026-04-06T09:20:21Z</time></trkpt><trkpt lat="41.51216193975678" lon="12.581224904254917"><ele>19.0</ele><time>2026-04-06T09:20:22Z</time></trkpt><trkpt lat="41.512048108948676" lon="12.581250206436192"><ele>19.0</ele><time>2026-04-06T09:20:23Z</time></trkpt><trkpt lat="41.511929804257896" lon="12.581275155431701"><ele>19.0</ele><time>2026-04-06T09:20:24Z</time></trkpt><trkpt lat="41.51180912693658" lon="12.581300421916211"><ele>19.0</ele><time>2026-04-06T09:20:25Z</time></trkpt><trkpt lat="41.51168673896201" lon="12.581327833988412"><ele>19.0</ele><time>2026-04-06T09:20:26Z</time></trkpt><trkpt lat="41.51156176875905" lon="12.581355724903112"><ele>19.0</ele><time>2026-04-06T09:20:27Z</time></trkpt><trkpt lat="41.51143236016317" lon="12.581383750556327"><ele>19.0</ele><time>2026-04-06T09:20:28Z</time></trkpt><trkpt lat="41.51131004982931" lon="12.58141222054855"><ele>19.0</ele><time>2026-04-06T09:20:29Z</time></trkpt><trkpt lat="41.51119169464736" lon="12.581437745372902"><ele>19.0</ele><time>2026-04-06T09:20:30Z</time></trkpt><trkpt lat="41.51106684256172" lon="12.581463078778151"><ele>19.5</ele><time>2026-04-06T09:20:31Z</time></trkpt><trkpt lat="41.51094143851941" lon="12.581490917931186"><ele>20.0</ele><time>2026-04-06T09:20:32Z</time></trkpt><trkpt lat="41.51081274076856" lon="12.581519881250061"><ele>20.5</ele><time>2026-04-06T09:20:33Z</time></trkpt><trkpt lat="41.510684933825054" lon="12.58154798924054"><ele>21.0</ele><time>2026-04-06T09:20:34Z</time></trkpt><trkpt lat="41.51055501182289" lon="12.581576790651226"><ele>21.0</ele><time>2026-04-06T09:20:35Z</time></trkpt><trkpt lat="41.51042279081306" lon="12.581605042369914"><ele>21.0</ele><time>2026-04-06T09:20:36Z</time></trkpt><trkpt lat="41.51028873123541" lon="12.581634548144509"><ele>21.0</ele><time>2026-04-06T09:20:37Z</time></trkpt><trkpt lat="41.51015056196996" lon="12.581663581580361"><ele>21.0</ele><time>2026-04-06T09:20:38Z</time></trkpt><trkpt lat="41.51001318043428" lon="12.581693540340252"><ele>20.25</ele><time>2026-04-06T09:20:39Z</time></trkpt><trkpt lat="41.509877369485714" lon="12.581721861000817"><ele>19.5</ele><time>2026-04-06T09:20:40Z</time></trkpt><trkpt lat="41.50974037312611" lon="12.581750260480606"><ele>18.75</ele><time>2026-04-06T09:20:41Z</time></trkpt><trkpt lat="41.509604563565325" lon="12.58178174426505"><ele>18.0</ele><time>2026-04-06T09:20:42Z</time></trkpt><trkpt lat="41.509464685553574" lon="12.581812724789051"><ele>17.75</ele><time>2026-04-06T09:20:43Z</time></trkpt><trkpt lat="41.509326289068945" lon="12.581841352835358"><ele>17.5</ele><time>2026-04-06T09:20:44Z</time></trkpt><trkpt lat="41.50919836617108" lon="12.581864331662354"><ele>17.25</ele><time>2026-04-06T09:20:45Z</time></trkpt><trkpt lat="41.50906831320117" lon="12.581892481594101"><ele>17.0</ele><time>2026-04-06T09:20:46Z</time></trkpt><trkpt lat="41.50894094729019" lon="12.581924192598429"><ele>17.0</ele><time>2026-04-06T09:20:47Z</time></trkpt><trkpt lat="41.508816097031406" lon="12.581963486804925"><ele>17.0</ele><time>2026-04-06T09:20:48Z</time></trkpt><trkpt lat="41.5087033619088" lon="12.582007236458155"><ele>17.0</ele><time>2026-04-06T09:20:49Z</time></trkpt><trkpt lat="41.508600671531696" lon="12.582056067742512"><ele>17.0</ele><time>2026-04-06T09:20:50Z</time></trkpt><trkpt lat="41.5084961904241" lon="12.582115441693283"><ele>17.0</ele><time>2026-04-06T09:20:51Z</time></trkpt><trkpt lat="41.50839067336282" lon="12.58218414544453"><ele>17.0</ele><time>2026-04-06T09:20:52.001Z</time></trkpt><trkpt lat="41.50828999985813" lon="12.582254904320804"><ele>17.0</ele><time>2026-04-06T09:20:53.001Z</time></trkpt><trkpt lat="41.5081838918418" lon="12.582332369217914"><ele>17.0</ele><time>2026-04-06T09:20:54.001Z</time></trkpt><trkpt lat="41.50807809290841" lon="12.582410299413658"><ele>17.0</ele><time>2026-04-06T09:20:55.001Z</time></trkpt><trkpt lat="41.50796516530349" lon="12.582488997928978"><ele>17.0</ele><time>2026-04-06T09:20:56.001Z</time></trkpt><trkpt lat="41.50785145221819" lon="12.582569496906272"><ele>17.0</ele><time>2026-04-06T09:20:57.001Z</time></trkpt><trkpt lat="41.507735537620086" lon="12.582654821397846"><ele>17.0</ele><time>2026-04-06T09:20:58.001Z</time></trkpt><trkpt lat="41.50761804434711" lon="12.582743371522476"><ele>17.0</ele><time>2026-04-06T09:20:59.001Z</time></trkpt><trkpt lat="41.50749720111389" lon="12.582836544869467"><ele>17.0</ele><time>2026-04-06T09:21:00.001Z</time></trkpt><trkpt lat="41.507376321983074" lon="12.582929966510939"><ele>17.0</ele><time>2026-04-06T09:21:01.001Z</time></trkpt><trkpt lat="41.50725713522328" lon="12.583015593325925"><ele>17.0</ele><time>2026-04-06T09:21:02.001Z</time></trkpt><trkpt lat="41.507143217409705" lon="12.583095007903339"><ele>17.25</ele><time>2026-04-06T09:21:03.001Z</time></trkpt><trkpt lat="41.50703954492155" lon="12.583176704640463"><ele>17.5</ele><time>2026-04-06T09:21:04Z</time></trkpt><trkpt lat="41.506936207126905" lon="12.583257262963803"><ele>17.75</ele><time>2026-04-06T09:21:05Z</time></trkpt><trkpt lat="41.50683095240987" lon="12.583333828821168"><ele>18.0</ele><time>2026-04-06T09:21:06Z</time></trkpt><trkpt lat="41.50672709447721" lon="12.583411315221662"><ele>18.0</ele><time>2026-04-06T09:21:07Z</time></trkpt><trkpt lat="41.50662021839667" lon="12.583486596831879"><ele>18.0</ele><time>2026-04-06T09:21:08Z</time></trkpt><trkpt lat="41.506515055216575" lon="12.583559918584612"><ele>18.0</ele><time>2026-04-06T09:21:09Z</time></trkpt><trkpt lat="41.5064082773932" lon="12.58363480494953"><ele>18.0</ele><time>2026-04-06T09:21:10Z</time></trkpt><trkpt lat="41.50630243401383" lon="12.583711695953728"><ele>19.5</ele><time>2026-04-06T09:21:11Z</time></trkpt><trkpt lat="41.50619709486592" lon="12.583786820224011"><ele>21.0</ele><time>2026-04-06T09:21:12Z</time></trkpt><trkpt lat="41.50609250594679" lon="12.583865562497373"><ele>22.5</ele><time>2026-04-06T09:21:13Z</time></trkpt><trkpt lat="41.50598991690866" lon="12.583940936301124"><ele>24.0</ele><time>2026-04-06T09:21:14Z</time></trkpt><trkpt lat="41.505903978228" lon="12.584003909993152"><ele>24.0</ele><time>2026-04-06T09:21:15Z</time></trkpt><trkpt lat="41.50581506979057" lon="12.58407031775738"><ele>24.0</ele><time>2026-04-06T09:21:16Z</time></trkpt><trkpt lat="41.50572328694838" lon="12.584137739021799"><ele>24.0</ele><time>2026-04-06T09:21:17Z</time></trkpt><trkpt lat="41.5056300264214" lon="12.584205190146504"><ele>24.0</ele><time>2026-04-06T09:21:18Z</time></trkpt><trkpt lat="41.50553966955731" lon="12.58427110554853"><ele>24.0</ele><time>2026-04-06T09:21:19Z</time></trkpt><trkpt lat="41.50545287202029" lon="12.584332659754104"><ele>24.0</ele><time>2026-04-06T09:21:20Z</time></trkpt><trkpt lat="41.50536830344164" lon="12.584394795244698"><ele>24.0</ele><time>2026-04-06T09:21:21Z</time></trkpt><trkpt lat="41.50528277295944" lon="12.58445527881604"><ele>24.0</ele><time>2026-04-06T09:21:22Z</time></trkpt><trkpt lat="41.505193329090616" lon="12.584520610998227"><ele>24.0</ele><time>2026-04-06T09:21:23Z</time></trkpt><trkpt lat="41.50510248439779" lon="12.584586603021169"><ele>24.0</ele><time>2026-04-06T09:21:24Z</time></trkpt><trkpt lat="41.505012304178756" lon="12.584655234926098"><ele>24.0</ele><time>2026-04-06T09:21:25Z</time></trkpt><trkpt lat="41.504920508685245" lon="12.58472127723698"><ele>24.0</ele><time>2026-04-06T09:21:26Z</time></trkpt><trkpt lat="41.50483070513566" lon="12.584789294367821"><ele>24.0</ele><time>2026-04-06T09:21:27Z</time></trkpt><trkpt lat="41.504740849767074" lon="12.584857108997854"><ele>24.0</ele><time>2026-04-06T09:21:28Z</time></trkpt><trkpt lat="41.50465021098852" lon="12.584925532263805"><ele>24.0</ele><time>2026-04-06T09:21:29Z</time></trkpt><trkpt lat="41.50456034240028" lon="12.584991444952633"><ele>23.799999999999997</ele><time>2026-04-06T09:21:30Z</time></trkpt><trkpt lat="41.50446983197149" lon="12.58505688473719"><ele>23.599999999999998</ele><time>2026-04-06T09:21:31Z</time></trkpt><trkpt lat="41.50438253515347" lon="12.585122105365505"><ele>23.4</ele><time>2026-04-06T09:21:32Z</time></trkpt><trkpt lat="41.50429374224272" lon="12.585190368147115"><ele>23.2</ele><time>2026-04-06T09:21:33Z</time></trkpt><trkpt lat="41.50420104860719" lon="12.58525697445425"><ele>23.0</ele><time>2026-04-06T09:21:34Z</time></trkpt><trkpt lat="41.50412209137559" lon="12.585325208099507"><ele>23.333333333333336</ele><time>2026-04-06T09:21:35Z</time></trkpt><trkpt lat="41.50404166601945" lon="12.585380221563826"><ele>23.666666666666668</ele><time>2026-04-06T09:21:36Z</time></trkpt><trkpt lat="41.50397493336843" lon="12.58542964823437"><ele>24.0</ele><time>2026-04-06T09:21:37Z</time></trkpt><trkpt lat="41.50390821677547" lon="12.585479017105708"><ele>24.333333333333336</ele><time>2026-04-06T09:21:38Z</time></trkpt><trkpt lat="41.50383410303208" lon="12.585534133963439"><ele>24.666666666666668</ele><time>2026-04-06T09:21:39Z</time></trkpt><trkpt lat="41.50375603041164" lon="12.585591456612251"><ele>25.0</ele><time>2026-04-06T09:21:40Z</time></trkpt><trkpt lat="41.50367689570285" lon="12.585652553766876"><ele>25.2</ele><time>2026-04-06T09:21:41Z</time></trkpt><trkpt lat="41.50358905508426" lon="12.585715036911264"><ele>25.4</ele><time>2026-04-06T09:21:42Z</time></trkpt><trkpt lat="41.50349284499344" lon="12.585784742631608"><ele>25.6</ele><time>2026-04-06T09:21:43Z</time></trkpt><trkpt lat="41.50339899100095" lon="12.585855048124422"><ele>25.8</ele><time>2026-04-06T09:21:44Z</time></trkpt><trkpt lat="41.50331807400981" lon="12.58591535063632"><ele>26.0</ele><time>2026-04-06T09:21:45Z</time></trkpt><trkpt lat="41.50324753438386" lon="12.585969368046213"><ele>25.999999999999996</ele><time>2026-04-06T09:21:46Z</time></trkpt><trkpt lat="41.503178814535794" lon="12.58602027997673"><ele>26.0</ele><time>2026-04-06T09:21:47Z</time></trkpt><trkpt lat="41.5031068910392" lon="12.586069604251415"><ele>26.0</ele><time>2026-04-06T09:21:48Z</time></trkpt><trkpt lat="41.50303354942766" lon="12.586123341746914"><ele>26.0</ele><time>2026-04-06T09:21:49Z</time></trkpt><trkpt lat="41.502963257838495" lon="12.586174103580348"><ele>25.999999999999996</ele><time>2026-04-06T09:21:50Z</time></trkpt><trkpt lat="41.50289741580164" lon="12.586219490487316"><ele>26.0</ele><time>2026-04-06T09:21:51Z</time></trkpt><trkpt lat="41.50279592605239" lon="12.586246233413549"><ele>25.999999999999996</ele><time>2026-04-06T09:21:53Z</time></trkpt><trkpt lat="41.50272393489859" lon="12.58627196272493"><ele>26.0</ele><time>2026-04-06T09:22:09Z</time></trkpt><trkpt lat="41.502646167980984" lon="12.586329496749949"><ele>26.0</ele><time>2026-04-06T09:22:11Z</time></trkpt><trkpt lat="41.50261798940096" lon="12.586434141281154"><ele>26.0</ele><time>2026-04-06T09:22:19Z</time></trkpt><trkpt lat="41.50256055150694" lon="12.586481992513797"><ele>25.999999999999996</ele><time>2026-04-06T09:22:21Z</time></trkpt><trkpt lat="41.50248598020528" lon="12.586527288990263"><ele>26.0</ele><time>2026-04-06T09:22:23Z</time></trkpt><trkpt lat="41.50242876363928" lon="12.586564127120846"><ele>25.999999999999996</ele><time>2026-04-06T09:22:24Z</time></trkpt><trkpt lat="41.502369567504516" lon="12.586606242981894"><ele>26.0</ele><time>2026-04-06T09:22:25Z</time></trkpt><trkpt lat="41.50229154786736" lon="12.58666272090379"><ele>26.0</ele><time>2026-04-06T09:22:27Z</time></trkpt><trkpt lat="41.50222596625338" lon="12.58671109645334"><ele>26.0</ele><time>2026-04-06T09:22:29Z</time></trkpt><trkpt lat="41.50213465422923" lon="12.58678140178228"><ele>25.999999999999996</ele><time>2026-04-06T09:22:31Z</time></trkpt><trkpt lat="41.50207727335457" lon="12.586827312047312"><ele>26.0</ele><time>2026-04-06T09:22:32Z</time></trkpt><trkpt lat="41.50201415477705" lon="12.586872927336616"><ele>26.333333333333332</ele><time>2026-04-06T09:22:33Z</time></trkpt><trkpt lat="41.5019012373109" lon="12.586951406804323"><ele>26.666666666666664</ele><time>2026-04-06T09:22:35Z</time></trkpt><trkpt lat="41.501842076690565" lon="12.586994104037363"><ele>27.0</ele><time>2026-04-06T09:22:36Z</time></trkpt><trkpt lat="41.50178388191294" lon="12.587041126042482"><ele>27.333333333333336</ele><time>2026-04-06T09:22:37Z</time></trkpt><trkpt lat="41.50168140361721" lon="12.587122069328158"><ele>27.666666666666668</ele><time>2026-04-06T09:22:39Z</time></trkpt><trkpt lat="41.50162365311987" lon="12.5871683682589"><ele>28.0</ele><time>2026-04-06T09:22:40Z</time></trkpt><trkpt lat="41.50155739597186" lon="12.58721830392992"><ele>28.000000000000004</ele><time>2026-04-06T09:22:41Z</time></trkpt><trkpt lat="41.50148627579174" lon="12.587272706494797"><ele>28.0</ele><time>2026-04-06T09:22:42Z</time></trkpt><trkpt lat="41.50141476338771" lon="12.587325790717818"><ele>28.0</ele><time>2026-04-06T09:22:43Z</time></trkpt><trkpt lat="41.50134384307266" lon="12.587376763677321"><ele>28.0</ele><time>2026-04-06T09:22:44Z</time></trkpt><trkpt lat="41.50127002915117" lon="12.587430939346525"><ele>28.000000000000004</ele><time>2026-04-06T09:22:45Z</time></trkpt><trkpt lat="41.50118828966398" lon="12.587494736620734"><ele>28.0</ele><time>2026-04-06T09:22:46Z</time></trkpt><trkpt lat="41.501101039290035" lon="12.587562259438418"><ele>28.0</ele><time>2026-04-06T09:22:47Z</time></trkpt><trkpt lat="41.50101675831295" lon="12.587625305066908"><ele>27.999999999999996</ele><time>2026-04-06T09:22:48Z</time></trkpt><trkpt lat="41.50092259447913" lon="12.587692797606346"><ele>27.999999999999996</ele><time>2026-04-06T09:22:49Z</time></trkpt><trkpt lat="41.50083592392865" lon="12.587764785876141"><ele>28.0</ele><time>2026-04-06T09:22:50Z</time></trkpt><trkpt lat="41.50074594363773" lon="12.587836266543768"><ele>28.0</ele><time>2026-04-06T09:22:51Z</time></trkpt><trkpt lat="41.50065436520477" lon="12.587907719427566"><ele>28.000000000000004</ele><time>2026-04-06T09:22:52Z</time></trkpt><trkpt lat="41.50057242308073" lon="12.587981377536408"><ele>28.0</ele><time>2026-04-06T09:22:53Z</time></trkpt><trkpt lat="41.5004985499022" lon="12.588050337201828"><ele>28.0</ele><time>2026-04-06T09:22:54Z</time></trkpt><trkpt lat="41.50042921056035" lon="12.588109428659925"><ele>28.0</ele><time>2026-04-06T09:22:55Z</time></trkpt><trkpt lat="41.500356702465254" lon="12.588169427918519"><ele>28.000000000000004</ele><time>2026-04-06T09:22:56Z</time></trkpt><trkpt lat="41.50029185450621" lon="12.588218708404671"><ele>28.0</ele><time>2026-04-06T09:22:57Z</time></trkpt><trkpt lat="41.50023505100721" lon="12.58826297566175"><ele>28.0</ele><time>2026-04-06T09:22:58Z</time></trkpt><trkpt lat="41.500141728429384" lon="12.588347612318053"><ele>27.999999999999996</ele><time>2026-04-06T09:23:00Z</time></trkpt><trkpt lat="41.50006485364961" lon="12.588400671889039"><ele>27.999999999999996</ele><time>2026-04-06T09:23:02Z</time></trkpt><trkpt lat="41.50000628442385" lon="12.58844140634444"><ele>28.0</ele><time>2026-04-06T09:23:04Z</time></trkpt><trkpt lat="41.499944118325615" lon="12.588497092119407"><ele>28.0</ele><time>2026-04-06T09:23:07Z</time></trkpt><trkpt lat="41.499849148530906" lon="12.588576098100067"><ele>28.0</ele><time>2026-04-06T09:23:25Z</time></trkpt><trkpt lat="41.499739822780704" lon="12.588664703811673"><ele>27.999999999999996</ele><time>2026-04-06T09:23:27Z</time></trkpt><trkpt lat="41.49967192759279" lon="12.588717518529016"><ele>27.999999999999996</ele><time>2026-04-06T09:23:28Z</time></trkpt><trkpt lat="41.49961286055165" lon="12.588762160159826"><ele>28.0</ele><time>2026-04-06T09:23:29Z</time></trkpt><trkpt lat="41.499521154488946" lon="12.588809248055462"><ele>28.0</ele><time>2026-04-06T09:23:31Z</time></trkpt><trkpt lat="41.499430659294326" lon="12.588791524445002"><ele>28.166666666666668</ele><time>2026-04-06T09:23:33Z</time></trkpt><trkpt lat="41.499349018522025" lon="12.588773776831864"><ele>28.333333333333336</ele><time>2026-04-06T09:23:35Z</time></trkpt><trkpt lat="41.49926598718543" lon="12.588823581360208"><ele>28.5</ele><time>2026-04-06T09:23:37Z</time></trkpt><trkpt lat="41.49919166280571" lon="12.588915144578463"><ele>28.666666666666664</ele><time>2026-04-06T09:23:40Z</time></trkpt><trkpt lat="41.49923774926814" lon="12.588983084017201"><ele>28.833333333333332</ele><time>2026-04-06T09:23:43Z</time></trkpt><trkpt lat="41.49917055758966" lon="12.588988938838689"><ele>29.0</ele><time>2026-04-06T09:27:08Z</time></trkpt><trkpt lat="41.499168263778586" lon="12.589077690490763"><ele>28.999999999999996</ele><time>2026-04-06T09:27:09Z</time></trkpt><trkpt lat="41.4992049520259" lon="12.589159239496482"><ele>29.0</ele><time>2026-04-06T09:27:30Z</time></trkpt><trkpt lat="41.49910191601813" lon="12.589228336934394"><ele>29.0</ele><time>2026-04-06T09:27:31Z</time></trkpt><trkpt lat="41.4990537899418" lon="12.589285501016978"><ele>29.0</ele><time>2026-04-06T09:27:32Z</time></trkpt><trkpt lat="41.498991573036946" lon="12.589333324758876"><ele>28.999999999999996</ele><time>2026-04-06T09:27:33Z</time></trkpt><trkpt lat="41.49892319809532" lon="12.58939024299577"><ele>29.0</ele><time>2026-04-06T09:27:34Z</time></trkpt><trkpt lat="41.49885061765392" lon="12.589454158040406"><ele>29.2</ele><time>2026-04-06T09:27:35Z</time></trkpt><trkpt lat="41.49877416310171" lon="12.589525329287236"><ele>29.4</ele><time>2026-04-06T09:27:36Z</time></trkpt><trkpt lat="41.498691082345324" lon="12.589594421367961"><ele>29.6</ele><time>2026-04-06T09:27:37Z</time></trkpt><trkpt lat="41.49860572392689" lon="12.589664699944409"><ele>29.8</ele><time>2026-04-06T09:27:38Z</time></trkpt><trkpt lat="41.49852031881747" lon="12.589737700874522"><ele>30.0</ele><time>2026-04-06T09:27:39Z</time></trkpt><trkpt lat="41.49843587430473" lon="12.589809386887886"><ele>30.0</ele><time>2026-04-06T09:27:40Z</time></trkpt><trkpt lat="41.49836163524893" lon="12.589871900992678"><ele>30.0</ele><time>2026-04-06T09:27:41Z</time></trkpt><trkpt lat="41.498286922000084" lon="12.589933067168829"><ele>30.0</ele><time>2026-04-06T09:27:42Z</time></trkpt><trkpt lat="41.49821318366603" lon="12.589996797017971"><ele>30.0</ele><time>2026-04-06T09:27:43Z</time></trkpt><trkpt lat="41.498136798159706" lon="12.590062923556289"><ele>30.0</ele><time>2026-04-06T09:27:44Z</time></trkpt><trkpt lat="41.4980553801371" lon="12.590128052791435"><ele>30.0</ele><time>2026-04-06T09:27:45Z</time></trkpt><trkpt lat="41.49797399374483" lon="12.590193473969116"><ele>30.0</ele><time>2026-04-06T09:27:46Z</time></trkpt><trkpt lat="41.497891779248334" lon="12.590262238460218"><ele>30.0</ele><time>2026-04-06T09:27:47Z</time></trkpt><trkpt lat="41.49781047545365" lon="12.590329299795492"><ele>30.0</ele><time>2026-04-06T09:27:48Z</time></trkpt><trkpt lat="41.49772354140538" lon="12.59039885736992"><ele>30.0</ele><time>2026-04-06T09:27:49Z</time></trkpt><trkpt lat="41.49763249237204" lon="12.590473916694261"><ele>30.0</ele><time>2026-04-06T09:27:50Z</time></trkpt><trkpt lat="41.497540203505395" lon="12.590549744077423"><ele>30.0</ele><time>2026-04-06T09:27:51Z</time></trkpt><trkpt lat="41.49744546087164" lon="12.59062652624111"><ele>30.0</ele><time>2026-04-06T09:27:52Z</time></trkpt><trkpt lat="41.4973613887849" lon="12.59069990733435"><ele>30.0</ele><time>2026-04-06T09:27:53Z</time></trkpt><trkpt lat="41.497280505235686" lon="12.590770693305394"><ele>30.0</ele><time>2026-04-06T09:27:54Z</time></trkpt><trkpt lat="41.49719464857642" lon="12.590842548239706"><ele>30.0</ele><time>2026-04-06T09:27:55Z</time></trkpt><trkpt lat="41.49710926162643" lon="12.590914137064365"><ele>30.0</ele><time>2026-04-06T09:27:56Z</time></trkpt><trkpt lat="41.49702541372408" lon="12.590985193189862"><ele>30.0</ele><time>2026-04-06T09:27:57Z</time></trkpt><trkpt lat="41.496941524773945" lon="12.591051169549111"><ele>30.0</ele><time>2026-04-06T09:27:58Z</time></trkpt><trkpt lat="41.49684028270926" lon="12.591127646282414"><ele>30.0</ele><time>2026-04-06T09:27:59Z</time></trkpt><trkpt lat="41.49673667144379" lon="12.59121513419043"><ele>30.0</ele><time>2026-04-06T09:28:00Z</time></trkpt><trkpt lat="41.49663485661155" lon="12.591302980186088"><ele>30.4</ele><time>2026-04-06T09:28:01Z</time></trkpt><trkpt lat="41.49653061656143" lon="12.59139149264356"><ele>30.8</ele><time>2026-04-06T09:28:02Z</time></trkpt><trkpt lat="41.49643781420954" lon="12.591471357496303"><ele>31.200000000000003</ele><time>2026-04-06T09:28:03Z</time></trkpt><trkpt lat="41.49635211226669" lon="12.591541217465256"><ele>31.6</ele><time>2026-04-06T09:28:04Z</time></trkpt><trkpt lat="41.496261767040274" lon="12.591616181352505"><ele>32.0</ele><time>2026-04-06T09:28:05Z</time></trkpt><trkpt lat="41.49616999168252" lon="12.591695341317749"><ele>32.0</ele><time>2026-04-06T09:28:06Z</time></trkpt><trkpt lat="41.496086635564325" lon="12.591763961335033"><ele>32.0</ele><time>2026-04-06T09:28:07Z</time></trkpt><trkpt lat="41.49600832357057" lon="12.591828057865888"><ele>32.0</ele><time>2026-04-06T09:28:08Z</time></trkpt><trkpt lat="41.49592611632894" lon="12.591899818038932"><ele>32.0</ele><time>2026-04-06T09:28:09Z</time></trkpt><trkpt lat="41.49584028761203" lon="12.591966321944268"><ele>32.0</ele><time>2026-04-06T09:28:10Z</time></trkpt><trkpt lat="41.49575396812348" lon="12.592036402314337"><ele>32.2</ele><time>2026-04-06T09:28:11Z</time></trkpt><trkpt lat="41.49566946233789" lon="12.592105121950809"><ele>32.400000000000006</ele><time>2026-04-06T09:28:12Z</time></trkpt><trkpt lat="41.495585831024854" lon="12.592179058333473"><ele>32.599999999999994</ele><time>2026-04-06T09:28:13Z</time></trkpt><trkpt lat="41.495496444204086" lon="12.592255419361853"><ele>32.8</ele><time>2026-04-06T09:28:14Z</time></trkpt><trkpt lat="41.49540556915065" lon="12.592318923848213"><ele>33.0</ele><time>2026-04-06T09:28:15Z</time></trkpt><trkpt lat="41.49533196586675" lon="12.592363634459605"><ele>33.0</ele><time>2026-04-06T09:28:16Z</time></trkpt><trkpt lat="41.49525364722211" lon="12.592420313111381"><ele>33.0</ele><time>2026-04-06T09:28:18Z</time></trkpt><trkpt lat="41.49517413186574" lon="12.592500026316976"><ele>33.0</ele><time>2026-04-06T09:28:52Z</time></trkpt><trkpt lat="41.495060144782165" lon="12.59260535802532"><ele>33.0</ele><time>2026-04-06T09:28:54Z</time></trkpt><trkpt lat="41.49497997627881" lon="12.592678507421969"><ele>33.0</ele><time>2026-04-06T09:28:55Z</time></trkpt><trkpt lat="41.494894792510216" lon="12.592752250228934"><ele>33.0</ele><time>2026-04-06T09:28:56Z</time></trkpt><trkpt lat="41.49480452417598" lon="12.592827290713217"><ele>33.0</ele><time>2026-04-06T09:28:57Z</time></trkpt><trkpt lat="41.49471071683825" lon="12.592906830270499"><ele>33.0</ele><time>2026-04-06T09:28:58Z</time></trkpt><trkpt lat="41.49461043246831" lon="12.59298831110563"><ele>33.0</ele><time>2026-04-06T09:28:59Z</time></trkpt><trkpt lat="41.49450742168021" lon="12.593073074812052"><ele>32.5</ele><time>2026-04-06T09:29:00Z</time></trkpt><trkpt lat="41.49439952158209" lon="12.593164171145958"><ele>32.0</ele><time>2026-04-06T09:29:01Z</time></trkpt><trkpt lat="41.49428881370708" lon="12.593258230044905"><ele>31.5</ele><time>2026-04-06T09:29:02Z</time></trkpt><trkpt lat="41.49417356500879" lon="12.593353796067271"><ele>31.0</ele><time>2026-04-06T09:29:03Z</time></trkpt><trkpt lat="41.49405639181603" lon="12.593450516414848"><ele>31.0</ele><time>2026-04-06T09:29:04Z</time></trkpt><trkpt lat="41.493937660651895" lon="12.593552796610798"><ele>31.0</ele><time>2026-04-06T09:29:05Z</time></trkpt><trkpt lat="41.49381810719982" lon="12.593655641205762"><ele>31.0</ele><time>2026-04-06T09:29:05.999Z</time></trkpt><trkpt lat="41.49370663796968" lon="12.593750654300628"><ele>31.0</ele><time>2026-04-06T09:29:06.999Z</time></trkpt><trkpt lat="41.49359811931236" lon="12.593842501422165"><ele>30.25</ele><time>2026-04-06T09:29:07.999Z</time></trkpt><trkpt lat="41.4934873469442" lon="12.59393372467408"><ele>29.5</ele><time>2026-04-06T09:29:08.999Z</time></trkpt><trkpt lat="41.49337661678713" lon="12.594027973207629"><ele>28.75</ele><time>2026-04-06T09:29:09.999Z</time></trkpt><trkpt lat="41.493265025216786" lon="12.594119959757"><ele>28.0</ele><time>2026-04-06T09:29:10.999Z</time></trkpt><trkpt lat="41.49315186544233" lon="12.594213655758114"><ele>28.0</ele><time>2026-04-06T09:29:11.999Z</time></trkpt><trkpt lat="41.49303818625998" lon="12.594304307052063"><ele>28.0</ele><time>2026-04-06T09:29:12.999Z</time></trkpt><trkpt lat="41.4929265412379" lon="12.59439827317378"><ele>28.0</ele><time>2026-04-06T09:29:13.999Z</time></trkpt><trkpt lat="41.492814547068434" lon="12.59449285025771"><ele>28.0</ele><time>2026-04-06T09:29:14.999Z</time></trkpt><trkpt lat="41.492702951076204" lon="12.594585792422121"><ele>27.75</ele><time>2026-04-06T09:29:16Z</time></trkpt><trkpt lat="41.492591936463555" lon="12.594676615810522"><ele>27.5</ele><time>2026-04-06T09:29:17Z</time></trkpt><trkpt lat="41.492482081422864" lon="12.594767280303635"><ele>27.25</ele><time>2026-04-06T09:29:18Z</time></trkpt><trkpt lat="41.492375347964185" lon="12.594858875285457"><ele>27.0</ele><time>2026-04-06T09:29:19Z</time></trkpt><trkpt lat="41.492266674646274" lon="12.594947325987023"><ele>27.0</ele><time>2026-04-06T09:29:20Z</time></trkpt><trkpt lat="41.49215786214377" lon="12.59503616005121"><ele>27.0</ele><time>2026-04-06T09:29:21Z</time></trkpt><trkpt lat="41.49205061444895" lon="12.595124880234232"><ele>27.0</ele><time>2026-04-06T09:29:22Z</time></trkpt><trkpt lat="41.49194386935263" lon="12.595214760308876"><ele>27.0</ele><time>2026-04-06T09:29:23Z</time></trkpt><trkpt lat="41.49183973680479" lon="12.59530354896436"><ele>27.0</ele><time>2026-04-06T09:29:24Z</time></trkpt><trkpt lat="41.49173518299338" lon="12.595389217444929"><ele>27.0</ele><time>2026-04-06T09:29:25Z</time></trkpt><trkpt lat="41.49163161261423" lon="12.595475281585925"><ele>27.0</ele><time>2026-04-06T09:29:26Z</time></trkpt><trkpt lat="41.49152905260969" lon="12.59555840989152"><ele>27.0</ele><time>2026-04-06T09:29:27Z</time></trkpt><trkpt lat="41.49142689063284" lon="12.595644269218836"><ele>27.0</ele><time>2026-04-06T09:29:28Z</time></trkpt><trkpt lat="41.49132282401849" lon="12.595730543290193"><ele>27.0</ele><time>2026-04-06T09:29:29Z</time></trkpt><trkpt lat="41.49121835174108" lon="12.5958202647117"><ele>27.0</ele><time>2026-04-06T09:29:30Z</time></trkpt><trkpt lat="41.49111193927545" lon="12.595910648860304"><ele>27.0</ele><time>2026-04-06T09:29:31Z</time></trkpt><trkpt lat="41.491006846518985" lon="12.595999832878018"><ele>27.5</ele><time>2026-04-06T09:29:32Z</time></trkpt><trkpt lat="41.49090121970924" lon="12.596088788270642"><ele>28.0</ele><time>2026-04-06T09:29:33Z</time></trkpt><trkpt lat="41.490798018479346" lon="12.596174476735198"><ele>28.5</ele><time>2026-04-06T09:29:34Z</time></trkpt><trkpt lat="41.49070373718406" lon="12.596253629080993"><ele>29.0</ele><time>2026-04-06T09:29:35Z</time></trkpt><trkpt lat="41.49061543372443" lon="12.596324906961584"><ele>28.999999999999996</ele><time>2026-04-06T09:29:36Z</time></trkpt><trkpt lat="41.49053090523014" lon="12.596391067495338"><ele>29.0</ele><time>2026-04-06T09:29:37Z</time></trkpt><trkpt lat="41.490457512275654" lon="12.596447892570799"><ele>29.0</ele><time>2026-04-06T09:29:38Z</time></trkpt><trkpt lat="41.490394098676816" lon="12.596502443150735"><ele>29.0</ele><time>2026-04-06T09:29:39Z</time></trkpt><trkpt lat="41.49033999876283" lon="12.596547621969883"><ele>28.999999999999996</ele><time>2026-04-06T09:29:40Z</time></trkpt><trkpt lat="41.49027004250699" lon="12.596607665438139"><ele>29.0</ele><time>2026-04-06T09:29:42Z</time></trkpt><trkpt lat="41.490196978870514" lon="12.596669957327546"><ele>29.0</ele><time>2026-04-06T09:29:45Z</time></trkpt><trkpt lat="41.490115349857575" lon="12.596739700597617"><ele>29.0</ele><time>2026-04-06T09:29:47Z</time></trkpt><trkpt lat="41.49000228809947" lon="12.596839397020927"><ele>29.0</ele><time>2026-04-06T09:29:49Z</time></trkpt><trkpt lat="41.48992997172461" lon="12.596897623842985"><ele>29.0</ele><time>2026-04-06T09:29:50Z</time></trkpt><trkpt lat="41.489854822312815" lon="12.59696425333981"><ele>29.0</ele><time>2026-04-06T09:29:51Z</time></trkpt><trkpt lat="41.48977547398066" lon="12.59703306774219"><ele>29.0</ele><time>2026-04-06T09:29:52Z</time></trkpt><trkpt lat="41.48969074138447" lon="12.597101396845003"><ele>29.0</ele><time>2026-04-06T09:29:53Z</time></trkpt><trkpt lat="41.489601432444175" lon="12.597173025859112"><ele>29.0</ele><time>2026-04-06T09:29:54Z</time></trkpt><trkpt lat="41.48951192967545" lon="12.597250421693667"><ele>29.0</ele><time>2026-04-06T09:29:55Z</time></trkpt><trkpt lat="41.48941721222846" lon="12.597328100349227"><ele>29.0</ele><time>2026-04-06T09:29:56Z</time></trkpt><trkpt lat="41.48932192969891" lon="12.597407661794968"><ele>30.0</ele><time>2026-04-06T09:29:57Z</time></trkpt><trkpt lat="41.489224998261335" lon="12.597487576145046"><ele>31.0</ele><time>2026-04-06T09:29:58Z</time></trkpt><trkpt lat="41.48912715465617" lon="12.597572077264791"><ele>32.0</ele><time>2026-04-06T09:29:59Z</time></trkpt><trkpt lat="41.48902484278458" lon="12.597655099395727"><ele>33.0</ele><time>2026-04-06T09:30:00Z</time></trkpt><trkpt lat="41.48891990329353" lon="12.597738841352271"><ele>33.0</ele><time>2026-04-06T09:30:01Z</time></trkpt><trkpt lat="41.48881300541229" lon="12.597828852103335"><ele>33.0</ele><time>2026-04-06T09:30:02Z</time></trkpt><trkpt lat="41.488703786467156" lon="12.597920320680489"><ele>33.0</ele><time>2026-04-06T09:30:03Z</time></trkpt><trkpt lat="41.48859466781929" lon="12.598013427771326"><ele>33.0</ele><time>2026-04-06T09:30:04Z</time></trkpt><trkpt lat="41.488481131231005" lon="12.598110651019722"><ele>33.25</ele><time>2026-04-06T09:30:05Z</time></trkpt><trkpt lat="41.48835574407529" lon="12.598216348403104"><ele>33.5</ele><time>2026-04-06T09:30:06Z</time></trkpt><trkpt lat="41.488235691077485" lon="12.598320659907824"><ele>33.75</ele><time>2026-04-06T09:30:07Z</time></trkpt><trkpt lat="41.48811154615507" lon="12.598426275579055"><ele>34.0</ele><time>2026-04-06T09:30:08Z</time></trkpt><trkpt lat="41.48798799374706" lon="12.59853174924507"><ele>34.25</ele><time>2026-04-06T09:30:09Z</time></trkpt><trkpt lat="41.48786383538169" lon="12.598638332236858"><ele>34.5</ele><time>2026-04-06T09:30:10Z</time></trkpt><trkpt lat="41.487737339629255" lon="12.598744610031519"><ele>34.75</ele><time>2026-04-06T09:30:11Z</time></trkpt><trkpt lat="41.48761610524712" lon="12.598846478367824"><ele>35.0</ele><time>2026-04-06T09:30:12Z</time></trkpt><trkpt lat="41.4874980435891" lon="12.598940918888374"><ele>34.75</ele><time>2026-04-06T09:30:13Z</time></trkpt><trkpt lat="41.48738887367618" lon="12.599029453955698"><ele>34.5</ele><time>2026-04-06T09:30:14Z</time></trkpt><trkpt lat="41.48727153156476" lon="12.599122725071293"><ele>34.25</ele><time>2026-04-06T09:30:15Z</time></trkpt><trkpt lat="41.487157390868525" lon="12.599213886991963"><ele>34.0</ele><time>2026-04-06T09:30:16Z</time></trkpt><trkpt lat="41.487050600890754" lon="12.599300516410176"><ele>34.0</ele><time>2026-04-06T09:30:17Z</time></trkpt><trkpt lat="41.48695217131144" lon="12.599383757087079"><ele>34.0</ele><time>2026-04-06T09:30:18Z</time></trkpt><trkpt lat="41.486862616924086" lon="12.599455339366562"><ele>34.0</ele><time>2026-04-06T09:30:19Z</time></trkpt><trkpt lat="41.48675581577265" lon="12.599534409616219"><ele>34.0</ele><time>2026-04-06T09:30:20Z</time></trkpt><trkpt lat="41.486625171961734" lon="12.59963444093014"><ele>34.0</ele><time>2026-04-06T09:30:21Z</time></trkpt><trkpt lat="41.4865074207593" lon="12.599748788871247"><ele>34.0</ele><time>2026-04-06T09:30:22Z</time></trkpt><trkpt lat="41.486390875197976" lon="12.599845841317485"><ele>34.0</ele><time>2026-04-06T09:30:23Z</time></trkpt><trkpt lat="41.486286330381354" lon="12.599934177435458"><ele>34.0</ele><time>2026-04-06T09:30:24Z</time></trkpt><trkpt lat="41.48618192892063" lon="12.600022244454946"><ele>34.2</ele><time>2026-04-06T09:30:25Z</time></trkpt><trkpt lat="41.48608898100679" lon="12.600101669345417"><ele>34.4</ele><time>2026-04-06T09:30:26Z</time></trkpt><trkpt lat="41.48600585828817" lon="12.600173223471051"><ele>34.6</ele><time>2026-04-06T09:30:27Z</time></trkpt><trkpt lat="41.48591864686895" lon="12.600248774882367"><ele>34.8</ele><time>2026-04-06T09:30:28Z</time></trkpt><trkpt lat="41.48582836794609" lon="12.600318509981367"><ele>35.0</ele><time>2026-04-06T09:30:29Z</time></trkpt><trkpt lat="41.485752977650755" lon="12.600375834718356"><ele>35.0</ele><time>2026-04-06T09:30:30Z</time></trkpt><trkpt lat="41.48568307235069" lon="12.600427899358358"><ele>35.0</ele><time>2026-04-06T09:30:31Z</time></trkpt><trkpt lat="41.48561814151066" lon="12.600477948082501"><ele>35.0</ele><time>2026-04-06T09:30:32Z</time></trkpt><trkpt lat="41.485561450284195" lon="12.600523926400683"><ele>35.0</ele><time>2026-04-06T09:30:33Z</time></trkpt><trkpt lat="41.485454100398094" lon="12.600611439649773"><ele>35.0</ele><time>2026-04-06T09:30:35Z</time></trkpt><trkpt lat="41.48539232721068" lon="12.600664662364292"><ele>35.0</ele><time>2026-04-06T09:30:36Z</time></trkpt><trkpt lat="41.48532928669763" lon="12.60071742798538"><ele>34.83333333333333</ele><time>2026-04-06T09:30:37Z</time></trkpt><trkpt lat="41.48526659400457" lon="12.600770190448817"><ele>34.666666666666664</ele><time>2026-04-06T09:30:38Z</time></trkpt><trkpt lat="41.4852028767417" lon="12.600826560935152"><ele>34.5</ele><time>2026-04-06T09:30:39Z</time></trkpt><trkpt lat="41.48513673925043" lon="12.600880451563262"><ele>34.333333333333336</ele><time>2026-04-06T09:30:40Z</time></trkpt><trkpt lat="41.48507117127159" lon="12.600937889742786"><ele>34.16666666666667</ele><time>2026-04-06T09:30:41Z</time></trkpt><trkpt lat="41.485007196953674" lon="12.600992622465855"><ele>34.0</ele><time>2026-04-06T09:30:42Z</time></trkpt><trkpt lat="41.4849432006058" lon="12.601047742540759"><ele>34.0</ele><time>2026-04-06T09:30:43Z</time></trkpt><trkpt lat="41.48487884691032" lon="12.601099496040101"><ele>34.0</ele><time>2026-04-06T09:30:44Z</time></trkpt><trkpt lat="41.48481461851241" lon="12.601152145811792"><ele>34.0</ele><time>2026-04-06T09:30:45Z</time></trkpt><trkpt lat="41.48475067824388" lon="12.601206617395933"><ele>34.0</ele><time>2026-04-06T09:30:46Z</time></trkpt><trkpt lat="41.48468716496044" lon="12.601258172205998"><ele>34.0</ele><time>2026-04-06T09:30:47Z</time></trkpt><trkpt lat="41.48462285001831" lon="12.60131214812523"><ele>34.0</ele><time>2026-04-06T09:30:48Z</time></trkpt><trkpt lat="41.48455701343795" lon="12.601366708722306"><ele>34.16666666666667</ele><time>2026-04-06T09:30:49Z</time></trkpt><trkpt lat="41.48448983107444" lon="12.601425584119037"><ele>34.333333333333336</ele><time>2026-04-06T09:30:50Z</time></trkpt><trkpt lat="41.48441736182592" lon="12.601490568861943"><ele>34.5</ele><time>2026-04-06T09:30:51Z</time></trkpt><trkpt lat="41.4843428462068" lon="12.60155623925473"><ele>34.666666666666664</ele><time>2026-04-06T09:30:52Z</time></trkpt><trkpt lat="41.4842617156814" lon="12.601617321543143"><ele>34.83333333333333</ele><time>2026-04-06T09:30:53Z</time></trkpt><trkpt lat="41.484178810772356" lon="12.601685271419374"><ele>35.0</ele><time>2026-04-06T09:30:54Z</time></trkpt><trkpt lat="41.48409801255225" lon="12.601750697654087"><ele>35.0</ele><time>2026-04-06T09:30:55Z</time></trkpt><trkpt lat="41.484016605508245" lon="12.601819472280987"><ele>35.0</ele><time>2026-04-06T09:30:56Z</time></trkpt><trkpt lat="41.4839433276333" lon="12.601884232699632"><ele>35.0</ele><time>2026-04-06T09:30:57Z</time></trkpt><trkpt lat="41.483875914957736" lon="12.601942033908463"><ele>35.0</ele><time>2026-04-06T09:30:58Z</time></trkpt><trkpt lat="41.483817934473436" lon="12.60199029133769"><ele>35.0</ele><time>2026-04-06T09:30:59Z</time></trkpt><trkpt lat="41.48372553153603" lon="12.602071052608121"><ele>35.0</ele><time>2026-04-06T09:31:01Z</time></trkpt><trkpt lat="41.48364791376636" lon="12.602135665780622"><ele>35.4</ele><time>2026-04-06T09:31:03Z</time></trkpt><trkpt lat="41.48355722055814" lon="12.602198522324855"><ele>35.8</ele><time>2026-04-06T09:31:04.999Z</time></trkpt><trkpt lat="41.483448041626566" lon="12.602281775988208"><ele>36.2</ele><time>2026-04-06T09:31:06.999Z</time></trkpt><trkpt lat="41.48336050503506" lon="12.602358065835563"><ele>36.6</ele><time>2026-04-06T09:31:08.999Z</time></trkpt><trkpt lat="41.48328372270768" lon="12.602423919393079"><ele>37.0</ele><time>2026-04-06T09:31:10.999Z</time></trkpt><trkpt lat="41.48319953576035" lon="12.602492880131699"><ele>37.0</ele><time>2026-04-06T09:31:12.999Z</time></trkpt><trkpt lat="41.4831269381933" lon="12.602554197240265"><ele>37.0</ele><time>2026-04-06T09:31:14.999Z</time></trkpt><trkpt lat="41.4830673380951" lon="12.602606143476354"><ele>37.0</ele><time>2026-04-06T09:31:16.999Z</time></trkpt><trkpt lat="41.4829622657894" lon="12.602682463878573"><ele>37.0</ele><time>2026-04-06T09:31:19.999Z</time></trkpt><trkpt lat="41.482910967599175" lon="12.602750578907713"><ele>37.0</ele><time>2026-04-06T09:31:20.999Z</time></trkpt><trkpt lat="41.482825459827986" lon="12.602820975218165"><ele>37.8</ele><time>2026-04-06T09:31:23Z</time></trkpt><trkpt lat="41.482757020161294" lon="12.602861891273376"><ele>38.6</ele><time>2026-04-06T09:31:25Z</time></trkpt><trkpt lat="41.48270820439773" lon="12.602914966890854"><ele>39.4</ele><time>2026-04-06T09:31:28Z</time></trkpt><trkpt lat="41.48262062592434" lon="12.602988778031964"><ele>40.199999999999996</ele><time>2026-04-06T09:31:31Z</time></trkpt><trkpt lat="41.48252894370617" lon="12.603085129901269"><ele>41.0</ele><time>2026-04-06T09:31:33Z</time></trkpt><trkpt lat="41.482418685957235" lon="12.603181225596888"><ele>41.0</ele><time>2026-04-06T09:31:35Z</time></trkpt><trkpt lat="41.48232487597064" lon="12.603256763665158"><ele>41.0</ele><time>2026-04-06T09:31:36Z</time></trkpt><trkpt lat="41.48220589381726" lon="12.60334280097316"><ele>41.0</ele><time>2026-04-06T09:31:37Z</time></trkpt><trkpt lat="41.482116775231006" lon="12.6034188380555"><ele>41.0</ele><time>2026-04-06T09:31:38Z</time></trkpt><trkpt lat="41.482035577910665" lon="12.603488055372734"><ele>41.0</ele><time>2026-04-06T09:31:39Z</time></trkpt><trkpt lat="41.481944562209115" lon="12.603556088398"><ele>41.5</ele><time>2026-04-06T09:31:40Z</time></trkpt><trkpt lat="41.48184992136731" lon="12.603618737912697"><ele>42.0</ele><time>2026-04-06T09:31:41Z</time></trkpt><trkpt lat="41.48175410868598" lon="12.603678540498837"><ele>42.5</ele><time>2026-04-06T09:31:42Z</time></trkpt><trkpt lat="41.48165271068016" lon="12.603736017702374"><ele>43.0</ele><time>2026-04-06T09:31:43Z</time></trkpt><trkpt lat="41.48152470029141" lon="12.60380660591348"><ele>43.0</ele><time>2026-04-06T09:31:44Z</time></trkpt><trkpt lat="41.48141099664784" lon="12.603868064625754"><ele>43.0</ele><time>2026-04-06T09:31:45Z</time></trkpt><trkpt lat="41.481310286035075" lon="12.603922220253422"><ele>43.0</ele><time>2026-04-06T09:31:46Z</time></trkpt><trkpt lat="41.481221901653726" lon="12.603969727526739"><ele>43.0</ele><time>2026-04-06T09:31:47Z</time></trkpt><trkpt lat="41.48112622260314" lon="12.60402284372529"><ele>43.0</ele><time>2026-04-06T09:31:48Z</time></trkpt><trkpt lat="41.48102982245601" lon="12.604073960625591"><ele>42.199999999999996</ele><time>2026-04-06T09:31:49Z</time></trkpt><trkpt lat="41.48093477301343" lon="12.604122654600605"><ele>41.4</ele><time>2026-04-06T09:31:50Z</time></trkpt><trkpt lat="41.4808344070758" lon="12.60416539290619"><ele>40.599999999999994</ele><time>2026-04-06T09:31:51Z</time></trkpt><trkpt lat="41.4807307430919" lon="12.604193548743831"><ele>39.8</ele><time>2026-04-06T09:31:52Z</time></trkpt><trkpt lat="41.48062612096462" lon="12.604200553934666"><ele>39.0</ele><time>2026-04-06T09:31:53Z</time></trkpt><trkpt lat="41.48053289484233" lon="12.60418910379257"><ele>39.0</ele><time>2026-04-06T09:31:54Z</time></trkpt><trkpt lat="41.48043397810158" lon="12.60416902219151"><ele>39.0</ele><time>2026-04-06T09:31:55Z</time></trkpt><trkpt lat="41.4803342156876" lon="12.604134928373576"><ele>39.0</ele><time>2026-04-06T09:31:56Z</time></trkpt><trkpt lat="41.48023254833551" lon="12.604105933587688"><ele>39.0</ele><time>2026-04-06T09:31:57Z</time></trkpt><trkpt lat="41.48012898359487" lon="12.604077500658194"><ele>39.0</ele><time>2026-04-06T09:31:58Z</time></trkpt><trkpt lat="41.480020583152005" lon="12.604041865962998"><ele>38.5</ele><time>2026-04-06T09:31:59Z</time></trkpt><trkpt lat="41.47991106181378" lon="12.604004780833183"><ele>38.0</ele><time>2026-04-06T09:32:00Z</time></trkpt><trkpt lat="41.47980081049821" lon="12.603968593581486"><ele>37.5</ele><time>2026-04-06T09:32:01Z</time></trkpt><trkpt lat="41.47969097076415" lon="12.60392967463101"><ele>37.0</ele><time>2026-04-06T09:32:02Z</time></trkpt><trkpt lat="41.479579761358366" lon="12.603889735631057"><ele>36.5</ele><time>2026-04-06T09:32:03Z</time></trkpt><trkpt lat="41.47946812737922" lon="12.603853151167216"><ele>36.0</ele><time>2026-04-06T09:32:04Z</time></trkpt><trkpt lat="41.4793565502667" lon="12.603816159444635"><ele>35.5</ele><time>2026-04-06T09:32:05Z</time></trkpt><trkpt lat="41.479245674705126" lon="12.603774446827352"><ele>35.0</ele><time>2026-04-06T09:32:06Z</time></trkpt><trkpt lat="41.47913403570169" lon="12.603732752993999"><ele>35.0</ele><time>2026-04-06T09:32:07Z</time></trkpt><trkpt lat="41.479024807647896" lon="12.60369425584565"><ele>35.0</ele><time>2026-04-06T09:32:08Z</time></trkpt><trkpt lat="41.47891602782418" lon="12.60365620352263"><ele>35.0</ele><time>2026-04-06T09:32:09Z</time></trkpt><trkpt lat="41.47880482670185" lon="12.603613867557096"><ele>35.0</ele><time>2026-04-06T09:32:10Z</time></trkpt><trkpt lat="41.47870086124697" lon="12.60357848580123"><ele>35.0</ele><time>2026-04-06T09:32:11Z</time></trkpt><trkpt lat="41.47860299642309" lon="12.603550029546144"><ele>34.0</ele><time>2026-04-06T09:32:12Z</time></trkpt><trkpt lat="41.478496338641655" lon="12.603516265855811"><ele>33.0</ele><time>2026-04-06T09:32:13Z</time></trkpt><trkpt lat="41.47839894621279" lon="12.60348555336719"><ele>32.0</ele><time>2026-04-06T09:32:14Z</time></trkpt><trkpt lat="41.4783166707814" lon="12.603456145180417"><ele>31.0</ele><time>2026-04-06T09:32:15Z</time></trkpt><trkpt lat="41.47825002175292" lon="12.603433699144182"><ele>30.0</ele><time>2026-04-06T09:32:16Z</time></trkpt><trkpt lat="41.47816094199299" lon="12.603397126028105"><ele>30.0</ele><time>2026-04-06T09:32:18Z</time></trkpt><trkpt lat="41.47805912014927" lon="12.6033576400061"><ele>30.0</ele><time>2026-04-06T09:32:20Z</time></trkpt><trkpt lat="41.47798171375481" lon="12.60333071219217"><ele>30.0</ele><time>2026-04-06T09:32:21Z</time></trkpt><trkpt lat="41.477899918500945" lon="12.603301947902798"><ele>30.0</ele><time>2026-04-06T09:32:22Z</time></trkpt><trkpt lat="41.47780916131127" lon="12.603271171582747"><ele>30.0</ele><time>2026-04-06T09:32:23Z</time></trkpt><trkpt lat="41.47771500896811" lon="12.603237400853539"><ele>29.4</ele><time>2026-04-06T09:32:24Z</time></trkpt><trkpt lat="41.47762282261619" lon="12.603205018980042"><ele>28.8</ele><time>2026-04-06T09:32:25Z</time></trkpt><trkpt lat="41.477525807362845" lon="12.603172465893293"><ele>28.200000000000003</ele><time>2026-04-06T09:32:26Z</time></trkpt><trkpt lat="41.477421352052474" lon="12.603131574356235"><ele>27.6</ele><time>2026-04-06T09:32:27Z</time></trkpt><trkpt lat="41.47731186631897" lon="12.603092974439974"><ele>27.0</ele><time>2026-04-06T09:32:28Z</time></trkpt><trkpt lat="41.47720022105208" lon="12.603058142520243"><ele>27.0</ele><time>2026-04-06T09:32:29Z</time></trkpt><trkpt lat="41.47708651739444" lon="12.603021097438926"><ele>27.0</ele><time>2026-04-06T09:32:30Z</time></trkpt><trkpt lat="41.47697435683746" lon="12.602981001247597"><ele>27.0</ele><time>2026-04-06T09:32:31Z</time></trkpt><trkpt lat="41.47685397462454" lon="12.60294116189046"><ele>27.0</ele><time>2026-04-06T09:32:32Z</time></trkpt><trkpt lat="41.47673114303115" lon="12.60289542854366"><ele>27.0</ele><time>2026-04-06T09:32:33Z</time></trkpt><trkpt lat="41.476605136966626" lon="12.602848586545576"><ele>27.0</ele><time>2026-04-06T09:32:34Z</time></trkpt><trkpt lat="41.47648541651332" lon="12.602808019535102"><ele>27.0</ele><time>2026-04-06T09:32:35Z</time></trkpt><trkpt lat="41.47637599302955" lon="12.602772539717064"><ele>27.0</ele><time>2026-04-06T09:32:36Z</time></trkpt><trkpt lat="41.47625965317085" lon="12.602737329363158"><ele>25.25</ele><time>2026-04-06T09:32:37Z</time></trkpt><trkpt lat="41.476143960437106" lon="12.60271662175194"><ele>23.5</ele><time>2026-04-06T09:32:38Z</time></trkpt><trkpt lat="41.47603131094128" lon="12.602715336903183"><ele>21.75</ele><time>2026-04-06T09:32:39Z</time></trkpt><trkpt lat="41.4759128801072" lon="12.602732970816117"><ele>20.0</ele><time>2026-04-06T09:32:40Z</time></trkpt><trkpt lat="41.4757994024427" lon="12.60276643172751"><ele>20.0</ele><time>2026-04-06T09:32:41Z</time></trkpt><trkpt lat="41.47569696334309" lon="12.602814131846097"><ele>20.0</ele><time>2026-04-06T09:32:42Z</time></trkpt><trkpt lat="41.47560056548859" lon="12.602872371131255"><ele>20.0</ele><time>2026-04-06T09:32:43Z</time></trkpt><trkpt lat="41.47550836045191" lon="12.602939759266885"><ele>20.0</ele><time>2026-04-06T09:32:44Z</time></trkpt><trkpt lat="41.475413581154626" lon="12.603013093261449"><ele>20.0</ele><time>2026-04-06T09:32:45Z</time></trkpt><trkpt lat="41.47531696698886" lon="12.603086874488197"><ele>20.0</ele><time>2026-04-06T09:32:46Z</time></trkpt><trkpt lat="41.47521980455378" lon="12.603167491695707"><ele>20.0</ele><time>2026-04-06T09:32:47Z</time></trkpt><trkpt lat="41.475124004712065" lon="12.603248820000687"><ele>20.0</ele><time>2026-04-06T09:32:48Z</time></trkpt><trkpt lat="41.47502857376589" lon="12.603327775867509"><ele>20.0</ele><time>2026-04-06T09:32:49Z</time></trkpt><trkpt lat="41.47493446628098" lon="12.60340289507889"><ele>20.0</ele><time>2026-04-06T09:32:50Z</time></trkpt><trkpt lat="41.47484543255256" lon="12.603470869868676"><ele>20.0</ele><time>2026-04-06T09:32:51Z</time></trkpt><trkpt lat="41.47475852406578" lon="12.603538259637473"><ele>20.0</ele><time>2026-04-06T09:32:52Z</time></trkpt><trkpt lat="41.47466625992056" lon="12.60360765412879"><ele>20.0</ele><time>2026-04-06T09:32:53Z</time></trkpt><trkpt lat="41.474574219678246" lon="12.603682725311112"><ele>20.0</ele><time>2026-04-06T09:32:54Z</time></trkpt><trkpt lat="41.47448444047194" lon="12.60375699033298"><ele>19.8</ele><time>2026-04-06T09:32:55Z</time></trkpt><trkpt lat="41.47439622386533" lon="12.603827343844507"><ele>19.6</ele><time>2026-04-06T09:32:56Z</time></trkpt><trkpt lat="41.47431306951705" lon="12.6038954399642"><ele>19.4</ele><time>2026-04-06T09:32:57Z</time></trkpt><trkpt lat="41.47423256003281" lon="12.603959777787031"><ele>19.2</ele><time>2026-04-06T09:32:58Z</time></trkpt><trkpt lat="41.474155368545055" lon="12.604019681469087"><ele>19.0</ele><time>2026-04-06T09:32:59Z</time></trkpt><trkpt lat="41.47408038237801" lon="12.60408322855449"><ele>19.0</ele><time>2026-04-06T09:32:59.999Z</time></trkpt><trkpt lat="41.47400234666219" lon="12.604149501960997"><ele>19.0</ele><time>2026-04-06T09:33:00.999Z</time></trkpt><trkpt lat="41.47392146067661" lon="12.604214625665978"><ele>19.0</ele><time>2026-04-06T09:33:01.999Z</time></trkpt><trkpt lat="41.47383913768679" lon="12.604279513396229"><ele>19.0</ele><time>2026-04-06T09:33:02.999Z</time></trkpt><trkpt lat="41.473756468610425" lon="12.604346286264555"><ele>19.0</ele><time>2026-04-06T09:33:03.999Z</time></trkpt><trkpt lat="41.473674457267684" lon="12.604415379569776"><ele>19.0</ele><time>2026-04-06T09:33:04.999Z</time></trkpt><trkpt lat="41.473590747066794" lon="12.604483400321039"><ele>19.0</ele><time>2026-04-06T09:33:05.999Z</time></trkpt><trkpt lat="41.47350769026296" lon="12.604550813364597"><ele>19.0</ele><time>2026-04-06T09:33:06.999Z</time></trkpt><trkpt lat="41.47342328302664" lon="12.604618574165855"><ele>19.0</ele><time>2026-04-06T09:33:07.999Z</time></trkpt><trkpt lat="41.47333626990178" lon="12.60468806985262"><ele>19.0</ele><time>2026-04-06T09:33:08.999Z</time></trkpt><trkpt lat="41.47324790744651" lon="12.604759218695412"><ele>19.0</ele><time>2026-04-06T09:33:09.999Z</time></trkpt><trkpt lat="41.47315912529265" lon="12.60482926444595"><ele>19.0</ele><time>2026-04-06T09:33:10.999Z</time></trkpt><trkpt lat="41.473070021009924" lon="12.604900626671343"><ele>19.0</ele><time>2026-04-06T09:33:11.999Z</time></trkpt><trkpt lat="41.47298451098447" lon="12.604970693962041"><ele>19.0</ele><time>2026-04-06T09:33:12.999Z</time></trkpt><trkpt lat="41.47290795431272" lon="12.605035365446541"><ele>19.0</ele><time>2026-04-06T09:33:13.999Z</time></trkpt><trkpt lat="41.47282334036858" lon="12.605101727298957"><ele>19.4</ele><time>2026-04-06T09:33:14.999Z</time></trkpt><trkpt lat="41.472736248151065" lon="12.605174426965345"><ele>19.799999999999997</ele><time>2026-04-06T09:33:15.999Z</time></trkpt><trkpt lat="41.47264427751886" lon="12.605249320148284"><ele>20.200000000000003</ele><time>2026-04-06T09:33:16.999Z</time></trkpt><trkpt lat="41.472559193679174" lon="12.60531703313018"><ele>20.6</ele><time>2026-04-06T09:33:17.999Z</time></trkpt><trkpt lat="41.47247323824762" lon="12.60538969797446"><ele>21.0</ele><time>2026-04-06T09:33:18.999Z</time></trkpt><trkpt lat="41.472382591544125" lon="12.605463905014368"><ele>21.0</ele><time>2026-04-06T09:33:19.999Z</time></trkpt><trkpt lat="41.472302249300945" lon="12.605532138337963"><ele>21.0</ele><time>2026-04-06T09:33:20.999Z</time></trkpt><trkpt lat="41.47222741920582" lon="12.605595453642158"><ele>21.0</ele><time>2026-04-06T09:33:21.999Z</time></trkpt><trkpt lat="41.472149335190814" lon="12.605657631791676"><ele>21.0</ele><time>2026-04-06T09:33:22.999Z</time></trkpt><trkpt lat="41.472068965230065" lon="12.605719952553407"><ele>21.0</ele><time>2026-04-06T09:33:23.999Z</time></trkpt><trkpt lat="41.47198899323972" lon="12.60578805571212"><ele>19.8</ele><time>2026-04-06T09:33:24.999Z</time></trkpt><trkpt lat="41.471911198366115" lon="12.605853324291346"><ele>18.6</ele><time>2026-04-06T09:33:25.999Z</time></trkpt><trkpt lat="41.47183324328944" lon="12.60591672339985"><ele>17.4</ele><time>2026-04-06T09:33:26.999Z</time></trkpt><trkpt lat="41.47175493983929" lon="12.60598166275123"><ele>16.2</ele><time>2026-04-06T09:33:28Z</time></trkpt><trkpt lat="41.47167772854959" lon="12.606046042165246"><ele>15.0</ele><time>2026-04-06T09:33:29Z</time></trkpt><trkpt lat="41.47159568358114" lon="12.606111612371242"><ele>15.0</ele><time>2026-04-06T09:33:30Z</time></trkpt><trkpt lat="41.47151166409219" lon="12.6061803940605"><ele>15.0</ele><time>2026-04-06T09:33:31Z</time></trkpt><trkpt lat="41.471427162183545" lon="12.606253832319858"><ele>15.0</ele><time>2026-04-06T09:33:32Z</time></trkpt><trkpt lat="41.471347786303454" lon="12.6063235831131"><ele>15.0</ele><time>2026-04-06T09:33:33Z</time></trkpt><trkpt lat="41.4712748757684" lon="12.606385422718468"><ele>15.0</ele><time>2026-04-06T09:33:34Z</time></trkpt><trkpt lat="41.47119803187095" lon="12.606446793994703"><ele>15.0</ele><time>2026-04-06T09:33:35Z</time></trkpt><trkpt lat="41.47111656333547" lon="12.606510590065682"><ele>15.0</ele><time>2026-04-06T09:33:36Z</time></trkpt><trkpt lat="41.471035123102624" lon="12.606575578594292"><ele>15.0</ele><time>2026-04-06T09:33:37Z</time></trkpt><trkpt lat="41.470954452711204" lon="12.60664330234911"><ele>15.0</ele><time>2026-04-06T09:33:38Z</time></trkpt><trkpt lat="41.47087132027195" lon="12.606716241824838"><ele>15.0</ele><time>2026-04-06T09:33:39Z</time></trkpt><trkpt lat="41.47078876893644" lon="12.606787288907537"><ele>15.0</ele><time>2026-04-06T09:33:40Z</time></trkpt><trkpt lat="41.47070532879509" lon="12.606857895790993"><ele>15.0</ele><time>2026-04-06T09:33:41Z</time></trkpt><trkpt lat="41.47063129383952" lon="12.606921257715507"><ele>15.0</ele><time>2026-04-06T09:33:42Z</time></trkpt><trkpt lat="41.47056258803314" lon="12.606976272355638"><ele>15.0</ele><time>2026-04-06T09:33:43Z</time></trkpt><trkpt lat="41.47047976848884" lon="12.607041568220312"><ele>15.0</ele><time>2026-04-06T09:33:45Z</time></trkpt><trkpt lat="41.470410952597355" lon="12.607093972923716"><ele>15.0</ele><time>2026-04-06T09:33:47Z</time></trkpt><trkpt lat="41.47032193145754" lon="12.607167035156015"><ele>15.833333333333334</ele><time>2026-04-06T09:33:49Z</time></trkpt><trkpt lat="41.47022005839117" lon="12.607256447048602"><ele>16.666666666666668</ele><time>2026-04-06T09:33:51Z</time></trkpt><trkpt lat="41.47016023596617" lon="12.607305469776767"><ele>17.5</ele><time>2026-04-06T09:33:52Z</time></trkpt><trkpt lat="41.470096235702606" lon="12.60736049208888"><ele>18.333333333333336</ele><time>2026-04-06T09:33:53Z</time></trkpt><trkpt lat="41.47002576925316" lon="12.607420984299038"><ele>19.166666666666668</ele><time>2026-04-06T09:33:54Z</time></trkpt><trkpt lat="41.46994615220553" lon="12.60748511993329"><ele>20.0</ele><time>2026-04-06T09:33:55Z</time></trkpt><trkpt lat="41.469862708165586" lon="12.60755264606514"><ele>20.0</ele><time>2026-04-06T09:33:56Z</time></trkpt><trkpt lat="41.46978082316657" lon="12.607619596085511"><ele>20.0</ele><time>2026-04-06T09:33:57Z</time></trkpt><trkpt lat="41.46970162643091" lon="12.607682896664873"><ele>20.0</ele><time>2026-04-06T09:33:58Z</time></trkpt><trkpt lat="41.469620670417555" lon="12.60775491984204"><ele>20.0</ele><time>2026-04-06T09:33:59Z</time></trkpt><trkpt lat="41.46953741309101" lon="12.607823967751772"><ele>20.0</ele><time>2026-04-06T09:34:00Z</time></trkpt><trkpt lat="41.469456311545045" lon="12.607889504196878"><ele>20.4</ele><time>2026-04-06T09:34:01Z</time></trkpt><trkpt lat="41.46937144307424" lon="12.607960006108394"><ele>20.8</ele><time>2026-04-06T09:34:02Z</time></trkpt><trkpt lat="41.46928438934157" lon="12.608032553674237"><ele>21.200000000000003</ele><time>2026-04-06T09:34:03Z</time></trkpt><trkpt lat="41.46919513009445" lon="12.608101174521455"><ele>21.6</ele><time>2026-04-06T09:34:04Z</time></trkpt><trkpt lat="41.46910813916449" lon="12.60817199250643"><ele>22.0</ele><time>2026-04-06T09:34:05Z</time></trkpt><trkpt lat="41.46902158420055" lon="12.608246907036591"><ele>22.0</ele><time>2026-04-06T09:34:06Z</time></trkpt><trkpt lat="41.46893255915513" lon="12.608321610476514"><ele>22.0</ele><time>2026-04-06T09:34:07Z</time></trkpt><trkpt lat="41.46884404673754" lon="12.608396670903309"><ele>22.0</ele><time>2026-04-06T09:34:08Z</time></trkpt><trkpt lat="41.46875262086546" lon="12.608476014943719"><ele>22.0</ele><time>2026-04-06T09:34:09Z</time></trkpt><trkpt lat="41.46866358801482" lon="12.608563404242087"><ele>22.0</ele><time>2026-04-06T09:34:10Z</time></trkpt><trkpt lat="41.46857601662317" lon="12.60865340645511"><ele>22.400000000000002</ele><time>2026-04-06T09:34:11Z</time></trkpt><trkpt lat="41.468493395068414" lon="12.608755058790083"><ele>22.8</ele><time>2026-04-06T09:34:12Z</time></trkpt><trkpt lat="41.46842191415064" lon="12.608851531614556"><ele>23.2</ele><time>2026-04-06T09:34:13Z</time></trkpt><trkpt lat="41.46834863491935" lon="12.60895631146614"><ele>23.6</ele><time>2026-04-06T09:34:14Z</time></trkpt><trkpt lat="41.4682770180642" lon="12.609055001121046"><ele>24.0</ele><time>2026-04-06T09:34:15Z</time></trkpt><trkpt lat="41.46821762897354" lon="12.609143666449668"><ele>24.0</ele><time>2026-04-06T09:34:16Z</time></trkpt><trkpt lat="41.4681550032054" lon="12.609231694176337"><ele>24.0</ele><time>2026-04-06T09:34:17Z</time></trkpt><trkpt lat="41.46809138203101" lon="12.609322658716074"><ele>24.0</ele><time>2026-04-06T09:34:18Z</time></trkpt><trkpt lat="41.46802857336551" lon="12.609413133185647"><ele>24.0</ele><time>2026-04-06T09:34:19Z</time></trkpt><trkpt lat="41.46796327235149" lon="12.609497790278962"><ele>24.0</ele><time>2026-04-06T09:34:20Z</time></trkpt><trkpt lat="41.467894117033985" lon="12.609578153572679"><ele>24.6</ele><time>2026-04-06T09:34:21Z</time></trkpt><trkpt lat="41.467820478527166" lon="12.609651140788625"><ele>25.2</ele><time>2026-04-06T09:34:22Z</time></trkpt><trkpt lat="41.467739757755325" lon="12.609717905893934"><ele>25.800000000000004</ele><time>2026-04-06T09:34:23Z</time></trkpt><trkpt lat="41.467659002365004" lon="12.60978231176678"><ele>26.400000000000002</ele><time>2026-04-06T09:34:24Z</time></trkpt><trkpt lat="41.467577468611964" lon="12.609848382467954"><ele>27.0</ele><time>2026-04-06T09:34:25Z</time></trkpt><trkpt lat="41.46748776058271" lon="12.6099163851019"><ele>27.0</ele><time>2026-04-06T09:34:26Z</time></trkpt><trkpt lat="41.467412381131346" lon="12.609974309234678"><ele>27.000000000000004</ele><time>2026-04-06T09:34:27Z</time></trkpt><trkpt lat="41.46734722205115" lon="12.610025856649512"><ele>27.000000000000004</ele><time>2026-04-06T09:34:28Z</time></trkpt><trkpt lat="41.46728791186762" lon="12.610073953513606"><ele>27.0</ele><time>2026-04-06T09:34:29Z</time></trkpt><trkpt lat="41.46718157127741" lon="12.61015074754915"><ele>27.0</ele><time>2026-04-06T09:34:31Z</time></trkpt><trkpt lat="41.467063184610446" lon="12.610232374724413"><ele>26.166666666666668</ele><time>2026-04-06T09:34:33Z</time></trkpt><trkpt lat="41.46699642410702" lon="12.610278830600844"><ele>25.333333333333332</ele><time>2026-04-06T09:34:34Z</time></trkpt><trkpt lat="41.466937955357956" lon="12.610327813191024"><ele>24.5</ele><time>2026-04-06T09:34:35Z</time></trkpt><trkpt lat="41.466848019671126" lon="12.610400788772003"><ele>23.666666666666664</ele><time>2026-04-06T09:34:37Z</time></trkpt><trkpt lat="41.46677200634677" lon="12.610457328281337"><ele>22.833333333333332</ele><time>2026-04-06T09:34:39Z</time></trkpt><trkpt lat="41.466705976491575" lon="12.610509065589513"><ele>22.0</ele><time>2026-04-06T09:34:41Z</time></trkpt><trkpt lat="41.46662955288587" lon="12.610570899772004"><ele>22.0</ele><time>2026-04-06T09:34:43Z</time></trkpt><trkpt lat="41.46654697664755" lon="12.610637679224153"><ele>22.0</ele><time>2026-04-06T09:34:45Z</time></trkpt><trkpt lat="41.46646266065919" lon="12.610694937919122"><ele>22.0</ele><time>2026-04-06T09:34:47Z</time></trkpt><trkpt lat="41.46637967937139" lon="12.610741343992087"><ele>22.0</ele><time>2026-04-06T09:34:49Z</time></trkpt><trkpt lat="41.4662992695508" lon="12.610777686291785"><ele>22.0</ele><time>2026-04-06T09:34:51Z</time></trkpt><trkpt lat="41.46621802884544" lon="12.610810510374707"><ele>21.5</ele><time>2026-04-06T09:34:53Z</time></trkpt><trkpt lat="41.4661290363654" lon="12.610844096987197"><ele>21.0</ele><time>2026-04-06T09:34:55Z</time></trkpt><trkpt lat="41.46605841384616" lon="12.610867565880975"><ele>20.5</ele><time>2026-04-06T09:34:57Z</time></trkpt><trkpt lat="41.465972703130376" lon="12.610857610494284"><ele>20.0</ele><time>2026-04-06T09:34:59Z</time></trkpt><trkpt lat="41.46588818235444" lon="12.610859141780756"><ele>19.5</ele><time>2026-04-06T09:35:01Z</time></trkpt><trkpt lat="41.465788838154026" lon="12.610918938241975"><ele>19.0</ele><time>2026-04-06T09:35:03Z</time></trkpt><trkpt lat="41.465728700902886" lon="12.610944766590213"><ele>19.0</ele><time>2026-04-06T09:35:04Z</time></trkpt><trkpt lat="41.46566374990164" lon="12.610965936760179"><ele>19.0</ele><time>2026-04-06T09:35:05Z</time></trkpt><trkpt lat="41.465593968889245" lon="12.610984157464403"><ele>19.0</ele><time>2026-04-06T09:35:06Z</time></trkpt><trkpt lat="41.46552872834167" lon="12.610996933024602"><ele>19.0</ele><time>2026-04-06T09:35:07Z</time></trkpt><trkpt lat="41.46546264617266" lon="12.611007296167328"><ele>19.0</ele><time>2026-04-06T09:35:08Z</time></trkpt><trkpt lat="41.465389143401545" lon="12.611010911580875"><ele>19.0</ele><time>2026-04-06T09:35:09Z</time></trkpt><trkpt lat="41.46531048976384" lon="12.611019264974903"><ele>19.0</ele><time>2026-04-06T09:35:10Z</time></trkpt><trkpt lat="41.46522920948841" lon="12.611026414469894"><ele>18.833333333333332</ele><time>2026-04-06T09:35:11Z</time></trkpt><trkpt lat="41.465145631997835" lon="12.611033047873129"><ele>18.666666666666664</ele><time>2026-04-06T09:35:12Z</time></trkpt><trkpt lat="41.465059998401394" lon="12.611038958554445"><ele>18.5</ele><time>2026-04-06T09:35:13Z</time></trkpt><trkpt lat="41.46497453191925" lon="12.611052300145746"><ele>18.333333333333332</ele><time>2026-04-06T09:35:14Z</time></trkpt><trkpt lat="41.4648808543051" lon="12.611062157311057"><ele>18.166666666666668</ele><time>2026-04-06T09:35:15Z</time></trkpt><trkpt lat="41.46478462328778" lon="12.611070336367055"><ele>18.0</ele><time>2026-04-06T09:35:16Z</time></trkpt><trkpt lat="41.46469588326697" lon="12.611076977720217"><ele>17.833333333333332</ele><time>2026-04-06T09:35:17Z</time></trkpt><trkpt lat="41.46459516624382" lon="12.611088911543602"><ele>17.666666666666668</ele><time>2026-04-06T09:35:18Z</time></trkpt><trkpt lat="41.46450887084424" lon="12.611091675019566"><ele>17.5</ele><time>2026-04-06T09:35:19Z</time></trkpt><trkpt lat="41.46442749649716" lon="12.611096279127842"><ele>17.333333333333336</ele><time>2026-04-06T09:35:20Z</time></trkpt><trkpt lat="41.46434497144351" lon="12.611102655966022"><ele>17.166666666666668</ele><time>2026-04-06T09:35:21Z</time></trkpt><trkpt lat="41.46426036231338" lon="12.611112500798516"><ele>17.0</ele><time>2026-04-06T09:35:22Z</time></trkpt><trkpt lat="41.46417289689738" lon="12.611125185924474"><ele>17.0</ele><time>2026-04-06T09:35:22.999Z</time></trkpt><trkpt lat="41.46408750674444" lon="12.611126915618291"><ele>17.0</ele><time>2026-04-06T09:35:23.999Z</time></trkpt><trkpt lat="41.463993518597285" lon="12.611132065177802"><ele>17.0</ele><time>2026-04-06T09:35:24.999Z</time></trkpt><trkpt lat="41.463896518560496" lon="12.611139516229441"><ele>17.0</ele><time>2026-04-06T09:35:25.999Z</time></trkpt><trkpt lat="41.463803364802246" lon="12.611144472336703"><ele>17.0</ele><time>2026-04-06T09:35:26.999Z</time></trkpt><trkpt lat="41.46370926735428" lon="12.611152174224188"><ele>17.2</ele><time>2026-04-06T09:35:27.999Z</time></trkpt><trkpt lat="41.463610623666106" lon="12.611158398801914"><ele>17.4</ele><time>2026-04-06T09:35:28.999Z</time></trkpt><trkpt lat="41.463513331846805" lon="12.611168233408405"><ele>17.6</ele><time>2026-04-06T09:35:29.999Z</time></trkpt><trkpt lat="41.46341611656301" lon="12.611175295253679"><ele>17.8</ele><time>2026-04-06T09:35:30.999Z</time></trkpt><trkpt lat="41.4633153431159" lon="12.611182576534736"><ele>18.0</ele><time>2026-04-06T09:35:31.999Z</time></trkpt><trkpt lat="41.46321122973012" lon="12.6111906533749"><ele>18.0</ele><time>2026-04-06T09:35:32.999Z</time></trkpt><trkpt lat="41.4631064940457" lon="12.611199717209622"><ele>18.0</ele><time>2026-04-06T09:35:34Z</time></trkpt><trkpt lat="41.46299994047461" lon="12.611210438182411"><ele>18.0</ele><time>2026-04-06T09:35:35Z</time></trkpt><trkpt lat="41.46290196075028" lon="12.611221577863033"><ele>18.0</ele><time>2026-04-06T09:35:36Z</time></trkpt><trkpt lat="41.462813068597626" lon="12.611234385784577"><ele>18.0</ele><time>2026-04-06T09:35:37Z</time></trkpt><trkpt lat="41.46272043356699" lon="12.611249404779882"><ele>17.4</ele><time>2026-04-06T09:35:38Z</time></trkpt><trkpt lat="41.4626250393974" lon="12.61128021197062"><ele>16.8</ele><time>2026-04-06T09:35:39Z</time></trkpt><trkpt lat="41.462526830558566" lon="12.611333824558468"><ele>16.2</ele><time>2026-04-06T09:35:40Z</time></trkpt><trkpt lat="41.46243841706569" lon="12.6113989128477"><ele>15.6</ele><time>2026-04-06T09:35:41Z</time></trkpt><trkpt lat="41.462350108068314" lon="12.61147241970243"><ele>15.0</ele><time>2026-04-06T09:35:42Z</time></trkpt><trkpt lat="41.46226809119765" lon="12.611540517694591"><ele>15.0</ele><time>2026-04-06T09:35:43Z</time></trkpt><trkpt lat="41.462184108142935" lon="12.611612300608751"><ele>15.0</ele><time>2026-04-06T09:35:44Z</time></trkpt><trkpt lat="41.462098021382666" lon="12.611685593946277"><ele>15.0</ele><time>2026-04-06T09:35:45Z</time></trkpt><trkpt lat="41.46201862822914" lon="12.61175168184937"><ele>15.0</ele><time>2026-04-06T09:35:46Z</time></trkpt><trkpt lat="41.461937503848944" lon="12.611815415916803"><ele>15.0</ele><time>2026-04-06T09:35:47Z</time></trkpt><trkpt lat="41.461857622912" lon="12.611878726891282"><ele>14.833333333333334</ele><time>2026-04-06T09:35:48Z</time></trkpt><trkpt lat="41.46179016627664" lon="12.61192827631762"><ele>14.666666666666668</ele><time>2026-04-06T09:35:49Z</time></trkpt><trkpt lat="41.46172023608024" lon="12.611984175299952"><ele>14.5</ele><time>2026-04-06T09:35:50Z</time></trkpt><trkpt lat="41.46164897238702" lon="12.612042565626403"><ele>14.333333333333334</ele><time>2026-04-06T09:35:51Z</time></trkpt><trkpt lat="41.461572742869684" lon="12.612099013221377"><ele>14.166666666666668</ele><time>2026-04-06T09:35:52Z</time></trkpt><trkpt lat="41.461497322343604" lon="12.612155510853848"><ele>14.0</ele><time>2026-04-06T09:35:53Z</time></trkpt><trkpt lat="41.461422997785526" lon="12.612213970028451"><ele>14.000000000000002</ele><time>2026-04-06T09:35:54Z</time></trkpt><trkpt lat="41.461351398423865" lon="12.61226785450355"><ele>14.0</ele><time>2026-04-06T09:35:55Z</time></trkpt><trkpt lat="41.46127755322" lon="12.612325183427991"><ele>14.0</ele><time>2026-04-06T09:35:56Z</time></trkpt><trkpt lat="41.46120924823978" lon="12.612383595260896"><ele>14.0</ele><time>2026-04-06T09:35:57Z</time></trkpt><trkpt lat="41.46113865645323" lon="12.612442359730249"><ele>14.000000000000002</ele><time>2026-04-06T09:35:58Z</time></trkpt><trkpt lat="41.4610643288358" lon="12.612500557208786"><ele>14.0</ele><time>2026-04-06T09:35:59Z</time></trkpt><trkpt lat="41.46098690066559" lon="12.612560823262452"><ele>14.333333333333334</ele><time>2026-04-06T09:36:00Z</time></trkpt><trkpt lat="41.46090860825698" lon="12.612622676186577"><ele>14.666666666666668</ele><time>2026-04-06T09:36:01Z</time></trkpt><trkpt lat="41.460830962154475" lon="12.61268713009889"><ele>15.0</ele><time>2026-04-06T09:36:02Z</time></trkpt><trkpt lat="41.46075205397741" lon="12.612750177810534"><ele>15.333333333333332</ele><time>2026-04-06T09:36:03Z</time></trkpt><trkpt lat="41.46067492591612" lon="12.612807125578819"><ele>15.666666666666666</ele><time>2026-04-06T09:36:04Z</time></trkpt><trkpt lat="41.46061945309412" lon="12.61285066791641"><ele>16.0</ele><time>2026-04-06T09:36:05Z</time></trkpt><trkpt lat="41.460541194469585" lon="12.612913978646908"><ele>16.0</ele><time>2026-04-06T09:36:07Z</time></trkpt><trkpt lat="41.46046972635416" lon="12.612954157851787"><ele>16.0</ele><time>2026-04-06T09:36:10Z</time></trkpt><trkpt lat="41.460355849765726" lon="12.613037140805407"><ele>16.0</ele><time>2026-04-06T09:36:17Z</time></trkpt><trkpt lat="41.460277473278396" lon="12.613113584195817"><ele>16.0</ele><time>2026-04-06T09:36:18Z</time></trkpt><trkpt lat="41.460177244969046" lon="12.613213891500264"><ele>16.0</ele><time>2026-04-06T09:36:19Z</time></trkpt><trkpt lat="41.46005056097942" lon="12.61330943406296"><ele>16.0</ele><time>2026-04-06T09:36:20Z</time></trkpt><trkpt lat="41.45994282556656" lon="12.61338402550548"><ele>16.0</ele><time>2026-04-06T09:36:21Z</time></trkpt><trkpt lat="41.45984864885452" lon="12.613453232585714"><ele>16.0</ele><time>2026-04-06T09:36:22Z</time></trkpt><trkpt lat="41.459761204119815" lon="12.613524784040814"><ele>16.0</ele><time>2026-04-06T09:36:23Z</time></trkpt><trkpt lat="41.45967578753618" lon="12.613596690304947"><ele>16.0</ele><time>2026-04-06T09:36:24Z</time></trkpt><trkpt lat="41.45958691641067" lon="12.61366727356893"><ele>16.0</ele><time>2026-04-06T09:36:25Z</time></trkpt><trkpt lat="41.45949469977028" lon="12.613741420494579"><ele>16.0</ele><time>2026-04-06T09:36:26Z</time></trkpt><trkpt lat="41.45939941623786" lon="12.613812628342332"><ele>16.0</ele><time>2026-04-06T09:36:27Z</time></trkpt><trkpt lat="41.45930332603741" lon="12.613888351393065"><ele>16.0</ele><time>2026-04-06T09:36:28Z</time></trkpt><trkpt lat="41.45920695407335" lon="12.613966698198254"><ele>16.0</ele><time>2026-04-06T09:36:29Z</time></trkpt><trkpt lat="41.459110415177776" lon="12.61404736335891"><ele>16.0</ele><time>2026-04-06T09:36:30Z</time></trkpt><trkpt lat="41.459018964068164" lon="12.614124229537262"><ele>16.0</ele><time>2026-04-06T09:36:31Z</time></trkpt><trkpt lat="41.45894317305752" lon="12.614190774569598"><ele>16.0</ele><time>2026-04-06T09:36:32Z</time></trkpt><trkpt lat="41.458865275040885" lon="12.614250864961699"><ele>16.0</ele><time>2026-04-06T09:36:34Z</time></trkpt><trkpt lat="41.458797602647934" lon="12.614297201184709"><ele>16.0</ele><time>2026-04-06T09:36:37Z</time></trkpt><trkpt lat="41.458711992054084" lon="12.614363680511284"><ele>16.0</ele><time>2026-04-06T09:36:39Z</time></trkpt><trkpt lat="41.458599855193974" lon="12.614442991547909"><ele>16.0</ele><time>2026-04-06T09:36:41Z</time></trkpt><trkpt lat="41.45853188014526" lon="12.614498519374637"><ele>16.0</ele><time>2026-04-06T09:36:42Z</time></trkpt><trkpt lat="41.45846291897867" lon="12.614559301524256"><ele>16.0</ele><time>2026-04-06T09:36:43Z</time></trkpt><trkpt lat="41.45840364544606" lon="12.614600247539673"><ele>16.0</ele><time>2026-04-06T09:36:44Z</time></trkpt><trkpt lat="41.45830351148683" lon="12.61467394529108"><ele>15.999999999999998</ele><time>2026-04-06T09:36:46Z</time></trkpt><trkpt lat="41.45824453117181" lon="12.614735217766611"><ele>16.0</ele><time>2026-04-06T09:36:47Z</time></trkpt><trkpt lat="41.45817165699956" lon="12.614790073144277"><ele>16.0</ele><time>2026-04-06T09:36:48Z</time></trkpt><trkpt lat="41.45809780601864" lon="12.614848566626092"><ele>16.0</ele><time>2026-04-06T09:36:49Z</time></trkpt><trkpt lat="41.45801430992975" lon="12.614913806601031"><ele>15.999999999999998</ele><time>2026-04-06T09:36:50Z</time></trkpt><trkpt lat="41.45792847230998" lon="12.614982621311468"><ele>16.0</ele><time>2026-04-06T09:36:51Z</time></trkpt><trkpt lat="41.45783544557499" lon="12.61505189488664"><ele>16.25</ele><time>2026-04-06T09:36:52Z</time></trkpt><trkpt lat="41.45774000923562" lon="12.615129822308711"><ele>16.5</ele><time>2026-04-06T09:36:53Z</time></trkpt><trkpt lat="41.45764073046538" lon="12.61520786101735"><ele>16.75</ele><time>2026-04-06T09:36:54Z</time></trkpt><trkpt lat="41.45753848751623" lon="12.6152893297753"><ele>17.0</ele><time>2026-04-06T09:36:55Z</time></trkpt><trkpt lat="41.45743364641554" lon="12.615372713534155"><ele>17.0</ele><time>2026-04-06T09:36:56Z</time></trkpt><trkpt lat="41.457335504617056" lon="12.615450804322066"><ele>17.0</ele><time>2026-04-06T09:36:57Z</time></trkpt><trkpt lat="41.457241269832906" lon="12.61552909841248"><ele>17.0</ele><time>2026-04-06T09:36:58Z</time></trkpt><trkpt lat="41.45714933974701" lon="12.615600823022438"><ele>17.0</ele><time>2026-04-06T09:36:59Z</time></trkpt><trkpt lat="41.45705870307921" lon="12.61567032701911"><ele>17.0</ele><time>2026-04-06T09:37:00Z</time></trkpt><trkpt lat="41.45697073960236" lon="12.615737646794384"><ele>16.2</ele><time>2026-04-06T09:37:01Z</time></trkpt><trkpt lat="41.45688334428116" lon="12.615804146464109"><ele>15.399999999999999</ele><time>2026-04-06T09:37:02Z</time></trkpt><trkpt lat="41.456797764254134" lon="12.615872642478232"><ele>14.600000000000001</ele><time>2026-04-06T09:37:03Z</time></trkpt><trkpt lat="41.456711599379865" lon="12.615940550268121"><ele>13.8</ele><time>2026-04-06T09:37:04Z</time></trkpt><trkpt lat="41.45662325838956" lon="12.616011975261916"><ele>13.0</ele><time>2026-04-06T09:37:05Z</time></trkpt><trkpt lat="41.45653173909803" lon="12.616085548532775"><ele>13.0</ele><time>2026-04-06T09:37:06Z</time></trkpt><trkpt lat="41.456438682717746" lon="12.61615539955383"><ele>13.0</ele><time>2026-04-06T09:37:07Z</time></trkpt><trkpt lat="41.45634233936574" lon="12.616233229051932"><ele>13.0</ele><time>2026-04-06T09:37:08Z</time></trkpt><trkpt lat="41.45624503204873" lon="12.616315927583784"><ele>13.0</ele><time>2026-04-06T09:37:09Z</time></trkpt><trkpt lat="41.456142534103826" lon="12.616397892701109"><ele>13.0</ele><time>2026-04-06T09:37:10Z</time></trkpt><trkpt lat="41.456037257501166" lon="12.616480362528035"><ele>13.0</ele><time>2026-04-06T09:37:11Z</time></trkpt><trkpt lat="41.455934423577716" lon="12.616563686961342"><ele>13.0</ele><time>2026-04-06T09:37:12Z</time></trkpt><trkpt lat="41.45583080898171" lon="12.616644385522827"><ele>13.0</ele><time>2026-04-06T09:37:13Z</time></trkpt><trkpt lat="41.45572800164054" lon="12.616724196542345"><ele>13.0</ele><time>2026-04-06T09:37:14Z</time></trkpt><trkpt lat="41.455625752367645" lon="12.616810644586185"><ele>13.0</ele><time>2026-04-06T09:37:15Z</time></trkpt><trkpt lat="41.45552296350239" lon="12.61689344641855"><ele>13.0</ele><time>2026-04-06T09:37:16Z</time></trkpt><trkpt lat="41.45542183336684" lon="12.616974709183054"><ele>13.0</ele><time>2026-04-06T09:37:17Z</time></trkpt><trkpt lat="41.45532355365484" lon="12.617052803253882"><ele>13.8</ele><time>2026-04-06T09:37:18Z</time></trkpt><trkpt lat="41.45522779628608" lon="12.617130667626698"><ele>14.600000000000001</ele><time>2026-04-06T09:37:19Z</time></trkpt><trkpt lat="41.45512599126302" lon="12.617211362863362"><ele>15.399999999999999</ele><time>2026-04-06T09:37:20Z</time></trkpt><trkpt lat="41.455032523216815" lon="12.617289198683453"><ele>16.2</ele><time>2026-04-06T09:37:21Z</time></trkpt><trkpt lat="41.454946572148174" lon="12.617358311692769"><ele>17.0</ele><time>2026-04-06T09:37:22Z</time></trkpt><trkpt lat="41.454858688513944" lon="12.617425776692258"><ele>17.0</ele><time>2026-04-06T09:37:23Z</time></trkpt><trkpt lat="41.45477149105822" lon="12.6174886619856"><ele>17.0</ele><time>2026-04-06T09:37:24Z</time></trkpt><trkpt lat="41.45468599274917" lon="12.61755349808396"><ele>17.0</ele><time>2026-04-06T09:37:25Z</time></trkpt><trkpt lat="41.454593626641795" lon="12.617611308845772"><ele>17.0</ele><time>2026-04-06T09:37:26Z</time></trkpt><trkpt lat="41.45449719721452" lon="12.617664773677927"><ele>17.0</ele><time>2026-04-06T09:37:27Z</time></trkpt><trkpt lat="41.4543990090622" lon="12.617718986902235"><ele>17.2</ele><time>2026-04-06T09:37:28Z</time></trkpt><trkpt lat="41.45430048844835" lon="12.617777969039532"><ele>17.4</ele><time>2026-04-06T09:37:29Z</time></trkpt><trkpt lat="41.45420138459018" lon="12.61784008279328"><ele>17.6</ele><time>2026-04-06T09:37:30Z</time></trkpt><trkpt lat="41.45410225464237" lon="12.617899299070073"><ele>17.8</ele><time>2026-04-06T09:37:31Z</time></trkpt><trkpt lat="41.454005113389336" lon="12.617957630860829"><ele>18.0</ele><time>2026-04-06T09:37:32Z</time></trkpt><trkpt lat="41.45391287818582" lon="12.618011360026493"><ele>18.0</ele><time>2026-04-06T09:37:33Z</time></trkpt><trkpt lat="41.4538207608898" lon="12.61806796558764"><ele>18.0</ele><time>2026-04-06T09:37:34Z</time></trkpt><trkpt lat="41.45372751198372" lon="12.618123251765644"><ele>18.0</ele><time>2026-04-06T09:37:35Z</time></trkpt><trkpt lat="41.45363376373035" lon="12.618177941288003"><ele>18.0</ele><time>2026-04-06T09:37:36Z</time></trkpt><trkpt lat="41.45353897193173" lon="12.618234070310455"><ele>18.0</ele><time>2026-04-06T09:37:37Z</time></trkpt><trkpt lat="41.45344382553317" lon="12.618286526898503"><ele>17.4</ele><time>2026-04-06T09:37:38Z</time></trkpt><trkpt lat="41.45334730792427" lon="12.618334367131865"><ele>16.8</ele><time>2026-04-06T09:37:39Z</time></trkpt><trkpt lat="41.4532522048595" lon="12.618384944146104"><ele>16.2</ele><time>2026-04-06T09:37:40Z</time></trkpt><trkpt lat="41.453158169924635" lon="12.618435812449368"><ele>15.6</ele><time>2026-04-06T09:37:41Z</time></trkpt><trkpt lat="41.453074525552786" lon="12.618479935021979"><ele>15.0</ele><time>2026-04-06T09:37:42Z</time></trkpt><trkpt lat="41.453000246368745" lon="12.618517776523145"><ele>14.333333333333334</ele><time>2026-04-06T09:37:43Z</time></trkpt><trkpt lat="41.45292190026053" lon="12.618559319871869"><ele>13.666666666666666</ele><time>2026-04-06T09:37:44Z</time></trkpt><trkpt lat="41.45285546575873" lon="12.618594553263065"><ele>13.0</ele><time>2026-04-06T09:37:45Z</time></trkpt><trkpt lat="41.452786156881984" lon="12.618631882494972"><ele>12.333333333333332</ele><time>2026-04-06T09:37:46Z</time></trkpt><trkpt lat="41.45271431805978" lon="12.618669777341005"><ele>11.666666666666666</ele><time>2026-04-06T09:37:47Z</time></trkpt><trkpt lat="41.452639569897435" lon="12.618707884780676"><ele>11.0</ele><time>2026-04-06T09:37:48Z</time></trkpt><trkpt lat="41.45256174947066" lon="12.618745882758338"><ele>11.666666666666666</ele><time>2026-04-06T09:37:49Z</time></trkpt><trkpt lat="41.45248108901477" lon="12.618787831223852"><ele>12.333333333333332</ele><time>2026-04-06T09:37:50Z</time></trkpt><trkpt lat="41.45239969002664" lon="12.618830601654658"><ele>13.0</ele><time>2026-04-06T09:37:51Z</time></trkpt><trkpt lat="41.452317982734215" lon="12.618874077914468"><ele>13.666666666666666</ele><time>2026-04-06T09:37:52Z</time></trkpt><trkpt lat="41.45223748164673" lon="12.618917596792258"><ele>14.333333333333334</ele><time>2026-04-06T09:37:53Z</time></trkpt><trkpt lat="41.45216420282" lon="12.618958898765946"><ele>15.0</ele><time>2026-04-06T09:37:54Z</time></trkpt><trkpt lat="41.45209728779274" lon="12.618992563117954"><ele>15.0</ele><time>2026-04-06T09:37:55Z</time></trkpt><trkpt lat="41.452032299966234" lon="12.619027778151796"><ele>15.0</ele><time>2026-04-06T09:37:56Z</time></trkpt><trkpt lat="41.45196514245729" lon="12.619063478240344"><ele>15.0</ele><time>2026-04-06T09:37:57Z</time></trkpt><trkpt lat="41.4518950770818" lon="12.619099078131418"><ele>15.0</ele><time>2026-04-06T09:37:58Z</time></trkpt><trkpt lat="41.451822987457675" lon="12.619137705468729"><ele>15.0</ele><time>2026-04-06T09:37:59Z</time></trkpt><trkpt lat="41.45174829656381" lon="12.619177346839255"><ele>15.0</ele><time>2026-04-06T09:38:00Z</time></trkpt><trkpt lat="41.45167537736802" lon="12.619215891292471"><ele>15.0</ele><time>2026-04-06T09:38:01Z</time></trkpt><trkpt lat="41.45159927983308" lon="12.619253235876226"><ele>15.0</ele><time>2026-04-06T09:38:02Z</time></trkpt><trkpt lat="41.45152215162761" lon="12.619287779654444"><ele>15.0</ele><time>2026-04-06T09:38:03Z</time></trkpt><trkpt lat="41.45144692680217" lon="12.619328995442714"><ele>15.0</ele><time>2026-04-06T09:38:04Z</time></trkpt><trkpt lat="41.45137141935039" lon="12.619373090030837"><ele>15.0</ele><time>2026-04-06T09:38:05Z</time></trkpt><trkpt lat="41.45129781598974" lon="12.619410965360627"><ele>15.0</ele><time>2026-04-06T09:38:06Z</time></trkpt><trkpt lat="41.45122516418179" lon="12.619446670156588"><ele>15.0</ele><time>2026-04-06T09:38:07Z</time></trkpt><trkpt lat="41.451155204419614" lon="12.619480038411995"><ele>15.0</ele><time>2026-04-06T09:38:08Z</time></trkpt><trkpt lat="41.45108539341869" lon="12.619513553610766"><ele>15.0</ele><time>2026-04-06T09:38:09Z</time></trkpt><trkpt lat="41.45101219973615" lon="12.619554342034425"><ele>15.0</ele><time>2026-04-06T09:38:10Z</time></trkpt><trkpt lat="41.450949183275554" lon="12.619600875998518"><ele>15.0</ele><time>2026-04-06T09:38:11Z</time></trkpt><trkpt lat="41.450876495911906" lon="12.619669842247976"><ele>15.0</ele><time>2026-04-06T09:38:12Z</time></trkpt><trkpt lat="41.450819377296654" lon="12.619732688572812"><ele>15.333333333333334</ele><time>2026-04-06T09:38:13Z</time></trkpt><trkpt lat="41.45076860317541" lon="12.61978833096259"><ele>15.666666666666668</ele><time>2026-04-06T09:38:14Z</time></trkpt><trkpt lat="41.45067503623759" lon="12.619888583391445"><ele>16.0</ele><time>2026-04-06T09:38:16Z</time></trkpt><trkpt lat="41.45062167716822" lon="12.619940614293691"><ele>16.333333333333336</ele><time>2026-04-06T09:38:17Z</time></trkpt><trkpt lat="41.45056770692608" lon="12.619989259842615"><ele>16.666666666666668</ele><time>2026-04-06T09:38:18Z</time></trkpt><trkpt lat="41.45050053746003" lon="12.620025005719173"><ele>17.0</ele><time>2026-04-06T09:38:19Z</time></trkpt><trkpt lat="41.45042838862674" lon="12.620050724029227"><ele>17.0</ele><time>2026-04-06T09:38:20Z</time></trkpt><trkpt lat="41.450350933201605" lon="12.620052258228519"><ele>17.0</ele><time>2026-04-06T09:38:21Z</time></trkpt><trkpt lat="41.45027265673669" lon="12.620042478589138"><ele>17.0</ele><time>2026-04-06T09:38:22Z</time></trkpt><trkpt lat="41.450192595076786" lon="12.62000924179155"><ele>17.0</ele><time>2026-04-06T09:38:23Z</time></trkpt><trkpt lat="41.45010663554558" lon="12.619974992050526"><ele>17.0</ele><time>2026-04-06T09:38:24Z</time></trkpt><trkpt lat="41.45001881192972" lon="12.619942546425365"><ele>17.0</ele><time>2026-04-06T09:38:25Z</time></trkpt><trkpt lat="41.4499329655242" lon="12.619911339840975"><ele>17.0</ele><time>2026-04-06T09:38:26Z</time></trkpt><trkpt lat="41.449846765709324" lon="12.6198808518691"><ele>17.0</ele><time>2026-04-06T09:38:27Z</time></trkpt><trkpt lat="41.449758144986845" lon="12.619856130529813"><ele>17.0</ele><time>2026-04-06T09:38:28Z</time></trkpt><trkpt lat="41.44966563613698" lon="12.619822543191777"><ele>17.0</ele><time>2026-04-06T09:38:29Z</time></trkpt><trkpt lat="41.44957299221853" lon="12.61979562373533"><ele>17.0</ele><time>2026-04-06T09:38:30Z</time></trkpt><trkpt lat="41.449475278519074" lon="12.61978167739122"><ele>16.6</ele><time>2026-04-06T09:38:31Z</time></trkpt><trkpt lat="41.44938268992559" lon="12.619733316457806"><ele>16.2</ele><time>2026-04-06T09:38:32Z</time></trkpt><trkpt lat="41.44928322155873" lon="12.619698716422116"><ele>15.8</ele><time>2026-04-06T09:38:33Z</time></trkpt><trkpt lat="41.44918015525895" lon="12.61966812782566"><ele>15.4</ele><time>2026-04-06T09:38:34Z</time></trkpt><trkpt lat="41.44908061914612" lon="12.619638225377408"><ele>15.0</ele><time>2026-04-06T09:38:35Z</time></trkpt><trkpt lat="41.448982828102636" lon="12.619611831438027"><ele>15.0</ele><time>2026-04-06T09:38:36Z</time></trkpt><trkpt lat="41.44888178528215" lon="12.619591312869794"><ele>15.0</ele><time>2026-04-06T09:38:37Z</time></trkpt><trkpt lat="41.44877290292045" lon="12.619578715039443"><ele>15.0</ele><time>2026-04-06T09:38:38Z</time></trkpt><trkpt lat="41.44866345019613" lon="12.61957631017718"><ele>15.0</ele><time>2026-04-06T09:38:39Z</time></trkpt><trkpt lat="41.44855329861239" lon="12.619583003962305"><ele>15.0</ele><time>2026-04-06T09:38:40Z</time></trkpt><trkpt lat="41.448443563404155" lon="12.619601374218112"><ele>15.0</ele><time>2026-04-06T09:38:41Z</time></trkpt><trkpt lat="41.44833330427137" lon="12.619624675037173"><ele>15.0</ele><time>2026-04-06T09:38:42Z</time></trkpt><trkpt lat="41.448222236196344" lon="12.61965606006752"><ele>15.0</ele><time>2026-04-06T09:38:43Z</time></trkpt><trkpt lat="41.44811114594178" lon="12.619693230892096"><ele>15.0</ele><time>2026-04-06T09:38:44Z</time></trkpt><trkpt lat="41.448000732857295" lon="12.619728643439732"><ele>14.8</ele><time>2026-04-06T09:38:45Z</time></trkpt><trkpt lat="41.44789300444652" lon="12.619769000792862"><ele>14.6</ele><time>2026-04-06T09:38:46Z</time></trkpt><trkpt lat="41.44778892691258" lon="12.619817913325708"><ele>14.399999999999999</ele><time>2026-04-06T09:38:47Z</time></trkpt><trkpt lat="41.447686693186625" lon="12.619870861936523"><ele>14.2</ele><time>2026-04-06T09:38:48Z</time></trkpt><trkpt lat="41.44759043040689" lon="12.619936314442835"><ele>14.0</ele><time>2026-04-06T09:38:49Z</time></trkpt><trkpt lat="41.44750823753165" lon="12.620035276588082"><ele>14.0</ele><time>2026-04-06T09:38:50Z</time></trkpt><trkpt lat="41.44742769003121" lon="12.620135334943793"><ele>13.999999999999998</ele><time>2026-04-06T09:38:51Z</time></trkpt><trkpt lat="41.44734112566523" lon="12.620226514890026"><ele>13.999999999999998</ele><time>2026-04-06T09:38:52Z</time></trkpt><trkpt lat="41.4472718804216" lon="12.62033721288384"><ele>14.0</ele><time>2026-04-06T09:38:53Z</time></trkpt><trkpt lat="41.44721122885992" lon="12.62043324375409"><ele>14.0</ele><time>2026-04-06T09:38:54Z</time></trkpt><trkpt lat="41.44715982045605" lon="12.62051548751323"><ele>13.500000000000002</ele><time>2026-04-06T09:38:55Z</time></trkpt><trkpt lat="41.447110691401335" lon="12.6205897833788"><ele>13.0</ele><time>2026-04-06T09:38:56Z</time></trkpt><trkpt lat="41.44706579086316" lon="12.620655044728593"><ele>12.5</ele><time>2026-04-06T09:38:57Z</time></trkpt><trkpt lat="41.44701894524471" lon="12.620721664423549"><ele>12.0</ele><time>2026-04-06T09:38:58Z</time></trkpt><trkpt lat="41.446974407044934" lon="12.620787320481034"><ele>11.5</ele><time>2026-04-06T09:38:59Z</time></trkpt><trkpt lat="41.44689375571359" lon="12.620904892570875"><ele>11.0</ele><time>2026-04-06T09:39:01Z</time></trkpt><trkpt lat="41.446844960942514" lon="12.62097812685017"><ele>11.0</ele><time>2026-04-06T09:39:02Z</time></trkpt><trkpt lat="41.446794916279266" lon="12.62104710324301"><ele>11.0</ele><time>2026-04-06T09:39:03Z</time></trkpt><trkpt lat="41.446750237840206" lon="12.62111129172093"><ele>11.0</ele><time>2026-04-06T09:39:04Z</time></trkpt><trkpt lat="41.44670107577493" lon="12.62118056753136"><ele>11.0</ele><time>2026-04-06T09:39:05Z</time></trkpt><trkpt lat="41.446621541960724" lon="12.621290393863996"><ele>11.0</ele><time>2026-04-06T09:39:07Z</time></trkpt><trkpt lat="41.446531593772896" lon="12.621405472021747"><ele>11.0</ele><time>2026-04-06T09:39:09Z</time></trkpt><trkpt lat="41.44648780873948" lon="12.621472417683403"><ele>10.8</ele><time>2026-04-06T09:39:10Z</time></trkpt><trkpt lat="41.446411548720846" lon="12.621584669257468"><ele>10.600000000000001</ele><time>2026-04-06T09:39:12Z</time></trkpt><trkpt lat="41.44633979467824" lon="12.621697124708122"><ele>10.4</ele><time>2026-04-06T09:39:14Z</time></trkpt><trkpt lat="41.44628718987202" lon="12.621777383855088"><ele>10.2</ele><time>2026-04-06T09:39:16Z</time></trkpt><trkpt lat="41.44621128775914" lon="12.621904137908528"><ele>10.0</ele><time>2026-04-06T09:39:18Z</time></trkpt><trkpt lat="41.446174943417" lon="12.621982618144676"><ele>10.4</ele><time>2026-04-06T09:39:19Z</time></trkpt><trkpt lat="41.446121890245536" lon="12.622120488270143"><ele>10.8</ele><time>2026-04-06T09:39:21Z</time></trkpt><trkpt lat="41.44609538471491" lon="12.622200088345112"><ele>11.2</ele><time>2026-04-06T09:39:22Z</time></trkpt><trkpt lat="41.44609036656813" lon="12.62234000423071"><ele>11.6</ele><time>2026-04-06T09:39:24Z</time></trkpt><trkpt lat="41.44602454616973" lon="12.622401315856033"><ele>12.0</ele><time>2026-04-06T09:39:25Z</time></trkpt><trkpt lat="41.44598117127057" lon="12.622526788850113"><ele>12.0</ele><time>2026-04-06T09:39:27Z</time></trkpt><trkpt lat="41.445955838434664" lon="12.622615999649724"><ele>12.0</ele><time>2026-04-06T09:39:29Z</time></trkpt><trkpt lat="41.44591065465451" lon="12.622705070781063"><ele>12.0</ele><time>2026-04-06T09:39:32Z</time></trkpt><trkpt lat="41.445840548004604" lon="12.622669527634937"><ele>12.0</ele><time>2026-04-06T09:39:35Z</time></trkpt><trkpt lat="41.44576142524979" lon="12.622627229293684"><ele>12.0</ele><time>2026-04-06T09:39:38Z</time></trkpt><trkpt lat="41.445700724807764" lon="12.622566461894957"><ele>12.0</ele><time>2026-04-06T09:39:40Z</time></trkpt><trkpt lat="41.44562954361897" lon="12.622540433442083"><ele>12.0</ele><time>2026-04-06T09:39:42Z</time></trkpt><trkpt lat="41.445557231465436" lon="12.622493020591737"><ele>12.0</ele><time>2026-04-06T09:39:44Z</time></trkpt><trkpt lat="41.4454767770942" lon="12.622488613904373"><ele>12.0</ele><time>2026-04-06T09:39:46Z</time></trkpt><trkpt lat="41.44541048664529" lon="12.622492284217335"><ele>12.0</ele><time>2026-04-06T09:39:48Z</time></trkpt><trkpt lat="41.445340595892" lon="12.622486225049684"><ele>12.0</ele><time>2026-04-06T09:39:52Z</time></trkpt><trkpt lat="41.44531774139232" lon="12.622656920112034"><ele>12.0</ele><time>2026-04-06T09:40:09Z</time></trkpt><trkpt lat="41.44530667542386" lon="12.622757685527835"><ele>10.2</ele><time>2026-04-06T09:40:10Z</time></trkpt><trkpt lat="41.44530106742879" lon="12.622867087584112"><ele>8.399999999999999</ele><time>2026-04-06T09:40:12Z</time></trkpt><trkpt lat="41.445361784279896" lon="12.62297935831119"><ele>6.6</ele><time>2026-04-06T09:40:14Z</time></trkpt><trkpt lat="41.44535818512816" lon="12.623091097962382"><ele>4.8</ele><time>2026-04-06T09:40:16Z</time></trkpt><trkpt lat="41.445350822383624" lon="12.623211400012568"><ele>3.0</ele><time>2026-04-06T09:40:18Z</time></trkpt><trkpt lat="41.445341864997566" lon="12.623338610564423"><ele>3.0</ele><time>2026-04-06T09:40:20Z</time></trkpt><trkpt lat="41.44534013078428" lon="12.623455780428106"><ele>3.0</ele><time>2026-04-06T09:40:22Z</time></trkpt><trkpt lat="41.44533750567941" lon="12.623548999167014"><ele>3.0</ele><time>2026-04-06T09:40:24Z</time></trkpt><trkpt lat="41.44532625161981" lon="12.623673845953046"><ele>3.0</ele><time>2026-04-06T09:40:26Z</time></trkpt><trkpt lat="41.445317278223825" lon="12.623793307844783"><ele>3.0</ele><time>2026-04-06T09:40:28Z</time></trkpt><trkpt lat="41.44530729141117" lon="12.623923935747445"><ele>3.0</ele><time>2026-04-06T09:40:30Z</time></trkpt><trkpt lat="41.44531554475182" lon="12.624068587960656"><ele>3.1666666666666665</ele><time>2026-04-06T09:40:32Z</time></trkpt><trkpt lat="41.445300792129345" lon="12.624220872444235"><ele>3.333333333333333</ele><time>2026-04-06T09:40:34Z</time></trkpt><trkpt lat="41.44528912272745" lon="12.62437867478198"><ele>3.5</ele><time>2026-04-06T09:40:36Z</time></trkpt><trkpt lat="41.445285839147466" lon="12.624471828152478"><ele>3.6666666666666665</ele><time>2026-04-06T09:40:37Z</time></trkpt><trkpt lat="41.44527207015091" lon="12.624558743987341"><ele>3.833333333333333</ele><time>2026-04-06T09:40:38Z</time></trkpt><trkpt lat="41.445264513554065" lon="12.624646180651453"><ele>4.0</ele><time>2026-04-06T09:40:39Z</time></trkpt><trkpt lat="41.44526540493272" lon="12.624810972898102"><ele>4.0</ele><time>2026-04-06T09:40:41Z</time></trkpt><trkpt lat="41.445258578877365" lon="12.624978578010042"><ele>4.0</ele><time>2026-04-06T09:40:43Z</time></trkpt><trkpt lat="41.445248405733714" lon="12.625140375886616"><ele>4.0</ele><time>2026-04-06T09:40:45Z</time></trkpt><trkpt lat="41.44524565449597" lon="12.625301524084106"><ele>4.0</ele><time>2026-04-06T09:40:47Z</time></trkpt><trkpt lat="41.4452408178686" lon="12.625459611773639"><ele>4.0</ele><time>2026-04-06T09:40:49Z</time></trkpt><trkpt lat="41.445239944278626" lon="12.625604821811113"><ele>4.0</ele><time>2026-04-06T09:40:51Z</time></trkpt><trkpt lat="41.44522896898215" lon="12.625764079846812"><ele>4.0</ele><time>2026-04-06T09:40:53Z</time></trkpt><trkpt lat="41.445217891666026" lon="12.625913809237622"><ele>4.0</ele><time>2026-04-06T09:40:55Z</time></trkpt><trkpt lat="41.44521789357444" lon="12.626053102502187"><ele>4.0</ele><time>2026-04-06T09:40:57Z</time></trkpt><trkpt lat="41.44521717293315" lon="12.626173596206879"><ele>4.0</ele><time>2026-04-06T09:40:59Z</time></trkpt><trkpt lat="41.44521053527366" lon="12.626295385416249"><ele>4.0</ele><time>2026-04-06T09:41:01Z</time></trkpt><trkpt lat="41.445205423781154" lon="12.626433427037545"><ele>4.0</ele><time>2026-04-06T09:41:03Z</time></trkpt><trkpt lat="41.44519484436201" lon="12.626591066183204"><ele>4.0</ele><time>2026-04-06T09:41:05Z</time></trkpt><trkpt lat="41.445182717276" lon="12.62675137159826"><ele>4.0</ele><time>2026-04-06T09:41:07Z</time></trkpt><trkpt lat="41.445186104460255" lon="12.626837343195508"><ele>4.25</ele><time>2026-04-06T09:41:08Z</time></trkpt><trkpt lat="41.44517851555324" lon="12.627000362963733"><ele>4.5</ele><time>2026-04-06T09:41:10Z</time></trkpt><trkpt lat="41.44517042429987" lon="12.627163098363546"><ele>4.75</ele><time>2026-04-06T09:41:12Z</time></trkpt><trkpt lat="41.44516430613818" lon="12.627312439016105"><ele>5.0</ele><time>2026-04-06T09:41:14Z</time></trkpt><trkpt lat="41.44515142755955" lon="12.62744997261234"><ele>5.0</ele><time>2026-04-06T09:41:16Z</time></trkpt><trkpt lat="41.44514539056818" lon="12.627535048567918"><ele>5.0</ele><time>2026-04-06T09:41:19Z</time></trkpt><trkpt lat="41.44514417388552" lon="12.627630318875836"><ele>5.0</ele><time>2026-04-06T09:41:21Z</time></trkpt><trkpt lat="41.44513102206746" lon="12.627767926834526"><ele>5.0</ele><time>2026-04-06T09:41:23Z</time></trkpt><trkpt lat="41.445129872398844" lon="12.627919307940422"><ele>5.0</ele><time>2026-04-06T09:41:25Z</time></trkpt><trkpt lat="41.445124704117354" lon="12.628037376842412"><ele>5.0</ele><time>2026-04-06T09:41:27Z</time></trkpt><trkpt lat="41.445120627351784" lon="12.628142996271512"><ele>4.8</ele><time>2026-04-06T09:41:29Z</time></trkpt><trkpt lat="41.44511010190721" lon="12.628292526819036"><ele>4.6</ele><time>2026-04-06T09:41:31Z</time></trkpt><trkpt lat="41.445104992335345" lon="12.628424172271895"><ele>4.4</ele><time>2026-04-06T09:41:33Z</time></trkpt><trkpt lat="41.44510219086523" lon="12.628546898055708"><ele>4.2</ele><time>2026-04-06T09:41:35Z</time></trkpt><trkpt lat="41.445098828760656" lon="12.628691441936782"><ele>4.0</ele><time>2026-04-06T09:41:37Z</time></trkpt><trkpt lat="41.44509074726735" lon="12.628803350731607"><ele>4.333333333333333</ele><time>2026-04-06T09:41:39Z</time></trkpt><trkpt lat="41.44508109179333" lon="12.628912655434558"><ele>4.666666666666666</ele><time>2026-04-06T09:41:41Z</time></trkpt><trkpt lat="41.44507481119579" lon="12.629052672503091"><ele>5.0</ele><time>2026-04-06T09:41:43Z</time></trkpt><trkpt lat="41.44507224217275" lon="12.6291753517944"><ele>5.333333333333333</ele><time>2026-04-06T09:41:45Z</time></trkpt><trkpt lat="41.44506513414942" lon="12.629264127461829"><ele>5.666666666666667</ele><time>2026-04-06T09:41:47Z</time></trkpt><trkpt lat="41.4450610638061" lon="12.62936126029705"><ele>6.0</ele><time>2026-04-06T09:41:50Z</time></trkpt><trkpt lat="41.445054168830495" lon="12.629481695662188"><ele>6.5</ele><time>2026-04-06T09:41:52Z</time></trkpt><trkpt lat="41.44505139702007" lon="12.62959799238859"><ele>7.0</ele><time>2026-04-06T09:41:54Z</time></trkpt><trkpt lat="41.44506430175317" lon="12.629714832487531"><ele>7.5</ele><time>2026-04-06T09:41:58Z</time></trkpt><trkpt lat="41.44505696415974" lon="12.629825343767923"><ele>8.0</ele><time>2026-04-06T09:42:01Z</time></trkpt><trkpt lat="41.4450612571451" lon="12.629914186404957"><ele>8.5</ele><time>2026-04-06T09:42:03Z</time></trkpt><trkpt lat="41.44499483454862" lon="12.629966912494002"><ele>9.0</ele><time>2026-04-06T09:42:05Z</time></trkpt><trkpt lat="41.44493002338434" lon="12.630060873381542"><ele>9.0</ele><time>2026-04-06T09:42:09Z</time></trkpt><trkpt lat="41.44488112895366" lon="12.630201764718251"><ele>9.0</ele><time>2026-04-06T09:42:11Z</time></trkpt><trkpt lat="41.44483848610826" lon="12.630264272854815"><ele>9.0</ele><time>2026-04-06T09:42:12Z</time></trkpt><trkpt lat="41.44477323935038" lon="12.63037441194522"><ele>9.0</ele><time>2026-04-06T09:42:14Z</time></trkpt><trkpt lat="41.444738158250466" lon="12.630459659073212"><ele>9.0</ele><time>2026-04-06T09:42:16Z</time></trkpt><trkpt lat="41.44470899492647" lon="12.630547698367836"><ele>9.0</ele><time>2026-04-06T09:42:18Z</time></trkpt><trkpt lat="41.44468578945166" lon="12.630635169220046"><ele>8.166666666666666</ele><time>2026-04-06T09:42:20Z</time></trkpt><trkpt lat="41.44466685077372" lon="12.630738479709514"><ele>7.333333333333333</ele><time>2026-04-06T09:42:23Z</time></trkpt><trkpt lat="41.4446731883921" lon="12.630823511693537"><ele>6.5</ele><time>2026-04-06T09:42:27Z</time></trkpt><trkpt lat="41.444693085730044" lon="12.630694004101542"><ele>5.666666666666666</ele><time>2026-04-06T09:42:36Z</time></trkpt><trkpt lat="41.44470134697962" lon="12.630566869958534"><ele>4.833333333333333</ele><time>2026-04-06T09:42:38Z</time></trkpt><trkpt lat="41.444732052031476" lon="12.630452530010801"><ele>4.0</ele><time>2026-04-06T09:42:40Z</time></trkpt><trkpt lat="41.444782695128815" lon="12.630384176254173"><ele>5.0</ele><time>2026-04-06T09:42:42Z</time></trkpt><trkpt lat="41.44483143586183" lon="12.63029196905765"><ele>6.0</ele><time>2026-04-06T09:42:45Z</time></trkpt><trkpt lat="41.44486074604462" lon="12.630207010467348"><ele>7.0</ele><time>2026-04-06T09:42:47Z</time></trkpt><trkpt lat="41.44492042162925" lon="12.630099533578562"><ele>8.0</ele><time>2026-04-06T09:42:49Z</time></trkpt><trkpt lat="41.44498656428953" lon="12.629981370376015"><ele>9.0</ele><time>2026-04-06T09:42:51Z</time></trkpt><trkpt lat="41.44505590285481" lon="12.62985926378053"><ele>9.0</ele><time>2026-04-06T09:42:53Z</time></trkpt><trkpt lat="41.4450982285909" lon="12.629784654671461"><ele>9.0</ele><time>2026-04-06T09:42:54Z</time></trkpt><trkpt lat="41.44533606490441" lon="12.630023263738046"><ele>9.0</ele><time>2026-04-06T09:42:55Z</time></trkpt><trkpt lat="41.44551829419374" lon="12.629079490229412"><ele>9.0</ele><time>2026-04-06T09:43:02Z</time></trkpt><trkpt lat="41.445559359875276" lon="12.628985343033671"><ele>9.0</ele><time>2026-04-06T09:43:03Z</time></trkpt><trkpt lat="41.44559537906013" lon="12.628894781615005"><ele>9.0</ele><time>2026-04-06T09:43:04Z</time></trkpt><trkpt lat="41.44562393018728" lon="12.628792039682173"><ele>9.0</ele><time>2026-04-06T09:43:05Z</time></trkpt><trkpt lat="41.44565780227906" lon="12.628699487398132"><ele>9.0</ele><time>2026-04-06T09:43:06Z</time></trkpt><trkpt lat="41.44570138256121" lon="12.628548892713415"><ele>9.0</ele><time>2026-04-06T09:43:08Z</time></trkpt><trkpt lat="41.44572765788464" lon="12.628441067628865"><ele>9.5</ele><time>2026-04-06T09:43:10Z</time></trkpt><trkpt lat="41.44575878945875" lon="12.628338681480699"><ele>10.0</ele><time>2026-04-06T09:43:14Z</time></trkpt><trkpt lat="41.44576021163367" lon="12.628221043324961"><ele>10.5</ele><time>2026-04-06T09:43:17Z</time></trkpt><trkpt lat="41.44577081201817" lon="12.628130477440502"><ele>11.0</ele><time>2026-04-06T09:43:19Z</time></trkpt><trkpt lat="41.44580074581499" lon="12.628032392565572"><ele>11.5</ele><time>2026-04-06T09:43:22Z</time></trkpt><trkpt lat="41.4458087717827" lon="12.627938083217312"><ele>12.0</ele><time>2026-04-06T09:43:24Z</time></trkpt><trkpt lat="41.445834259686464" lon="12.627821492751364"><ele>11.833333333333334</ele><time>2026-04-06T09:43:27Z</time></trkpt><trkpt lat="41.44583492264698" lon="12.62773491815795"><ele>11.666666666666666</ele><time>2026-04-06T09:43:29Z</time></trkpt><trkpt lat="41.44585316515932" lon="12.627612673540908"><ele>11.5</ele><time>2026-04-06T09:43:31Z</time></trkpt><trkpt lat="41.445872369389036" lon="12.627488324475316"><ele>11.333333333333332</ele><time>2026-04-06T09:43:33Z</time></trkpt><trkpt lat="41.44588449674204" lon="12.627375612720613"><ele>11.166666666666666</ele><time>2026-04-06T09:43:35Z</time></trkpt><trkpt lat="41.445892466602146" lon="12.627291860669782"><ele>11.0</ele><time>2026-04-06T09:43:36Z</time></trkpt><trkpt lat="41.44592118067921" lon="12.627141203430682"><ele>11.0</ele><time>2026-04-06T09:43:38Z</time></trkpt><trkpt lat="41.445942173625326" lon="12.62705437034139"><ele>11.0</ele><time>2026-04-06T09:43:39Z</time></trkpt><trkpt lat="41.44594894351099" lon="12.62688767877108"><ele>11.0</ele><time>2026-04-06T09:43:41Z</time></trkpt><trkpt lat="41.44594575363949" lon="12.626802941616065"><ele>11.0</ele><time>2026-04-06T09:43:42Z</time></trkpt><trkpt lat="41.445936967525306" lon="12.626655867184477"><ele>11.0</ele><time>2026-04-06T09:43:44Z</time></trkpt><trkpt lat="41.4459287579292" lon="12.626568025260303"><ele>11.0</ele><time>2026-04-06T09:43:46Z</time></trkpt><trkpt lat="41.44591922272604" lon="12.626474643645508"><ele>10.600000000000001</ele><time>2026-04-06T09:43:49Z</time></trkpt><trkpt lat="41.44595133228261" lon="12.626395194059628"><ele>10.200000000000001</ele><time>2026-04-06T09:43:52Z</time></trkpt><trkpt lat="41.44609375086458" lon="12.626452656286387"><ele>9.8</ele><time>2026-04-06T09:44:00Z</time></trkpt><trkpt lat="41.44614233887843" lon="12.626556416133473"><ele>9.4</ele><time>2026-04-06T09:44:02Z</time></trkpt><trkpt lat="41.44619978812442" lon="12.626646213325358"><ele>9.0</ele><time>2026-04-06T09:44:04Z</time></trkpt><trkpt lat="41.446267522312255" lon="12.626759308425266"><ele>9.2</ele><time>2026-04-06T09:44:06Z</time></trkpt><trkpt lat="41.44631630180036" lon="12.626816269308943"><ele>9.4</ele><time>2026-04-06T09:44:07Z</time></trkpt><trkpt lat="41.44639986929664" lon="12.626924557479457"><ele>9.6</ele><time>2026-04-06T09:44:09Z</time></trkpt><trkpt lat="41.44647849040622" lon="12.627001925324564"><ele>9.8</ele><time>2026-04-06T09:44:11Z</time></trkpt><trkpt lat="41.446567447860446" lon="12.62706540442688"><ele>10.0</ele><time>2026-04-06T09:44:13Z</time></trkpt><trkpt lat="41.44668965401619" lon="12.627107358656172"><ele>10.5</ele><time>2026-04-06T09:44:15Z</time></trkpt><trkpt lat="41.4467589964675" lon="12.627129174397318"><ele>11.0</ele><time>2026-04-06T09:44:16Z</time></trkpt><trkpt lat="41.44682805070646" lon="12.627165461536652"><ele>11.5</ele><time>2026-04-06T09:44:17Z</time></trkpt><trkpt lat="41.44688813605342" lon="12.627205341102323"><ele>12.0</ele><time>2026-04-06T09:44:18Z</time></trkpt><trkpt lat="41.44694701550324" lon="12.62724428510278"><ele>12.499999999999998</ele><time>2026-04-06T09:44:19Z</time></trkpt><trkpt lat="41.44705570716434" lon="12.627301475083826"><ele>13.0</ele><time>2026-04-06T09:44:21Z</time></trkpt><trkpt lat="41.44711742233207" lon="12.627353992017992"><ele>12.999999999999998</ele><time>2026-04-06T09:44:22Z</time></trkpt><trkpt lat="41.44721082943727" lon="12.627404283786342"><ele>13.0</ele><time>2026-04-06T09:44:24Z</time></trkpt><trkpt lat="41.44728980036894" lon="12.627469946124057"><ele>13.0</ele><time>2026-04-06T09:44:26Z</time></trkpt><trkpt lat="41.44735855071727" lon="12.627518128731987"><ele>13.0</ele><time>2026-04-06T09:44:28Z</time></trkpt><trkpt lat="41.447433125163755" lon="12.627554297556673"><ele>12.999999999999998</ele><time>2026-04-06T09:44:30Z</time></trkpt><trkpt lat="41.44752254746397" lon="12.62760504776287"><ele>13.0</ele><time>2026-04-06T09:44:32Z</time></trkpt><trkpt lat="41.4476218422618" lon="12.627675569060983"><ele>12.999999999999998</ele><time>2026-04-06T09:44:34Z</time></trkpt><trkpt lat="41.447724953428924" lon="12.627752788450083"><ele>13.0</ele><time>2026-04-06T09:44:36Z</time></trkpt><trkpt lat="41.44778102325838" lon="12.627796724608743"><ele>13.0</ele><time>2026-04-06T09:44:37Z</time></trkpt><trkpt lat="41.44783787858114" lon="12.627839418319065"><ele>13.0</ele><time>2026-04-06T09:44:38Z</time></trkpt><trkpt lat="41.44789761623796" lon="12.62788363988789"><ele>12.999999999999998</ele><time>2026-04-06T09:44:39Z</time></trkpt><trkpt lat="41.44794900972891" lon="12.627936133445948"><ele>13.0</ele><time>2026-04-06T09:44:40Z</time></trkpt><trkpt lat="41.44803556112602" lon="12.628022807085644"><ele>11.999999999999998</ele><time>2026-04-06T09:44:42Z</time></trkpt><trkpt lat="41.44811023247845" lon="12.628106441899673"><ele>11.0</ele><time>2026-04-06T09:44:44Z</time></trkpt><trkpt lat="41.44816609920282" lon="12.628153802282398"><ele>10.0</ele><time>2026-04-06T09:44:45Z</time></trkpt><trkpt lat="41.448207081504535" lon="12.628223813396238"><ele>9.0</ele><time>2026-04-06T09:44:46Z</time></trkpt><trkpt lat="41.44829968625249" lon="12.628321147101214"><ele>8.0</ele><time>2026-04-06T09:44:48Z</time></trkpt><trkpt lat="41.448361137130064" lon="12.62841813734912"><ele>7.0</ele><time>2026-04-06T09:44:50Z</time></trkpt><trkpt lat="41.448406096470535" lon="12.62852297138028"><ele>7.000000000000001</ele><time>2026-04-06T09:44:52Z</time></trkpt><trkpt lat="41.44844099182219" lon="12.628622663977469"><ele>7.0</ele><time>2026-04-06T09:44:54Z</time></trkpt><trkpt lat="41.4484377371267" lon="12.62872565400902"><ele>7.0</ele><time>2026-04-06T09:44:56Z</time></trkpt><trkpt lat="41.44838578206539" lon="12.628810239033125"><ele>7.0</ele><time>2026-04-06T09:44:58Z</time></trkpt><trkpt lat="41.44834101558649" lon="12.628891207258322"><ele>7.000000000000001</ele><time>2026-04-06T09:45:00Z</time></trkpt><trkpt lat="41.448304409868605" lon="12.628970856758686"><ele>7.0</ele><time>2026-04-06T09:45:02Z</time></trkpt><trkpt lat="41.44826057489037" lon="12.629049393798905"><ele>7.199999999999999</ele><time>2026-04-06T09:45:04Z</time></trkpt><trkpt lat="41.44822577282395" lon="12.629135180475387"><ele>7.3999999999999995</ele><time>2026-04-06T09:45:07Z</time></trkpt><trkpt lat="41.44822457335089" lon="12.629238881758122"><ele>7.6000000000000005</ele><time>2026-04-06T09:45:12Z</time></trkpt><trkpt lat="41.448238947850065" lon="12.629383102458121"><ele>7.800000000000001</ele><time>2026-04-06T09:45:14Z</time></trkpt><trkpt lat="41.448123731403044" lon="12.629495495370712"><ele>8.0</ele><time>2026-04-06T09:45:16Z</time></trkpt><trkpt lat="41.448058060601" lon="12.629600202880885"><ele>7.999999999999999</ele><time>2026-04-06T09:45:18Z</time></trkpt><trkpt lat="41.44801033514375" lon="12.629676537104416"><ele>8.0</ele><time>2026-04-06T09:45:20Z</time></trkpt><trkpt lat="41.4479633214783" lon="12.629742324810811"><ele>8.0</ele><time>2026-04-06T09:45:22Z</time></trkpt><trkpt lat="41.44793423091223" lon="12.629841686622765"><ele>8.0</ele><time>2026-04-06T09:45:26Z</time></trkpt><trkpt lat="41.447901043534195" lon="12.62993379077515"><ele>7.999999999999999</ele><time>2026-04-06T09:45:32Z</time></trkpt><trkpt lat="41.44801164730194" lon="12.630037400124166"><ele>8.0</ele><time>2026-04-06T09:45:37Z</time></trkpt><trkpt lat="41.44809778487579" lon="12.630124773170015"><ele>8.333333333333332</ele><time>2026-04-06T09:45:39Z</time></trkpt><trkpt lat="41.448159405003786" lon="12.630193542827504"><ele>8.666666666666666</ele><time>2026-04-06T09:45:41Z</time></trkpt><trkpt lat="41.44821078316804" lon="12.630245695833418"><ele>9.0</ele><time>2026-04-06T09:45:44Z</time></trkpt><trkpt lat="41.44822894204518" lon="12.630336483220349"><ele>9.333333333333334</ele><time>2026-04-06T09:45:47Z</time></trkpt><trkpt lat="41.448160028720096" lon="12.63044273031239"><ele>9.666666666666668</ele><time>2026-04-06T09:45:49Z</time></trkpt><trkpt lat="41.44810838426424" lon="12.630506412048291"><ele>10.0</ele><time>2026-04-06T09:45:51Z</time></trkpt><trkpt lat="41.448066545380705" lon="12.630598134867352"><ele>10.0</ele><time>2026-04-06T09:45:54Z</time></trkpt><trkpt lat="41.44804908081864" lon="12.630679495166362"><ele>10.0</ele><time>2026-04-06T09:45:58Z</time></trkpt><trkpt lat="41.448158934410294" lon="12.630781437763613"><ele>10.0</ele><time>2026-04-06T09:46:00Z</time></trkpt><trkpt lat="41.44825583302372" lon="12.630866926695333"><ele>10.0</ele><time>2026-04-06T09:46:01.999Z</time></trkpt><trkpt lat="41.44834038398821" lon="12.630942091177022"><ele>10.0</ele><time>2026-04-06T09:46:04Z</time></trkpt><trkpt lat="41.448411585660025" lon="12.63100241578475"><ele>10.0</ele><time>2026-04-06T09:46:06Z</time></trkpt><trkpt lat="41.44848301063355" lon="12.63105146180533"><ele>10.0</ele><time>2026-04-06T09:46:08Z</time></trkpt><trkpt lat="41.44850926792138" lon="12.631144524085324"><ele>6.0</ele><time>2026-04-06T09:46:10Z</time></trkpt></trkseg></trk></gpx>